ECMWFFLT2_con_mucape_000.txt.gz
CAPE
0 0 0 0 0 0 0 0 0 0 0 0 12 7 18 34 23 4 19 0 2 0 0 15 44 27 11 2 5 0 32 413 1092 1074 1363 1795 1836 2016 2026 2019 1770 1934 1834 2056 2094 2149 1954 1906 2118 2309 2556 3082 3140 2948 3505 4348 4648 4026 3781 4339 4552 4574 4738
0 0 0 0 0 0 0 0 0 0 0 0 14 13 29 29 6 2 0 5 15 0 0 5 0 0 0 0 0 0 0 216 1022 1153 1400 1747 1754 1924 2176 2176 2096 2075 2014 2219 2070 1710 1722 1812 1984 2410 2694 3161 3683 3614 3712 4145 4437 4176 3754 4315 4845 4810 4841
0 0 0 0 0 0 0 0 0 0 0 0 0 16 12 19 5 0 0 6 19 0 0 2 0 0 0 0 0 0 0 84 918 1050 1430 1649 1660 1740 2095 2186 2244 2289 2192 2283 2180 1426 1381 1833 2190 2495 3050 3396 3720 3957 3785 3186 3603 3870 4020 3913 4563 5182 5322
0 0 0 0 0 0 0 0 0 0 0 0 5 0 0 5 10 3 0 1 8 0 0 1 0 1 0 1 0 4 1 81 995 1054 1276 1610 1766 1720 1830 2018 2368 2495 2240 1875 1628 1262 1132 1362 2167 2572 2936 3004 2880 3469 3894 3469 2992 3942 4024 3716 4516 5152 5058
0 0 0 0 0 0 0 0 0 0 0 0 0 2 0 0 0 1 2 0 0 0 0 0 0 0 0 0 0 7 9 0 20 1210 1290 1489 1914 1879 1924 1981 2260 2549 2258 1578 1096 1352 1186 1305 2137 2460 2274 2566 2437 2586 3182 3436 3258 3572 3834 3998 4416 5130 4957
0 0 0 0 0 0 0 0 0 0 0 0 0 10 5 0 0 0 0 0 0 8 0 0 0 0 0 0 0 0 0 1 8 81 1510 1516 1922 2140 2169 2164 2024 2048 2238 1836 1211 1359 1456 1363 1895 2478 2096 2164 2321 2347 2530 3177 3078 3283 3364 3952 4405 5149 5116
0 0 0 0 0 0 0 0 0 0 0 0 0 0 4 0 0 0 0 0 0 0 0 0 0 0 0 0 0 0 0 1 0 26 1031 1806 2281 2410 2282 2246 2003 1872 2023 2154 1691 1561 1926 1848 2111 2458 2462 2135 2314 2452 2374 2966 3320 3235 3070 3306 4320 5332 5111
0 0 0 0 0 0 0 0 0 0 0 0 0 0 0 0 0 4 6 6 0 0 24 2 0 0 0 0 0 0 0 4 0 137 1624 2103 2550 2829 2458 2140 1913 1957 1823 2135 2714 2501 2854 2767 2744 2767 2932 2860 2499 2651 2839 3008 3475 3504 3313 2995 3988 5094 5072
0 0 0 0 0 0 0 0 0 0 0 0 0 3 0 0 14 2 6 0 0 0 10 144 233 41 0 0 0 0 202 558 512 1368 2791 2180 2568 2668 2296 2195 2068 1846 1652 2043 2867 3078 3605 3464 3058 3150 3164 3313 2949 3005 3194 3180 3381 3552 3578 3113 3128 4574 4932
0 0 0 0 0 0 0 0 0 0 0 0 0 0 0 0 21 22 17 0 6 2 12 0 0 0 0 0 0 0 0 331 757 668 3318 3355 2820 3018 2760 2413 2220 2162 2604 3048 3500 3746 4125 3870 3455 3630 3808 3647 3491 3570 3725 3581 3508 3707 3751 3603 3141 3750 4565
0 0 0 0 0 0 0 0 0 0 0 0 0 0 0 0 5 0 0 11 36 11 1 0 0 0 0 0 0 0 0 890 1639 3255 3539 3150 3000 3042 2699 2747 2706 3122 3474 3819 4148 4556 4498 3934 3834 3872 3907 3889 3771 4034 4070 3781 3801 3956 4083 3989 3888 3586 4255
0 0 0 0 0 0 0 0 0 0 0 0 0 0 0 0 12 4 0 38 9 2 18 0 0 0 0 0 0 0 0 0 215 2156 3792 2481 2753 2762 2968 3058 3114 3456 3956 4520 4906 4946 4538 4329 4378 4374 4206 3905 3960 4262 4252 3996 3858 3984 4140 4274 4310 4425 4885
0 0 0 0 0 0 0 0 0 0 0 0 0 0 0 0 0 0 2 92 0 0 0 0 0 0 0 0 0 0 0 0 0 1830 3403 2594 2415 2746 2793 3293 3668 4033 4419 4675 4731 4824 4684 4394 4484 4507 4518 4410 4397 4495 4310 4256 3985 4020 4214 4545 4872 4858 4958
0 0 0 0 0 0 0 0 0 0 0 0 0 0 0 0 0 0 0 21 0 0 0 0 0 0 0 0 0 0 0 0 47 1872 3428 2552 2494 2468 2576 3087 3499 3880 4120 4681 5027 5070 5037 4720 4842 4576 4659 4772 4661 4669 4536 4441 4337 4082 4235 4590 4962 4578 4334
9 0 0 0 0 0 0 0 0 0 0 0 0 0 0 0 0 0 0 0 0 0 0 0 0 0 0 0 0 0 0 0 0 839 2465 2517 2438 2412 2616 3040 3318 3808 4023 4357 4896 5008 5070 4991 5011 4852 5014 4948 4842 4504 4434 4430 4710 4360 4364 4800 5044 4647 4016
33 9 0 0 0 0 0 0 0 0 0 0 0 0 0 0 0 0 0 0 0 0 0 0 0 0 0 0 0 0 0 0 65 1634 2468 2569 3032 2754 2677 2926 3216 3668 3634 4175 4788 4980 4949 4992 5159 5153 5236 5149 4972 4489 4566 4538 4596 4539 4508 4844 4715 4722 4387
86 18 0 0 0 0 0 0 0 0 0 0 0 0 0 0 0 0 0 0 0 0 0 0 0 0 0 0 0 0 0 1882 2870 2523 2725 2845 3148 3272 3203 3214 3335 3419 3434 4306 4775 4616 4555 4716 5132 5044 5270 5101 5205 4948 4907 4738 4635 4682 4634 4600 4465 4676 4315
123 72 3 0 0 3 2 0 0 0 0 0 0 0 0 0 0 0 0 0 0 0 0 0 0 0 0 0 217 1538 2066 1960 1747 1836 1747 2037 2812 3167 3188 3244 3216 3259 3554 3708 3888 4035 4346 4602 4532 4646 4936 5000 5128 4874 4758 4762 4652 4775 4828 4688 4350 4464 3816
118 133 96 18 0 0 0 0 0 0 0 0 0 0 0 0 0 0 0 0 0 0 0 0 0 12 2518 1949 1832 962 954 1344 1061 1174 1294 2270 2498 2541 2954 3426 3166 3089 2912 3124 3595 3662 3746 3620 4060 4489 4597 4778 4866 4616 4815 4650 4760 4903 4855 4718 4640 4160 3442
110 123 100 30 7 2 0 0 0 0 0 0 0 0 0 0 0 0 0 0 0 0 0 0 820 1655 1040 975 1163 1257 859 947 900 637 683 1428 2011 2117 2548 2895 3144 3156 3062 3338 3333 3488 3538 3984 3886 3898 4045 4186 4178 4350 4583 4820 4823 4942 4959 4752 4131 3875 3332
143 221 104 28 17 0 0 15 28 0 0 0 0 0 0 0 0 0 0 0 0 0 0 410 475 493 200 288 374 571 387 749 802 550 794 1220 1738 1919 2351 2320 3037 3143 3034 3086 3067 3089 3227 3438 3494 3416 3474 3384 3354 3570 4199 4675 5068 5039 5002 4617 4093 3650 3146
72 147 155 55 66 15 70 95 503 494 372 417 600 715 0 0 0 0 0 0 0 0 208 580 376 332 224 66 0 796 954 874 909 694 968 1403 2249 2370 2580 3291 3195 2925 2553 2336 2650 2670 3216 3009 2687 2596 2758 3049 3508 3937 4376 4722 4732 4816 4873 4347 3722 3386 2896
27 73 49 72 39 206 1158 762 407 424 354 351 649 208 0 0 0 0 0 0 0 26 355 632 398 174 6 12 138 1660 1605 1257 1040 932 901 1026 1684 2244 2600 2510 2254 2135 2430 2715 2719 3130 3228 2547 2930 3049 3382 3749 4084 4475 4489 4580 4712 4664 4373 4040 3530 3235 2908
72 65 58 50 6 32 826 449 304 365 306 315 320 160 0 35 271 369 206 0 134 502 539 477 416 138 14 1 1372 1122 1678 1806 1982 1871 1680 1861 1999 2149 2370 2294 2735 3316 3289 3113 3194 3318 3140 3988 4078 4202 4239 4384 4406 4542 4428 4449 4349 4159 4035 3808 3560 3186 2668
16 0 0 16 116 782 665 396 27 377 408 597 460 8 0 1058 888 809 727 457 672 805 648 600 248 975 1700 2018 1633 1748 1686 2270 2369 2142 2073 2221 2395 2607 2844 3056 3104 3641 3556 3139 2342 2278 4412 4520 4412 4748 4660 4607 4558 4493 4303 3987 3764 3713 3764 3608 3225 2909 2567
0 6 3 9 162 311 106 474 74 472 451 415 223 1399 825 1360 1281 910 842 590 764 904 959 258 1762 1782 1838 1906 1962 2088 2212 2309 2499 2466 2462 2531 2725 2945 3147 3196 2547 1822 1592 2391 2774 3757 4720 4670 4748 4840 4776 4790 4698 4227 3867 3507 3379 3583 3583 3496 3173 2782 2494
37 152 85 56 12 541 372 389 384 644 420 1000 930 1002 1300 966 1039 1008 987 964 988 1370 1599 1697 1720 1554 1500 1853 2112 2284 2378 2187 1918 1868 1946 1988 1887 2096 2288 2296 1882 1516 2035 2579 3208 4002 4126 4220 4285 4560 4497 4817 4438 4152 3960 3623 3524 3756 3596 3419 3137 2776 2464
33 98 113 22 388 402 405 461 698 1004 684 691 748 1006 1188 1062 1360 1456 1257 1336 1310 1188 1184 1099 974 953 1082 1278 1501 1162 878 888 1212 1465 1208 1032 966 663 563 574 840 1820 3755 4188 3931 3559 3267 3020 3367 3796 4922 4794 4554 4510 4372 4036 3838 3713 3532 3415 3060 2614 2239
133 276 246 541 352 298 236 418 527 487 363 530 596 780 780 704 803 712 953 1145 1112 1066 1072 926 786 828 839 767 785 918 900 980 1342 1089 541 550 512 479 494 423 650 1030 2782 3628 3162 2728 2692 3202 3963 4645 4714 4477 4452 4832 4357 3729 3665 3516 3396 3156 2566 2142 2196
447 390 455 202 177 198 140 119 137 190 366 546 668 720 698 735 938 1011 924 613 630 828 818 853 856 1072 1398 1555 1401 1220 1114 1373 1856 2066 2205 1727 904 662 1033 2106 1552 785 1171 1370 1900 2293 2436 2650 2828 3517 3517 3453 4341 3527 3174 3074 3241 3402 3230 2832 2436 2125 2033
54 76 78 109 188 270 8 15 77 101 290 313 645 724 770 806 865 1106 1422 1506 1332 1269 1698 1606 1282 1210 1237 1460 1714 1913 2002 2105 2259 2250 2258 2215 2391 2134 1891 2445 2194 1069 764 1124 1541 1826 2022 1974 1812 1950 2619 3296 3473 3168 3163 3243 3037 2856 2731 2555 2240 2094 1870
112 532 201 91 18 112 1 27 73 108 24 32 229 384 590 604 522 610 804 1060 1218 1332 1323 1471 1552 1415 1130 1110 1294 1421 1686 1882 2055 2320 2384 2440 2338 2240 2307 2520 2447 1718 1049 1036 1500 2046 2504 2407 2362 2214 2314 2565 2787 2838 2796 2762 2710 2514 2346 2139 1960 1953 1799
853 387 54 2 0 0 6 52 18 94 22 27 39 128 36 38 53 74 100 77 63 299 354 493 649 688 687 614 706 848 1231 1665 1983 2149 2093 2177 2499 2486 2240 2394 2351 2000 1720 1568 1752 2081 2267 2400 2499 2812 2801 2742 2769 2734 2743 2619 2387 2008 1784 1818 1946 1716 1568
175 128 16 0 0 0 7 13 45 72 93 111 110 98 96 91 94 68 60 52 51 33 44 49 44 62 22 37 51 66 204 428 863 1356 1530 1457 1597 2049 2219 2249 2352 2448 2267 2094 2029 2154 2314 2376 2434 2468 2466 2339 2311 2432 2641 2716 2631 2596 2445 2278 2126 2054 2017
27 169 59 513 447 2 19 4 0 2 62 84 110 106 119 110 86 58 32 22 38 30 15 12 12 12 2 1 0 6 26 20 52 259 678 998 1014 1198 1736 2049 2081 2374 2700 2431 2388 2366 2382 2363 2194 2148 2240 2151 2158 2196 2629 2733 2582 2490 2400 2166 2028 1804 1743
285 104 155 93 16 10 0 0 3 0 5 42 78 84 90 80 50 27 10 2 5 4 2 8 4 0 0 19 23 23 8 9 14 38 0 100 502 641 713 1232 2035 2441 2519 2337 2402 2324 2317 2318 2201 2195 2010 2138 2166 2044 2400 2490 2431 2258 2044 1714 1469 1562 1403
162 132 257 37 1 5 5 0 0 0 1 9 37 28 6 0 0 17 16 3 0 0 0 0 0 0 8 16 16 10 0 1 0 4 43 50 2 109 355 660 854 1272 1823 2060 2008 2126 2292 2348 2277 2212 2252 2118 1996 1619 1950 1966 1978 1885 1686 1698 1476 1362 1379

ECMWFFLT2_con_mucape_003.txt.gz
CAPE
0 0 0 0 0 0 0 0 0 0 0 0 0 29 18 8 4 10 2 2 0 0 0 0 0 0 0 3 0 4 4 9 26 20 2 1042 1190 834 548 1144 1263 1762 1782 2058 2132 2230 2044 2030 2075 2162 2448 2250 2286 2604 2890 3093 3215 3415 3788 3875 3719 3516 3646
0 0 0 0 0 0 0 0 0 0 0 0 10 9 14 11 7 10 2 3 2 9 6 0 0 1 0 0 0 0 4 6 2 2 0 14 988 900 940 1234 1750 1960 1772 1884 2088 2189 2075 2052 1968 2072 2510 2167 2186 2516 2687 2983 3216 3554 3843 3928 3930 3969 3850
0 0 0 0 0 0 0 0 0 0 0 0 0 4 28 9 14 9 2 11 9 18 10 0 0 2 0 12 2 0 0 0 3 2 0 1 2 330 730 1084 1837 2414 1942 1900 2121 1932 1880 1869 2252 2387 2335 2240 2504 2558 2520 2606 3168 3169 3472 3524 3620 3835 3816
0 0 0 0 0 0 0 0 0 0 0 0 0 0 0 14 22 11 8 2 12 0 0 0 0 2 16 1 0 0 0 0 0 9 5 0 47 834 874 1716 1909 2591 2256 1885 1860 1853 1774 1846 1864 1985 2399 2406 2610 2674 2681 2655 2952 3383 3452 3468 3596 3639 3573
0 0 0 0 0 0 0 0 0 0 0 0 0 2 1 12 11 27 13 16 2 0 14 2 0 10 18 4 0 0 0 0 6 12 13 4 179 782 1080 1473 1899 2664 2540 1966 1787 1837 1817 1757 1927 2436 2269 1927 1928 2380 2452 2264 2768 3452 3577 3307 3238 3515 3543
0 0 0 0 0 0 0 0 0 0 0 0 0 10 0 0 2 20 8 18 20 15 1 9 10 11 15 0 0 0 0 1 44 6 1 6 232 794 1059 805 1750 2617 2696 2094 1655 1715 1713 1788 2358 2270 1768 1480 1673 2090 2326 2218 2145 3216 2266 2940 3247 3660 3793
0 0 0 0 0 0 0 0 0 0 0 0 0 0 0 3 13 2 14 19 7 14 20 48 16 12 6 8 0 0 4 16 10 32 10 9 366 967 569 979 1084 2210 2498 2216 1854 1816 1770 1538 1719 1582 1519 1532 1534 1855 2182 2182 1907 2356 2291 1997 2660 3767 4058
0 0 0 0 0 0 0 0 0 0 0 0 0 0 0 1 14 8 0 6 0 16 20 35 14 2 8 17 10 8 0 6 6 16 12 1015 788 735 755 797 514 1726 2307 2463 2359 2116 1874 1581 1856 1710 1618 1384 1370 1526 1669 1602 1628 1675 1777 1768 1826 3154 3824
0 0 0 0 0 0 0 0 0 0 0 0 0 0 0 0 0 3 3 10 0 0 14 1 4 0 0 0 0 12 11 17 12 16 1193 781 1713 1904 1572 1866 1537 2011 2201 2741 3080 2508 2112 1807 1198 1841 1701 1431 1549 1378 1183 1114 1432 1423 1066 1058 992 1984 3105
0 0 0 0 0 0 0 0 0 0 0 0 0 0 0 0 15 55 37 3 0 5 164 0 0 0 0 10 9 6 9 21 3 0 1 1227 1006 1441 2597 2823 2305 2392 3128 3834 4782 3864 2593 2092 1040 2078 2303 1485 1028 1136 1228 1051 1059 1046 1160 1260 1018 1265 2949
0 0 0 0 0 0 0 0 0 0 0 0 0 0 0 0 0 2 5 10 8 5 0 1 0 0 0 0 1 4 26 9 0 151 154 221 1652 1650 2098 3223 3095 3600 4191 3949 4233 4653 2910 1539 1239 1582 1770 1444 1150 1788 1596 1122 1053 1149 1674 1944 1834 1344 1844
0 0 0 0 0 0 0 0 0 0 0 0 0 0 0 0 0 5 0 104 2 0 2 0 2 1 0 0 1 7 0 0 16 25 896 406 967 2870 3738 3482 3424 3528 4146 4345 4374 4356 3004 2081 1792 1490 1744 2008 1727 1741 1634 1506 1089 1359 2325 1811 1435 1718 2796
0 0 0 0 0 0 0 0 0 0 0 0 0 0 0 0 0 0 6 101 0 0 0 0 0 0 0 0 0 0 0 0 0 10 48 770 1159 2182 3654 3898 3885 3703 3434 3944 4202 3612 3384 2660 2209 1822 1917 2436 2658 2337 1770 2246 1479 2024 1998 2362 2320 1893 2721
0 0 0 0 0 0 0 0 0 0 0 0 0 0 0 0 0 0 0 89 2 0 0 0 0 0 0 0 0 0 0 2 18 0 0 0 1128 2539 2594 3709 3456 3768 3672 3732 3900 4234 4430 3405 3234 2780 3104 3628 2976 2676 2240 2046 2212 2117 2043 3231 3401 2630 2139
0 0 0 0 0 0 0 0 0 0 0 0 0 0 0 0 0 0 0 8 11 3 0 0 0 0 0 0 0 0 0 0 0 0 0 0 0 0 30 731 3299 3997 4104 3965 4114 4452 4832 4561 4364 4204 3860 3431 2998 2894 3075 3178 3438 2446 2068 4301 4420 3976 3820
0 1 5 0 0 0 0 0 0 2 0 0 0 0 0 0 0 0 0 0 0 0 2 4 0 0 0 0 8 9 5 0 0 0 0 0 2 0 0 902 3198 4386 4452 4737 5181 5197 5096 4822 4761 4471 4684 4311 4152 3812 3822 3690 3545 2784 3483 3520 3612 4174 3939
56 41 14 26 18 6 0 0 0 0 0 0 0 0 0 0 0 0 0 0 0 0 0 0 6 0 0 0 0 0 48 364 32 6 0 0 1 0 1784 2000 2848 3771 4303 4716 5700 5616 5382 4775 4727 4601 4857 4583 4572 4072 4542 4401 4393 3740 3334 3632 4419 4224 5337
118 57 64 149 204 115 0 0 0 0 0 0 0 0 0 0 0 0 0 0 0 0 0 0 0 0 24 12 18 106 174 298 472 12 0 0 0 0 1138 1934 1454 3165 4431 4452 5506 5764 5493 4915 4626 4860 5114 4890 4839 4516 4616 4574 4446 4555 4679 4744 5241 5219 5178
272 380 376 339 288 93 137 63 3 0 0 0 0 5 3 0 5 6 0 0 0 0 0 0 0 3 22 22 0 1 13 100 24 85 14 107 34 1866 1606 1417 1481 2927 4258 4360 5090 5556 5457 5035 4690 5246 5397 5301 5324 4659 4647 4678 5162 5558 5350 5550 5411 4979 4772
274 370 339 89 82 195 77 34 7 0 0 0 0 0 2 5 3 9 1 0 0 9 4 1 0 0 0 0 0 52 25 178 0 0 0 119 1386 1943 1607 3066 3531 3872 3946 4232 4148 4970 4776 4695 4962 4987 5348 5186 5007 3990 4121 4907 5252 5343 5528 5829 5173 4962 4538
371 290 313 133 115 79 46 51 154 72 47 0 0 168 532 159 191 13 6 0 0 0 0 0 12 2 0 0 0 0 330 137 715 274 44 159 141 412 1728 2195 2984 3531 4116 4014 4172 5368 4965 4496 4428 5052 5153 4630 4049 4286 4981 5224 5622 5509 5571 5293 5031 5380 4820
181 276 217 222 228 90 61 196 539 214 262 207 291 249 144 51 24 42 2 6 17 3 1 2 4 6 20 4 0 106 108 9 160 327 355 272 137 128 1000 1949 2411 4316 4404 4336 4779 5014 4768 4906 5220 4832 4588 5257 5284 5544 5505 5570 5791 5722 5483 5380 5442 5328 4730
176 260 149 223 337 216 794 786 304 263 296 257 358 135 4 0 0 7 12 11 18 25 24 13 10 3 3 2 0 14 10 0 0 346 524 204 34 578 1492 2088 3056 3902 3741 3822 4041 4540 4450 4220 4601 5341 5475 5340 5405 5386 5519 5767 5862 5509 5132 4891 4633 4420 4386
59 290 258 311 355 129 674 589 280 258 245 226 293 60 4 46 221 160 24 0 6 11 33 22 28 10 0 0 0 10 1 0 407 1101 1087 524 502 903 1020 1840 2920 3796 4086 4222 4341 4326 4751 5082 4611 4906 4800 5185 5281 5494 5753 5693 5341 5318 5143 4994 4502 4193 3595
25 18 272 181 280 266 470 676 189 214 214 248 300 207 355 1142 1401 1200 1033 1264 1196 8 50 49 2 57 0 0 342 1294 1635 1215 1592 1586 1403 1286 1010 1081 1817 2641 3506 3972 4028 4076 3928 4074 3997 4491 4317 4700 5016 4972 5185 5452 5489 5470 5357 5203 5008 4498 4052 3780 3504
0 8 56 3 140 450 475 404 197 311 96 332 304 1191 768 1036 970 1159 916 644 988 750 0 8 49 11 2 0 117 329 1377 2059 2511 2302 1846 1558 1455 1985 2424 3293 3372 3440 3295 3418 3096 3489 4111 4218 4163 4277 4707 5158 5490 5491 5295 5367 5241 4936 4551 4258 4060 3708 3435
21 1 0 6 8 1148 404 426 257 584 472 650 836 962 1173 882 1064 1148 1404 1203 953 510 164 1 0 39 5 120 570 202 845 2251 2590 2460 2153 2049 1952 2273 3255 3354 3387 3164 3270 3219 3280 3892 3671 4090 4470 4630 5147 5392 5294 4852 4704 4388 4504 4879 4496 4335 3950 3576 3324
0 0 0 0 110 552 341 321 486 930 919 879 1062 902 918 1014 1040 1240 1540 1512 1210 539 222 76 28 62 232 598 567 1398 2018 2322 2476 2408 2713 2908 3182 3733 3486 3206 3014 2694 3550 4485 4150 3696 3380 3520 3300 3813 4505 4315 3936 4052 4440 4323 4530 4422 4218 4022 3642 3267 2892
35 3 5 1156 616 525 658 936 636 865 845 828 751 833 1028 1199 1327 1428 1675 1319 972 1271 1208 1050 982 1256 1135 1496 1364 1598 2149 2512 2900 3273 3324 2988 2630 2386 2480 2720 3725 3846 3648 3639 3462 2894 2346 1887 1909 2505 3243 4067 4014 3934 4015 4458 4205 4002 3867 3628 3324 2992 2689
1017 844 834 552 665 468 552 565 622 560 578 612 683 836 1257 1366 1511 1399 1088 1352 1464 1310 1544 1361 1362 1612 1178 1190 802 945 1375 1280 1602 1504 1433 1642 1856 2003 2320 2774 2970 3381 3567 3733 3863 3967 4119 4335 4844 5122 4387 4040 4278 4471 4615 4527 4317 4138 3738 3400 3039 2781 2640
242 982 1133 1017 696 566 364 364 494 515 538 744 1145 1188 1292 1079 1115 1158 796 865 978 900 1583 1562 1678 1414 1680 2125 2016 1908 1765 1817 1880 2070 2239 1774 1238 1303 1320 1652 1670 1878 2120 2180 2236 2273 2502 3156 3525 4000 4541 4934 4931 4776 4516 4390 4100 3653 3124 2802 2674 2766 2844
390 438 967 614 640 656 734 516 671 565 464 383 698 562 608 1249 1096 815 652 534 477 779 998 871 1290 1169 1174 1594 1644 2057 2227 2394 2340 2360 2639 2589 1802 1396 1503 1664 1758 1614 1556 1843 2283 2316 2037 1810 2190 3149 4029 4080 4008 3990 3768 3448 3228 3148 2994 2753 2730 2778 2730
687 623 543 402 304 320 270 134 130 332 323 270 136 426 440 204 65 6 201 44 166 530 690 814 954 1030 1053 1217 1266 1279 1658 1964 2250 2444 2778 3183 3045 2127 1514 1501 1806 2093 2325 2538 2750 3042 3295 3500 3545 3508 3518 3596 3727 3730 3582 3367 3224 2933 2553 2200 2553 2436 2403
417 462 421 230 355 186 37 0 7 93 17 17 29 64 26 18 22 39 52 53 133 337 218 274 527 577 560 587 736 690 587 976 1716 1954 1808 1994 2324 2304 1905 1732 2111 2570 2906 3115 3171 3199 3225 3340 3483 3545 3477 3408 3244 3019 2988 2648 2769 2566 2564 1978 2256 1955 1745
46 427 375 631 440 223 64 3 0 0 0 0 0 0 0 0 19 48 91 94 7 0 316 340 314 345 338 319 291 238 180 238 538 817 1340 1567 1906 2102 2277 2269 2224 2341 2466 2664 2879 2838 2910 3093 3179 3228 3290 2979 2772 2412 2451 2699 2542 2818 2475 2079 1962 1892 1555
452 439 337 66 49 8 0 0 0 0 0 0 0 0 5 4 5 47 34 58 130 120 109 130 292 266 267 185 189 143 95 78 89 172 403 920 1034 1382 2141 2534 2522 2402 2364 2600 2756 2660 2665 2775 2789 2814 2716 2835 2770 2486 2786 2500 2280 2582 2472 2292 2167 2019 1582
345 260 362 125 18 1 0 0 0 0 0 0 0 3 0 4 15 4 36 82 152 170 153 165 174 255 275 178 205 154 106 83 71 50 18 106 291 803 894 1180 1705 2240 2323 2144 2444 2709 2728 2672 2500 2290 2357 2446 2356 2464 2794 2448 2262 2752 2745 2508 2241 1954 1944

ECMWFFLT2_con_mucape_006.txt.gz
CAPE
0 0 0 0 0 0 0 0 0 0 0 0 0 0 0 1 4 0 0 0 0 1 0 0 2 0 1 0 0 1 9 82 100 28 2 208 1079 1300 1324 1339 1337 1366 1256 2029 1744 1827 2075 2270 2389 2352 2466 2746 2915 3186 3736 4032 4248 4317 4299 4160 3910 3685 3686
0 0 0 0 0 0 0 0 0 0 0 0 0 0 0 0 2 0 0 0 0 6 11 0 0 0 0 0 0 4 18 48 31 2 17 524 1420 1079 808 923 1250 1430 1428 2020 2312 2175 2196 1809 1798 2218 2606 2730 2868 3279 3568 3931 4197 4293 4185 4098 3862 3815 3878
0 0 0 0 0 0 0 0 0 0 0 0 0 0 0 0 0 0 0 0 3 0 0 3 0 0 4 5 10 1 8 43 29 3 350 1136 748 451 644 792 1426 1766 1778 1824 2160 2008 1814 1648 1553 2280 2696 2733 2650 3270 3257 3357 3736 3968 3921 3501 3531 3718 3863
0 0 0 0 0 0 0 0 0 0 0 0 0 0 0 0 0 3 0 0 2 0 0 1 2 0 6 11 47 12 5 11 6 21 1239 651 368 733 868 951 1364 1634 1353 1088 1166 1331 1952 1902 2096 2182 2280 2200 1868 2317 2872 3051 3275 3795 3799 3720 3681 3663 3645
0 0 0 0 0 0 0 0 0 0 0 0 0 0 0 0 0 0 2 0 0 0 0 0 0 52 49 3 49 191 12 14 6 12 788 420 542 670 608 604 875 1667 1670 1264 979 1171 1961 2170 1873 1861 1950 1945 1798 1784 2174 2452 2981 3266 3526 3460 3395 3681 3452
0 0 0 0 0 0 0 0 0 0 0 0 0 0 0 0 0 0 0 0 0 1 0 2 0 79 0 2 9 54 16 4 23 10 1 1119 1120 1146 1072 725 557 1023 1608 1509 1193 1217 2290 2170 2055 1892 1765 1778 1825 1810 1844 1972 2481 2796 3367 3508 3665 3816 3712
0 0 0 0 0 0 0 0 0 0 0 0 0 0 0 0 0 0 0 0 0 0 34 40 0 12 0 0 0 0 11 14 3 21 12 370 847 1073 534 168 191 770 1350 1404 1573 2020 2395 2427 2475 2031 1849 1902 1895 1780 1721 2052 2524 2900 2767 3157 3205 3945 3874
0 0 0 0 0 0 0 0 0 0 0 0 0 0 0 0 0 0 0 0 0 0 204 303 42 807 0 23 28 110 2 5 5 4 2 2485 317 353 221 139 398 1384 2089 2435 2319 1866 2254 2505 2678 2579 2482 2467 1970 1832 1713 2004 2482 2974 3015 2885 3239 3888 3862
0 0 0 0 0 0 0 0 0 0 0 0 0 0 0 0 0 2 0 0 0 0 121 414 34 2 0 0 1 8 8 58 9 0 1574 1866 1588 1474 1278 1375 1619 1933 1869 2632 2562 2443 2866 2661 2499 2606 2458 2367 1964 1812 1697 1953 2042 2272 2433 2672 2732 3377 3354
0 0 0 0 0 0 0 0 0 0 0 0 0 0 0 0 7 0 3 0 2 33 37 152 69 12 232 24 2 1 23 128 47 1362 1874 2095 1841 1668 1441 1713 1710 1274 1907 2151 2390 2466 2630 2890 2548 2586 2548 2489 2112 2100 2215 2087 1996 1996 2410 2638 2581 3017 2986
0 0 0 0 0 0 0 0 0 0 0 0 0 0 0 0 4 28 0 115 109 74 8 97 35 20 20 6 83 45 265 45 1596 2831 2865 1707 2008 1536 1612 2074 2357 2073 2347 2340 2358 2431 2242 2498 2710 2726 2658 2444 2494 2663 2530 2271 1968 2034 2730 2729 3216 2750 2771
0 0 0 0 0 0 0 0 0 0 0 0 0 0 0 0 1 0 0 76 155 33 6 137 258 36 148 69 124 32 80 1059 261 1890 2251 2469 2508 2498 2480 2512 2597 2667 2700 2585 2289 2481 2793 2980 2769 2855 2890 2724 2535 2278 2165 2239 1985 1937 2216 2759 2446 2343 2821
0 0 0 0 0 0 0 0 0 0 0 0 0 0 0 0 0 0 34 357 217 122 0 2 82 221 374 13 18 3 10 270 309 477 1323 1472 1441 2350 2582 3310 2707 2518 2652 2680 2665 2755 3332 3143 2700 2648 2656 2492 2266 2338 2053 2025 2008 1962 2099 2183 2346 2518 2955
0 0 0 0 0 0 0 0 0 0 0 0 0 0 0 0 1 4 0 558 246 0 0 0 10 170 1 2 44 17 85 79 531 220 1164 80 285 1212 3289 4002 4911 4862 4222 4147 4378 4502 4207 3265 2669 2257 2333 2327 2142 2222 2098 1971 1820 1831 2061 2140 2186 2230 2553
0 0 0 0 0 0 0 0 0 0 0 0 0 0 0 0 0 0 0 0 199 0 10 5 2 38 82 170 153 1 29 51 14 157 10 38 59 6 1949 3826 3699 4676 5294 5814 6693 6039 4755 3402 2663 1893 2231 2354 2424 1757 1639 1618 1665 1573 2206 2266 2110 1973 2096
0 0 0 0 0 0 0 0 0 0 0 0 0 0 0 0 0 0 0 0 0 0 0 0 14 101 241 48 195 420 575 182 82 79 45 29 291 376 2572 2857 3045 4770 5162 5242 5670 6186 5393 4144 2893 2152 2200 2376 2433 1729 1602 1468 1210 1385 2435 2587 2513 2271 2451
0 0 0 0 0 0 0 0 0 0 0 0 0 0 0 0 0 0 0 0 0 3 6 1 16 0 49 86 88 28 96 566 323 184 148 54 42 1886 1088 1994 3940 4131 4088 4459 5043 5168 4753 4176 3327 2576 2267 2442 2419 2022 1747 1575 1535 1316 2804 2844 2583 2512 2472
0 0 0 0 0 0 0 0 0 0 0 0 0 0 0 0 0 0 0 0 0 0 1 7 53 92 130 201 168 56 93 365 1169 663 360 186 108 156 1008 1075 2114 3489 4053 3566 4091 4689 4466 4433 3695 3064 2406 2393 2581 2406 2192 2057 1955 1684 2758 2964 2938 2658 2657
4 0 5 19 6 0 0 0 0 0 0 0 4 4 0 1 0 0 0 0 0 0 0 0 14 295 402 436 341 73 148 179 240 1130 798 500 377 674 769 3040 2474 4005 5179 4977 4665 4628 3960 3543 3692 3600 3201 2836 2969 2885 2732 2634 2435 2361 2470 3680 3566 3334 3229
3 0 0 0 0 0 5 26 27 44 0 0 0 0 0 0 0 13 9 123 120 72 0 0 0 0 6 0 2 367 23 59 52 0 6 151 327 343 183 2021 2503 4844 5002 5060 4391 5113 4286 4695 4334 3840 3357 2691 2463 2416 2339 3079 3140 3018 3199 4955 5531 4464 4051
17 0 1 0 11 8 3 8 12 20 65 23 1 0 0 0 0 0 140 220 138 162 664 1 0 0 0 0 0 0 0 0 0 0 0 0 0 0 238 994 3447 5495 4580 5190 4189 5730 5770 4792 4717 4277 3858 3616 3250 3014 2722 3053 4353 4226 4253 5357 5587 5924 6752
2 1 53 30 12 4 35 53 158 100 105 181 334 130 286 278 113 42 70 66 396 920 529 950 280 38 48 30 6 0 0 0 0 0 0 0 10 24 30 150 2607 4755 4834 5093 4692 5248 5698 5227 4509 4697 4267 4469 4351 4289 3944 4388 4758 4785 5259 7069 6216 6129 5990
8 0 3 8 0 31 103 204 111 35 129 116 20 148 174 204 172 574 869 470 525 545 217 521 809 602 34 19 10 22 0 0 0 0 0 0 0 0 40 139 1761 3780 4209 3821 3490 4074 4423 4710 4784 5168 5054 4872 5019 4965 4639 4863 5305 5301 6058 6355 5894 5792 5616
115 90 14 27 133 106 620 462 241 202 208 122 138 145 93 2163 1307 1090 1175 1125 1142 1039 1012 765 901 1085 701 292 0 0 1 8 9 4 51 131 0 43 103 9 43 2655 4921 4802 3685 3589 4154 4934 5487 5693 5435 5587 5622 5440 5168 5399 5237 5419 5856 5970 5580 5484 5243
16 14 26 20 33 830 399 466 416 167 153 129 223 79 4 1220 1264 965 1343 1108 1356 1450 1301 1532 1081 996 966 649 312 145 0 4 5 89 500 894 318 159 5 106 244 5105 5295 4857 4481 2989 3640 5385 5390 5715 6065 6116 5995 5590 5786 5761 5373 5113 5869 5776 5420 5073 4651
1 30 15 34 44 532 390 537 374 134 98 199 230 1696 1042 1557 1060 1237 1271 1590 1590 2095 2216 2217 2168 1858 1293 674 186 27 91 37 1432 1093 1403 990 591 543 501 1871 2654 4973 4107 4786 4724 4118 5460 6148 5700 5994 6312 6107 6220 6202 6135 6064 5930 5660 6023 5676 5396 5043 4748
0 2 10 8 2 376 118 505 106 55 144 7 1129 1107 1257 891 1141 1125 1599 2129 1840 1648 1914 2077 2386 2517 2820 2866 1469 812 447 306 1560 1928 1338 1204 719 753 919 2844 3723 4034 4043 3936 3804 4235 5004 5060 5221 6108 6091 6323 6480 6347 6370 5789 5266 5200 4968 4939 4684 4417 4249
9 8 9 7 0 321 598 458 288 134 109 1205 1235 889 1023 1263 1772 2205 2079 1734 1667 1472 1541 1574 1599 1794 1938 2279 2443 2150 1258 1718 489 1336 1021 890 677 427 436 591 3456 3958 4301 4498 4694 4576 4322 4883 5251 5538 5828 6137 5976 5856 5626 5483 4738 4449 4440 4716 4357 3982 3312
26 7 5 1535 923 642 610 606 862 701 748 716 713 1286 1721 1928 1786 1695 1658 1704 1602 1394 1266 1285 1410 1702 1806 2068 2185 2385 2287 2495 2398 2514 2842 2130 1611 1540 1585 1198 2241 2974 4638 4832 4772 4791 4720 4961 5602 5897 6026 5668 5115 5158 5258 4540 4460 4378 4238 3914 3777 3569 3425
1173 988 1101 723 564 546 525 280 386 481 581 1080 1042 1151 1475 1343 1321 1130 1198 1190 1318 1204 1345 1424 1405 1629 1803 1999 2135 2148 2082 2004 2165 2996 2776 2319 2075 2069 1821 1717 1846 1857 3410 4058 4114 4611 4971 5483 5675 5414 5052 4885 4749 5140 4870 4306 4350 4228 3952 3767 3522 3373 3256
813 1232 1354 769 784 690 329 170 126 258 574 717 1204 1100 984 827 817 671 907 1046 779 583 612 898 1192 1332 1349 1570 1950 1878 1810 1900 1730 1650 2017 1845 1969 2619 2377 2260 2734 2803 3141 3090 2934 3361 3935 4163 4122 4313 4168 4855 4795 4543 4085 3749 3650 3667 3294 3088 2881 3007 3036
202 1330 1118 970 809 700 580 487 262 432 380 532 645 484 548 631 650 722 756 809 829 586 519 811 1087 1319 1331 1377 1408 1592 1624 1946 1907 1677 1281 1280 1604 1660 2194 2486 2536 2393 2486 2553 2283 2457 2952 3018 3709 3517 3762 4090 4166 4052 3807 3980 3555 3352 3063 2857 2737 2687 2556
529 1085 906 792 577 461 403 317 275 296 326 267 153 320 277 32 483 605 698 661 623 606 495 663 996 1161 1151 1334 1450 1465 1414 1492 1428 1657 1575 1212 1421 1252 1208 1608 2076 2704 2717 3151 3014 2670 2320 2884 3518 3626 3793 4559 4267 4156 3841 3277 3065 2759 2501 2405 2537 2337 2255
579 342 371 647 596 408 210 126 56 4 0 0 2 4 1 0 0 199 398 466 377 141 238 580 771 854 857 975 1105 1068 905 813 1007 1380 1359 1204 1206 1513 1457 1585 1916 1866 1822 1844 2036 2579 2902 3466 3930 4120 4337 4072 3783 3426 3095 2790 2762 2720 2692 2527 2516 2392 2303
112 111 697 1090 322 207 105 22 0 0 0 0 0 0 0 0 0 0 0 0 0 210 341 381 592 595 520 522 556 631 681 561 619 774 1180 1211 1222 1350 1573 2443 2600 2456 3006 3232 3560 3603 3580 3641 3622 3575 3576 3420 3548 3179 3245 2881 2661 2872 2842 2662 2363 2091 2148
189 503 626 437 279 143 37 32 0 0 0 0 0 0 0 0 0 0 0 0 0 0 310 373 364 425 324 161 79 144 152 449 709 703 887 956 1366 1600 1745 2072 2574 2822 2816 2951 3072 3349 3410 3469 3359 3150 2447 2575 3200 3033 3042 2772 2736 2938 2852 2645 2387 2100 2050
301 612 466 90 212 51 28 4 0 0 0 0 0 0 0 0 0 0 0 0 0 0 68 227 144 60 0 0 0 0 0 110 38 381 761 675 843 1382 1457 1758 2330 2656 2835 2744 2778 2933 3059 3238 3189 3006 3026 2990 3023 2933 3207 2854 2696 2929 2872 2513 1969 2022 2057

ECMWFFLT2_con_mucape_009.txt.gz
CAPE
0 0 0 0 0 0 0 0 0 0 0 0 0 0 0 0 0 0 0 0 0 0 0 0 0 0 0 0 0 0 3 17 8 35 96 271 385 394 430 740 693 933 1157 1348 1386 1397 1443 1649 1777 1732 1668 1624 1887 2354 2760 2909 3072 3172 3111 3016 2954 2840 2878
0 0 0 0 0 0 0 0 0 0 0 0 0 0 0 0 0 0 0 0 0 0 0 0 0 0 0 0 0 0 0 8 9 33 146 391 542 590 641 823 822 974 1281 1358 1411 1433 1426 1531 1708 1715 1658 1558 1830 2291 2755 2961 3104 3262 3218 3109 2998 2809 2772
0 0 0 0 0 0 0 0 0 0 0 0 0 0 0 0 0 0 0 0 0 0 0 0 0 0 0 0 0 0 0 28 28 45 117 301 614 660 700 839 891 863 1125 1352 1343 1363 1412 1434 1565 1650 1584 1521 1833 2239 2714 2938 3126 3262 3242 3153 3048 2908 2707
0 0 0 0 0 0 0 0 0 0 0 0 0 0 0 0 0 0 0 0 0 0 0 0 0 0 0 0 0 0 0 2 41 80 72 78 272 546 761 804 885 977 944 1024 1244 1299 1309 1332 1443 1517 1512 1594 1894 2135 2675 2905 3090 3234 3244 3165 3076 2971 2787
0 0 0 0 0 0 0 0 0 0 0 0 0 0 0 0 0 0 0 0 0 0 0 0 0 0 0 0 0 0 0 0 17 56 65 35 68 211 645 812 863 967 1003 967 971 1114 1261 1386 1787 1808 1703 1765 1931 2130 2535 2903 3064 3205 3257 3206 3104 2991 2868
0 0 0 0 0 0 0 0 0 0 0 0 0 0 0 0 0 0 0 0 0 0 0 0 0 0 0 0 0 0 0 0 7 7 2 1 44 288 536 662 679 708 765 818 907 988 1140 1344 1758 2082 1939 1886 1972 2139 2422 2822 3065 3184 3251 3235 3124 3034 2899
0 0 0 0 0 0 0 0 0 0 0 0 0 0 0 0 0 0 0 0 0 0 0 0 0 0 0 0 0 4 0 0 1 0 0 3 152 539 766 814 812 800 804 791 774 1086 1124 1181 1606 2008 2097 2044 2050 2140 2367 2743 2978 3139 3231 3229 3144 3035 2931
0 0 0 0 0 0 0 0 0 0 0 0 0 0 0 0 0 0 0 0 0 0 0 4 32 1 3 1 7 10 1 0 0 0 4 141 442 684 848 884 865 793 847 932 952 1347 1388 1306 1488 1795 2075 2126 2088 2106 2287 2579 2851 3075 3186 3184 3093 3012 2939
0 0 0 0 0 0 0 0 0 0 0 0 0 0 0 0 0 0 0 0 0 0 0 0 236 503 76 0 0 0 0 0 0 0 181 220 508 583 727 765 794 735 827 1054 1173 1422 1541 1508 1640 1776 1914 2030 2037 2036 2122 2366 2625 2951 3090 3117 3048 2986 2938
0 0 0 0 0 0 0 0 0 0 0 0 0 0 0 0 0 0 0 0 0 0 0 0 0 0 14 53 59 0 1 0 0 0 340 329 369 453 613 630 585 589 1026 1154 1188 1279 1403 1487 1685 1737 1761 1816 1855 1872 1885 2059 2286 2616 2877 2991 2984 2978 2898
0 0 0 0 0 0 0 0 0 0 0 0 0 0 0 0 0 0 0 0 0 24 0 0 0 0 0 17 0 541 27 706 982 33 481 446 453 535 551 511 529 725 1076 1246 1236 1202 1305 1674 1999 1830 1797 1842 1854 1821 1817 1747 2011 2244 2580 2854 3006 2971 2911
0 0 0 0 0 0 0 0 0 0 0 0 0 0 0 0 0 0 0 0 0 0 0 1 11 0 0 42 208 508 898 1546 1758 1025 501 816 477 534 670 724 827 1091 1246 1252 1311 1406 1471 1742 2131 2158 2077 1989 1945 1946 1951 1891 1800 2010 2306 2644 2925 3026 2933
0 0 0 0 0 0 0 0 0 0 0 0 0 0 0 0 0 0 0 0 0 0 0 0 0 116 373 1 0 18 1478 1671 1535 1243 846 726 621 810 1190 1098 1134 1392 1494 1520 1565 1650 1801 1967 2142 2257 2169 2123 2056 2050 2014 1957 1867 1804 2383 2620 2760 2949 2998
0 0 0 0 0 0 0 0 0 0 0 0 0 0 0 0 0 0 0 0 38 0 0 0 0 415 264 234 68 7 940 1591 1443 1291 1109 975 982 1114 1254 1267 1228 1421 1596 1693 1773 1785 1869 2098 2229 2356 2274 2187 2126 2056 2020 1982 1980 1921 2372 2616 2669 2809 3019
0 0 0 0 0 0 0 0 0 0 0 0 0 0 0 0 0 0 0 0 0 91 0 0 0 92 417 46 38 4 0 540 1473 1445 1138 1020 1015 966 1097 1128 1162 1278 1521 1672 1791 1871 1853 1939 2165 2341 2375 2253 2157 2092 2050 2061 2029 1903 2177 2492 2606 2684 2944
1 0 0 0 0 0 0 0 0 0 0 0 0 0 0 0 0 0 0 0 0 0 0 0 0 18 167 60 22 15 5 1 1173 1516 1118 986 1054 918 1188 1272 1061 1128 1380 1549 1649 1844 1924 1957 2195 2319 2308 2305 2244 2172 2143 2097 2007 1868 1879 2255 2460 2538 2706
0 0 0 0 0 0 0 0 0 0 0 0 0 0 0 0 0 0 0 0 0 0 15 0 0 0 29 290 515 314 146 280 371 1153 1380 862 1192 992 1130 1438 1227 1012 1222 1415 1646 1706 1892 2017 2058 2286 2387 2276 2220 2154 2078 2001 1917 1837 1926 2105 2438 2570 2551
0 0 3 1 0 0 0 0 0 0 0 0 0 0 0 0 0 0 0 0 0 56 236 0 0 0 0 0 26 2 5 35 150 475 388 722 1292 1588 1878 1755 1549 1434 1470 1599 1708 1759 1858 2054 2165 2102 2273 2323 2198 2137 2132 2101 2042 2060 2075 2077 2223 2532 2590
3 14 15 4 1 0 0 0 0 0 0 0 0 0 0 0 0 0 0 0 0 0 0 0 0 0 41 72 39 10 0 0 0 6 67 265 154 1551 1974 2250 2341 2154 2192 2239 2253 2161 2110 2262 2341 2245 2121 2189 2263 2158 2077 2044 2062 2086 2082 2096 2059 2219 2475
5 10 10 9 2 0 1 0 0 0 0 0 0 0 0 0 4 32 649 4 277 177 66 107 22 0 0 58 496 75 2 0 0 0 0 198 430 668 2413 2657 2746 2855 3212 3419 3602 3615 3553 3123 2589 2300 2130 2122 2154 2164 2084 2020 1954 1947 1931 1927 1944 1919 2156
1 0 10 5 0 0 0 0 0 0 31 132 5 0 117 217 5 3 159 666 539 114 229 236 246 102 0 0 0 0 136 25 7 0 0 78 494 491 292 2097 3254 3177 3434 3677 3985 4288 4304 3976 3252 2555 2222 2082 2055 2076 2045 2009 1964 1862 1739 1612 1735 1836 1908
2 3 7 23 13 0 0 0 0 0 54 9 118 183 224 947 484 698 881 849 807 752 518 390 380 183 123 48 15 297 690 530 0 0 0 0 0 0 0 576 956 2260 3228 3306 3268 3554 4074 4112 3689 3150 2689 2348 2107 1968 1916 1886 1849 1764 1597 1425 1595 1693 1748
58 3 9 21 7 0 0 156 5 0 75 11 1 5 42 1408 916 1010 1352 1490 1531 1425 1158 702 538 342 444 738 1083 1444 1553 963 499 14 133 126 0 0 0 0 409 1508 2689 3294 3261 3251 3425 3605 3675 3361 2859 2502 2210 1999 1826 1732 1607 1489 1351 1249 1659 1748 1657
57 15 6 10 4 0 524 234 2 14 52 87 97 78 295 1047 1352 1617 1612 1693 1707 1746 1726 1731 1891 1821 1677 1872 1777 2135 1861 1488 1236 460 710 508 585 486 215 0 314 1196 2136 3052 3295 3302 3221 3152 3208 3367 3177 2662 2202 1916 1726 1551 1410 1274 1196 1169 1670 1844 1784
29 50 125 103 38 901 298 265 198 90 233 288 1 0 833 1394 1650 1658 1592 1688 1834 1840 1916 2042 2174 2148 2078 2004 2223 2513 2258 1912 1749 1640 1397 1047 716 339 891 2516 1998 2543 3306 3468 3669 3771 3715 3512 3310 3258 3150 2912 2529 2068 1689 1485 1389 1292 1151 1002 1566 2262 2543
20 44 107 92 123 876 654 217 238 235 198 14 110 1114 1423 1839 1603 1567 1475 1447 1546 1602 1656 1859 1867 1900 1980 2078 2271 2396 2266 2220 2364 2689 1724 1414 1371 1454 1386 2876 4060 3151 3658 3862 3870 4110 4160 4074 3910 3748 3568 3273 2857 2440 2053 1669 1568 1553 1542 1669 2556 3526 3643
60 49 31 46 8 391 249 318 425 602 483 544 1150 1496 1356 1527 1558 1480 1383 1390 1464 1630 1822 1953 1944 1921 2017 2006 2012 2060 2065 2068 2205 2415 2269 2321 1991 1591 1616 1938 4007 4248 3758 3653 3720 3589 3776 4114 4250 4072 3907 3666 3421 3108 2767 2434 2121 2233 3272 3862 4109 4177 4007
24 23 8 15 77 653 449 343 452 789 1209 1526 1636 1332 1029 1095 1317 1281 1135 1204 1630 1749 1681 1434 1321 1386 1603 1696 1661 1830 1863 1906 1930 1911 1935 1932 1966 1950 2048 2104 2310 3758 3908 3883 3846 3595 3212 3550 3919 4110 4012 4005 4025 3758 3571 3307 3417 4570 4712 4522 4458 4304 4021
337 113 112 129 178 462 632 753 1044 1193 1368 1278 1008 832 700 710 858 884 595 780 1159 1103 852 906 1005 1150 1306 1292 1232 1256 1417 1624 1764 1747 1752 1833 1770 1699 1554 1876 2026 1690 2913 3674 3633 3588 3433 3241 3036 2751 2852 3639 4276 4127 4228 4361 4860 4892 4793 4595 4472 4298 4062
386 30 209 122 401 206 508 1211 1244 1090 1030 785 589 394 532 186 369 328 520 569 645 594 568 760 976 1102 1206 1149 1181 1313 1350 1384 1507 1590 1664 1786 1841 1855 1849 1822 1897 1829 1760 1917 2556 3298 3389 3406 3482 3297 3091 2932 2667 3658 4296 4622 4879 4922 4932 4617 4346 4041 3791
223 13 442 519 206 224 94 591 1023 789 630 516 487 188 117 269 368 366 146 472 456 588 632 759 918 1123 1251 1310 1273 1286 1265 1359 1424 1468 1586 1638 1653 1827 1873 1713 1798 1885 1772 2001 2013 2012 2038 2367 3006 3373 3166 2952 3058 3196 4152 4613 4588 4721 4356 4020 3588 3396 3362
601 534 896 806 328 183 187 305 390 480 227 63 9 11 146 157 0 0 0 0 20 193 514 744 868 988 1180 1167 1265 1182 1223 1267 1264 1314 1378 1507 1834 1855 1800 1857 1738 1779 1796 1810 1900 2000 2158 2299 2583 2684 2624 3164 3329 3681 3910 4338 4450 4479 4171 3534 3163 2757 2779
524 451 901 960 651 317 107 128 20 44 26 0 0 0 0 0 0 0 0 0 0 0 88 636 852 949 1137 1202 1192 1125 1086 1122 1131 1081 956 1193 1666 1836 1850 1767 1709 1588 1592 1546 1701 1708 1699 2081 2623 2765 2573 2633 3030 2566 3061 3325 2873 3562 3163 3410 3194 3041 2659
162 600 799 547 501 265 135 199 47 0 0 0 0 0 0 0 0 0 0 0 0 0 112 585 758 847 1010 1172 1208 1129 958 947 1024 1288 1276 1336 1317 1866 1912 1859 1856 1768 1625 1659 1726 1807 2042 2149 2223 2436 2506 2450 2074 2080 2462 2297 1846 2292 2658 2502 2399 2743 2364
359 523 440 485 436 263 68 103 54 5 34 0 0 0 0 0 0 0 0 0 0 0 0 502 762 915 978 1057 1042 976 860 1000 1188 1298 1342 1483 1555 1406 1563 1919 1718 1922 1868 2089 2200 1984 1911 2071 2236 2151 2038 1730 2126 2026 1736 1699 1665 2729 2193 2264 2337 2148 2058
263 197 310 367 411 120 110 78 53 3 0 0 0 0 0 0 0 0 0 0 0 0 0 4 668 926 989 943 895 840 949 1112 1193 1245 1257 1331 1408 1567 1671 1582 1702 1722 1936 2000 2156 2276 2195 2030 1741 1702 1694 1620 1407 1405 1320 1249 1630 1953 2487 2564 2506 2312 2065
27 181 234 509 292 93 28 12 19 13 0 0 0 0 0 0 0 0 0 0 0 0 0 0 260 589 827 804 733 638 620 658 824 1011 1167 1229 1260 1283 1350 1546 1761 1777 1545 1498 1572 1702 1745 2097 2289 2424 2933 2309 2359 2234 2174 2092 1673 2241 2028 2051 1983 1929 1865

ECMWFFLT2_con_mucape_012.txt.gz
CAPE
0 0 0 0 0 0 0 0 0 0 0 0 0 0 0 0 0 0 0 0 0 0 0 0 0 0 0 0 0 0 0 0 0 0 2 16 47 52 109 242 543 779 830 810 837 904 1006 1092 1094 1095 1106 1136 1231 1362 1487 1612 1656 1721 1807 1918 2025 2050 2016
0 0 0 0 0 0 0 0 0 0 0 0 0 0 0 0 0 0 0 0 0 0 0 0 0 0 0 0 0 2 0 0 0 1 4 12 51 95 115 193 382 632 856 898 916 972 1068 1156 1194 1190 1223 1239 1269 1413 1557 1653 1727 1795 1858 1928 1983 2088 2090
0 0 0 0 0 0 0 0 0 0 0 0 0 0 0 0 0 0 0 0 0 0 0 0 0 0 0 0 0 1 5 1 0 3 2 10 15 86 171 199 303 440 706 906 950 1011 1097 1214 1271 1260 1274 1346 1382 1477 1639 1751 1822 1898 1966 2002 2036 2116 2169
0 0 0 0 0 0 0 0 0 0 0 0 0 0 0 0 0 0 0 0 0 0 0 0 0 0 0 0 0 0 2 8 4 0 13 24 15 45 207 235 341 375 498 758 951 1026 1106 1215 1315 1325 1307 1369 1482 1599 1831 1892 1951 2029 2084 2123 2178 2164 2224
0 0 0 0 0 0 0 0 0 0 0 0 0 0 0 0 0 0 0 0 0 0 0 0 0 0 0 0 0 0 0 2 5 0 10 46 49 38 97 266 430 414 425 557 823 968 1058 1174 1315 1385 1373 1395 1514 1694 1928 2023 2102 2178 2247 2267 2281 2288 2292
0 0 0 0 0 0 0 0 0 0 0 0 0 0 0 0 0 0 0 0 0 0 0 0 0 0 0 0 0 0 0 1 2 0 2 43 73 70 81 184 362 483 474 512 700 878 996 1120 1292 1429 1427 1433 1489 1684 1966 2151 2223 2304 2393 2399 2410 2392 2358
0 0 0 0 0 0 0 0 0 0 0 0 0 0 0 0 0 0 0 0 0 0 0 0 0 0 0 0 0 0 0 0 2 4 5 25 72 105 130 186 339 505 548 588 722 890 998 1106 1279 1454 1478 1470 1494 1620 1968 2213 2302 2406 2487 2519 2507 2486 2446
0 0 0 0 0 0 0 0 0 0 0 0 0 0 0 0 0 0 0 0 0 0 0 0 0 0 0 0 0 0 0 0 2 18 15 7 47 119 180 234 320 541 575 642 783 958 1062 1122 1237 1431 1500 1504 1509 1589 1885 2184 2348 2471 2580 2632 2614 2578 2522
0 0 0 0 0 0 0 0 0 0 0 0 0 0 0 0 0 0 0 0 0 0 0 0 0 0 0 0 0 0 0 0 3 21 22 80 145 227 246 359 452 544 607 666 859 1024 1105 1164 1220 1372 1471 1518 1524 1575 1781 2116 2330 2496 2665 2714 2705 2667 2620
0 0 0 0 0 0 0 0 0 0 0 0 0 0 0 0 0 0 0 0 0 0 0 0 0 0 0 0 0 0 0 0 1 28 40 126 163 179 242 178 363 538 626 682 821 1029 1125 1182 1243 1329 1452 1504 1540 1570 1703 2034 2296 2497 2678 2759 2771 2748 2698
0 0 0 0 0 0 0 0 0 0 0 0 0 0 0 0 0 0 0 0 0 0 0 0 0 0 0 0 0 17 0 0 0 0 91 138 134 148 197 250 257 542 652 738 803 924 1101 1203 1251 1366 1434 1490 1549 1587 1638 1905 2253 2489 2676 2782 2823 2792 2751
0 0 0 0 0 0 0 0 0 0 0 0 0 0 0 0 0 0 0 0 0 0 0 0 0 0 0 0 1 184 365 16 45 0 0 167 169 148 199 280 357 532 703 792 868 847 928 1130 1215 1386 1512 1514 1544 1568 1638 1810 2134 2430 2617 2759 2838 2824 2804
0 0 0 0 0 0 0 0 0 0 0 0 0 0 0 0 0 0 0 0 0 0 0 0 0 0 0 0 27 156 247 708 504 0 0 109 224 218 215 266 327 487 643 790 844 888 926 989 1103 1244 1494 1654 1622 1589 1620 1770 2029 2349 2566 2716 2800 2827 2809
0 0 0 0 0 0 0 0 0 0 0 0 0 0 0 0 0 0 0 0 0 0 0 0 0 0 0 0 0 173 843 941 709 329 77 30 63 245 260 280 408 520 636 767 836 872 911 986 1039 1114 1314 1614 1759 1754 1711 1790 1981 2253 2494 2659 2759 2808 2822
0 0 0 0 0 0 0 0 0 0 0 0 0 0 0 0 0 0 0 0 0 0 0 0 0 0 0 0 0 432 949 826 630 443 272 226 214 186 232 282 458 581 665 758 845 890 981 1071 1083 1149 1265 1468 1717 1822 1836 1851 1975 2183 2442 2596 2711 2787 2824
0 0 0 0 0 0 0 0 0 0 0 0 0 0 0 0 0 0 0 0 0 0 0 0 0 0 0 0 0 289 1030 970 839 552 471 408 414 390 381 366 474 603 682 838 937 982 1066 1170 1243 1318 1389 1477 1587 1752 1826 1877 1953 2077 2318 2520 2663 2765 2808
0 0 0 0 0 0 0 0 0 0 0 0 0 0 0 0 0 0 0 0 0 0 0 0 0 0 0 0 0 0 947 1072 932 588 592 544 528 667 727 678 620 582 685 937 1058 1101 1127 1228 1376 1516 1580 1590 1662 1744 1802 1855 1901 1987 2174 2368 2543 2691 2786
0 0 0 0 0 0 0 0 0 0 0 0 0 0 0 0 0 0 0 0 0 0 0 0 0 0 0 0 0 0 145 1182 1043 827 722 641 664 732 833 847 827 848 930 1013 1143 1221 1251 1308 1459 1681 1721 1696 1732 1788 1845 1885 1907 1958 2044 2154 2330 2527 2702
0 0 0 0 0 0 0 0 0 0 0 0 0 0 0 0 0 0 0 0 0 0 0 0 0 0 0 162 868 856 55 354 994 1029 894 738 766 804 932 976 1006 1008 996 1065 1154 1248 1322 1389 1484 1641 1807 1802 1765 1759 1807 1855 1866 1897 1906 1983 2147 2349 2543
0 0 0 0 0 0 0 0 0 0 0 0 0 19 129 442 60 0 0 0 0 0 0 0 0 0 0 477 1072 1439 1171 7 0 549 958 1027 967 857 979 1081 1061 1060 1032 1046 1149 1311 1426 1493 1562 1610 1782 1918 1940 1895 1874 1894 1929 1969 2018 2025 2079 2268 2418
0 0 0 0 0 0 0 0 0 0 0 0 0 221 392 778 558 5 0 0 0 1 1 0 0 0 0 93 762 1409 1726 1386 560 0 274 639 750 980 1069 1098 1151 1071 1046 1047 1105 1218 1425 1609 1666 1771 1859 1944 2010 2023 2010 2015 2063 2092 2112 2150 2164 2197 2372
0 1 0 17 5 0 0 0 0 0 0 0 123 711 718 1013 1157 921 240 133 96 11 25 0 0 0 0 441 747 1444 1780 1822 1402 908 548 0 0 0 677 1224 1194 1079 1073 1083 1099 1072 1295 1568 1704 1790 1917 2041 2078 2094 2092 2106 2136 2163 2183 2208 2220 2206 2298
2 7 3 17 21 28 63 0 0 14 238 355 492 573 662 854 1277 1204 966 1006 977 440 384 297 7 0 282 1070 1148 1607 2034 1825 1941 1679 1230 914 1096 729 246 316 1019 1185 1119 1033 1024 1083 1243 1517 1698 1817 1893 2032 2151 2185 2218 2238 2220 2216 2224 2235 2228 2238 2256
7 38 17 34 36 230 131 25 12 30 81 128 142 231 506 912 1024 1132 975 1010 1232 1306 1058 972 1047 391 746 1462 1920 2093 1934 1874 1879 2042 1875 1756 1515 1708 2562 2483 2210 745 1274 1781 1750 1494 1522 1510 1579 1742 1915 1972 2084 2180 2211 2238 2244 2280 2316 2338 2327 2301 2299
18 29 49 238 275 261 87 134 10 54 123 20 1 42 584 1066 1028 954 952 863 890 945 922 892 1345 1912 1875 1986 2129 1926 1741 1639 1610 1681 1718 1768 1710 1478 2207 3048 2997 2144 899 1525 2235 2291 2416 2534 2416 2062 1899 1904 1974 2065 2157 2137 2134 2216 2323 2370 2377 2359 2316
36 42 115 205 319 212 142 20 249 269 60 0 13 1188 1169 1055 931 1011 1229 1405 1603 1796 1934 1902 1980 1915 1763 1800 1708 1686 1654 1686 1588 1418 1446 1364 1298 1294 1360 2827 3262 3157 2289 1605 2120 2758 2948 3080 3234 3237 2885 1997 1815 1860 1934 2034 2128 2191 2245 2312 2366 2358 2296
24 0 105 204 308 145 127 386 428 921 683 1319 1344 1386 1160 1040 1100 1192 1243 1426 1469 1522 1552 1437 1280 1187 1108 1103 1248 1385 1544 1604 1495 1544 1478 1422 1359 1314 1461 1412 2952 3546 3627 2835 2615 2862 3018 3115 3194 3262 3360 3078 2629 2479 2087 2190 2149 2119 2165 2230 2256 2276 2258
64 33 36 61 179 128 134 708 924 1186 1186 1439 1336 1066 1282 1144 1240 1280 1219 1158 1076 949 944 908 892 968 889 938 1023 1219 1416 1339 1465 1550 1516 1567 1550 1393 1456 1531 1629 2369 3459 3501 3314 3154 3133 3100 3307 3380 3490 3475 3468 3051 2908 3341 2902 2418 2034 2134 2196 2198 2226
35 87 28 46 125 129 430 802 1314 1360 1338 1538 1278 1088 890 1136 1060 863 815 821 859 845 904 948 1010 1002 941 883 876 1011 1125 1314 1436 1466 1495 1635 1562 1474 1475 1478 1601 1783 2223 2867 3397 3525 3485 3442 3324 3495 3544 3573 3518 3391 3261 3356 3096 2960 2778 2506 2276 2325 2488
474 261 361 346 124 131 202 782 985 1148 1249 1132 1195 938 744 769 726 590 642 666 707 721 746 887 936 889 897 994 1038 978 1009 1278 1309 1425 1605 1687 1665 1706 1631 1518 1562 1832 1848 2101 2480 2712 2847 3141 3380 3505 3516 3524 3602 3682 3722 3773 3652 3095 2789 2683 2710 2837 2929
62 72 110 585 232 84 158 134 754 987 881 891 844 854 729 612 410 420 497 615 692 757 826 862 894 949 949 899 926 946 924 890 1017 1232 1373 1457 1655 1755 1665 1706 1618 1755 1875 1961 2104 2229 2340 2478 2564 2924 2968 2547 2583 2755 3395 3147 3372 3187 3010 2712 2732 2845 2880
192 370 406 336 220 41 24 146 524 648 667 660 523 476 343 156 146 137 157 116 256 450 578 612 654 743 789 757 726 916 1021 939 824 916 1151 1406 1630 1754 1768 1693 1683 1699 1797 1936 2057 2106 2144 2348 2442 2684 2777 2359 2110 2123 2252 2339 2677 3164 3511 3619 3416 3057 2809
465 506 508 394 403 106 185 376 484 560 539 538 426 406 319 286 128 120 69 55 32 188 481 549 516 494 671 665 776 941 1108 1143 1145 1203 1240 1437 1717 1756 1804 1786 1710 1730 1762 1918 1935 2123 2209 2322 2380 2422 2475 2698 2923 3147 3299 3378 3726 3818 3761 3659 3545 3372 3135
163 504 399 225 512 43 28 60 200 427 466 398 475 197 183 130 66 72 85 77 23 0 432 493 499 566 626 660 726 806 1061 1335 1432 1447 1455 1375 1724 1841 1894 1911 1893 1828 1887 1934 2059 2140 2177 2255 2303 2237 2251 2361 2581 2783 2925 3174 3390 3536 3553 3496 3373 3260 3149
73 517 365 351 587 484 38 107 97 159 217 338 287 268 92 271 0 0 0 0 0 0 478 518 587 597 647 763 709 769 883 1120 1340 1504 1456 1447 1507 1650 1813 2011 1997 1975 1879 2016 2068 2148 2148 2126 2189 2207 2227 2210 2287 2358 2448 2597 2814 3015 3052 3126 3185 3241 3294
218 181 183 596 582 449 19 89 82 345 79 105 154 94 39 6 0 0 0 0 0 0 0 587 608 642 674 715 754 762 923 1122 1285 1418 1506 1620 1688 1724 1769 1948 2276 2280 2226 2024 1999 1984 2215 2223 2103 2263 2283 2412 2448 2359 2407 2517 2677 2845 2954 3159 3265 3299 3065
66 356 286 240 455 172 1 35 15 135 285 242 174 201 3 0 0 0 0 0 0 0 143 338 485 577 714 779 828 926 949 1094 1170 1205 1371 1605 1672 1698 1680 1738 1894 2222 2422 2384 2161 2152 2148 1573 1298 1502 1493 1955 2247 2344 2413 2372 2419 2786 2932 2984 2982 2918 2368

ECMWFFLT2_con_mucape_015.txt.gz
CAPE
0 0 0 0 0 0 0 0 0 0 0 0 0 0 0 0 0 0 0 0 0 0 0 0 0 0 0 0 0 0 0 0 0 0 0 0 0 16 92 235 288 294 290 405 445 499 540 568 598 639 705 810 922 1013 1147 1227 1225 1210 1235 1320 1306 1362 1553
0 0 0 0 0 0 0 0 0 0 0 0 0 0 0 0 0 0 0 0 0 0 0 0 0 0 0 0 0 0 0 0 0 0 0 0 0 0 30 126 248 278 339 410 435 484 541 570 572 596 664 766 879 956 1046 1184 1254 1256 1269 1370 1421 1389 1424
0 0 0 0 0 0 0 0 0 0 0 0 0 0 0 0 0 0 0 0 0 0 0 0 0 0 0 0 0 0 0 0 0 0 0 0 0 0 0 44 141 330 392 414 436 466 506 567 600 605 633 708 817 920 986 1090 1223 1288 1318 1374 1489 1513 1471
0 0 0 0 0 0 0 0 0 0 0 0 0 0 0 0 0 0 0 0 0 0 0 0 0 0 0 0 0 0 0 0 0 0 0 0 0 0 0 2 48 184 366 413 439 457 483 537 594 646 654 687 783 889 975 1041 1142 1258 1331 1394 1530 1589 1575
0 0 0 0 0 0 0 0 0 0 0 0 0 0 0 0 0 0 0 0 0 0 0 0 0 0 0 0 0 0 0 0 0 0 0 0 0 0 0 0 2 60 195 362 437 456 486 510 571 642 681 722 802 902 999 1080 1137 1225 1319 1432 1529 1652 1674
0 0 0 0 0 0 0 0 0 0 0 0 0 0 0 0 0 0 0 0 0 0 0 0 0 0 0 0 0 0 0 0 0 0 0 0 0 0 0 0 0 5 72 207 351 477 505 512 548 650 724 768 818 911 1002 1120 1226 1275 1326 1423 1535 1654 1731
0 0 0 0 0 0 0 0 0 0 0 0 0 0 0 0 0 0 0 0 0 0 0 0 0 0 0 0 0 0 0 0 0 0 0 0 0 0 0 0 0 0 9 91 277 410 536 552 592 706 803 843 875 923 997 1129 1265 1363 1407 1468 1549 1639 1732
0 0 0 0 0 0 0 0 0 0 0 0 0 0 0 0 0 0 0 0 0 0 0 0 0 0 0 0 0 0 0 0 0 0 0 0 0 0 0 2 4 3 3 19 148 393 561 627 664 774 881 935 967 986 1037 1144 1281 1388 1463 1534 1603 1664 1732
0 0 0 0 0 0 0 0 0 0 0 0 0 0 0 0 0 0 0 0 0 0 0 0 0 0 0 0 0 0 0 0 0 0 0 0 0 0 0 0 12 25 18 11 57 319 626 702 752 852 976 1035 1056 1091 1128 1204 1324 1415 1493 1571 1659 1726 1774
0 0 0 0 0 0 0 0 0 0 0 0 0 0 0 0 0 0 0 0 0 0 0 0 0 0 0 0 0 0 0 0 0 0 0 0 0 0 0 3 4 13 43 49 53 192 548 740 814 906 1041 1123 1149 1190 1256 1303 1393 1476 1564 1645 1738 1814 1853
0 0 0 0 0 0 0 0 0 0 0 0 0 0 0 0 0 0 0 0 0 0 0 0 0 0 0 0 0 0 0 0 0 0 0 0 0 0 0 4 9 6 20 76 216 234 441 695 838 935 1081 1184 1226 1263 1330 1410 1501 1591 1668 1765 1876 1916 1962
0 0 0 0 0 0 0 0 0 0 0 0 0 0 0 0 0 0 0 0 0 0 0 0 0 0 0 0 0 0 0 0 0 0 0 0 0 0 0 50 134 147 189 97 214 351 383 612 801 949 1094 1227 1295 1330 1380 1459 1602 1737 1814 1925 2005 2047 2093
0 0 0 0 0 0 0 0 0 0 0 0 0 0 0 0 0 0 0 0 0 0 0 0 0 0 0 0 0 0 0 0 0 0 0 0 0 0 0 0 4 25 204 250 206 408 443 588 760 920 1100 1269 1340 1391 1416 1483 1661 1830 1961 2060 2148 2207 2224
0 0 0 0 0 0 0 0 0 0 0 0 0 0 0 0 0 0 0 0 0 0 0 0 0 0 0 0 0 0 0 0 2 0 0 0 0 0 0 0 0 0 21 255 277 319 517 629 770 904 1099 1277 1392 1434 1463 1521 1646 1858 2051 2166 2256 2315 2357
0 0 0 0 0 0 0 0 0 0 0 0 0 0 0 0 0 0 0 0 0 0 0 0 0 0 0 0 0 0 0 0 125 14 0 0 0 0 0 0 0 0 24 99 303 484 585 706 805 938 1096 1268 1405 1457 1496 1544 1654 1869 2088 2254 2329 2409 2465
0 0 0 0 0 0 0 0 0 0 0 0 0 0 0 0 0 0 0 0 0 0 0 0 0 0 0 0 0 0 0 0 36 98 0 0 0 0 0 0 0 0 13 69 170 519 668 785 876 972 1119 1278 1390 1473 1518 1558 1651 1850 2097 2261 2379 2474 2533
0 0 0 0 0 0 0 0 0 0 0 0 0 0 0 0 0 0 0 0 0 0 0 0 0 0 0 0 0 0 0 0 55 151 30 0 0 0 0 0 0 0 23 80 212 532 682 807 942 1056 1176 1289 1392 1488 1540 1589 1639 1822 2096 2260 2385 2485 2552
0 0 0 0 0 0 0 0 0 0 0 0 0 0 0 0 0 0 0 0 0 0 0 0 0 0 0 0 0 0 0 0 0 10 617 0 0 0 0 0 0 0 36 134 340 565 715 827 976 1135 1221 1336 1447 1516 1563 1607 1645 1784 2036 2246 2375 2468 2544
0 0 0 0 0 0 0 0 0 0 0 0 0 0 0 0 0 0 0 0 0 0 0 0 0 0 8 158 870 1080 1074 354 0 144 699 520 23 26 58 27 0 2 84 334 480 625 750 866 991 1117 1233 1340 1497 1569 1606 1638 1666 1774 1954 2174 2319 2449 2516
0 0 0 0 0 0 0 0 0 0 0 0 0 0 0 0 65 0 0 0 0 0 0 0 3 128 249 176 919 1289 1250 1107 572 0 0 570 605 427 140 393 127 78 107 334 548 680 774 870 971 1059 1189 1298 1415 1570 1686 1718 1727 1770 1900 2048 2225 2363 2460
0 0 0 0 0 0 0 0 0 0 0 0 0 0 0 343 193 0 0 0 0 0 0 0 10 5 0 0 128 982 1345 1364 1286 930 262 263 609 593 376 593 820 625 443 506 611 708 806 893 996 1092 1188 1258 1322 1467 1628 1748 1795 1812 1858 1938 2094 2247 2379
0 0 0 0 0 0 0 0 0 0 0 0 0 0 0 0 625 575 0 0 0 0 0 0 0 0 0 2 86 418 1326 1215 1383 1321 1220 1356 1661 1738 1540 785 676 846 871 720 720 876 954 976 1046 1132 1195 1271 1336 1400 1493 1644 1786 1871 1866 1919 2017 2155 2321
0 0 0 0 0 0 0 0 0 0 0 0 0 0 0 266 831 782 236 41 16 0 0 0 0 0 0 1 12 668 1312 1430 1164 1109 1034 1074 1594 2042 2127 2018 1916 1722 952 1005 937 931 1095 1151 1184 1236 1313 1403 1430 1443 1490 1579 1692 1780 1848 1938 2006 2091 2250
0 0 0 0 0 0 0 0 0 0 0 0 0 0 0 73 678 749 832 697 449 94 1 0 0 0 0 0 336 1410 1271 1174 1101 1036 938 845 1255 1813 2266 2417 2436 2155 1339 957 1120 1088 1113 1268 1361 1402 1426 1504 1589 1616 1633 1679 1738 1775 1839 1910 1976 2059 2160
6 8 3 0 0 0 0 0 0 0 0 176 0 0 0 887 753 733 759 755 634 512 403 268 365 1487 845 947 1524 1265 994 994 1008 918 898 1011 972 1134 1929 2796 3028 2410 1703 1013 942 1165 1179 1203 1357 1452 1520 1562 1678 1784 1816 1824 1841 1903 1957 1977 2008 2060 2110
4 4 14 0 0 0 0 0 8 52 14 0 16 1218 704 952 1048 1244 1196 1180 1103 942 862 926 1102 1409 1545 1219 1113 926 794 846 874 833 925 992 971 995 1116 2207 3008 3150 3003 2055 1940 2030 2160 2528 1433 1256 1534 1691 1723 1818 1936 1940 1956 1998 2024 2047 2089 2109 2140
8 6 13 4 12 72 0 49 98 355 631 841 552 924 1195 990 1177 1134 1026 1052 1002 959 983 1179 1278 1128 1037 962 933 846 859 709 637 759 904 1079 1179 1138 1055 1455 2125 3154 3293 2908 2573 2622 2810 2844 2891 2140 1524 1696 1817 1917 1952 2033 2107 2127 2110 2140 2169 2158 2154
18 13 19 5 11 79 16 136 167 712 458 816 1236 950 1134 1030 943 971 922 879 861 939 1032 1022 848 841 835 884 915 960 995 936 834 816 1024 1245 1254 1161 1291 1417 1683 2387 3224 3419 2990 2953 3003 3082 3113 3177 2858 2318 1808 1860 1992 2100 2190 2210 2240 2269 2294 2288 2272
59 12 21 30 79 97 34 314 605 869 838 966 903 1008 681 709 615 677 731 782 829 761 757 700 642 640 693 711 820 906 983 950 1036 1144 1277 1426 1333 1348 1272 1321 1577 1826 2114 2753 3507 3522 3220 3200 3304 3348 3207 3148 2888 2584 2049 2168 2573 2225 2269 2344 2349 2362 2377
420 455 218 74 177 130 218 256 724 1019 924 714 742 683 631 456 629 558 674 729 692 639 487 509 566 605 678 684 699 709 776 955 1061 1170 1248 1191 1329 1340 1318 1355 1502 1664 1830 1874 2342 2900 3418 3465 3403 3435 3421 3327 3263 3204 3058 2918 2796 2395 2098 2164 2296 2387 2425
395 130 369 142 139 93 188 150 546 543 778 633 621 552 396 439 544 605 555 678 659 651 544 531 593 600 608 610 624 681 833 991 1023 1144 1296 1364 1323 1230 1181 1442 1500 1633 1568 1940 2085 2047 2497 2733 3324 3502 3543 3543 3497 3419 3401 3310 3253 3218 3119 3000 2762 2401 2301
1 6 408 23 137 65 156 281 356 373 337 294 256 222 355 387 311 568 409 338 654 606 666 626 655 707 817 797 731 761 895 997 1052 1097 1215 1433 1514 1573 1521 1570 1532 1549 1710 1730 1918 2009 2123 2183 2159 2507 2842 3330 3538 3611 3635 3584 3563 3470 3431 3313 3215 3125 2981
382 388 137 21 211 233 90 86 200 284 291 112 97 206 256 305 232 152 488 38 91 423 468 566 683 734 759 802 828 954 1014 1047 1117 1191 1286 1439 1601 1604 1514 1485 1502 1453 1608 1666 1847 1842 2152 2218 2270 2248 2185 2455 2547 2534 3190 3775 3775 3752 3678 3623 3564 3468 3374
210 77 3 44 210 227 49 46 124 204 155 158 98 163 191 186 104 22 38 0 37 138 276 376 514 658 774 821 934 1078 1172 1194 1189 1259 1320 1405 1580 1723 1824 1792 1794 1736 1741 1726 1641 1927 2175 2195 2281 2325 2328 2379 2419 2439 2540 2612 3072 3562 3792 3752 3697 3555 3366
32 338 41 76 209 78 4 66 46 51 35 64 116 100 125 138 133 29 16 2 20 93 246 299 416 518 664 802 933 1054 1172 1278 1342 1392 1386 1449 1537 1686 1795 1909 1930 1918 1826 1765 1661 1846 2052 2087 2118 2124 2182 2222 2236 2310 2429 2540 2648 2715 2601 2593 2654 2772 2610
207 210 307 300 163 43 52 64 51 98 96 41 103 158 167 86 45 0 1 12 1 0 12 3 416 561 692 826 941 1036 1137 1342 1476 1505 1514 1524 1584 1661 1753 1809 1968 2189 1932 1862 1792 1788 1788 1851 1761 1650 1746 1944 2058 2154 2227 2230 2492 2776 2916 2943 2914 2849 2702
123 371 203 129 79 102 59 85 80 110 77 46 11 31 12 0 0 2 0 0 0 0 0 0 335 496 674 760 897 938 979 1164 1418 1537 1532 1495 1459 1592 1753 1978 2028 2195 2137 1982 1993 1944 1932 1488 1422 1384 1048 1420 1669 1913 2067 2201 2310 2390 2684 2924 3097 3199 3027

ECMWFFLT2_con_mucape_021.txt.gz
CAPE
0 0 0 0 0 0 0 0 0 0 0 0 0 0 0 0 0 0 0 0 0 0 0 0 0 0 0 0 0 0 0 19 114 135 281 548 695 836 918 925 976 1174 1229 1372 1292 1284 1233 1207 1176 1197 1335 1573 1524 1584 1644 1734 1791 1819 1827 1797 1772 1740 1847
0 0 0 0 0 0 0 0 0 0 0 0 0 0 0 0 0 0 0 0 0 0 0 0 0 0 0 0 0 0 3 35 64 38 128 323 493 706 869 997 1070 1174 1218 1222 1144 1126 1120 1124 1096 1171 1408 1485 1573 1688 1477 1611 1769 1732 1744 1737 1655 1717 1835
0 0 0 0 0 0 0 0 0 0 0 0 0 0 0 0 0 0 0 0 0 0 0 0 0 0 0 0 0 0 3 17 18 21 62 144 309 506 783 952 1128 1080 1044 1150 1150 1030 1002 1050 1160 1259 1376 1252 1321 1432 1437 1426 1556 1568 1659 1513 1517 1670 1723
0 0 0 0 0 0 0 0 0 0 0 0 0 0 0 0 0 0 0 0 0 0 0 0 0 0 0 0 0 0 0 18 72 65 44 82 160 316 537 666 780 950 980 986 996 994 938 996 1096 1109 1082 1026 1064 1152 1345 1358 1371 1584 1582 1515 1592 1684 1652
0 0 0 0 0 0 0 0 0 0 0 0 0 0 0 0 0 0 0 0 0 0 0 0 0 0 0 4 10 38 18 17 21 84 118 101 96 153 238 416 646 805 853 860 882 959 918 913 999 988 898 943 978 1042 1202 1279 1390 1497 1508 1469 1547 1763 1597
0 0 0 0 0 0 0 0 0 0 0 0 0 0 0 0 0 0 0 0 0 0 0 0 0 0 0 0 0 12 6 5 40 41 70 220 194 197 245 255 372 574 737 789 798 856 913 851 896 906 848 856 917 964 1099 1207 1257 1368 1368 1411 1647 1664 1650
0 0 0 0 0 0 0 0 0 0 0 0 0 0 0 0 0 0 0 0 0 0 0 0 0 0 0 0 0 0 0 0 0 28 32 119 514 259 52 71 107 302 612 774 786 936 1040 962 973 911 878 844 874 926 1000 1161 1205 1304 1293 1321 1463 1809 1869
0 0 0 0 0 0 0 0 0 0 0 0 0 0 0 0 0 0 0 0 0 0 0 0 0 2 0 0 0 27 0 0 0 2 0 42 350 610 217 24 16 147 460 830 992 1164 1386 1306 1239 1002 962 978 896 874 933 1052 1153 1257 1282 1327 1504 1882 1858
0 0 0 0 0 0 0 0 0 0 0 0 0 0 0 0 0 0 0 0 0 0 95 0 0 0 0 0 0 0 0 42 2 0 1 77 347 641 278 263 178 201 176 632 986 1227 1280 1314 1112 1118 1118 1100 968 964 943 977 1107 1218 1355 1421 1502 1643 1660
0 0 0 0 0 0 0 0 0 0 0 0 0 0 0 0 0 0 0 0 0 0 0 0 0 0 0 0 0 0 0 0 0 3 0 109 234 454 706 893 627 250 422 828 921 1186 1316 1451 1146 1441 1310 1119 993 1024 1085 1021 1038 1182 1322 1430 1526 1641 1613
0 0 0 0 0 0 0 0 0 0 0 0 0 0 0 0 0 0 0 0 0 0 0 0 0 0 0 0 0 0 0 0 0 0 10 27 402 557 348 889 883 1101 1026 840 915 1181 1281 1079 1198 1228 1109 1080 1034 1258 1282 1124 1072 1160 1316 1466 1693 1690 1670
0 0 0 0 0 0 0 0 0 0 0 0 0 0 0 0 0 0 0 0 0 0 0 23 162 28 4 44 174 36 20 23 0 0 94 27 0 20 251 377 612 992 1269 1140 1191 1442 1287 1194 1387 1127 1129 1138 1172 1334 1313 1206 1134 1223 1383 1626 1831 1910 1886
0 0 0 0 0 0 0 0 0 0 0 0 0 0 0 0 0 0 0 0 0 0 0 0 9 175 313 9 49 9 0 10 0 3 0 0 0 51 136 821 969 967 1052 1330 1281 1237 1408 1183 1211 1210 1236 1234 1460 1576 1302 1359 1167 1249 1598 1793 2011 2049 2095
0 0 0 0 0 0 0 0 0 0 0 0 0 0 0 0 0 0 0 0 0 0 0 0 0 1 0 0 0 0 0 0 173 16 79 0 0 0 14 392 627 1156 1192 1274 1426 1396 1396 1214 1534 1239 1362 1508 1335 1298 1353 1434 1363 1337 1516 1955 2182 1877 2092
0 0 0 0 0 0 0 0 0 0 0 0 0 0 0 0 0 0 0 0 0 0 0 0 0 0 0 0 0 0 0 6 1 46 34 47 30 0 7 109 274 743 1107 1173 1378 1409 1597 1484 1506 1546 1393 1354 1320 1159 1252 1283 1474 1388 1550 2146 1898 1908 2026
0 0 0 0 0 0 0 0 0 0 0 0 0 0 0 0 0 0 0 0 0 0 0 0 0 0 0 0 0 3 4 0 13 1 43 303 1033 964 652 250 23 119 363 896 1036 1165 1028 1049 1267 1394 1618 1502 1372 1188 1218 1299 1362 1391 1496 1671 1706 2148 2306
0 0 0 0 0 0 0 0 0 0 0 0 0 0 0 0 0 0 0 0 0 0 0 0 0 0 0 0 0 0 0 5 0 0 10 50 122 432 981 713 505 100 14 157 1001 786 743 934 931 1062 1384 1264 1518 1448 1448 1485 1556 1435 1528 1614 1942 2269 2258
0 0 0 0 0 0 0 0 0 0 0 0 0 0 0 0 0 0 0 0 0 0 0 0 0 0 0 0 3 0 1 77 374 0 14 5 9 79 249 448 584 734 602 246 121 529 905 931 846 840 1034 1250 1596 1482 1519 1774 1662 1815 1944 1789 2018 2372 2744
0 0 0 0 0 0 0 0 0 0 0 0 0 0 0 0 0 0 0 0 0 0 0 0 0 0 0 283 205 33 284 828 704 1408 1072 1253 972 930 1364 1432 1045 1005 1022 961 756 547 418 381 642 840 945 1178 1512 1512 1576 1631 1895 2108 2307 2132 2371 2521 2695
0 0 0 0 0 0 0 0 0 0 0 0 0 0 0 0 0 0 0 0 0 0 0 0 0 0 392 614 1820 1793 1670 1764 1879 1686 1450 1550 1634 1704 2114 2250 2428 2577 2206 1582 866 641 510 510 636 788 894 910 1045 1213 1306 1520 1844 2284 2356 2632 2496 2814 2840
0 0 0 0 0 0 0 0 0 0 0 0 0 0 0 0 0 8 74 303 609 484 81 0 0 1 6 22 489 1332 1622 1776 1738 1794 1980 1840 1998 1871 1922 1842 1871 2094 2256 2282 1909 1088 592 435 524 677 697 833 999 1161 1350 1519 2560 2344 2476 2725 2662 2940 2761
0 0 0 0 0 0 0 0 0 0 0 0 0 0 0 0 1 0 10 128 473 846 1167 780 0 2 0 0 0 983 1390 1602 1584 1374 1404 1374 1477 1581 1668 1817 1982 2294 2393 2308 2008 1206 544 582 523 784 800 1047 1459 1808 1789 1809 2093 2290 2635 2551 2678 2842 2745
0 0 0 0 0 0 1 5 0 0 0 1 4 0 0 0 0 0 1 46 188 409 692 892 34 0 0 0 0 1178 1706 1596 1361 1354 1387 1464 1578 1877 1685 1950 2180 2139 2340 2219 1968 1122 907 644 996 1530 1455 1531 1983 2198 2341 2144 2555 2773 2554 2497 2658 2717 2838
0 0 0 0 0 0 0 6 0 0 33 5 19 0 0 0 0 0 0 3 37 128 340 499 301 0 0 0 76 1646 1700 1274 1205 1173 1513 2016 2180 1865 1863 1898 1997 2374 2463 2304 1867 1296 1201 2380 2075 2062 1901 2122 1952 2458 2526 2256 2122 2294 2478 2581 2847 2813 2806
0 0 0 0 0 0 0 2 13 62 37 22 0 0 44 0 1 0 0 0 2 25 118 396 341 100 433 954 900 1194 1124 1000 1007 1209 1542 2202 2250 1972 1601 1663 2034 2589 2569 2613 2434 2237 2544 2904 1798 2035 2350 2204 2444 2684 2745 2589 2430 2286 2586 2863 3062 3124 3258
0 0 0 0 0 25 23 30 7 79 0 0 0 35 0 0 0 0 0 1 0 1 2 290 436 664 609 840 788 783 808 711 644 976 1053 1578 2277 2416 2182 1970 1975 2366 2194 2127 2122 2098 2233 2378 2184 2037 2400 2712 2986 2875 2691 2647 2845 2492 2827 2890 2962 3143 3256
0 0 0 0 0 1 15 140 24 108 0 24 35 14 24 0 0 0 0 0 0 0 1 120 415 358 296 408 633 382 356 445 429 451 554 767 1522 2322 2571 2483 2256 2294 2145 1878 1654 1617 1738 1956 2318 2256 1943 2776 2916 2748 3140 3410 3019 2658 2789 2869 3213 3250 3381
5 0 0 0 30 59 0 109 70 171 124 66 42 12 23 1 0 0 0 0 0 33 0 9 201 105 98 78 610 262 217 302 446 501 656 600 824 1052 1773 2430 2667 2708 2754 2643 2408 1960 1575 1576 1920 2490 3446 3133 3089 3162 2692 2716 3324 2922 2740 3069 3427 3311 3376
12 26 53 40 4 0 0 22 20 104 95 98 104 122 57 59 20 0 0 0 166 78 18 29 31 124 34 41 267 388 315 315 482 558 614 730 748 883 1077 1558 2306 2738 3017 2962 2922 2829 2514 2138 1899 1751 2145 2436 2245 1985 1958 2318 3041 3444 3031 3105 3442 3401 3242
3 0 0 0 0 0 14 49 151 129 99 87 151 180 208 129 100 0 80 172 136 338 389 475 388 364 330 118 130 282 291 367 424 626 745 873 939 895 981 1073 1347 1607 2136 2622 2790 2982 3156 3104 2882 2665 2427 2069 1986 2174 2418 2354 2616 3379 3243 3049 3044 3404 3568
0 0 182 31 0 24 4 16 91 186 162 111 154 202 190 168 124 98 178 242 384 123 409 370 289 312 254 229 416 658 586 408 578 596 699 761 919 1050 1107 1058 1122 1246 1280 1362 1327 1578 2060 2778 3117 3276 3340 3248 3120 3014 3082 3086 3088 3098 3302 3262 3106 3116 3023
1 0 0 0 0 0 0 3 38 54 142 117 78 164 183 181 131 116 133 184 322 392 454 458 416 376 322 191 320 533 724 779 758 723 752 846 904 970 1168 1387 1464 1378 1298 1346 1196 1125 1066 1179 1315 1605 2149 2737 2692 3156 3203 3337 3400 3399 3387 3306 3164 3152 3113
0 0 0 0 0 0 0 0 4 0 97 259 108 92 131 156 108 115 101 112 225 401 529 582 567 537 503 488 532 726 954 976 928 778 988 882 798 854 1158 1209 1391 1400 1301 1123 1039 996 896 1056 1014 1028 1281 1330 1462 1779 1926 2111 2462 2347 2952 3382 3420 3350 3138
2 0 0 42 2 0 152 172 64 29 208 313 170 182 141 88 48 82 81 74 106 243 367 568 608 604 658 654 616 796 1034 1096 1106 1159 1236 1146 969 911 1037 1266 1392 1353 1155 982 851 827 973 1106 1155 1080 1206 1219 1390 1381 1717 2250 2534 2883 2826 2845 2918 2962 3260
0 0 3 19 33 16 0 4 2 1 6 203 284 172 166 84 38 43 7 43 77 140 135 352 640 635 685 730 819 869 930 1008 1094 1168 1225 1348 1130 945 1005 1183 1190 1237 1106 1003 1048 974 986 1044 1020 1054 1050 1076 1153 1246 1498 1817 1920 2182 2385 2350 2194 2087 2092
1 0 0 0 0 0 0 4 0 0 2 47 336 153 98 95 30 43 18 8 63 0 50 0 287 512 624 700 739 808 834 896 1002 1027 1138 1183 1078 875 914 904 968 1078 1027 1103 1330 1445 1552 1476 1192 1042 932 1060 1150 1211 1407 1422 1632 1645 1826 1924 1846 1664 1525
10 0 4 9 8 8 5 0 0 0 0 0 271 252 196 118 66 51 12 18 2 0 0 0 82 200 490 528 608 675 680 686 698 722 747 914 1081 1092 1003 1027 960 874 1082 1250 1373 1451 1566 1516 1314 1267 1244 1216 1228 1325 1550 1489 1834 1701 1780 1878 1740 1520 1335

ECMWFFLT2_con_mucape_024.txt.gz
CAPE
0 0 0 0 0 0 0 0 0 0 0 0 0 0 0 0 0 0 0 0 0 0 0 0 0 0 0 0 0 0 0 0 0 2 345 832 1096 1392 1708 2019 2201 2468 2418 2816 2815 2881 2705 2802 2869 2893 2922 2951 3112 3102 3126 3386 3476 3539 3472 3428 3132 2736 2668
0 0 0 0 0 0 0 0 0 0 0 0 0 0 0 0 0 0 0 0 0 0 0 0 0 0 0 0 0 0 0 0 5 133 589 942 1044 1249 1678 2026 2331 2469 2432 2592 2749 2695 2726 2803 2888 2963 3123 3179 3149 3043 3148 3363 3484 3478 3370 3447 3201 3150 3061
0 0 0 0 0 0 0 0 0 0 0 0 0 0 0 0 0 0 0 0 0 0 0 0 0 0 0 0 0 0 0 0 0 70 403 748 988 1151 1602 1932 2176 2305 2411 2499 2691 2559 2570 2679 2848 2960 3066 3064 3062 3084 2982 2916 3289 3234 3249 3197 3169 3168 3148
0 0 0 0 0 0 0 0 0 0 0 0 0 0 0 0 0 0 0 0 0 0 0 0 0 0 0 0 0 0 0 0 0 0 21 386 938 1108 1398 1770 1999 2133 2237 2284 2433 2461 2396 2567 2808 2894 2924 2885 2843 2840 2850 2829 3045 3215 3129 3165 3196 3169 3054
0 0 0 0 0 0 0 0 0 0 0 0 0 0 0 0 0 0 0 0 0 0 0 0 0 0 0 0 0 0 0 0 0 0 0 60 800 1089 1220 1591 1800 2116 2192 2110 2152 2355 2214 2253 2562 2668 2706 2693 2617 2648 2673 2776 3061 2960 2936 2907 2983 3094 2960
0 0 0 0 0 0 0 0 0 0 0 0 0 0 0 0 0 0 0 0 0 0 0 0 0 0 0 0 0 0 0 0 0 0 0 7 596 1271 1360 1339 1495 1746 2046 2032 1963 2138 2204 2018 2193 2411 2298 2435 2349 2377 2553 2580 2499 2764 2663 2703 2852 3052 3037
0 0 0 0 0 0 0 0 0 0 0 0 0 0 0 0 0 0 0 0 0 0 0 0 0 0 0 0 0 0 0 0 0 0 0 6 924 1395 1169 1174 1157 1470 1899 2050 1980 2002 2133 2083 2056 2142 2240 2248 2318 2359 2386 2451 2345 2342 2371 2483 2654 2976 3006
0 0 0 0 0 0 0 0 0 0 0 0 0 0 0 0 0 0 0 0 0 0 0 0 0 0 0 0 0 0 0 0 0 0 0 127 1526 1678 1156 882 822 1034 1258 1837 2062 1996 2198 2229 2167 2108 2150 2098 2130 2178 2173 2165 2252 2159 2139 2256 2523 2809 2875
0 0 0 0 0 0 0 0 0 0 0 0 0 0 0 0 0 0 0 0 0 0 0 0 0 0 0 0 0 0 0 0 0 0 161 877 1542 1742 1217 933 902 891 1015 1680 2234 2220 2593 2507 2128 2197 2117 2132 2018 2045 2051 2032 2059 2042 2158 2200 2359 2582 2724
0 0 0 0 0 0 0 0 0 0 0 0 0 0 0 0 0 0 0 0 0 0 0 0 0 0 0 0 0 0 0 0 12 45 272 1965 1354 1777 1597 1372 1005 904 1201 1614 2304 2515 2670 2472 2190 2313 2294 2090 1941 1898 1965 1855 1858 1981 2126 2130 2216 2435 2617
0 41 0 0 0 0 0 0 0 0 0 0 0 0 0 0 0 0 0 0 0 0 0 0 0 0 0 0 0 0 0 0 48 1489 1369 994 1355 1631 1272 1697 1461 1361 1430 1618 2204 2818 2630 2305 2196 2182 2175 2100 1954 1967 1911 1801 1786 1881 2089 2152 2320 2311 2521
0 0 0 0 0 0 0 0 0 0 0 0 0 0 0 0 0 0 0 0 0 0 0 0 0 0 0 0 0 0 0 825 46 0 239 262 242 1069 1326 1398 2050 2193 2023 2087 2413 3016 2591 2240 2273 2199 2176 2023 1988 1996 1954 1857 1707 1773 1998 2214 2310 2388 2525
0 0 0 0 0 0 0 0 0 0 0 0 0 0 0 0 0 0 0 0 0 0 0 0 0 0 0 0 0 0 0 0 0 107 229 19 0 0 1599 2073 2417 2666 2734 2706 2528 2446 2547 1995 1974 2087 2008 2036 2046 2069 2045 2009 1712 1745 1937 2178 2336 2359 2550
0 0 0 0 0 0 0 0 0 0 0 0 0 0 0 0 0 0 9 11 0 0 0 0 0 0 0 0 0 0 0 0 0 0 0 0 0 0 0 1441 3000 3082 2773 2961 2903 2476 2632 2051 1883 1851 1994 2207 2104 2038 2051 2000 1956 1757 1925 2207 2467 2467 2575
0 0 0 0 0 0 0 0 0 0 0 0 0 0 0 0 0 0 0 0 0 0 0 0 0 0 0 0 0 0 0 0 0 0 0 0 0 0 0 1051 2078 2880 3482 3104 3319 2900 2897 2674 2198 2097 2090 2161 2130 1981 1943 1946 2066 1883 1865 2331 2476 2631 2778
0 0 0 0 0 0 0 0 0 0 0 0 0 0 0 0 0 0 0 0 0 0 0 0 0 0 0 0 0 0 0 0 0 0 0 0 0 0 0 253 1508 2105 2426 3003 3274 3100 2623 2782 2759 2355 2397 2273 2221 1880 1834 1962 2007 1982 1926 2206 2497 2868 2832
0 0 0 0 0 0 0 0 0 0 0 0 0 0 0 0 0 0 0 0 0 0 0 0 0 0 0 0 0 0 0 0 0 0 0 0 0 0 0 377 2638 1385 776 1310 2756 2315 2086 1954 1996 2273 2460 2199 2219 2146 2058 2078 2188 2077 1934 2054 2547 3139 3156
0 0 0 0 0 0 0 0 0 0 0 0 0 0 0 0 0 0 0 0 0 0 0 0 0 0 0 0 0 0 0 0 0 0 0 0 0 0 0 116 572 1187 1981 1433 1055 1720 2050 1853 1479 1711 2212 2199 2214 2222 2061 2130 2206 2322 2229 2211 2696 3352 3521
0 0 0 0 0 0 0 0 0 0 0 0 0 0 0 0 0 0 0 0 0 0 0 0 0 0 0 0 0 0 0 0 21 70 0 0 1 387 606 698 501 1261 3055 3409 2930 2190 1528 1316 1464 1630 1703 2025 2115 2224 2159 1987 2224 2982 2623 2703 2881 3425 3764
0 0 0 0 0 0 0 0 0 0 0 0 0 0 0 0 0 0 0 0 0 0 12 36 23 0 0 0 0 0 43 16 0 50 11 0 0 47 563 2076 4031 4587 3818 3590 3183 2794 2436 1871 1486 1396 1493 1643 1720 1878 2075 2010 2234 2593 2926 2926 2802 3242 3864
0 0 0 0 0 0 0 0 0 0 2 0 0 0 0 24 199 50 328 776 532 325 495 814 815 1193 862 134 4 0 0 0 8 0 6 39 789 2372 2862 2551 2744 3625 4029 3780 3406 3729 3600 2509 1688 1407 1184 1376 1559 1609 1926 1983 2502 2629 2833 3029 3029 3264 3894
0 0 0 0 0 0 0 2 15 4 8 1 0 0 0 46 186 25 689 841 967 991 1007 1305 1509 1424 389 77 0 0 0 0 6 337 1300 1660 1809 1847 2520 3235 3341 3604 3869 3988 3906 3841 3460 3324 2303 1505 1276 1415 1612 1798 2012 2208 2472 2820 2974 3315 3455 3742 3989
0 0 0 0 0 0 8 4 4 3 2 0 34 0 0 473 371 89 301 468 932 1097 1181 1302 1271 944 220 0 0 3656 2514 2778 2700 2433 2641 2414 2457 2822 3018 3106 3156 3324 3781 3980 3749 3645 3745 2676 2183 1719 1590 1522 1729 1942 2056 2164 2578 2995 3088 3153 3388 3552 3749
0 0 0 0 0 0 0 21 3 25 30 0 15 0 1 208 343 22 471 430 653 759 1024 1056 1140 1207 565 8 2117 1427 1724 1252 1972 2109 2607 2739 2846 2937 2726 2901 3120 3421 3809 4062 3791 2944 2510 2856 2854 2096 1761 1740 1807 2028 2085 2038 2196 2760 3120 3114 3120 3215 3345
0 0 0 0 0 0 0 2 12 75 0 4 0 0 188 4 147 57 265 290 493 641 653 824 907 1383 1538 1632 1468 1193 1069 1598 2016 2342 2148 2345 2415 2588 2642 2764 2765 3612 3615 3570 3458 3419 4014 3682 2747 2736 2268 1996 2221 2507 2646 2601 2403 2626 3163 3262 3349 3423 3514
0 0 0 0 0 28 0 0 0 0 0 0 1 97 44 598 144 440 132 302 465 488 525 619 638 611 545 669 803 943 1101 1513 1861 1940 1915 2058 2411 2501 2602 2784 2820 3481 3188 3414 3374 3145 3376 3230 2782 2887 2873 2718 2781 2909 3000 2929 2804 2447 2835 3284 3493 3709 3900
0 0 0 0 0 5 0 27 0 24 0 33 79 114 414 68 158 334 457 380 572 363 359 257 294 410 449 604 704 779 845 1035 1332 1615 1755 2030 2190 2359 2364 2859 2938 2778 3202 2911 2925 3198 2968 3400 2948 2692 2714 3088 3147 3522 3354 3246 2993 2751 2783 3228 3766 4038 4172
0 0 0 0 1 8 0 14 21 173 72 65 124 119 88 100 144 306 496 503 333 96 77 128 219 308 455 473 552 642 712 788 1002 1219 1435 1632 1846 2044 2087 1828 2202 2346 2395 2394 2767 2934 3043 3518 4052 3642 2864 3696 3788 3891 5094 4516 4087 3904 3865 3977 4227 4260 4216
6 10 0 11 0 0 1 0 0 1 10 34 99 110 147 121 148 160 230 351 61 32 29 93 231 287 361 451 395 611 854 826 957 1149 1436 1472 1398 1734 1630 1738 1874 2107 2308 2592 2428 2588 2641 2964 3305 3881 4258 4608 4593 4614 4183 3990 3877 3438 3523 3772 4020 4003 3985
5 0 0 0 0 0 0 0 0 2 0 0 0 69 104 191 252 187 195 244 92 29 8 25 315 386 412 506 638 686 775 887 1103 1223 1315 1470 1579 1625 1674 1814 2245 2367 2308 2300 2427 2497 2513 2520 2554 2880 3163 3494 3697 3659 3700 3941 4218 3964 3690 3613 3869 3795 3867
5 1 6 7 4 0 0 0 0 0 0 0 0 34 84 128 161 145 131 245 223 76 42 61 111 392 484 711 771 942 1010 1166 1305 1309 1391 1510 1450 1776 1911 1907 2076 2286 2179 2167 2215 2150 2268 2321 2469 2620 2834 2714 2921 2984 3496 3783 4143 4426 3963 3740 3747 3905 4021
2 8 4 0 0 0 0 0 0 0 0 0 0 1 57 115 132 120 158 166 297 177 150 74 100 287 331 406 571 704 605 636 982 1312 1417 1409 1452 1760 1897 1830 1866 1891 1943 1985 2205 2277 2504 2274 2458 2621 2837 3048 3370 3587 3754 3936 3725 3728 4190 4025 4074 4179 4332
1 1 4 0 0 0 0 0 0 16 14 8 1 15 21 25 100 190 189 202 328 171 228 222 117 204 218 218 222 541 510 509 689 1186 1270 1343 1472 1669 1769 1641 1579 1505 1418 1543 1668 1462 1747 2322 2532 2801 2818 2872 2848 2862 3007 3439 3824 3915 3618 3828 4082 3957 3593
6 2 0 23 12 0 0 30 12 21 0 0 0 0 0 0 5 99 178 144 304 246 276 381 432 506 539 586 643 708 734 644 697 919 1248 1363 1410 1495 1517 1478 1414 1343 1220 1324 1488 1549 1641 1649 1775 1844 1753 1714 1935 2182 2393 2612 2965 3309 3345 4009 4124 4091 3992
7 4 27 7 23 1 0 0 0 1 8 3 0 0 0 0 0 55 185 72 440 355 354 583 552 771 929 893 929 1036 1029 867 762 847 925 1132 1395 1443 1352 1349 1374 1472 1428 1402 1493 1424 1301 1223 1067 1241 1442 1727 1734 1965 2100 2311 2810 3037 3276 3418 3436 3403 3450
1 1 2 2 4 0 0 0 0 0 2 0 0 5 0 0 0 39 112 57 39 512 348 417 509 486 600 645 813 918 1056 1046 943 806 734 719 877 1115 1210 1483 1549 1668 1842 1749 1753 1587 1536 1630 1703 1724 1452 1891 1912 1505 2011 2090 2333 2706 2891 2863 2855 2434 2364
3 0 0 0 2 4 0 0 0 0 0 5 13 13 11 9 14 76 110 85 30 397 272 262 335 362 703 689 603 697 777 846 828 665 761 848 827 771 838 1024 1200 1457 1507 1652 1807 1780 1697 1690 1588 1546 1441 1698 1820 1657 1777 1846 2152 2488 2594 2456 1902 1803 2112

ECMWFFLT2_con_mucape_027.txt.gz
CAPE
0 0 0 0 0 0 0 0 0 0 0 0 0 0 0 0 0 0 0 0 0 0 0 0 0 0 0 0 0 0 0 0 0 0 199 276 84 334 529 734 2262 2514 2709 3208 3169 3173 3225 3331 3260 3045 3259 3296 3534 3806 4126 4414 4658 4648 4492 4398 4126 3887 3645
0 0 0 0 0 0 0 0 0 0 0 0 0 0 0 0 0 0 0 0 0 0 0 0 0 0 0 0 0 0 0 0 0 0 70 38 0 18 225 819 2341 2542 2733 3212 3274 3208 3123 3310 3438 3292 3528 3542 3719 3879 4127 4484 4657 4782 4548 4367 3875 3719 3718
0 0 0 0 0 0 0 0 0 0 0 0 0 0 0 0 0 0 0 0 0 0 0 0 0 0 0 0 0 0 0 0 0 0 0 84 86 66 267 631 2102 2628 2653 3052 3395 3280 3239 3396 3656 3615 3507 3451 3504 3805 4091 4304 4452 4550 4456 4021 3709 3748 3748
0 0 0 0 0 0 0 0 0 0 0 0 0 0 0 0 0 0 0 0 0 0 0 0 0 0 0 0 0 0 0 0 0 0 0 0 19 107 100 259 1241 2658 2786 2926 3165 3242 3197 3311 3508 3510 3481 3496 3516 3772 3904 4056 4173 4386 4371 4020 3922 3936 3811
0 0 0 0 0 0 0 0 0 0 0 0 0 0 0 0 0 0 0 0 0 0 0 0 0 0 0 0 0 0 0 0 0 0 0 0 0 36 57 232 625 2334 2888 2718 2977 3110 3030 3214 3533 3547 3461 3436 3296 3431 3590 3735 4066 4137 4110 3964 4041 4185 3827
0 0 0 0 0 0 0 0 0 0 0 0 0 0 0 0 0 0 0 0 0 0 0 0 0 0 0 0 0 0 0 0 0 0 0 0 130 148 103 333 866 2345 2923 2751 2780 2999 2981 3029 3338 3462 3412 3512 3455 3327 3481 3472 3582 3842 3715 3840 4086 4261 4024
0 0 0 0 0 0 0 0 0 0 0 0 0 0 0 0 0 0 0 0 0 0 0 0 0 0 0 0 0 0 0 0 0 0 0 1 72 152 141 177 513 673 2119 2695 2597 2986 3034 2959 3191 3413 3428 3379 3284 3210 3286 3323 3164 3470 3316 3533 3774 4236 4160
0 0 0 0 0 0 0 0 0 0 0 0 0 0 0 0 0 0 0 0 0 0 0 0 0 0 0 0 0 0 0 0 0 0 0 8 21 168 27 112 156 323 1585 2618 2960 2965 3192 3090 3156 3352 3439 3419 3358 3264 3204 3209 3141 3252 3055 3016 3361 4118 4126
0 0 0 0 0 0 0 0 0 0 0 0 0 0 0 0 0 0 0 0 0 0 0 0 0 0 0 0 0 0 0 0 0 0 0 631 776 722 393 592 858 903 1176 2650 3374 3213 3986 3790 2868 3288 3338 3264 3291 3304 3191 3096 3038 2924 3020 2938 3083 3768 3968
0 0 0 0 0 0 0 0 0 0 0 0 0 0 0 0 22 0 0 0 0 0 0 0 0 0 0 0 0 0 0 0 0 11 228 633 1093 1438 779 728 802 970 1923 3120 4017 3801 4119 3227 2823 3327 3713 3244 3148 3097 3192 3036 2984 2889 2910 2926 2878 3370 3796
0 53 735 0 0 0 0 0 0 0 0 0 0 0 0 0 0 0 0 0 0 12 0 0 0 0 0 0 0 0 0 0 38 122 158 176 973 1574 1430 1488 1329 1719 2408 2758 3462 3713 3114 2873 2779 2785 2882 3050 2930 3195 3185 2929 2732 2714 3002 3001 3037 3178 3614
28 0 0 0 0 0 0 0 0 0 0 0 0 0 0 0 0 0 0 2 18 0 0 0 0 0 0 0 0 4 4 6 28 0 0 24 1102 1406 1621 1786 1838 2110 2244 2499 3273 3735 3118 2771 2834 2634 2629 2701 2880 2964 2896 2826 2682 2768 2924 3067 3109 3317 3624
0 4 0 0 0 0 0 0 0 0 0 0 0 0 0 0 0 0 8 40 35 38 0 0 0 0 0 0 0 0 5 1 0 0 0 0 4 603 1417 2024 2462 2614 2554 2948 3013 3368 3268 2866 2819 2714 2574 2562 2864 2887 2738 2881 2630 2552 2785 3036 3176 3198 3554
0 0 0 0 0 0 0 0 0 0 0 0 0 0 0 0 0 0 32 0 1 34 0 0 0 0 0 0 0 0 0 0 0 0 0 0 0 0 413 1926 2812 2971 3043 3324 3418 3559 3934 3125 3073 2736 2709 2930 2621 2666 2691 2600 2678 2404 2678 3086 3420 3220 3387
0 0 0 0 0 0 0 0 0 0 0 0 0 0 0 0 0 0 0 20 0 0 1 0 0 0 0 0 0 0 0 0 0 0 0 0 0 0 0 682 2691 3088 2902 3289 4030 4115 4378 3945 3230 2964 2926 2804 2634 2468 2514 2519 2629 2406 2331 3384 3064 3231 3564
0 0 0 0 0 0 0 0 0 0 0 0 0 0 0 0 0 0 0 122 139 80 25 0 0 0 0 0 0 0 0 0 0 0 0 0 0 0 0 0 6 3530 2582 2894 3845 4016 3778 3991 3636 3120 3297 2935 2763 2450 2363 2390 2367 2293 2283 2600 2917 3623 3404
0 0 0 0 0 0 0 0 0 0 0 0 0 0 0 0 0 0 0 28 54 89 44 2 0 0 0 0 0 0 0 0 0 0 0 0 0 0 0 0 0 0 610 3299 3443 2671 2275 2511 2847 2832 2945 2666 2957 2774 2631 2372 2466 2380 2252 2294 2854 4019 3602
0 0 0 0 0 0 0 0 0 0 0 0 0 0 0 0 0 0 0 0 0 0 0 0 0 0 0 0 0 0 0 0 0 0 0 8 40 7 0 0 2 52 97 299 707 666 1462 1658 978 1708 2802 2335 2556 2590 2361 2464 2460 2847 2765 2477 2909 3635 4192
0 0 0 0 0 0 0 0 0 0 0 0 0 0 0 0 0 0 0 0 0 0 0 0 0 0 0 0 0 0 0 0 0 1 8 66 74 72 21 65 1053 3866 3457 3174 2560 2521 1826 674 434 992 1185 2318 2535 2392 2470 2435 2636 3888 3803 3610 3751 4108 4290
0 3 0 0 0 0 0 0 0 0 0 0 0 0 0 0 0 0 0 0 0 0 0 0 0 6 0 2 142 106 9 0 0 0 0 0 0 0 3 908 2214 2372 2684 3230 2247 1945 3081 2394 1327 988 847 1031 1973 2454 2432 2443 2604 3182 3990 4106 3716 4187 4302
0 0 6 0 4 0 0 0 0 0 0 0 0 0 0 0 0 0 0 0 0 0 2 5 72 256 499 680 467 38 0 0 0 0 0 0 0 217 1098 1289 1835 3286 3574 3179 3139 3468 3310 2926 1690 1017 818 839 1141 1960 2474 2463 3095 2851 3208 3825 3597 4251 4396
0 0 5 5 4 0 0 0 0 0 0 0 0 0 0 0 0 0 7 225 459 347 177 75 340 1203 493 78 0 0 46 1167 1628 2215 2521 2407 2130 2042 2840 3071 2871 3056 3457 4279 4323 4392 4174 3913 3234 2560 1708 1273 1611 2501 2630 2718 2667 2783 3076 3329 3483 3945 3758
1 2 3 8 5 0 10 7 0 2 2 2 0 0 0 0 0 21 106 54 6 0 85 185 1277 811 79 0 0 2636 2046 1603 1992 2216 2862 2404 2578 2405 2406 2446 2464 3425 4102 4363 3965 3473 3324 2577 3319 3763 3528 2470 2020 2585 2992 2871 2971 3057 3192 3299 3426 3466 3588
10 7 4 8 8 26 6 4 3 2 16 4 13 0 0 134 6 30 28 3 158 613 1295 1464 1196 478 0 0 283 1637 1527 1282 1836 2437 2856 2594 2428 2174 1847 2009 3566 3389 3380 4147 4604 4332 3893 4447 4182 3621 3361 3076 2737 2678 2816 2741 2785 2975 3189 3367 3545 3583 3676
3 6 3 4 10 1 4 7 10 2 5 0 31 0 592 198 100 210 10 160 224 627 761 1016 652 802 732 769 1129 1162 1424 1210 1596 1939 2094 2337 2207 2219 2450 3007 3321 3182 3462 4166 4179 3728 4279 4557 4525 4228 3870 3047 2857 2989 3043 3061 2893 2973 3253 3474 3814 4191 4131
1 3 1 1 12 14 0 6 23 7 0 2 5 54 23 429 345 275 120 244 473 757 956 1002 989 957 738 754 748 928 1167 1271 1410 1564 1748 1995 2230 1940 2680 3114 3540 3602 3429 4207 4076 3930 4081 3634 3880 3408 3563 3684 3196 3155 3064 3016 3037 2957 3431 3797 3916 4158 4332
0 5 9 2 0 81 14 14 0 10 1 109 61 52 22 12 4 0 20 66 513 794 906 798 840 889 864 958 952 957 1175 1378 1494 1573 1689 1990 2043 2326 2652 2964 3120 2718 3236 3660 3671 3782 3633 4114 4506 4892 3414 3663 3602 3475 3476 3461 3200 3088 3190 3757 4176 4306 4470
0 0 7 10 12 5 5 52 15 70 56 0 0 1 8 14 17 89 155 8 328 748 726 806 741 742 826 929 1002 994 1068 1220 1498 1623 1785 2106 2420 2374 2453 2665 2770 2529 3197 3546 3716 3835 3554 3814 4474 5055 4910 3856 3970 4018 4122 4162 3858 3591 3448 3794 4420 4357 4338
63 1 0 87 8 12 0 0 0 2 1 0 0 0 14 80 28 39 138 152 335 594 527 531 603 677 783 846 878 950 1008 1036 1162 1519 1719 1952 2062 2068 2301 2497 2445 2701 2996 3047 3175 3259 3271 3655 3992 4565 5118 5012 4488 5143 5492 5182 5093 4846 3919 3768 4319 4652 4716
2 0 0 9 6 8 14 0 0 0 0 0 0 0 0 9 0 0 40 103 379 514 548 432 538 727 988 932 823 860 1020 847 1155 1424 1622 1745 1964 2091 2245 2466 2382 2727 2566 2532 2868 2661 2946 3204 3443 3665 3953 4260 4496 4656 4552 4522 5022 4725 4794 5002 5021 5086 5264
0 0 0 1 1 5 0 3 0 0 0 0 0 0 0 0 2 4 2 34 76 422 575 637 750 735 974 1107 1104 1251 1245 1466 1518 1477 1878 1856 1950 2127 2341 2365 2388 2779 2951 2693 2748 2845 2869 2788 3057 3212 3350 3339 3494 3818 4042 4275 4730 4990 4684 4599 4717 4794 4949
1 1 4 5 3 14 0 0 0 0 0 0 0 0 0 0 0 0 1 1 22 70 504 767 672 734 801 863 961 1100 1270 1196 1295 1489 1682 1792 1975 2110 2251 2288 2300 2553 2642 2658 2706 2735 2802 2971 3157 3328 3545 3435 3654 3645 3911 4130 4422 4599 4605 4422 4557 4601 4638
2 3 0 0 0 0 0 0 0 0 0 4 0 0 0 0 0 0 1 0 0 12 97 619 746 803 831 879 812 869 1151 1074 1155 1510 1790 1836 1960 2117 2291 2203 2093 2223 2248 2356 2486 2492 2632 2652 2710 2906 3161 3276 3406 3515 3792 4021 3850 4265 4412 4353 4756 4938 4890
5 13 13 3 0 0 0 0 0 14 1 0 0 0 0 0 0 0 0 33 0 0 0 218 743 755 886 877 886 846 943 1051 1051 1316 1636 1832 2010 2094 1831 1725 1891 1716 1810 2052 2156 2216 2234 2258 2364 2493 2273 2708 2629 2763 2823 3687 4410 4544 4440 4495 4442 4293 4436
4 7 6 14 8 4 7 1 0 0 0 0 0 0 0 0 0 0 0 0 0 0 27 2 338 859 1001 969 976 999 1076 1129 1143 1039 1403 1574 1688 1973 1846 1790 1810 1875 1810 1781 1656 1682 1686 1531 1720 1911 2139 2126 2442 2461 2776 3103 3099 3341 3537 4308 4460 4302 4527
7 2 10 11 9 2 1 0 0 0 0 0 0 0 0 0 0 0 0 0 0 0 0 0 71 684 957 942 961 982 1010 1022 1218 1059 1182 1278 1629 1872 2008 2235 2362 2214 2123 1898 2054 1976 1972 2044 2086 2171 1876 1888 1777 1820 2159 2128 2474 3013 2938 3069 3155 3046 3335
0 0 0 6 7 6 0 0 0 0 0 0 0 0 0 0 0 0 0 0 0 0 11 14 11 536 938 1087 1178 1183 1152 1016 1022 1062 1079 1157 1229 1506 1560 1805 1918 1958 2225 2330 2143 2038 2018 1934 1961 1846 1747 1673 1712 1557 2048 2042 2463 2829 2827 2619 2514 2680 2658

ECMWFFLT2_con_mucape_030.txt.gz
CAPE
0 0 0 0 0 0 0 0 0 0 0 0 0 0 0 0 0 0 0 0 0 0 0 0 0 0 0 0 0 0 7 142 798 501 137 0 6 1350 1027 1187 1345 1331 1011 1372 1880 2166 2321 2819 2711 2894 3072 3189 3129 3348 3567 3784 3822 3571 3470 3536 3541 3504 3532
0 0 0 0 0 0 0 0 0 0 0 0 0 0 0 0 0 0 0 0 0 0 0 0 0 0 0 0 0 0 1 3 44 390 477 167 5 31 944 1106 1280 1270 1258 1120 1522 1957 1854 3027 2834 3008 3455 3286 3368 3501 3388 3509 3850 3961 3560 3376 3288 3564 3592
0 0 0 0 0 0 0 0 0 0 0 0 0 0 0 0 0 0 0 0 0 0 0 0 0 0 0 0 0 0 0 0 1 532 425 266 34 2 1188 1390 1456 1345 1349 1816 2493 1918 2458 3058 3464 3198 3482 3102 3264 3470 3215 3475 3846 3779 3715 3154 3249 3628 3676
0 0 0 0 0 0 0 0 0 0 0 0 0 0 0 0 3 0 0 0 0 0 0 0 0 0 0 0 0 0 0 0 3 89 475 630 147 56 936 735 773 855 1140 1214 2075 2674 2722 2902 3077 2837 2670 2611 2840 3462 3834 3748 3794 4118 3960 3673 3758 3739 3550
0 0 0 0 0 0 0 0 0 0 0 0 0 0 0 0 0 0 0 0 0 0 0 0 0 0 0 0 0 0 0 0 0 464 476 328 40 135 891 898 820 621 1050 1484 2276 3027 2856 2407 3036 2995 2744 2685 2692 2999 3690 3966 4266 4096 4057 3676 3426 3785 3847
0 0 0 0 0 0 0 0 0 0 0 0 0 0 0 0 0 0 0 0 1 0 0 0 0 0 0 0 0 0 0 0 3 5 266 298 356 324 436 476 407 800 1869 1910 1332 1737 2584 2085 2686 3046 2882 2732 2772 3155 3634 3875 3947 4096 4013 3898 3874 4002 4168
0 0 0 0 0 0 0 0 0 0 0 0 0 0 0 0 0 0 0 2 2 0 13 18 0 0 0 0 0 0 0 0 0 0 0 818 483 253 63 207 266 362 751 659 1126 1558 1451 1740 2346 3206 3082 2964 3008 3174 3426 3673 3856 4054 3973 3869 3785 4197 4137
41 0 0 0 0 0 0 0 0 0 0 0 0 0 0 0 0 0 0 0 0 0 80 0 0 0 0 0 0 0 0 0 1 0 0 341 328 225 80 677 353 1180 1326 1666 1552 1526 1738 1781 3331 3346 3224 3118 3012 3005 3249 3519 3679 3959 4016 3850 3883 3972 3922
34 2 0 0 0 0 0 0 0 0 0 0 0 0 0 0 0 0 0 0 0 0 5 0 0 0 0 0 0 0 0 0 0 0 61 1015 765 728 364 801 1446 1655 1937 1899 1902 1874 2568 3680 3505 3747 3800 3459 3116 3052 3187 3376 3537 3802 4108 4050 3712 3663 3668
28 3 0 0 0 0 0 0 0 0 0 0 0 0 0 0 55 2 0 0 0 0 88 0 0 0 0 0 0 0 0 2 243 1348 2038 1314 987 710 605 672 1480 1354 1553 1760 1957 2032 3381 3983 3517 3864 3906 3494 3176 3169 3028 3157 3312 3762 3814 3620 3633 3720 3719
75 58 161 0 0 0 0 0 0 0 0 0 0 0 0 0 61 0 1 22 0 0 0 0 0 0 0 0 0 0 215 106 318 1090 1626 2187 2144 1358 1192 1398 2138 2084 2257 2232 2125 2741 4208 3662 3297 3619 3768 3456 3230 3757 3628 3038 3062 3099 3693 3632 3844 3522 3896
3 117 150 0 0 0 0 0 0 0 0 0 0 0 0 127 7 0 32 1191 0 6 0 0 0 0 0 0 0 259 363 212 312 1277 1960 1043 934 1261 1528 1827 1410 1788 1686 3745 4609 3644 3809 3610 3440 3284 3474 3417 3754 3997 3720 3104 2960 2949 3071 3657 3757 3919 4275
0 0 20 9 4 0 0 0 0 0 0 0 0 0 0 3 0 56 482 516 55 3 0 0 0 0 0 0 0 12 0 0 302 449 312 373 500 998 1389 2460 3081 1605 1324 2276 4846 5017 4438 3639 3397 3325 3310 3298 3866 4086 3672 3650 3018 2925 3256 3500 3653 3642 4122
2 0 6 6 4 2 0 0 0 0 0 0 0 0 0 0 105 188 156 172 12 0 0 0 0 0 0 6 9 5 0 19 817 74 225 41 25 132 799 1939 2196 4442 3992 5828 5306 5010 4574 3770 3932 3124 3357 3869 3934 3900 3684 3261 3753 3229 3513 3673 3715 3421 3882
6 0 0 0 0 0 0 0 0 0 0 0 0 0 0 0 0 0 0 381 212 0 5 0 12 156 0 0 0 0 25 0 0 0 0 0 76 405 1064 3195 2104 3635 3741 4594 5570 5446 5114 4540 4275 3697 3504 3641 3527 3171 3015 3017 3764 3564 3427 4039 3890 3621 3715
0 0 0 3 6 10 0 0 0 0 0 0 0 0 0 0 1 4 1 335 120 19 36 21 0 7 8 0 0 0 0 0 10 0 0 0 92 364 1000 2311 3113 3650 3657 4379 4501 4965 4456 4162 4562 3948 4073 3784 3073 2897 2980 2814 2862 2905 3294 3797 4014 4035 3872
0 0 0 0 0 0 0 0 0 0 4 1 0 0 0 0 0 0 6 38 98 330 161 0 0 0 0 0 0 0 11 28 0 10 0 0 5 0 55 1053 3280 2369 2680 4011 4282 3591 3618 3434 3252 3251 4017 3184 3305 3174 3107 3222 3192 2929 2660 2794 4104 4359 4063
0 0 0 0 0 1 0 0 0 0 2 2 0 0 0 0 0 0 2 100 378 167 5 15 10 0 10 50 185 67 176 207 141 0 5 0 0 2 4 4 73 1767 3199 3580 3916 3189 3774 3819 2802 2663 2851 3017 3418 3109 2862 3472 3256 3119 3180 3093 3507 4605 4377
0 0 3 1 1 0 0 11 0 0 0 0 0 30 0 0 0 0 0 38 69 48 1 6 19 14 16 0 0 0 0 192 73 44 2 2 28 42 70 415 1490 3248 3510 2875 2952 2248 917 1073 969 2584 2932 2438 3233 3074 3023 3036 3428 3933 3819 3546 3504 5020 4624
0 0 0 9 0 0 0 0 0 0 0 0 0 2 11 4 10 14 0 1 28 36 0 0 20 67 0 0 1 23 6 0 0 0 0 0 0 0 217 4003 4524 3988 3012 2654 1485 3598 3483 2062 1292 586 598 2300 2305 2214 2417 2640 3070 3796 4390 4134 3730 5015 4919
1 2 1 0 2 0 0 0 4 3 0 2 4 0 0 1 11 1 1 1 3 0 0 15 58 54 55 76 329 233 76 1 0 5 631 2639 2445 2555 2501 2537 3213 4258 4291 4198 4452 4316 3547 3221 1954 1057 735 416 1030 2100 2302 2193 3189 3626 4111 4541 3956 4357 5206
0 0 2 2 6 0 1 0 0 0 0 0 1 0 0 0 0 0 0 2 0 0 0 0 178 432 548 543 328 45 744 1478 2026 2408 2428 2521 2294 1992 2023 3013 3762 4368 4264 4189 3270 2877 2307 1972 1862 2324 2194 2465 3186 5002 3044 3098 3538 3302 3627 4273 4457 4354 5074
3 3 2 2 5 14 17 5 0 2 1 0 2 1 1 648 1180 115 10 4 393 265 88 59 85 553 563 427 510 2298 1282 1372 1729 2016 2007 2249 2217 2015 2392 3406 3052 2931 3102 2989 3545 4367 4317 4562 5026 3725 3298 3892 4705 4366 4782 3558 3300 3442 3503 3731 4403 4527 4989
0 10 6 1 0 1 2 7 2 13 17 0 0 0 268 589 852 534 560 6 122 101 263 955 959 638 678 208 1108 921 1125 996 1496 1610 1527 1915 2073 2028 1897 3007 2611 3013 3425 4046 4378 3472 4077 4576 4719 4912 4706 4822 4326 4963 5347 3578 2879 3694 3663 3771 4226 4436 4680
6 4 16 10 1 1 1 4 4 1 3 1 0 22 1004 435 575 402 383 399 679 580 715 749 777 659 884 804 720 768 984 1116 1305 1397 1584 1561 1893 1747 1749 2316 3149 3227 2919 4088 4072 3779 4410 4483 4209 4111 4128 4014 4814 4763 4915 4792 3933 3160 3956 4338 4770 4666 4648
15 10 5 2 8 0 0 2 54 69 35 23 29 561 263 321 270 491 572 457 648 516 634 834 772 850 789 663 754 1161 1083 1242 1560 1576 1599 1924 2052 2269 2130 2361 2928 2893 2699 3473 3553 3360 3552 3879 4200 4949 5567 4394 4839 5161 4637 4481 4512 3363 6014 4974 5199 5121 5184
0 11 9 0 1 75 0 7 25 22 105 86 84 53 200 100 106 270 386 480 378 508 460 515 514 633 676 998 896 815 1236 1260 1412 1524 1821 2137 2298 2390 2346 2552 2819 2500 2760 3346 3374 3702 3598 3659 3500 4344 5132 6012 4568 4567 4485 4042 4257 4483 5409 5761 5531 5670 5654
0 3 5 19 79 2 0 5 20 25 36 32 25 6 144 1 14 17 157 326 288 436 418 278 435 447 618 599 612 790 925 1062 1236 1466 1632 1844 1839 1960 2050 2024 2492 2307 2858 3407 3291 3443 3310 3396 3918 4411 5279 5880 4090 3990 4505 5206 4719 4588 4898 5774 5946 5814 5539
58 0 30 17 6 0 1 0 5 20 23 17 15 0 3 0 0 0 0 14 12 171 399 481 344 463 479 684 720 770 816 930 1136 1442 1693 1607 1930 2005 1990 2326 2700 2450 2733 3051 2758 2784 2961 3214 3660 4149 4879 5589 5692 5753 5650 6023 5938 6134 5497 4312 6653 5970 5637
0 0 1 0 0 8 6 0 0 0 6 13 7 0 0 0 0 0 0 2 3 22 116 418 606 579 633 813 747 864 872 906 1228 1452 1298 1528 1690 1908 1826 2305 2363 2267 2580 2746 2589 2663 2826 2975 3407 3604 4337 4800 5116 5113 5011 4845 5544 5635 5914 5634 5886 6180 5931
0 0 0 0 0 0 1 0 0 0 0 2 6 0 0 4 2 0 0 0 0 1 1 21 113 498 727 876 929 878 916 1067 1185 1314 1433 1736 2006 2154 2060 2338 2422 2714 2766 2558 2805 2726 3228 3118 3518 3207 3732 4117 3898 4090 4427 4130 4648 5083 5206 5354 5612 5874 6246
0 0 0 0 0 0 0 1 0 0 0 0 0 0 0 0 0 0 0 0 0 0 0 0 0 115 528 831 915 937 849 997 1170 1341 1370 1892 1969 2120 2290 2237 2323 2498 2638 2671 2712 2831 2935 2917 3083 3256 3523 3591 3847 4029 3821 3994 4257 4622 4782 4478 5189 4856 5181
0 0 0 0 0 0 0 0 0 0 0 0 0 0 0 0 0 0 0 0 0 0 0 0 0 2 111 534 1018 1103 890 967 1244 1342 1323 1871 2080 2046 2351 2320 2090 2203 2295 2500 2663 2499 2635 2713 2833 2903 3051 3224 3135 3673 3837 3940 4425 4563 4801 4397 4882 4710 4367
0 0 0 0 0 0 0 0 0 0 0 0 0 0 0 0 0 5 0 0 0 0 0 0 0 0 17 127 523 1168 1213 1230 1227 1317 1560 1848 2203 2400 2302 1920 1929 1745 1855 2114 2174 2263 2313 2635 2755 2804 2836 2699 2726 3119 3436 4378 4476 4649 4639 4766 4827 5097 4920
0 0 0 0 0 0 0 0 0 0 0 0 0 0 0 0 0 0 2 0 0 0 0 0 0 0 0 4 134 660 1196 1379 1396 1423 1482 1764 2168 2206 1939 1655 1981 1772 1776 1854 1835 1814 2107 2422 2784 2893 2709 2592 3166 2411 3432 3808 3809 5023 5110 5025 5112 5191 5030
0 0 0 0 0 0 0 0 0 0 0 0 0 0 0 0 0 0 0 0 0 0 0 0 0 0 0 0 7 530 970 1550 1571 1502 1452 1616 1742 2002 2228 2589 2368 2108 1986 1821 1818 1909 2037 2223 1820 2354 1718 1900 2563 2007 3254 3198 3084 3464 3742 4621 4601 4634 4169
0 0 0 0 0 0 0 0 0 0 0 0 0 0 0 0 0 0 0 0 0 0 0 0 0 0 0 0 0 239 701 1330 1556 1640 1688 1721 1770 1899 1824 2074 2535 2503 2467 2326 2292 2226 2194 2048 2173 2010 1595 1593 1851 1962 2224 2518 2646 2878 3228 3354 3229 3426 3698

ECMWFFLT2_con_mucape_033.txt.gz
CAPE
0 0 0 0 0 0 0 0 0 0 0 0 0 0 0 0 0 0 0 0 0 0 0 0 0 0 0 0 0 0 6 658 353 235 578 864 960 1047 1124 1210 1425 1566 1455 1328 1317 1317 1814 2125 1988 1936 1897 1800 1703 1771 1866 1839 1816 1965 2010 1940 1928 2102 1988
0 0 0 0 0 0 0 0 0 0 0 0 0 0 0 0 0 0 0 0 0 0 0 0 0 0 0 0 0 0 0 280 376 288 556 665 831 935 1051 1180 1346 1545 1452 1383 1302 1328 1645 1988 2074 2021 1978 1866 1772 1933 2016 1980 1922 2011 2120 2103 1993 2065 2116
0 0 0 0 0 0 0 0 0 0 0 0 0 0 0 0 0 0 0 0 0 0 0 0 0 0 0 0 0 0 0 1 308 448 741 704 821 908 958 1095 1217 1616 1663 1551 1392 1386 1559 1778 1918 1972 2092 2016 2103 2162 2217 2140 2073 2081 2204 2267 2178 2081 2117
0 0 0 0 0 0 0 0 0 0 0 0 0 0 0 0 0 0 0 0 0 0 0 0 0 0 0 0 0 0 0 6 63 128 688 661 820 924 894 893 917 1238 1618 1667 1552 1424 1498 1717 1951 2099 2252 2218 2309 2420 2508 2402 2291 2201 2247 2332 2388 2232 2112
0 0 0 0 0 0 0 0 0 0 0 0 0 0 0 0 0 0 0 0 0 0 0 0 0 0 0 0 0 0 0 146 197 152 175 748 860 954 960 936 972 963 1080 1426 1535 1491 1497 1646 1845 2193 2414 2388 2385 2545 2705 2700 2554 2381 2322 2323 2372 2385 2283
0 0 0 0 0 0 0 0 0 0 0 0 0 0 0 0 0 0 0 0 0 0 0 0 0 0 0 0 0 0 0 236 289 232 75 534 751 823 965 968 1056 1011 958 1126 1368 1543 1680 2029 2347 2304 2388 2453 2420 2529 2703 2888 2824 2628 2482 2409 2348 2412 2455
0 0 0 0 0 0 0 0 0 0 0 0 0 0 0 0 0 0 0 0 0 0 0 0 0 0 0 0 0 0 0 0 334 314 135 90 654 628 798 961 983 1033 1004 1043 1221 1437 1564 1783 2352 2660 2658 2650 2557 2554 2616 2832 2934 2880 2723 2576 2466 2438 2501
0 1 0 0 0 0 0 0 0 0 0 0 0 0 0 0 0 0 0 0 0 0 0 0 0 0 0 0 0 0 0 0 425 409 87 2 531 662 792 842 906 961 1045 1081 1170 1366 1471 1560 1804 2390 2722 2758 2708 2649 2690 2766 2850 2920 2919 2845 2675 2518 2517
0 0 2 0 0 0 0 0 0 0 0 0 0 0 0 0 0 0 0 0 0 0 7 0 0 0 0 0 0 0 0 0 398 282 114 45 368 753 721 865 941 1024 1127 1208 1348 1508 1615 1646 1790 2250 2783 2837 2804 2760 2676 2867 2896 2986 3053 3065 2940 2719 2626
0 9 5 1 0 0 0 0 0 0 0 0 0 0 0 0 0 0 0 0 0 0 6 0 0 0 0 0 0 0 0 101 250 206 196 88 41 828 858 970 948 982 1161 1330 1675 1918 2179 2071 2123 2364 2793 2922 2878 2820 2691 2966 3288 3211 3261 3290 3155 2912 2777
27 249 118 7 0 0 0 0 0 0 0 0 0 0 0 0 0 0 0 0 0 0 0 0 0 0 0 2 301 417 772 1210 726 427 209 100 243 844 963 989 913 911 1037 1201 1733 2218 2519 2526 2396 2291 2566 2799 2852 2811 2704 2713 3367 3644 3596 3510 3419 3198 2927
3 103 142 29 0 0 0 0 0 0 0 0 0 0 0 0 0 0 0 15 0 0 0 0 0 0 2 165 651 896 1027 1002 954 20 402 462 63 860 904 918 901 1166 1263 1333 1575 1851 2237 2540 2545 2483 2278 2738 2904 2855 2769 2697 3217 3689 3846 3781 3671 3524 3300
8 15 32 13 7 0 0 0 0 0 0 0 0 0 0 10 0 0 91 0 0 0 0 0 0 0 1 488 527 595 828 1024 938 472 303 235 262 804 893 786 958 1258 1506 1779 1998 2136 2355 2559 2541 2311 2271 2907 3002 2941 2868 2785 3065 3476 3769 3864 3816 3720 3560
14 28 15 11 16 7 0 0 0 0 0 0 0 0 0 6 0 80 338 59 124 0 0 0 17 0 0 0 0 538 761 850 769 552 444 894 1111 992 863 963 1040 1070 1170 1361 1468 1468 1603 1696 1834 2244 2742 3141 3238 3146 3055 2980 2942 3233 3566 3818 3861 3798 3708
37 12 14 8 31 8 6 0 0 0 0 0 0 0 0 2 2 0 727 417 42 2 0 0 0 0 0 0 0 401 606 708 705 721 850 1123 1244 1222 1267 1283 1321 1357 1614 1830 1641 1650 1878 2135 2557 3016 3410 3385 3365 3325 3219 3174 3126 3032 3380 3697 3841 3854 3770
124 55 34 4 1 2 0 0 0 0 0 0 0 0 0 0 2 0 122 4 0 0 0 0 0 0 0 0 0 0 0 287 481 545 688 961 1157 1538 1915 2435 2456 2143 2535 3207 2598 2032 2410 2967 3077 3189 3441 3550 3491 3435 3406 3383 3280 3170 3099 3358 3656 3742 3694
26 9 19 1 0 5 0 0 0 0 0 0 0 0 0 0 5 35 69 37 0 0 0 0 0 0 0 0 0 0 0 0 103 308 735 1778 2289 2669 3157 3372 3685 3936 4156 4255 4428 3685 3241 3368 3432 3225 3215 3512 3591 3528 3499 3493 3449 3281 3201 3136 3289 3551 3586
37 10 20 5 2 0 0 0 0 3 16 0 2 0 0 0 2 2 80 205 186 2 0 0 0 0 0 0 6 4 0 0 41 501 46 98 1771 2605 2724 2757 2945 3406 3888 4080 4161 4147 3914 3760 3796 3593 3446 3222 3544 3594 3560 3527 3502 3474 3329 3191 3064 3336 3471
20 8 11 19 2 0 0 1 1 1 12 17 0 140 431 89 2 114 92 30 0 4 3 8 1 0 0 0 222 1466 1602 516 1291 1922 2131 2679 2802 2735 2752 2472 2846 3208 3221 3305 3523 3621 3623 3348 3174 3125 3332 3344 3239 3324 3444 3476 3407 3364 3340 3326 3182 3328 3325
1 8 4 3 0 0 0 0 0 3 14 0 19 360 480 448 456 595 53 3 97 158 97 90 1 6 11 1323 2240 2318 2270 2217 2041 1913 2349 3241 3929 4080 4042 4050 3986 4039 3815 3692 4003 3869 3250 2620 2180 2613 2895 2963 3068 3094 2895 2907 3114 3221 3219 3257 3274 3478 3448
7 7 2 3 0 0 3 2 2 15 16 14 142 227 331 544 801 821 740 26 9 0 4 11 64 213 1036 1477 1844 2005 2164 2161 2092 1964 2191 3117 3376 3251 3229 3244 2918 2837 2659 2814 3152 2597 2364 2252 2135 2111 1907 2101 2775 2858 2938 2817 2666 3033 3139 3087 3148 3272 3735
8 5 0 19 5 5 4 3 9 16 14 17 145 442 259 785 932 1103 1066 17 51 151 73 71 352 1035 1070 1114 1350 1679 1988 2005 1989 1944 1962 2076 2513 2747 2828 2446 2523 2912 3424 3687 3970 4373 4492 4631 4655 4493 4468 3609 2755 3693 3928 2689 2667 2643 3062 3236 3173 3123 3985
7 0 16 0 5 6 4 2 9 21 14 6 16 491 514 645 1043 1188 1073 1102 931 586 632 602 852 1016 930 1048 1191 1395 1659 1931 1954 1858 1785 1747 1731 1909 2126 2577 2816 3414 4134 4153 3980 4288 4479 4584 4273 4260 3967 3917 4293 4281 4067 4454 2540 2467 2600 2974 3359 3247 3978
6 1 6 28 9 14 13 10 16 11 8 1 10 222 444 610 998 1086 1027 957 1078 1003 649 688 718 733 752 848 1012 1266 1282 1272 1539 1891 2008 1967 1888 1671 1864 2789 2851 3166 3934 3783 3627 3482 3668 3766 4279 4492 5004 4809 4253 4960 5168 4460 3898 2979 2414 2625 3264 3445 3887
14 5 1 0 6 11 8 7 14 9 8 11 214 373 340 588 790 956 943 807 766 616 502 488 551 699 736 753 978 1101 1172 1453 1577 1742 2135 2256 1972 1898 2469 2905 2863 2654 3100 3313 3111 3030 3508 3879 3764 4295 4478 5119 5373 4513 4520 4357 4104 4141 3547 2780 3194 3614 3744
26 6 10 2 8 0 0 9 14 2 16 22 377 358 183 428 565 759 847 707 618 572 508 409 454 569 760 729 798 1046 1178 1338 1404 1556 1668 1787 1793 1951 2286 3398 2666 2417 3166 3261 3102 3660 3600 3593 3560 3775 4519 4833 5375 5506 4425 4163 4308 4142 4720 3495 3375 3702 3897
17 16 9 6 36 15 0 1 1 0 23 199 265 276 292 311 510 547 700 682 554 520 486 481 454 529 581 589 733 702 776 1071 1280 1333 1513 1849 2014 2052 2084 2490 2486 2323 3113 3090 2966 3556 3382 3191 3176 3592 4189 4485 4852 5340 4930 5581 5713 5597 5538 4626 3649 3806 3978
14 10 8 32 74 0 0 4 20 2 0 20 10 190 371 410 369 363 451 556 512 420 361 477 458 538 496 622 696 690 709 966 1178 1198 1224 1586 1886 1904 2088 2295 2416 2460 2843 3517 2969 2892 2956 3412 3413 3508 4189 4986 5990 5680 4856 5143 5450 5403 5002 5578 4539 4103 3942
8 7 16 8 0 0 0 0 6 0 0 0 4 147 360 338 332 336 271 312 391 340 66 0 222 414 602 760 796 782 675 790 1006 1156 1264 1260 1576 1807 1934 2375 2361 2344 2702 3137 2709 2787 2971 2870 3189 3721 4340 5021 5044 4971 4880 4764 5262 5087 5126 5575 5434 4618 4290
4 0 0 0 0 0 0 0 1 0 0 0 0 178 320 322 279 261 231 0 0 0 0 0 0 0 498 683 727 881 922 894 862 1053 1373 1485 1679 1745 2053 2450 2375 2469 2406 2721 2627 2774 2935 2875 3146 3273 4029 4570 4708 4621 4783 4706 4719 4578 4975 5518 5987 5247 4960
0 5 2 12 0 0 4 0 2 0 0 0 0 62 238 272 187 131 27 0 0 0 0 0 0 0 20 514 648 821 901 988 1038 1189 1301 1202 1342 1741 1974 2603 2525 2460 2564 2523 2945 2999 2803 2343 2726 3126 3360 4074 4174 4184 4366 4612 4327 4411 4709 5656 5832 5831 5633
0 0 0 0 0 0 0 0 1 0 0 0 8 20 79 19 150 151 90 0 0 0 0 0 0 0 0 8 256 661 825 845 1116 1162 1013 1086 1301 1702 1867 2519 2557 2364 2164 2458 2682 2499 2521 2520 2472 2851 3131 3242 3640 3596 3526 3563 4195 4144 4745 4743 5084 5507 5756
0 0 0 0 0 6 0 0 0 0 0 0 4 3 40 78 162 185 142 2 0 0 0 0 0 0 0 0 0 104 670 730 879 1336 1252 1279 1407 1577 1987 2257 2258 1978 1960 2311 2403 2260 2188 2303 2470 2492 2472 2912 3170 4213 3999 3789 4082 4489 4626 5156 5299 4750 4927
0 0 0 0 0 24 10 0 0 0 0 0 0 0 3 16 44 64 59 97 9 0 0 0 0 0 0 0 0 0 221 698 828 1056 1391 1288 1402 1791 1866 2154 2238 1696 2139 2047 2070 1697 2057 2159 2257 2547 2454 2847 3085 3122 3542 3893 4200 4785 4438 4305 5098 4902 4761
0 0 0 0 0 0 0 0 0 0 0 0 0 0 2 15 17 19 42 47 40 12 0 0 0 0 0 0 0 0 0 28 762 947 1225 1469 1341 1438 1685 2132 2496 1890 1596 1916 1965 1904 1926 1995 2251 2324 2972 2499 2477 2765 3387 3760 4179 4122 3973 5308 5000 4460 4404
0 0 0 0 0 0 0 0 0 0 0 0 0 0 0 2 15 14 14 39 35 0 0 0 0 0 0 0 0 0 0 19 292 703 931 1284 1498 1541 1704 2225 2453 2425 2054 2163 1986 2197 2005 1885 1875 1888 1819 1838 2195 2631 2633 3536 3830 3940 4237 4869 4870 4478 4233
0 0 0 0 0 0 0 0 0 0 0 0 0 0 0 0 6 5 0 0 2 2 0 0 0 0 0 0 0 0 0 7 354 697 706 1009 1463 1498 1545 1986 2230 2339 2430 2251 2006 1941 1897 1777 1834 1770 1745 1733 1930 2126 2408 2757 3368 3873 3950 4229 4522 4295 3989

ECMWFFLT2_con_mucape_036.txt.gz
CAPE
0 0 0 0 0 0 0 0 0 0 0 0 0 0 0 0 0 0 0 0 0 0 0 0 0 0 0 0 6 5 4 21 120 351 565 716 902 1044 1109 1167 1201 1200 1180 1097 1049 1065 1062 1002 946 928 908 882 852 813 893 1065 1018 961 1011 1164 1156 1157 1142
0 0 0 0 0 0 0 0 0 0 0 0 0 0 0 0 0 0 0 0 0 0 0 0 0 0 0 0 0 57 56 68 289 526 677 814 1017 1126 1151 1157 1183 1220 1185 1126 1067 1124 1163 1110 1050 1025 1010 976 930 1022 888 1089 1144 1076 1026 1167 1243 1151 1086
0 0 0 0 0 0 0 0 0 0 0 0 0 0 0 0 0 0 0 0 0 0 0 0 0 0 0 0 0 54 184 219 418 678 797 930 1107 1217 1238 1229 1250 1238 1212 1168 1100 1104 1209 1234 1207 1190 1184 1087 1076 1173 1136 1135 1232 1211 1132 1156 1311 1343 1207
0 0 0 0 0 0 0 0 0 0 0 0 0 0 0 0 0 0 0 0 0 0 0 0 0 0 0 0 0 30 273 402 497 750 939 1003 1168 1286 1310 1303 1294 1295 1271 1213 1123 1110 1207 1324 1334 1322 1346 1328 1292 1284 1328 1241 1263 1312 1279 1224 1334 1432 1422
0 0 0 0 0 0 0 0 0 0 0 0 0 0 0 0 0 0 0 0 0 0 0 0 0 0 0 0 0 8 287 544 581 820 995 1079 1190 1314 1342 1324 1320 1327 1328 1264 1198 1165 1233 1364 1428 1461 1547 1523 1472 1410 1417 1364 1336 1355 1404 1363 1327 1383 1495
0 0 0 0 0 0 0 0 0 0 0 0 0 0 0 0 0 0 0 0 0 0 0 0 0 0 0 0 0 2 268 565 735 841 1021 1076 1134 1249 1334 1316 1318 1351 1346 1299 1255 1232 1272 1410 1538 1550 1620 1637 1606 1566 1549 1502 1372 1345 1452 1483 1445 1431 1471
0 0 0 0 0 0 0 0 0 0 0 0 0 0 0 0 0 0 0 0 0 0 0 0 0 0 0 0 0 0 217 598 771 816 973 1034 1088 1186 1258 1268 1330 1373 1346 1322 1319 1281 1285 1524 1679 1684 1721 1722 1695 1671 1674 1660 1579 1527 1487 1528 1555 1536 1514
0 0 0 0 0 0 0 0 0 0 0 0 0 0 0 0 0 0 0 0 0 0 0 0 0 0 0 0 0 0 152 512 664 751 883 978 1033 1114 1199 1195 1265 1402 1397 1350 1330 1315 1288 1510 1771 1830 1818 1827 1814 1796 1763 1759 1725 1686 1636 1593 1613 1663 1638
0 0 0 0 0 0 0 0 0 0 0 0 0 0 0 0 0 0 0 0 0 0 0 0 0 0 0 0 0 0 64 265 514 623 734 868 954 1002 1028 1099 1160 1356 1482 1485 1431 1376 1341 1435 1722 1892 1906 1928 1941 1920 1898 1893 1836 1784 1741 1685 1718 1784 1784
0 0 0 0 0 0 0 0 0 0 0 0 0 0 0 0 0 0 0 0 0 0 0 0 0 0 0 0 0 0 6 146 219 460 599 729 822 860 907 1017 1056 1214 1462 1558 1510 1456 1420 1435 1579 1779 1930 1995 2050 2066 2056 2084 2057 1968 1864 1788 1838 1885 1905
0 0 0 0 0 0 0 0 0 0 0 0 0 0 0 0 0 0 0 0 0 0 0 0 0 0 0 0 0 0 0 53 105 410 576 692 762 801 850 952 1004 1090 1290 1516 1572 1536 1492 1474 1546 1695 1830 1946 2051 2128 2182 2266 2305 2241 2135 2045 2001 1988 1993
0 0 0 0 0 0 0 0 0 0 0 0 0 0 0 0 0 0 0 0 0 0 0 0 0 0 0 0 0 0 3 35 96 409 580 825 667 742 835 888 944 976 1054 1276 1550 1640 1609 1571 1618 1767 1868 2005 2167 2248 2290 2360 2462 2511 2449 2329 2238 2153 2029
0 0 0 0 0 0 0 0 0 0 0 0 0 0 0 0 0 0 0 0 0 0 0 0 0 0 17 0 23 0 0 56 65 368 550 669 651 747 837 872 908 956 981 1029 1244 1526 1643 1647 1699 1917 2084 2152 2262 2367 2396 2438 2515 2622 2674 2633 2523 2404 2267
0 0 12 11 1 0 0 0 0 0 0 0 0 0 0 0 0 0 0 0 0 0 0 0 0 0 0 2 18 34 3 80 78 2 307 675 729 740 822 864 890 941 1000 1041 1086 1248 1452 1554 1634 1827 2155 2398 2497 2556 2548 2568 2607 2652 2731 2772 2747 2668 2564
0 10 24 23 13 0 0 0 0 0 0 0 0 0 0 0 0 0 0 0 0 0 0 0 0 377 446 517 436 91 25 58 340 28 74 528 692 690 737 781 781 816 931 1031 1088 1186 1328 1449 1514 1636 1929 2330 2617 2703 2718 2738 2757 2842 2832 2849 2835 2827 2772
6 14 23 15 8 0 0 0 0 5 0 0 0 0 0 0 0 0 0 0 0 0 22 133 440 453 196 364 464 382 21 61 364 254 200 350 495 567 574 616 700 815 926 1065 1212 1354 1524 1669 1647 1694 1839 2098 2430 2684 2771 2774 2808 2993 3145 3104 3038 3008 2975
18 9 5 9 10 3 0 0 9 20 18 18 416 561 432 467 0 0 0 0 0 0 291 233 396 201 201 504 466 472 385 399 367 366 379 394 429 572 595 650 753 854 960 1121 1328 1539 1744 1907 1868 1858 1952 2143 2396 2614 2753 2798 2787 2854 3256 3403 3359 3276 3214
27 11 14 12 14 10 34 203 261 348 388 371 441 434 379 430 592 411 0 0 0 300 1073 1532 1644 1791 2025 2193 2314 2210 1809 1650 1752 1913 1953 1918 1768 1564 1281 1027 917 1204 1324 1089 1278 1569 1823 2043 2102 2069 2158 2299 2474 2637 2766 2826 2836 2837 3009 3368 3588 3590 3531
25 7 2 0 13 12 4 130 171 263 254 353 375 382 342 360 464 568 392 97 824 1622 1744 1738 1766 1965 2157 2455 2731 2949 2999 2989 2945 2909 2881 2800 2688 2480 2395 2493 2702 2852 2765 2430 2045 1839 1718 1890 2195 2365 2400 2378 2391 2642 2817 2922 2941 2935 2934 3127 3414 3643 3715
19 4 0 2 0 12 10 16 48 61 147 120 273 370 435 503 552 524 444 1279 1759 1736 1655 1622 1689 1852 1950 2212 2625 2731 2601 2404 2300 2395 2510 2569 2556 2598 2659 2747 2849 2899 2762 2531 2304 2218 2306 2642 2859 2835 2761 2870 2891 2872 2984 3064 3077 3072 3064 3015 3072 3452 3695
26 10 0 0 0 2 9 12 11 31 98 279 432 514 404 612 583 483 1110 1499 1488 1586 1499 1509 1571 1516 1580 1856 2313 2595 2561 2386 2164 2180 2492 2864 3094 3311 3489 3668 3797 3800 3723 3642 3631 3657 3698 3738 3739 3369 2801 3119 3295 3201 3139 3171 3234 3267 3188 3175 3244 3299 3449
22 15 34 0 0 13 2 3 10 241 378 435 388 572 489 534 562 578 858 1207 1244 1071 1022 1068 1157 1130 1409 1696 1892 2367 2397 2374 2211 2217 2484 2955 3429 3532 3408 3298 3365 3446 3390 3308 3362 3552 3681 3811 3996 4203 4028 3686 3339 3607 3631 3589 3521 3465 3431 3438 3457 3438 3415
23 20 13 14 0 0 0 1 10 161 483 460 426 546 488 562 666 757 850 1017 998 874 830 853 963 1050 1349 1606 1800 2067 2158 2177 2248 2436 2455 2401 2413 2676 3219 3199 2825 2759 3066 3170 3171 3136 3108 3322 3746 3874 4177 4673 4317 4047 4438 3957 3667 3658 3623 3587 3562 3558 3531
26 20 12 9 2 0 1 13 0 194 526 452 293 513 508 715 759 821 888 924 976 992 931 937 1079 1166 1267 1562 1635 1869 1890 1778 1840 2095 2291 2392 2405 2360 2588 2643 2629 2643 3036 3164 3166 3083 2913 2733 3082 3523 3699 4149 4769 4731 4725 4214 3874 3552 3311 3521 3679 3660 3638
26 18 6 0 0 0 2 0 4 216 376 413 466 341 657 694 734 780 770 853 919 887 861 885 1028 1132 1184 1300 1583 1746 1691 1511 1584 1790 2028 2224 2292 2345 2540 2828 2890 2771 2881 3080 3081 2901 2834 2873 2945 3136 3569 3896 4403 4653 4710 4406 4210 4339 4341 3986 3077 3018 3326
30 28 2 1 42 25 0 0 0 31 21 236 594 549 596 665 686 714 706 718 755 792 756 786 888 940 1138 1523 1709 1708 1610 1466 1458 1568 1698 1854 1958 2190 2382 2681 2829 2897 2805 2722 2693 2654 2748 2963 3141 3285 3709 4459 4967 4955 4759 4883 4848 5092 5078 4961 4514 3383 2755
15 30 8 0 0 1 0 0 0 2 13 64 364 516 363 222 610 684 636 596 546 636 611 687 901 950 1121 1499 1704 1703 1654 1428 1252 1524 1712 1909 1997 1989 1992 2260 2563 2677 2683 2657 2566 2575 2616 2870 3209 3332 3573 4162 4480 4670 4523 4495 4557 4587 4690 4738 4963 4006 3244
22 30 16 6 7 0 0 0 0 11 21 66 345 384 200 236 394 632 624 587 542 602 663 734 777 935 1120 1250 1473 1576 1495 1483 1141 1214 1590 1774 1885 2001 1990 2069 2079 2345 2443 2441 2502 2475 2376 2718 3035 3233 3407 4046 4505 4500 4448 4374 4477 4320 4446 4852 5597 4442 3561
27 32 10 1 0 0 9 1 2 21 22 21 290 296 239 194 236 607 533 558 526 548 682 697 696 876 977 1191 1092 974 990 1053 1104 1078 1594 1766 1851 1928 1928 1943 2194 1921 2193 2392 2360 2357 2233 2071 2729 3042 3279 3554 4102 4344 4471 4373 4406 4262 4408 4850 5536 4916 3958
1 3 1 0 0 9 60 47 28 22 13 17 110 263 328 302 207 268 530 430 464 487 548 666 564 662 716 881 837 727 790 891 1007 1070 1382 1635 1827 1950 1897 1898 2051 1763 1962 2290 2284 2216 2040 1859 2052 2520 2929 3284 3587 3932 4212 4322 4398 4274 4408 4608 5116 5207 4338
13 31 0 0 0 0 1 0 0 0 2 15 7 151 212 260 275 216 71 392 469 381 408 503 480 424 395 416 424 572 660 694 836 952 1218 1398 1767 1890 1896 1906 2008 1851 1729 2017 2050 1979 1765 1700 1926 2242 2402 2711 3159 3342 3744 4040 4191 4268 4200 4596 5047 5256 4653
16 25 3 0 0 0 0 0 0 0 0 0 0 21 129 149 146 137 141 160 318 443 344 359 395 319 250 216 1 330 518 617 757 919 1002 1408 1710 1764 1820 1905 2016 1946 1704 1734 1919 1825 1560 1850 2029 2201 2257 2581 2826 3038 3355 3469 3724 3960 4026 4543 4890 5202 4849
0 0 0 0 0 0 0 0 0 0 0 0 0 0 15 90 119 84 60 93 109 245 170 318 231 234 293 212 8 0 18 478 541 738 863 1343 1705 1708 1706 1871 1956 1914 1663 1741 1724 1501 1875 2125 2221 2423 2694 2715 2652 2735 3037 3442 3790 3941 4140 4786 4738 5054 5180
15 9 6 0 0 0 0 0 0 0 0 0 0 0 0 56 102 36 43 54 104 125 130 96 196 157 192 113 0 0 0 0 0 147 609 737 1149 1436 1481 1810 1995 2070 1946 1812 1699 1716 1912 1966 2170 2418 2534 2476 2514 2633 2870 3173 3548 3962 4152 4492 4624 4769 4909
26 0 0 2 2 0 0 0 0 0 0 0 0 0 1 1 52 54 22 23 71 66 108 64 133 90 0 0 0 0 0 0 0 28 122 250 656 737 1089 1497 1775 2021 1998 2014 1724 1738 1764 1783 1719 1846 2131 2275 2474 2484 2490 2872 3342 3861 4523 4443 4378 4693 4565
1 0 0 0 0 0 0 0 0 0 0 0 0 0 0 0 0 4 8 11 7 14 37 65 51 45 2 0 0 0 0 0 0 42 194 170 680 749 975 1236 1384 2005 2138 1924 1885 1812 1744 1826 1762 1757 1786 1901 2234 2335 2577 2937 3288 3726 4204 4540 4440 4488 4615
1 0 0 0 0 0 0 0 0 0 0 0 0 0 0 0 0 0 0 3 2 0 0 2 12 20 1 0 0 0 0 0 0 304 353 261 320 789 971 1051 1223 1938 2063 2108 1948 1806 1766 1689 1730 1693 1667 1709 1743 2041 2483 2938 3161 3650 4164 4414 4477 4366 4231

ECMWFFLT2_con_mucape_039.txt.gz
CAPE
0 0 0 0 0 0 0 0 0 0 0 0 0 0 0 0 0 0 0 0 0 0 0 0 0 0 0 0 0 0 0 1 14 21 30 71 219 504 653 744 795 810 801 772 732 697 696 672 670 703 754 832 925 1004 1072 1118 1157 1197 1253 1316 1345 1359 1358
0 0 0 0 0 0 0 0 0 0 0 0 0 0 0 0 0 0 0 0 0 0 0 0 0 0 0 0 0 0 0 0 0 1 27 70 175 441 662 758 827 851 857 838 798 771 753 740 730 728 744 819 884 957 1027 1105 1156 1188 1226 1293 1348 1369 1370
0 0 0 0 0 0 0 0 0 0 0 0 0 0 0 0 0 0 0 0 0 0 0 0 0 0 0 0 0 0 0 0 0 0 33 74 148 378 638 777 834 875 900 892 873 837 810 791 777 756 746 766 844 894 945 1035 1125 1156 1179 1230 1299 1334 1352
0 0 0 0 0 0 0 0 0 0 0 0 0 0 0 0 0 0 0 0 0 0 0 0 0 0 0 0 0 0 0 0 0 1 37 84 152 298 564 731 840 899 932 949 929 907 876 866 827 790 777 776 824 870 906 953 1025 1088 1119 1157 1224 1286 1307
0 0 0 0 0 0 0 0 0 0 0 0 0 0 0 0 0 0 0 0 0 0 0 0 0 0 0 0 0 0 0 0 0 2 40 99 199 318 486 680 836 918 956 974 976 970 957 909 884 836 810 797 816 855 879 898 967 1047 1101 1107 1137 1202 1224
0 0 0 0 0 0 0 0 0 0 0 0 0 0 0 0 0 0 0 0 0 0 0 0 0 0 0 0 0 0 0 0 0 1 24 76 206 333 453 643 811 936 982 991 1006 1020 1020 976 947 903 858 827 825 849 851 870 900 986 1036 1058 1081 1108 1150
0 0 0 0 0 0 0 0 0 0 0 0 0 0 0 0 0 0 0 0 0 0 0 0 0 0 0 0 0 0 0 0 0 0 21 63 168 351 487 658 780 911 994 1026 1041 1058 1064 1035 1005 955 926 892 872 861 863 878 882 920 972 999 1005 1039 1090
0 0 0 0 0 0 0 0 0 0 0 0 0 0 0 0 0 0 0 0 0 0 0 0 0 0 0 0 0 0 0 0 0 2 25 68 127 225 440 651 778 899 1002 1047 1062 1088 1111 1102 1070 1049 1015 948 916 907 898 895 889 895 943 954 954 980 1053
0 0 0 0 0 0 0 0 0 0 0 0 0 0 0 0 0 0 0 0 0 0 0 0 0 0 0 0 0 0 0 0 1 29 75 118 168 233 415 632 787 894 971 1044 1088 1123 1161 1142 1117 1114 1076 1050 1010 984 961 935 930 910 988 984 970 977 1050
0 0 0 0 0 0 0 0 0 0 0 0 0 0 0 0 0 0 0 0 0 0 0 0 0 0 0 0 0 0 0 0 7 55 142 234 262 316 546 712 818 915 999 1073 1107 1135 1153 1154 1164 1174 1175 1147 1144 1118 1073 1044 1073 1013 1054 1090 1076 1044 1062
0 0 0 0 0 0 0 0 0 0 0 0 0 0 0 0 0 0 0 0 0 0 0 0 0 0 0 0 0 0 0 0 8 62 173 359 486 496 652 815 911 993 1041 1107 1131 1141 1156 1166 1194 1200 1259 1299 1312 1308 1281 1240 1253 1198 1167 1184 1218 1199 1174
0 0 0 0 0 0 0 0 0 0 0 0 0 0 0 0 0 0 0 0 0 0 0 0 0 0 0 0 0 0 0 0 21 115 218 676 571 610 744 884 990 1068 1134 1175 1182 1188 1201 1210 1226 1219 1332 1389 1441 1467 1462 1438 1418 1387 1334 1299 1326 1345 1340
0 0 0 0 0 0 0 0 0 0 0 0 0 0 0 0 0 0 0 0 0 0 0 0 0 0 0 0 0 0 0 1 70 148 284 512 568 663 801 957 1068 1166 1201 1222 1243 1268 1288 1295 1275 1308 1425 1464 1514 1582 1598 1608 1618 1592 1538 1480 1458 1472 1480
0 0 0 0 0 0 0 0 0 0 0 0 0 0 0 0 0 0 0 0 0 0 0 0 0 0 0 0 0 0 0 3 73 126 374 511 588 684 848 981 1121 1224 1270 1275 1294 1326 1367 1381 1358 1400 1532 1586 1624 1692 1738 1756 1757 1756 1726 1691 1643 1613 1606
0 0 0 3 3 0 0 0 0 0 0 0 0 0 0 0 0 0 0 0 0 0 0 0 0 0 0 0 0 0 0 0 61 189 355 489 584 708 839 967 1108 1225 1297 1314 1332 1369 1420 1429 1388 1427 1587 1693 1725 1774 1836 1870 1885 1911 1888 1866 1821 1787 1759
0 0 0 22 34 3 0 0 0 0 21 0 70 331 294 0 0 0 0 0 0 0 69 1255 1510 1634 1634 1519 896 6 0 0 52 96 304 430 556 700 813 941 1065 1180 1267 1303 1381 1433 1458 1443 1416 1432 1557 1699 1794 1869 1939 2009 2037 2074 2065 2028 1976 1935 1897
0 0 7 8 19 12 0 0 0 0 188 97 47 17 16 17 196 0 0 46 775 1076 1054 1567 1556 1538 1527 1582 1625 1168 57 0 6 72 265 408 536 665 782 887 1003 1117 1216 1275 1402 1495 1498 1476 1467 1484 1545 1655 1800 1911 2004 2086 2132 2237 2278 2237 2178 2104 2063
1 11 14 17 0 0 0 0 1 0 16 88 24 82 150 185 187 223 977 1414 1530 1430 1505 1457 1428 1422 1631 1663 1680 1733 1736 544 142 343 230 412 518 623 748 859 966 1083 1150 1190 1313 1489 1565 1566 1554 1559 1568 1685 1763 1852 1972 2079 2192 2287 2391 2442 2426 2359 2298
17 22 13 28 6 0 2 0 137 5 16 16 22 23 38 488 853 1196 1462 1498 1632 1650 1668 1576 1552 1685 1613 1777 1955 2091 2020 1828 1715 1222 629 448 523 591 695 792 889 987 1077 1110 1162 1367 1550 1610 1610 1594 1643 1749 1848 1955 2094 2241 2315 2380 2452 2545 2589 2593 2580
25 28 13 2 3 83 52 122 63 125 31 0 0 47 250 445 785 1226 1447 1700 1627 1754 1672 1599 1635 1722 1908 1994 2220 2326 2496 2594 2371 1945 1708 1576 1410 1279 1030 926 833 923 1011 1072 1097 1182 1380 1566 1679 1693 1739 1792 1966 2159 2282 2386 2439 2493 2596 2651 2672 2707 2730
41 31 8 0 38 126 88 134 159 154 102 0 0 266 336 768 1095 1377 1627 1671 1754 1658 1749 1526 1603 1783 1945 2131 2449 2493 2670 2789 2791 2782 2748 2704 2613 2481 2266 1967 1753 1416 1324 1414 1814 2063 1722 1644 1624 1627 1697 1766 1872 2088 2317 2499 2592 2592 2683 2814 2884 2887 2866
47 30 21 29 55 109 156 110 139 111 2 0 1 245 500 811 1104 1317 1646 1749 1669 1696 1556 1632 1554 1600 1806 2209 2487 2620 2621 2610 2650 2591 2636 2673 2668 2675 2697 2779 2834 2872 2907 2992 3092 3104 3236 3396 3455 2945 1813 1812 1874 2006 2161 2347 2598 2736 2768 2841 3017 3131 3155
36 35 20 29 8 0 28 122 98 56 33 62 222 576 508 985 1257 1554 1697 1733 1691 1614 1485 1534 1530 1507 1662 2428 2574 2721 2652 2606 2574 2671 2729 2825 2926 2956 2920 2856 2850 2876 2887 2907 3021 3140 3280 3523 3847 3838 3182 2214 2198 2283 2413 2472 2586 2699 2778 2824 2863 3088 3311
15 21 10 32 2 27 39 84 57 81 242 297 226 458 326 1071 1301 1358 1575 1644 1568 1402 1192 1469 1469 1708 1982 2094 2653 2646 2698 2579 2494 2567 2690 2777 2855 2887 2942 2942 2897 2927 2950 3023 3027 3044 3113 3355 3644 3957 4148 4117 4076 3651 3446 2686 2719 2797 2872 2922 2713 3007 3126
14 16 2 10 62 35 94 26 46 165 286 131 382 149 754 910 1152 1285 1423 1471 1292 1141 1169 1150 1074 1382 1802 1897 2150 2334 2411 2450 2404 2376 2486 2510 2492 2602 2696 2713 2797 2859 2882 2844 2832 2966 3153 3433 3731 4004 4232 4282 4348 4302 4050 3929 3943 3862 3776 3167 3304 3433 3469
10 14 0 1 56 14 89 93 141 248 158 290 375 236 634 690 889 1102 1170 1191 1053 1029 1025 951 1217 1610 1758 1897 1984 2097 2123 2142 2122 2184 2301 2362 2360 2253 2215 2456 2472 2543 2600 2637 2768 2846 2980 3180 3409 3656 3897 4040 4108 4053 3958 3962 4124 4111 4312 4570 4703 3741 3564
3 12 1 0 70 19 12 91 244 282 162 247 270 586 580 514 783 822 954 882 888 879 968 1173 1360 1605 1885 1960 1957 1955 1995 2003 1872 1949 1928 1992 2014 2119 2150 2193 2373 2381 2538 2507 2548 2700 2845 3015 3261 3415 3547 3702 3864 3828 3747 3890 4029 4004 4081 4202 4433 5024 4112
1 6 1 16 13 26 55 57 96 186 107 191 434 453 203 501 606 728 684 688 726 843 1044 1250 1510 1620 1801 1924 1841 1801 1841 1994 1914 1911 1786 1773 1788 1837 1919 1932 1912 1768 1866 1748 1709 2033 2492 2792 2982 3253 3416 3505 3683 3596 3506 3883 4057 4011 3996 4093 4177 4569 4849
0 1 8 7 21 78 54 30 22 32 142 308 421 422 230 186 541 552 531 506 593 811 1068 1238 1349 1528 1576 1684 1727 1687 1522 1433 1440 1510 1489 1540 1607 1549 1565 1657 1740 1650 1551 1505 1554 1638 1802 2202 2671 2876 3044 3281 3574 3677 3674 3653 4050 4098 4024 4146 4199 4381 4789
0 43 7 37 2 14 18 18 33 5 125 283 446 459 221 137 247 454 418 359 439 808 1098 1200 1264 1375 1375 1456 1423 1443 1378 1374 1384 1454 1417 1467 1590 1630 1538 1481 1514 1467 1404 1463 1618 1684 1787 1946 2129 2427 2635 2751 2885 3114 3349 3556 3750 4071 4106 4111 4236 4280 4555
0 4 3 0 0 0 8 3 10 1 22 187 253 373 400 400 304 413 367 324 380 652 1019 1076 1018 1175 1187 1058 1169 1186 1073 1090 1129 1251 1323 1376 1509 1617 1631 1582 1515 1438 1462 1537 1659 1795 1943 2068 2160 2279 2400 2569 2711 2887 3075 3292 3385 3536 3816 4199 4075 4369 4476
0 0 0 0 0 0 0 0 0 0 0 0 0 2 277 409 399 295 154 216 326 450 746 949 994 834 1043 1044 1021 762 648 741 883 981 941 1114 1376 1591 1690 1655 1551 1472 1475 1589 1732 1818 1987 2114 2320 2389 2410 2426 2490 2570 2675 2868 3169 3451 3772 4352 4244 4326 4486
0 0 0 0 0 0 0 0 0 0 0 0 0 0 49 293 352 329 228 177 175 316 562 714 660 838 776 468 42 284 618 423 374 559 770 918 1160 1413 1620 1736 1678 1494 1501 1546 1772 1756 1804 1918 2115 2267 2276 2343 2375 2627 2794 2996 3278 3707 4040 4305 4125 4228 4555
0 0 0 0 0 0 0 0 0 0 0 0 0 0 0 56 103 219 249 278 167 145 367 495 587 625 646 591 409 539 610 630 496 286 0 519 747 1132 1361 1597 1838 1748 1631 1619 1558 1728 1633 1704 1801 1910 2025 2206 2459 2679 2899 3133 3368 3776 4023 4096 4044 4144 4541
1 0 0 0 5 4 0 0 0 0 0 0 0 0 0 0 1 0 178 277 233 189 236 90 179 271 158 489 595 585 496 440 351 295 270 218 612 728 871 1159 1684 1852 1832 1728 1608 1620 1746 1722 1655 1629 1733 2123 2491 2752 2927 3122 3310 3589 3829 4058 4146 4245 4494
1 2 1 1 2 2 0 0 0 0 0 0 0 0 0 0 0 1 0 53 240 206 160 180 241 298 225 302 405 408 380 250 145 0 30 0 52 606 773 890 1240 1638 1707 1757 1718 1667 1583 1601 1675 1626 1533 1961 2463 2690 2871 3001 3184 3412 3720 3934 4042 4156 4408
1 0 0 0 0 0 0 0 0 0 0 0 0 0 0 0 0 0 0 0 0 1 95 110 142 71 227 262 204 315 272 142 39 13 9 3 4 142 668 860 1223 1532 1645 1661 1650 1683 1689 1632 1534 1531 1518 1653 2091 2423 2613 2751 2874 2972 3209 3542 3949 4206 4198

ECMWFFLT2_con_mucape_042.txt.gz
CAPE
0 0 0 0 0 0 0 0 0 0 0 0 0 0 0 0 0 0 0 0 0 0 0 0 0 0 0 0 0 0 0 0 0 0 4 17 43 111 216 412 302 267 238 236 234 230 270 362 436 523 592 661 718 776 829 874 891 898 910 939 1022 1093 1157
0 0 0 0 0 0 0 0 0 0 0 0 0 0 0 0 0 0 0 0 0 0 0 0 0 0 0 0 0 0 0 0 0 4 10 22 42 76 157 342 393 399 415 389 420 424 287 344 430 530 586 654 724 759 797 847 890 911 917 925 991 1060 1130
0 0 0 0 0 0 0 0 0 0 0 0 0 0 0 0 0 0 0 0 0 0 0 0 0 0 0 0 0 0 0 0 0 3 13 22 36 56 96 237 349 338 350 432 460 469 322 328 436 502 564 643 733 771 792 819 874 910 934 940 990 1034 1083
0 0 0 0 0 0 0 0 0 0 0 0 0 0 0 0 0 0 0 0 0 0 0 0 0 0 0 0 0 0 0 0 0 0 9 14 25 42 81 171 244 339 399 512 518 513 402 340 393 480 560 630 726 794 874 834 846 881 920 952 1094 1065 1087
0 0 0 0 0 0 0 0 0 0 0 0 0 0 0 0 0 0 0 0 0 0 0 0 0 0 0 0 0 0 0 0 0 0 2 5 14 38 70 141 232 326 459 529 542 540 454 455 507 519 547 613 707 796 858 881 886 908 934 955 993 1068 1086
0 0 0 0 0 0 0 0 0 0 0 0 0 0 0 0 0 0 0 0 0 0 0 0 0 0 0 0 0 0 0 0 0 0 2 3 6 20 53 99 203 362 467 538 570 572 540 552 537 465 494 581 688 778 844 906 914 942 971 998 1016 1080 1105
0 0 0 0 0 0 0 0 0 0 0 0 0 0 0 0 0 0 0 0 0 0 0 0 0 0 0 0 0 0 0 0 0 0 2 6 6 14 33 90 174 291 418 526 579 598 614 625 618 575 499 572 666 736 798 875 930 962 990 1022 1038 1088 1124
0 0 0 0 0 0 0 0 0 0 0 0 0 0 0 0 0 0 0 0 0 0 0 0 0 0 0 0 0 0 0 0 0 0 0 4 8 8 24 55 137 269 379 500 571 626 653 664 646 645 619 624 645 711 781 841 904 951 978 1004 1037 1078 1143
0 0 0 0 0 0 0 0 0 0 0 0 0 0 0 0 0 0 0 0 0 0 0 0 0 0 0 0 0 0 0 0 0 0 0 0 6 11 16 48 117 248 353 483 620 680 702 704 696 686 675 676 680 703 769 808 854 908 966 1002 1028 1070 1113
0 0 0 0 0 0 0 0 0 0 0 0 0 0 0 0 0 0 0 0 0 0 0 0 0 0 0 0 0 0 0 0 0 0 0 0 0 4 14 36 86 230 414 578 674 712 727 732 727 718 715 717 732 750 759 798 832 868 931 976 1020 1048 1074
0 0 0 0 0 0 0 0 0 0 0 0 0 0 0 0 0 0 0 0 0 0 0 0 0 0 0 0 0 0 0 0 0 0 0 0 0 0 9 33 138 293 474 619 713 770 788 788 764 759 760 778 790 800 805 802 826 857 891 940 985 1014 1040
0 0 0 0 0 0 0 0 0 0 0 0 0 0 0 0 0 0 0 0 0 0 0 0 0 0 0 0 0 0 0 0 0 0 0 0 0 0 3 31 132 312 506 661 750 816 843 831 824 812 816 841 850 856 854 841 840 861 894 930 966 991 1023
0 0 0 0 0 0 0 0 0 0 0 0 0 0 0 0 0 0 0 0 0 0 0 0 0 0 0 0 0 0 0 0 0 0 0 0 0 0 0 14 118 344 521 685 786 851 889 884 877 887 902 894 904 906 889 887 889 896 902 929 958 985 1003
0 0 0 0 0 0 0 0 0 0 0 0 0 0 0 0 0 0 0 0 0 0 0 145 1030 1031 948 0 0 0 0 0 0 0 0 0 0 0 0 8 132 384 563 708 820 896 929 921 927 955 966 978 981 985 974 969 951 936 929 943 958 977 1004
0 0 0 0 0 0 0 0 0 0 0 0 0 0 0 0 0 0 0 0 0 0 847 1058 1087 907 875 908 952 1005 894 129 0 0 0 0 0 0 0 30 170 406 585 727 847 924 972 966 982 1009 1038 1050 1057 1036 1036 1034 1040 1015 998 980 977 1003 1003
0 0 0 0 0 0 1 0 0 0 0 58 48 2 3 0 0 0 0 0 0 564 1215 994 1047 1064 1008 1122 1092 1176 1308 1066 0 0 0 0 0 1 17 73 226 399 607 778 886 983 1024 1032 1042 1063 1083 1114 1125 1132 1133 1133 1118 1096 1074 1052 1040 1033 1024
0 0 0 0 0 1 0 0 25 45 0 0 5 0 0 0 0 16 20 54 496 977 1080 1128 1111 1115 1108 1136 1333 1213 1346 1334 822 0 0 0 2 16 71 180 366 528 704 836 949 1024 1072 1085 1091 1110 1128 1172 1227 1238 1242 1220 1197 1214 1179 1161 1140 1197 1222
0 0 0 0 0 0 0 4 26 10 10 0 1 1 0 0 0 0 512 482 953 1068 1057 1168 1279 1294 1310 1325 1327 1400 1404 1495 1455 28 0 0 3 27 128 292 519 683 828 908 980 1062 1118 1147 1154 1166 1163 1228 1296 1312 1322 1328 1366 1500 1466 1343 1381 1362 1400
0 0 0 2 1 14 14 27 37 45 2 1 1 3 4 42 176 504 873 970 1114 1111 1245 1261 1233 1364 1326 1410 1333 1406 1604 1631 1718 1544 0 0 4 6 45 269 648 811 944 1012 1064 1118 1155 1169 1181 1180 1216 1253 1333 1405 1452 1508 1571 1678 1671 1675 1632 1601 1590
0 0 0 3 1 75 133 114 39 34 17 14 1 8 12 26 2 414 774 965 1082 1226 1262 1256 1290 1581 1566 1600 1578 1622 1717 1853 1922 2015 1880 109 0 4 34 289 753 903 1029 1111 1177 1218 1220 1217 1227 1246 1292 1354 1428 1528 1590 1658 1703 1800 1853 1851 1802 1778 1781
0 0 0 0 63 71 136 63 1 23 11 40 26 54 19 94 242 486 764 957 1150 1320 1291 1300 1466 1459 1366 1422 1668 1863 1883 1990 2092 2145 2128 1820 237 13 15 342 800 958 1090 1182 1248 1277 1292 1302 1306 1330 1383 1437 1515 1605 1689 1778 1889 1944 1994 2002 1987 1990 1994
11 0 1 46 25 97 58 53 6 10 14 0 1 1 6 172 290 467 792 964 1218 1311 1318 1452 1432 1314 1181 1212 1651 2001 2039 1990 2115 2118 2060 1998 1900 1110 481 602 772 920 1094 1223 1334 1356 1386 1390 1407 1434 1439 1458 1566 1701 1789 1882 1952 2018 2124 2154 2170 2188 2169
0 6 44 101 37 38 0 0 5 15 5 0 1 2 375 364 550 700 842 1074 1235 1326 1394 1514 1408 1332 1272 1674 1866 2040 2111 2090 2050 2052 2028 2082 2028 1976 1738 1064 1001 978 1039 1180 1316 1410 1446 1478 1489 1494 1493 1510 1636 1755 1971 1938 2011 2080 2160 2214 2292 2321 2351
1 12 74 100 26 47 5 1 12 17 110 12 0 248 200 486 634 754 856 1120 1259 1298 1367 1397 1427 1511 1685 1758 2062 2046 2060 2018 2042 2010 2065 2131 2136 2118 2210 2247 2194 2141 2332 2204 1768 1566 1508 1555 1564 1562 1537 1596 1827 1851 1968 1993 2078 2147 2203 2302 2354 2417 2448
14 29 93 51 24 9 0 4 4 67 134 40 111 230 152 375 648 788 832 1115 1151 1219 1350 1346 1428 1316 1490 1714 2028 2168 2198 2170 2088 2081 2062 2082 2117 2189 2246 2360 2378 2406 2404 2400 2432 2488 2543 2671 1938 1626 1627 1643 1961 2100 2049 2108 2202 2240 2280 2321 2442 2565 2635
24 55 94 20 23 10 24 1 48 43 21 51 184 47 232 494 691 800 841 1026 1082 1222 1310 1180 1320 1632 1725 1904 2028 2348 2306 2186 2112 2172 2217 2253 2251 2268 2418 2462 2537 2552 2683 2817 2986 3139 3212 3231 2792 1968 1755 2043 2450 2509 2186 2214 2413 2960 2780 2469 2479 2560 2699
32 47 114 32 34 6 16 7 65 92 54 19 41 231 383 562 763 827 939 993 1095 1146 1160 1129 1378 1630 1750 2008 2246 2220 2225 2227 2198 2177 2257 2317 2408 2509 2568 2620 2676 2851 3052 3262 3408 3452 3394 3278 3087 2924 2914 3046 3103 3035 2939 3214 3581 3807 3906 3653 3010 2674 2691
28 62 90 26 6 22 27 23 90 109 29 66 18 218 296 547 571 693 818 950 1054 1111 1080 1164 1428 1630 1944 2016 2102 2089 2085 2161 2064 2154 2160 2207 2254 2436 2440 2463 2568 2768 2982 3232 3586 3734 3569 3266 3088 2999 2976 3060 3120 3193 3375 3620 3752 3792 3830 4020 4010 3322 2991
16 63 42 14 21 5 5 48 26 80 36 68 77 273 347 292 584 630 726 797 654 868 1082 1206 1359 1453 1874 2045 1980 1972 1902 1956 1991 2075 2077 2118 2252 2360 2391 2408 2366 2496 2740 2876 3048 3447 3672 3640 3434 3348 3413 3482 3471 3523 3682 3764 3792 3849 3822 3895 4203 4562 4177
0 30 25 21 3 0 0 12 48 2 7 83 178 317 402 362 502 481 566 658 658 879 1002 882 1271 1448 1590 1816 1850 1816 1735 1758 1812 1817 1954 1974 2071 2162 2256 2273 2280 2318 2290 2514 2707 2846 2978 3217 3439 3449 3462 3466 3501 3532 3673 3714 3656 3696 3679 3758 3830 3918 4244
0 10 34 3 3 2 1 0 30 9 2 104 186 275 267 360 278 277 186 606 622 675 714 920 1124 1229 874 1289 1131 1723 1664 1619 1606 1595 1652 1782 1868 2024 2061 1999 2079 2186 2189 2252 2390 2530 2698 2693 2709 2786 2785 2864 2965 3094 3215 3222 3394 3564 3756 3821 4011 3818 3942
4 2 0 8 1 2 0 13 17 8 3 0 89 183 209 297 372 110 152 329 516 498 460 682 920 1122 813 760 936 1154 1498 1483 1480 1473 1489 1553 1590 1682 1718 1719 1796 1906 2052 2128 2174 2211 2224 2231 2246 2272 2296 2393 2502 2711 2952 3238 3526 3826 4206 4114 3898 3908 4200
1 2 2 6 3 42 27 34 12 3 0 0 0 4 157 191 278 148 115 133 353 250 234 740 949 1007 928 910 899 1016 1352 1324 1350 1411 1398 1407 1429 1454 1516 1534 1506 1728 1616 1779 1962 2025 2030 2026 2114 2208 2346 2496 2652 2859 3091 3357 3608 3811 3866 3827 3914 4079 4346
3 2 3 4 4 0 0 0 1 0 0 2 1 0 38 134 124 143 200 226 120 255 229 549 539 849 974 805 533 448 850 1122 1173 1212 1172 1236 1275 1311 1336 1378 1234 1301 1318 1368 1444 1498 1684 1954 2220 2409 2603 2766 2891 3072 3272 3479 3665 3790 3832 3870 3980 4115 4375
4 5 4 4 4 6 3 4 3 1 0 2 2 0 0 16 0 60 236 269 145 165 306 542 364 496 667 668 506 222 398 916 904 995 1008 1144 1134 1181 1114 1180 1298 1290 1320 1382 1446 1491 1462 1762 2077 2322 2516 2670 2778 2916 3067 3224 3421 3583 3761 3917 4003 4126 4458
0 0 1 0 3 2 1 0 0 0 0 0 2 0 0 0 0 0 90 295 336 263 248 279 384 460 424 584 631 389 274 818 1028 1122 1158 1149 1101 1040 961 951 1230 1235 1190 1238 1326 1353 1336 1461 1787 1991 2202 2373 2511 2610 2686 2775 2928 3136 3342 3716 3992 4090 4432
7 8 6 6 4 1 0 0 0 0 0 0 0 0 0 0 0 0 117 332 284 266 251 297 372 406 464 465 509 406 142 658 902 1079 1095 1078 1067 1028 950 868 1096 1206 1192 1182 1166 1245 1278 1299 1508 1769 1900 2084 2308 2352 2416 2522 2706 2902 3136 3432 3716 4002 4208

ECMWFFLT2_con_mucape_045.txt.gz
CAPE
0 0 0 0 0 0 0 0 0 0 0 0 0 0 0 0 0 0 0 0 0 0 0 0 0 0 0 0 0 0 0 0 24 81 238 530 683 819 838 781 746 797 737 764 668 721 791 938 996 996 1182 1405 1348 1449 1501 1558 1583 1614 1564 1736 1684 1600 1718
0 0 0 0 0 0 0 0 0 0 0 0 0 0 0 0 0 0 0 0 0 0 0 0 0 0 0 0 0 0 0 0 8 5 146 376 536 710 826 883 873 864 825 762 627 631 720 847 993 1103 1416 1410 1505 1575 1394 1548 1668 1672 1608 1699 1644 1706 1784
0 0 0 0 0 0 0 0 0 0 0 0 0 0 0 0 0 0 0 0 0 0 0 0 0 0 0 0 0 0 0 0 0 0 32 338 515 630 826 907 947 923 777 797 728 630 621 732 973 1085 1280 1224 1345 1369 1330 1366 1478 1503 1549 1469 1622 1835 1857
0 0 0 0 0 0 0 0 0 0 0 0 0 0 0 0 0 0 0 0 0 0 0 0 0 0 0 0 0 0 0 0 0 0 1 168 506 621 806 880 892 854 815 781 720 650 597 680 895 1036 1140 1081 1182 1255 1416 1367 1401 1555 1576 1498 1677 1857 1829
0 0 0 0 0 0 0 0 0 0 0 0 0 0 0 0 0 0 0 0 0 0 0 0 0 0 0 0 0 0 0 0 0 0 4 108 360 590 725 744 847 917 845 756 742 710 651 653 811 940 948 1034 1074 1152 1288 1334 1429 1458 1496 1489 1590 1975 1850
0 0 0 0 0 0 0 0 0 0 0 0 0 0 0 0 0 0 0 0 0 0 0 0 0 0 0 0 0 0 0 0 0 0 21 184 377 530 658 643 736 867 896 814 758 728 691 653 784 788 825 946 1021 1129 1219 1317 1408 1492 1472 1485 1680 1831 1793
0 0 0 0 0 0 3 1 0 0 0 1 0 0 0 0 0 0 0 0 0 0 0 0 0 0 0 0 0 0 0 0 0 4 38 188 458 466 494 600 682 827 956 924 825 826 800 765 842 823 870 956 1016 1107 1185 1283 1334 1439 1419 1476 1570 1865 1943
0 0 0 0 0 0 6 4 0 1 0 0 0 0 0 0 0 0 0 0 0 0 0 0 0 0 0 0 0 0 0 0 0 7 33 206 505 588 446 490 552 733 928 1060 1034 1002 975 966 978 870 923 1009 1025 1093 1170 1208 1278 1356 1376 1436 1538 1888 1941
0 0 1 1 0 0 0 9 3 3 0 0 0 0 0 0 0 0 0 0 0 0 0 0 0 0 0 0 0 0 0 0 0 0 69 230 719 778 546 558 629 795 924 1146 1356 1277 1369 1237 947 981 984 1028 1048 1178 1206 1224 1256 1322 1413 1484 1577 1774 1751
0 4 11 5 2 0 0 0 7 5 3 0 0 0 0 0 0 0 0 0 0 0 0 0 0 0 0 0 0 0 0 0 0 0 0 141 663 963 705 700 753 781 1105 1387 1646 1676 1626 1144 978 1148 1209 1106 1077 1175 1252 1253 1332 1383 1427 1485 1558 1696 1670
2 8 0 0 0 0 0 0 2 6 5 1 0 0 0 0 0 0 0 0 0 0 0 0 0 0 0 0 0 0 0 0 0 0 34 8 200 662 652 818 742 1118 1379 1702 1838 1908 1377 1084 1025 1152 1153 1123 1092 1330 1376 1325 1384 1399 1482 1532 1682 1633 1648
0 0 0 2 0 0 0 0 0 4 5 2 0 0 0 0 0 0 0 0 0 0 0 0 0 37 5 0 0 0 0 0 0 0 0 14 14 128 556 751 919 1179 1555 1851 1972 1811 1364 1141 1111 1108 1094 1115 1146 1370 1402 1368 1405 1486 1560 1637 1747 1781 1781
0 0 0 3 1 0 0 0 0 0 1 0 0 0 0 0 0 0 2 1 0 0 101 572 726 1250 1441 1043 910 473 431 678 993 887 211 4 0 6 113 701 1232 1236 1273 1680 1936 1673 1508 1251 1214 1176 1142 1179 1242 1491 1409 1394 1425 1543 1701 1730 1834 1818 1890
0 0 0 0 4 1 0 0 0 0 0 0 11 3 0 0 0 0 0 0 0 587 903 1018 1173 1322 1377 1260 1115 1533 1731 1622 1714 1898 1276 258 0 0 1 212 632 1341 1385 1529 2005 2088 1912 1422 1402 1263 1310 1392 1394 1434 1374 1373 1475 1567 1753 1863 1956 1843 1855
0 0 0 0 1 2 0 0 0 0 12 129 48 45 40 0 0 0 0 0 0 491 727 1044 1206 1264 1162 1363 1382 1316 1396 1483 1472 1696 1855 1028 35 0 0 136 564 979 1204 1524 1912 1965 1852 1658 1624 1401 1430 1438 1379 1292 1352 1402 1485 1485 1726 1994 1889 1827 1977
0 0 0 0 0 2 0 0 0 87 126 160 66 30 7 14 39 21 5 0 0 648 478 796 1390 1258 1345 1262 1248 1249 1210 1223 1308 1544 1792 1899 1173 33 0 0 102 845 1072 1649 1861 1850 1684 1669 1663 1468 1670 1406 1315 1242 1345 1380 1424 1463 1692 1840 1802 1908 1907
0 1 2 0 0 0 0 0 12 107 46 56 23 0 0 0 2 37 17 26 40 1 316 709 1151 1294 1362 1306 1209 1259 1288 1225 1277 1348 1610 1931 1944 892 29 0 56 424 714 1255 1722 1603 1573 1533 1459 1477 1698 1433 1482 1415 1446 1378 1463 1483 1500 1620 1692 1983 1989
0 6 2 0 11 2 10 33 85 99 60 49 2 1 1 0 0 2 1 2 27 137 456 376 782 997 1382 1472 1274 1246 1187 1193 1212 1442 1572 1831 2179 1296 172 0 0 129 979 1239 1596 1645 1706 1679 1550 1530 1492 1406 1480 1415 1492 1546 1510 1581 1630 1619 1845 2050 2027
1 7 8 13 40 27 152 0 152 134 122 67 0 2 2 0 2 0 0 82 176 382 518 712 683 1022 1312 1427 1243 1276 1300 1334 1349 1354 1607 1866 2068 1982 570 8 0 657 1422 1535 1706 1816 1722 1611 1617 1592 1506 1512 1605 1524 1620 1602 1621 1901 1832 1783 2061 2166 2328
1 6 11 27 8 63 27 135 182 162 136 89 34 1 11 6 1 2 2 1 75 188 465 694 979 1346 1313 1301 1208 1235 1304 1360 1343 1284 1593 1781 1892 1898 1120 356 406 1132 994 1512 1604 1744 1622 1620 1616 1625 1628 1563 1566 1568 1595 1573 1642 2008 2192 2193 2313 2227 2305
6 9 18 0 33 8 78 170 204 188 177 116 56 61 7 1 0 3 4 74 169 332 601 824 1119 1312 1189 1191 1196 1269 1186 1226 1381 1371 1414 1690 1842 1883 1125 738 1144 1669 1407 1637 1362 1848 1620 1578 1693 1634 1587 1554 1521 1576 1531 1627 1884 1936 1971 2218 2088 2302 2369
6 9 5 0 11 67 79 84 132 152 156 109 69 10 10 0 6 5 20 149 337 430 664 945 1265 1223 1192 977 1061 1156 1194 1182 1206 1377 1271 1633 1960 2063 1250 1234 1598 1742 1583 1604 1925 1492 1699 1582 1587 1632 1678 1695 1760 1838 1724 1900 2052 1943 2105 2226 2251 2479 2236
2 7 7 3 29 30 69 47 116 124 141 110 88 50 3 7 5 19 28 180 299 509 658 839 1066 1233 934 864 1052 1128 1159 1207 1247 1284 1230 1309 1733 2134 1918 1431 1342 1435 1870 1741 1658 1742 1735 1615 1673 1862 1834 1826 2054 2139 2111 2142 2079 2147 2299 2238 2383 2428 2319
1 8 6 10 17 4 74 108 103 104 122 94 72 54 2 6 4 62 84 179 262 445 532 695 940 993 806 988 1056 1122 1170 1169 1311 1313 1363 1439 1410 1901 2246 2105 1918 2103 2391 2194 1737 1752 1666 1870 1950 2068 1902 2172 2288 2310 2424 2229 2230 2454 2354 2419 2521 2532 2442
6 7 7 5 6 3 41 92 85 109 133 118 68 39 3 7 4 86 161 248 305 410 576 650 1103 819 553 909 1008 1024 1270 1419 1509 1561 1519 1542 1441 1639 1996 2330 2819 2262 2288 2012 1788 1634 1951 2278 1804 1988 2277 2153 2540 2865 2775 2549 2485 2416 2521 2721 2896 2896 2850
6 6 4 1 5 3 45 85 75 87 76 76 83 2 22 13 5 120 185 336 408 494 700 767 826 836 885 863 1089 1230 1402 1573 1586 1705 1718 1653 1655 1670 1912 2116 2398 2851 2546 2703 1981 1810 2690 2153 2064 2327 2526 2635 3085 3180 2748 2612 2654 2476 2808 3157 3226 3345 3430
3 5 9 20 7 0 20 58 55 76 41 46 7 4 4 6 5 111 254 333 439 641 782 818 895 903 980 1161 1335 1484 1629 1730 1736 1760 1829 1852 1801 1733 1704 1949 2077 2393 3068 3168 2884 2418 2018 1919 2074 2193 2203 2968 3091 3159 3008 3136 2927 2986 3344 3236 3401 3413 3374
4 8 5 4 2 3 24 37 25 20 40 36 5 7 2 82 49 286 286 386 509 672 906 847 927 978 1151 1290 1386 1544 1676 1664 1831 1874 1988 2148 2186 2114 1994 1839 1886 2193 2606 2946 3138 3254 2375 2048 2216 2297 2538 3452 3458 3368 3424 3669 3179 3412 3530 3696 3749 3606 3644
1 1 2 8 11 26 24 24 29 28 24 19 13 5 5 1 10 2 365 454 581 706 874 884 1005 1141 1216 1390 1556 1730 1724 1627 1818 1942 2067 2177 2390 2450 2487 2509 2339 2174 2471 2711 2943 3034 3162 3502 3316 3144 3349 3649 3658 3696 4589 4613 4507 4089 3975 4043 4055 3941 3822
2 23 10 2 0 9 14 10 36 49 67 28 9 2 2 1 7 12 400 441 621 738 841 957 1062 1224 1262 1352 1454 1580 1553 1588 1727 1810 1958 2192 2451 2665 2794 2832 2877 2728 2465 2432 2583 2916 3086 3485 3759 4112 3980 3964 4158 4516 4331 4702 4877 4893 4844 4610 4405 4154 4099
0 2 0 0 1 13 27 22 10 27 76 60 22 8 9 10 3 209 123 319 594 707 805 996 1112 1251 1282 1356 1381 1325 1356 1472 1678 1832 1898 1981 2141 2486 2830 2819 2970 3145 3060 2835 2608 2535 2588 2925 3311 3778 4308 4409 4302 4192 4430 4717 5037 5174 5261 5138 5002 4934 4790
2 0 6 2 1 2 8 6 14 20 33 35 14 14 6 2 32 30 71 284 414 638 814 819 936 1081 1242 1323 1386 1340 1271 1410 1667 1731 1764 1827 1983 2114 2229 2553 2879 3160 3260 3161 3018 2845 2798 2752 2816 3030 3220 3394 3798 4214 4284 4454 4820 5457 5694 5616 5506 5441 5305
1 0 3 1 0 3 2 0 0 23 23 20 16 6 6 4 1 49 166 168 325 531 560 633 594 895 990 1184 1250 1148 1200 1396 1480 1605 1682 1722 1750 1860 1852 2130 2394 2752 3114 3224 3234 3143 3065 3028 3056 3043 3033 3147 3377 3903 4262 4825 5350 5003 4988 4905 5567 5712 5632
0 0 3 17 3 7 1 0 4 14 12 9 5 2 0 4 1 58 130 169 348 449 544 506 690 833 888 980 1168 1248 1255 1267 1343 1416 1537 1535 1542 1651 1690 1811 2000 2141 2458 2842 3075 3216 3165 3185 3231 3220 3249 3316 3426 3493 3561 4192 5173 5178 5127 4879 4874 5141 5484
2 11 11 13 28 18 9 5 0 1 0 2 4 0 0 0 0 0 52 169 203 339 505 254 550 716 850 913 1043 1117 1170 1167 1159 1201 1367 1482 1539 1586 1526 1657 1749 1886 2071 2308 2352 2658 2868 3010 3080 3199 3125 3295 3255 3129 3311 3433 4244 4586 4766 4946 4942 5034 5140
14 14 7 13 20 14 18 8 7 1 0 5 13 3 2 4 2 1 4 30 163 225 430 297 315 633 710 846 920 1048 1078 1120 1096 1076 1152 1225 1311 1408 1466 1593 1552 1629 1755 2026 2189 2297 2350 2391 2225 2269 2239 2253 2524 2596 2710 3030 3532 4202 4755 5008 5109 4934 5003
17 7 6 5 9 3 13 1 4 2 4 10 22 25 6 8 7 3 4 5 114 177 364 158 226 506 600 730 778 858 934 1022 1022 1007 1045 1114 1135 1167 1228 1466 1478 1506 1564 1627 1634 1676 1710 2040 2132 2152 2198 2078 2142 2342 2618 2888 3386 3799 4071 4404 4549 4671 4681

ECMWFFLT2_con_mucape_048.txt.gz
CAPE
0 0 0 0 0 0 0 0 0 0 0 0 0 0 0 0 0 0 0 0 0 0 0 0 0 0 0 0 0 0 0 0 0 0 0 169 400 639 1115 1390 1582 1787 1850 2062 2004 2083 2070 2104 2133 2071 2166 2264 2387 2416 2550 2808 2981 2909 2826 2792 2603 2517 2545
0 0 0 0 0 0 0 0 0 0 0 0 0 0 0 0 0 0 0 0 0 0 0 0 0 0 0 0 0 0 0 0 0 0 0 27 230 394 891 1361 1625 1773 1753 1930 1935 1934 1964 2023 2084 2146 2311 2287 2374 2476 2574 2798 2866 2995 2842 2754 2584 2535 2559
0 0 0 0 0 0 0 2 0 0 0 0 0 0 0 0 0 0 0 0 0 0 0 0 0 0 0 0 0 0 0 0 0 0 0 9 114 232 678 1245 1558 1673 1688 1742 1873 1779 1854 1998 2184 2200 2230 2216 2291 2412 2485 2529 2688 2743 2695 2526 2480 2523 2542
0 0 0 0 0 0 0 0 1 0 0 0 0 0 0 0 0 0 0 0 0 0 0 0 0 0 0 0 0 0 0 0 0 0 0 0 13 74 371 909 1310 1611 1674 1641 1726 1672 1724 1793 1999 2064 2114 2094 2094 2258 2382 2465 2498 2610 2644 2552 2515 2506 2415
0 0 0 0 0 0 0 0 0 1 8 1 0 0 0 0 0 0 0 0 0 0 0 0 0 0 0 0 0 0 0 0 0 0 0 0 2 4 1 333 1019 1466 1641 1519 1553 1615 1548 1612 1908 1977 1957 1959 1992 2060 2226 2303 2450 2375 2453 2361 2390 2566 2469
3 0 0 0 0 0 0 0 0 7 8 8 13 7 0 0 0 0 0 0 0 0 0 0 0 0 0 0 0 0 0 0 0 0 0 0 0 10 25 8 382 967 1554 1596 1591 1568 1523 1564 1761 1780 1745 1842 1834 1964 2136 2134 2153 2205 2223 2174 2334 2555 2528
0 0 0 6 3 1 1 2 2 4 4 4 14 3 0 0 0 0 0 0 0 0 0 0 0 0 0 0 0 0 0 0 0 0 0 0 0 26 62 73 63 531 1456 1693 1540 1628 1593 1502 1634 1694 1736 1735 1779 1939 1963 2020 1950 2021 2042 2016 2152 2575 2575
0 0 0 0 0 0 0 0 0 14 17 5 3 5 0 0 0 0 0 0 0 0 0 0 0 0 0 0 0 0 0 0 0 0 0 0 5 371 199 48 63 616 1479 1772 1666 1661 1689 1586 1697 1780 1738 1770 1830 1886 1855 1857 1816 1875 1947 2000 2105 2453 2571
0 0 0 6 5 6 6 10 12 8 5 41 10 0 0 0 0 0 0 0 0 0 0 0 0 0 0 0 0 0 0 0 0 0 0 0 150 596 310 205 436 883 1180 1579 1761 1754 1943 1761 1560 1751 1743 1750 1863 1850 1746 1740 1723 1752 1891 1978 2033 2277 2576
8 10 14 7 35 3 0 0 8 18 0 1 1 9 28 1 0 11 12 2 0 0 0 0 0 0 0 0 0 0 0 0 0 0 224 287 279 1072 1034 798 822 865 1188 1762 1993 2013 2017 1732 1568 1754 1919 1851 1796 1778 1775 1746 1771 1847 1894 2000 2040 2247 2488
8 4 40 0 0 0 4 40 21 0 2 5 3 0 37 11 6 6 12 14 8 8 0 0 0 0 0 0 30 1 1 2 0 0 0 0 69 696 1088 1221 992 1139 1548 1965 2114 2205 1962 1774 1624 1728 1791 1824 1725 1818 1848 1735 1786 1907 2010 2030 2174 2199 2488
0 0 4 1 0 0 0 0 0 3 0 0 2 6 7 13 3 8 8 4 2 6 1 12 164 681 1505 1196 1393 1332 1159 1269 1199 986 767 25 0 110 406 659 900 1279 1667 2048 2314 2280 2002 1770 1648 1718 1801 1787 1747 1857 1892 1818 1855 1906 1981 2155 2247 2350 2593
1 0 0 6 3 0 0 0 0 0 0 0 0 1 6 5 26 4 9 8 23 1 0 506 1156 1355 1686 1469 1522 1686 1574 1334 1668 1665 1621 1088 301 3 108 713 1062 1410 1513 2347 2675 2550 2201 1861 1695 1752 1790 1758 1810 1881 1916 1898 1814 1937 2135 2178 2281 2338 2586
0 0 0 0 15 12 1 1 0 0 0 0 0 2 2 7 11 22 6 22 38 6 377 682 1232 1452 1394 1469 1568 1532 1728 1517 1899 1838 1696 1513 1435 982 345 247 870 1528 1768 2505 3044 2870 2522 1982 1899 1775 1834 1894 1844 1903 1911 1850 1898 1905 2074 2220 2345 2389 2646
19 0 0 0 1 31 5 1 6 2 0 0 0 0 2 0 0 0 2 2 24 542 300 661 842 1272 1436 1160 1614 1532 1589 1586 1565 1684 1724 1851 2080 2195 2390 2706 472 1101 1589 1941 2918 3014 2760 2222 1953 1833 1832 1859 1826 1820 1891 1937 1968 1993 2060 2329 2425 2497 2682
1 0 0 0 0 0 8 11 7 5 1 0 0 8 61 21 19 25 10 6 8 44 16 286 485 818 1077 1260 1345 1398 1244 1246 1304 1451 1665 1728 2005 2145 2308 2618 2873 2232 780 1438 2115 2830 2595 2192 1975 1858 1998 1942 1904 1815 1952 1965 1945 1906 2156 2396 2460 2719 2746
2 0 0 0 0 0 14 3 8 6 2 0 205 115 28 39 155 138 1 33 224 0 8 60 451 662 806 1214 1384 1217 1178 1058 960 918 1002 1208 1532 1930 2257 2419 2622 2707 1918 682 1661 2266 2220 1932 1778 1890 2066 1989 2072 1957 2100 2113 2057 2033 2139 2342 2597 2902 2841
4 5 18 1 10 12 0 10 4 8 4 275 179 64 23 31 64 119 49 56 36 0 0 0 18 175 593 1435 1432 1016 511 340 197 183 227 423 748 1322 1841 2132 2423 2553 2350 1295 572 1940 2200 2067 1702 1856 2077 1990 2054 2000 2069 2170 2134 2198 2314 2534 2851 3011 3039
2 1 8 37 18 1 72 109 48 6 6 232 68 0 25 10 16 3 3 0 0 0 0 0 0 1 50 569 1337 714 681 522 432 400 325 68 272 583 1256 2034 2310 2584 2661 1697 404 788 2006 1922 1791 1858 1991 1942 2155 1969 2133 2193 2191 2444 2502 2777 3018 3184 3256
5 4 2 24 26 246 340 280 105 143 260 126 28 36 3 1 1 2 0 0 0 0 0 0 0 136 80 964 1066 773 845 732 549 414 368 288 444 447 1122 1691 2078 2509 2424 1795 568 282 1634 1881 1751 1808 1936 1984 2057 2040 2038 2140 2186 2366 2722 2910 3052 3238 3296
8 6 7 2 43 20 233 88 127 137 123 45 75 109 0 0 0 0 1 0 0 0 0 0 0 154 672 890 1493 724 712 750 703 548 466 452 666 564 1219 1792 2022 2399 2247 1653 815 367 1125 1634 1479 1762 1899 1999 1980 1901 1930 2108 2346 2342 2578 2976 3134 3393 3376
4 6 22 7 10 4 17 1 11 0 4 23 0 20 6 1 0 0 0 0 0 0 0 0 57 388 980 1051 930 541 628 659 659 612 551 613 757 716 1588 1932 2127 2429 1916 1297 902 772 1550 1638 1522 1754 1961 1948 1994 2030 1993 2153 2294 2373 2664 2897 3108 3416 3305
5 11 10 10 21 16 2 22 32 0 0 6 6 10 88 0 0 0 0 0 2 5 0 12 195 650 1138 728 0 215 528 528 558 566 613 702 755 952 1644 1809 1964 2404 2407 1645 1016 1104 1710 1603 1546 1879 2038 1977 2052 2159 2253 2270 2390 2560 2719 2874 3084 3392 3316
0 4 14 13 12 0 5 2 0 15 10 4 30 50 14 0 0 1 1 0 6 12 1 116 346 612 586 11 275 396 407 429 520 581 762 798 774 1004 1576 1695 2050 2240 2608 1869 1252 1586 1869 1809 1802 2193 1951 2076 2293 2344 2390 2428 2473 2745 2871 2956 3113 3245 3250
2 7 3 4 1 32 0 2 0 4 52 27 25 15 4 1 1 2 0 0 19 54 0 171 402 333 278 291 348 418 523 609 779 1024 1086 1078 1072 1000 1489 1778 2014 2609 2658 2125 1717 1611 1734 1900 1733 2065 2193 2266 2449 2674 2632 2614 2639 2746 2896 3018 3192 3398 3389
4 3 4 6 19 32 1 1 6 2 4 42 49 3 4 8 6 2 0 0 18 84 8 190 236 263 336 389 358 506 600 666 872 947 1125 1218 1240 1137 1339 1900 2050 2453 2480 2201 1813 1432 1913 2090 2372 2343 2319 2588 2845 2899 2682 2663 2779 2650 2865 3038 3138 3309 3427
3 8 13 17 16 14 0 4 0 4 48 16 4 11 8 5 3 2 0 2 21 5 56 164 234 235 281 330 463 619 767 930 1111 1225 1261 1402 1455 1394 1242 1747 2131 2014 2975 2360 1855 1677 1969 2125 1863 1959 2417 2811 2991 3059 2926 3077 2902 2866 2943 3140 3383 3544 3595
16 7 14 4 0 1 8 6 3 5 14 21 11 8 12 4 3 2 0 0 20 0 32 183 234 243 275 392 596 792 924 1072 1172 1374 1571 1583 1557 1632 1524 1522 2020 2527 2676 3343 3446 2113 2110 2310 2404 2586 2728 3291 3530 3358 3330 3380 3051 2985 3211 3511 3724 3810 3619
0 0 0 2 1 4 6 8 2 15 36 41 29 16 11 12 2 4 24 34 0 33 11 241 273 309 381 564 733 911 1082 1338 1466 1483 1545 1759 1852 1777 1726 1693 1926 2497 2268 2880 3337 3098 2406 2590 2609 2958 3144 3741 3880 3821 3866 3655 3368 3409 3658 3875 4067 4116 3902
6 11 1 1 0 3 6 28 33 22 19 21 21 13 12 11 7 3 0 6 75 168 225 297 298 374 530 734 951 1050 1156 1289 1338 1528 1952 2129 2104 2239 2093 1965 1961 2229 2635 2415 2835 3337 3662 3048 2900 3242 3340 3843 4232 4119 3982 3879 3616 3718 4047 4435 4491 4538 4366
6 1 0 4 1 1 22 8 4 19 25 23 28 26 23 24 10 6 5 2 50 5 45 350 399 453 638 844 1045 1100 1159 1296 1428 1629 1814 2147 2360 2391 2305 2161 2081 2249 2723 2832 2990 3245 3539 3722 3693 3693 3580 3834 4239 4225 4733 4103 3767 4528 4748 4969 4714 4692 4647
0 0 3 4 4 2 5 12 0 1 4 11 26 22 34 29 28 8 6 3 2 3 0 206 401 560 488 935 1098 1203 1244 1392 1462 1642 1754 2170 2353 2385 2508 2504 2244 2267 2299 2550 2988 3093 3238 3598 3959 4365 4732 4866 4926 5068 4807 4581 4614 4980 4832 4904 4773 4740 4753
26 0 1 2 4 7 6 1 0 7 10 12 14 10 25 37 41 10 8 5 5 1 34 344 227 466 528 881 1019 1214 1307 1454 1514 1668 1678 1847 2360 2422 2604 2653 2579 2317 2239 2320 2488 2865 3054 3432 3627 3922 4306 4557 4829 5042 4815 4578 4797 4960 4934 4865 4568 4602 4605
0 0 0 8 8 23 4 0 4 11 9 7 9 9 14 32 43 12 8 5 4 3 1 163 373 276 345 431 893 1252 1410 1486 1574 1638 1680 1678 2077 2426 2474 2635 2623 2545 2524 2452 2343 2522 3129 3404 3547 3634 3720 3996 4081 4149 4515 4804 5113 4908 4928 4871 4686 4724 4564
0 12 13 16 4 4 2 10 7 13 6 7 9 12 13 26 30 26 9 5 1 0 2 252 323 174 618 478 927 1162 1310 1365 1443 1554 1614 1671 1877 2208 2138 2157 2679 2592 2576 2526 2519 2485 2520 2690 2750 3202 3456 3606 3890 4006 4681 4929 4947 5118 5343 5149 4852 5049 5006
17 4 10 16 6 1 10 15 13 10 22 12 6 15 23 18 24 12 8 8 4 2 2 25 268 388 286 632 791 1065 1125 1224 1276 1389 1486 1486 1611 1978 1954 2155 2420 2682 2488 2532 2528 2482 2572 2700 2664 2656 2702 2842 3060 3361 3653 3974 4765 5039 4943 4956 4675 4732 4373
10 23 7 7 4 17 22 28 11 12 15 15 13 8 22 32 22 10 9 6 7 9 21 60 183 306 258 363 553 825 1091 1171 1244 1286 1324 1335 1402 1610 1809 1958 2138 2442 2605 2605 2525 2388 2383 2604 2706 2717 2822 2832 2949 3082 3188 3414 3886 4273 5036 4586 4291 4605 5074

ECMWFFLT2_con_mucape_051.txt.gz
CAPE
0 0 0 0 0 0 0 0 0 0 0 0 0 0 0 0 0 0 0 0 0 0 0 0 0 0 0 0 0 0 0 0 0 9 54 277 179 320 375 1002 800 941 1695 1863 2513 2469 2517 2619 2523 2200 2329 2265 2410 2613 2918 3405 3674 3628 3509 3601 3456 3123 3186
0 0 0 0 0 0 0 0 0 0 0 0 0 0 0 0 0 0 0 0 0 0 0 0 0 0 0 0 0 0 0 0 0 1 70 192 151 210 593 1175 808 1558 1596 1936 2522 2378 2480 2726 2644 2455 2552 2485 2662 2634 2973 3299 3639 3761 3670 3580 3259 3251 3180
0 0 0 0 0 0 0 0 0 0 0 0 0 0 0 0 0 0 0 0 0 0 0 0 0 0 0 0 0 0 0 0 0 0 12 143 180 160 435 560 1426 1668 1594 1665 2648 2451 2408 2730 2766 2620 2600 2565 2450 2715 2959 3250 3527 3615 3512 3262 3152 3113 3091
0 0 0 0 0 0 0 0 0 0 1 0 0 0 0 0 1 3 0 0 0 0 0 0 0 0 0 0 0 0 0 0 0 0 0 0 36 88 257 456 653 1952 1280 1808 1951 2426 2403 2561 2826 2710 2604 2610 2664 2694 2880 3203 3394 3558 3444 3146 3136 3220 3074
0 0 0 0 0 0 0 0 0 0 5 6 0 0 0 0 0 1 4 0 0 0 0 0 0 0 0 0 0 0 0 0 0 0 0 0 0 26 183 383 532 1039 968 1022 1744 2393 2330 2467 2733 2656 2562 2601 2570 2650 2825 3101 3380 3372 3212 3081 3056 3213 3057
0 0 0 0 0 0 0 0 0 0 6 6 8 0 0 0 0 0 1 7 12 1 0 0 0 0 0 0 0 0 0 0 0 0 0 0 0 0 90 338 531 701 1602 1903 1535 1322 2093 2255 2594 2635 2468 2229 2618 2733 2753 2962 3162 3252 3185 3020 3087 3213 3070
0 0 0 0 0 0 0 0 6 0 11 12 11 2 0 0 0 0 0 6 8 0 3 1 0 0 0 0 0 0 0 0 0 0 0 0 0 0 5 217 380 513 464 742 1016 1481 1332 1844 2502 2470 2591 2563 2539 2612 2730 2855 2997 3182 3008 2872 2931 3176 3030
0 0 0 12 3 0 0 0 0 7 7 2 17 19 4 4 2 0 0 2 5 14 0 0 0 0 0 0 0 0 0 0 0 0 0 0 0 0 0 69 236 401 684 1286 1777 1487 1873 2119 2439 2530 2421 2533 2633 2632 2647 2841 2840 2983 2812 2732 2721 3069 2913
0 0 2 0 0 1 0 0 0 0 2 6 2 18 12 47 30 22 6 8 0 26 4 0 4 0 0 0 0 0 0 0 0 0 0 0 0 0 0 15 114 398 334 520 1698 1815 2568 2371 2229 2622 2544 2584 2506 2533 2617 2688 2713 2827 2737 2598 2535 2946 2807
0 5 4 12 6 11 8 8 1 1 15 4 16 2 9 9 9 28 17 3 2 0 8 4 4 0 0 0 0 0 0 0 9 69 54 0 0 0 1 11 31 14 309 1030 2164 2889 2910 2137 2060 2483 2655 2514 2534 2524 2622 2657 2648 2636 2506 2477 2464 2801 2798
0 0 181 78 0 1 0 13 0 0 0 4 35 29 1 15 2 26 4 1 7 28 21 1 2 5 0 0 0 120 34 0 0 40 10 0 0 0 4 56 62 301 1078 2638 2934 3236 2272 2120 1959 2240 2491 2544 2426 2563 2600 2509 2520 2524 2517 2386 2456 2709 2822
0 0 0 29 2 0 0 0 0 0 0 0 1 26 55 11 34 12 6 20 4 5 13 17 412 250 10 191 43 51 226 210 106 173 395 0 89 0 11 60 130 279 1602 2409 2709 2769 2296 2231 2011 2022 2297 2341 2403 2532 2540 2540 2480 2440 2428 2267 2407 2638 2809
0 0 0 5 11 0 0 0 0 0 0 0 0 0 6 38 6 4 6 19 6 3 108 348 808 793 688 735 869 675 592 763 586 687 480 21 12 253 433 805 1076 1504 973 2386 3005 2710 2603 2291 2046 1948 2134 2279 2323 2460 2558 2567 2439 2452 2480 2348 2419 2519 2883
0 0 0 0 0 0 0 0 0 0 0 0 0 0 1 2 4 0 6 5 4 8 229 224 521 516 548 257 477 731 890 979 1178 912 670 958 956 456 375 710 337 1025 1119 1986 2835 2958 3038 2440 2204 1926 2144 2396 2259 2365 2530 2262 2424 2375 2398 2502 2581 2603 2873
0 0 0 0 0 0 0 0 0 0 0 0 0 0 0 1 0 0 0 1 0 459 284 602 267 323 171 332 377 770 1091 993 806 1095 1036 1485 1602 1555 1677 2017 1948 2038 1030 1516 2515 3153 3174 2808 2368 2070 2152 2356 2307 2275 2490 2491 2467 2326 2054 2663 2578 2640 3014
4 2 0 0 0 0 0 0 0 0 0 1 11 0 2 0 0 0 0 0 5 179 304 226 225 98 148 203 512 760 1154 935 774 599 674 666 934 1188 1405 1585 2391 2784 2256 1790 1854 2771 3000 2752 2408 2134 2300 2279 2291 2214 2339 2426 2112 1970 2068 2511 2741 3036 3060
0 0 0 0 0 0 0 0 0 0 0 0 1 1 0 0 0 0 0 0 73 411 269 310 258 64 221 579 1044 881 783 802 761 668 558 543 467 616 778 1028 1312 2001 2002 1809 2198 1974 2679 2666 2283 2052 2115 2192 2425 2302 2410 2352 2323 2251 2170 2302 2868 3286 3156
0 0 1 4 6 3 0 0 0 0 0 0 0 0 2 1 1 32 4 10 199 181 177 168 232 170 70 252 524 379 255 341 390 270 274 261 279 335 450 631 908 1251 1970 2645 3149 3362 2723 2531 2599 2054 2139 2157 2375 2254 2224 2407 2402 2503 2646 2737 2893 3202 3488
0 0 0 3 10 0 0 0 80 211 430 189 0 0 0 2 15 4 30 67 88 7 0 41 38 120 158 206 579 303 4 5 5 4 8 10 16 102 243 396 574 979 1652 2389 2801 2920 2658 2423 2227 2469 1973 2051 2329 2247 2125 2193 2487 3214 2797 3127 3332 3337 3627
52 2 0 8 0 7 95 394 446 254 348 134 137 41 0 71 76 141 119 112 82 0 7 0 16 14 151 184 971 526 134 0 0 0 0 0 0 2 40 129 293 604 1284 2100 2509 2638 2796 2885 1514 2112 1634 1862 2004 2154 2058 2354 2457 2565 3097 3510 3234 3438 3607
109 31 1 0 0 0 108 323 207 25 27 159 98 136 457 208 129 38 18 55 20 7 25 22 12 43 88 210 992 706 478 249 171 248 0 0 0 0 0 0 15 430 1240 1895 2305 2789 2843 2522 1941 1478 2110 1841 1695 2069 2110 2169 2671 2571 2732 3198 3292 3624 3764
102 64 63 15 8 0 49 166 241 19 16 39 93 20 91 54 42 3 0 0 0 2 2 11 5 11 164 90 84 49 45 178 234 299 361 406 409 402 0 0 0 306 1185 1838 2203 2311 2913 2400 1693 1244 1910 1992 1941 2364 2052 2295 2501 2261 2690 3027 3341 3739 3673
113 137 61 19 22 52 183 158 82 29 0 83 145 15 93 36 14 1 2 2 1 0 0 0 37 245 25 1 147 0 0 0 0 0 130 0 322 223 464 532 377 205 955 1846 2282 2227 2377 2692 1532 1150 1722 1990 2040 2482 2426 2335 2636 2777 2862 3070 3405 3806 3827
189 147 119 58 89 11 255 139 51 3 25 6 50 40 28 38 34 4 3 2 2 3 5 0 36 29 122 168 0 0 0 0 0 0 0 0 0 0 289 620 686 951 1362 1618 2401 2700 2532 2476 1540 1090 1687 2272 2378 2411 2425 2471 2649 2816 2972 3193 3538 3959 3977
94 2 1 114 200 311 47 38 0 1 6 6 19 26 20 6 13 7 2 1 1 1 2 0 0 2 0 0 0 0 0 0 0 168 209 265 376 426 510 732 936 1440 1428 1786 2374 2430 2718 2195 1412 1090 1839 2280 2482 2930 2752 2780 2826 2909 3045 3359 3795 4216 4165
194 118 43 83 77 89 18 0 0 8 24 180 21 11 2 8 11 10 2 1 0 0 2 2 0 1 0 2 0 0 0 0 164 292 276 482 810 806 843 949 1010 1351 1594 1942 2559 2381 2518 1873 1669 1886 2412 2789 3361 3398 2829 2799 3004 2848 3123 3528 3761 4192 4224
280 199 153 43 51 165 0 2 0 2 35 2 4 8 1 10 2 5 2 4 2 2 26 0 0 1 0 0 0 0 0 141 318 409 451 509 734 840 846 962 1027 1413 1754 2135 2451 3363 1951 1740 1890 1964 1676 3035 3087 3353 3069 3292 3034 3162 3232 3547 3954 4303 4369
56 23 54 34 2 3 12 12 5 8 4 5 6 10 17 1 6 10 7 3 1 0 3 1 1 2 0 0 0 0 36 258 447 528 547 707 778 974 1108 1190 1334 1327 1920 2156 2656 3211 3605 2339 2053 1990 2414 3613 3425 3151 3411 3650 3077 3292 3504 3901 4218 4316 4295
11 16 25 8 0 2 8 14 6 6 6 3 3 12 12 5 1 8 8 8 2 3 1 2 3 0 0 0 0 23 0 311 539 675 791 983 1221 1143 1316 1367 1296 1720 2064 2430 2485 3260 3284 2689 2048 2431 2663 3248 3680 3460 3594 3994 4141 3604 3828 4085 4183 4373 4195
2 18 42 10 0 3 6 9 4 0 3 8 9 11 20 6 2 1 9 5 4 53 27 0 0 0 7 0 0 35 148 370 629 828 946 1106 1288 1467 1530 1603 1522 1847 2242 2226 2613 3033 3605 2779 2569 3431 2928 3016 3617 3651 3712 4128 4018 4248 4199 4471 4426 4579 4477
2 6 4 2 3 4 10 14 4 6 8 9 9 10 14 4 3 0 19 9 33 52 2 3 3 15 0 0 0 106 260 481 697 962 1172 1451 1478 1646 1871 1694 1611 2148 2185 2544 2845 3470 3560 3093 2516 2232 2899 3556 3916 4229 4295 3926 3821 4352 4486 4572 4597 4697 4522
0 0 6 0 6 0 15 8 6 7 6 6 7 12 10 8 6 2 3 29 52 72 5 6 6 33 16 0 2 174 304 539 873 1107 1257 1424 1488 1892 1999 1785 1746 2074 2309 2507 2671 3199 3734 3198 4272 3035 3287 3645 4112 4343 4398 3964 3820 4327 4756 4699 4675 4830 4409
1 1 1 12 1 30 12 2 1 12 17 8 9 10 9 8 4 1 6 40 3 12 7 4 5 21 44 98 157 252 358 636 1005 1212 1390 1394 1868 2048 1930 1944 1964 2044 2057 2199 2414 3071 3287 3603 4570 4992 4660 4074 4416 4489 4513 4331 4547 4836 5030 4984 4788 4999 4420
1 1 4 21 0 0 0 0 16 19 10 13 13 10 10 7 7 3 2 21 7 5 7 10 5 3 55 66 182 227 353 416 989 1151 1222 1342 1603 1913 1933 2017 1969 2039 2115 2281 2492 2899 3299 3428 3766 4005 4565 4965 4669 4110 4213 4120 4716 5040 5244 4962 5033 4981 4693
1 2 3 15 20 15 12 17 19 20 4 17 11 8 10 10 7 5 6 12 3 3 5 10 7 7 6 7 3 208 293 488 834 970 1174 1278 1413 1780 1922 2009 2011 2105 2129 2183 2068 2542 3062 3488 3656 3352 3322 3914 4187 3700 3696 4196 4627 5023 5143 4786 4701 4736 4549
2 3 2 13 10 12 16 20 19 16 21 12 10 10 10 9 7 7 7 6 7 5 6 8 8 7 6 8 32 231 347 414 725 981 1121 1110 1414 1642 1658 1608 1935 1963 1962 1904 1920 2120 2453 2725 3053 3272 3127 3354 3775 3523 3957 4202 4331 4631 4749 4479 4345 4353 4357
1 0 1 6 16 12 16 4 17 15 17 14 8 10 10 11 10 6 6 13 12 11 18 6 6 6 6 5 68 157 395 459 438 872 1115 1091 1235 1564 1580 1418 1489 1556 1712 1709 1611 1635 1888 2151 2403 2414 2577 2850 3081 3423 3791 4189 4260 4514 4492 4242 3768 3669 4001

ECMWFFLT2_con_mucape_057.txt.gz
CAPE
0 0 0 0 0 0 0 0 0 0 0 0 0 0 0 0 0 0 0 0 0 0 0 0 0 0 0 0 0 787 871 705 831 978 927 1011 1162 1088 1126 1156 1126 1088 1011 929 836 766 788 1105 1138 1037 1029 1056 1156 1194 1152 955 823 788 668 1193 1136 719 432
0 0 0 0 0 0 0 0 0 0 0 0 0 0 0 0 0 0 0 0 0 0 0 0 0 0 0 0 0 193 786 699 790 883 847 988 999 1144 1100 1097 1154 1054 953 916 976 938 1070 1190 1194 1129 1077 1054 1030 1250 1205 1124 956 897 602 760 1045 840 491
0 0 0 0 0 0 0 0 0 0 0 0 0 0 0 0 0 0 0 0 0 0 0 0 0 0 0 0 0 0 805 979 793 790 992 972 1052 1016 958 1031 1127 1101 1124 1098 1153 1214 1223 1376 1298 1186 1100 1056 1026 1166 1293 1315 1072 1090 773 615 814 843 606
0 0 0 0 0 0 0 0 0 0 0 0 0 0 0 0 0 0 0 0 0 0 0 0 0 0 0 0 0 0 686 911 935 908 879 942 915 870 1026 1228 1260 1354 1445 1389 1330 1337 1389 1440 1404 1222 1122 1062 1079 1236 1474 1411 1360 1280 1058 689 774 807 684
0 0 0 0 0 0 0 0 0 0 0 0 0 0 0 0 0 0 0 0 0 0 0 0 2 2 0 0 0 0 0 871 848 777 778 772 796 1045 1293 1368 1493 1514 1560 1581 1501 1418 1370 1419 1457 1322 1178 1097 1133 1168 1542 1668 1522 1431 1286 855 795 868 788
0 0 0 0 0 0 0 0 0 0 0 0 0 0 0 0 0 0 0 0 0 0 1 0 55 259 108 3 2 7 1 142 794 861 806 778 972 1180 1329 1365 1470 1549 1560 1526 1556 1486 1372 1298 1383 1380 1216 1102 1060 1271 1494 1915 1837 1680 1524 1194 878 989 964
0 0 0 0 0 0 0 0 0 0 0 0 0 0 0 0 0 0 0 0 0 0 0 0 306 682 470 32 2 2 5 70 696 766 884 975 1147 1169 1116 1142 1168 1318 1508 1717 1640 1432 1331 1300 1359 1437 1324 1211 1128 1286 1594 1967 2120 2026 1834 1542 1175 1039 1111
0 0 0 0 0 0 0 0 0 0 0 0 0 0 0 0 0 0 0 0 0 17 181 553 808 709 762 656 27 11 16 46 557 934 956 1139 1135 1156 1002 930 1116 1178 1374 1688 1722 1591 1356 1199 1258 1411 1491 1418 1336 1309 1530 1925 2175 2239 2136 1929 1569 1262 1333
0 0 0 0 0 0 0 0 0 0 0 0 0 0 0 0 0 0 0 0 0 28 54 666 789 865 1026 1060 983 916 744 539 688 882 900 1014 1078 1053 989 987 1164 1300 1462 1625 1578 1551 1609 1656 1700 1607 1537 1498 1397 1362 1458 1855 2209 2467 2512 2420 2153 1828 1668
0 0 0 0 0 0 0 0 0 0 0 0 0 1 1 0 1 0 0 0 0 0 0 93 711 794 903 891 944 782 704 618 580 649 562 564 869 975 994 992 1156 1457 1576 1613 1591 1683 1739 1708 1862 1870 1756 1586 1526 1540 1572 1650 2139 2568 2711 2695 2556 2301 2046
0 0 0 0 0 0 0 0 0 0 0 0 0 0 0 0 0 0 0 1 6 0 0 34 511 526 748 935 874 734 590 486 484 552 579 828 1053 1019 1021 1009 1159 1350 1401 1474 1519 1690 1710 1712 1889 1994 1892 1726 1559 1523 1544 1560 1780 2327 2656 2732 2739 2624 2437
0 0 0 0 0 0 0 0 0 0 0 0 0 0 0 0 0 0 2 6 17 1 0 168 471 293 607 712 696 622 536 506 482 692 822 1010 1163 1079 1267 1685 1029 1121 1173 1194 1344 1549 1668 1611 1806 1978 1894 1816 1673 1569 1486 1517 1533 1839 2297 2615 2769 2696 2572
0 0 0 0 0 0 0 0 0 0 0 0 0 2 0 0 0 0 0 9 22 9 18 270 298 298 295 521 649 639 472 491 466 406 666 808 1087 919 1455 1707 1988 2159 1016 1370 1587 1637 1566 1520 1696 1804 1814 1771 1683 1608 1595 1561 1525 1471 1979 2442 2757 2766 2693
0 0 0 0 0 0 0 0 0 0 0 0 0 0 0 0 0 0 0 5 13 17 372 294 447 430 371 468 699 533 462 537 602 460 566 986 1105 1262 1442 1525 1628 1584 1590 2224 2110 1739 1669 1572 1559 1665 1689 1696 1670 1602 1612 1655 1681 1554 1844 2325 2682 2792 2832
0 0 0 0 0 0 0 0 0 0 0 0 0 0 0 0 0 0 0 30 27 517 357 208 415 602 614 27 435 593 464 438 561 617 593 736 686 638 831 1424 1638 1652 1701 1822 1841 2082 1994 2034 2165 1786 1508 1643 1660 1642 1673 1722 1732 1680 1798 2236 2515 2732 2858
0 0 0 0 0 0 0 0 0 0 0 0 0 0 0 0 0 0 16 74 70 606 549 344 166 260 389 169 106 475 551 424 433 668 568 676 733 707 815 1274 1508 1616 1577 1642 1726 1788 1966 1910 1934 1831 1992 2274 1770 1745 1745 1724 1683 1748 1849 2004 2427 2740 2794
0 0 0 0 0 0 0 0 0 0 0 0 0 0 0 0 0 0 1 62 62 46 194 44 85 184 206 34 4 225 366 397 336 475 758 631 662 749 768 833 1268 1505 1643 1628 1682 1787 1744 1658 1626 1682 1722 2009 1952 1856 1778 1766 1848 1858 1678 1728 2490 2857 2901
0 0 0 0 0 0 0 0 0 94 123 83 49 24 23 7 0 15 54 81 46 20 44 73 60 212 58 28 24 12 129 254 295 306 652 704 596 608 585 677 913 1150 955 1691 1772 1753 1832 1821 1657 1728 1689 1765 1954 1939 1976 1990 1970 1841 1677 1376 1911 2088 3034
0 0 0 2 0 0 0 0 330 184 139 153 80 0 0 39 12 39 56 28 10 23 20 145 70 26 83 77 31 22 22 302 278 266 302 670 565 548 528 445 337 351 416 428 921 1354 1823 1943 1865 1709 1784 1588 1708 2013 1831 1872 1902 1885 1854 1944 2025 2280 2858
0 0 0 3 0 0 0 0 350 190 116 100 92 122 10 114 2 0 0 2 0 9 8 67 155 29 0 0 25 42 24 96 255 174 211 301 481 478 429 399 298 326 349 348 0 458 1160 1538 1792 1799 1785 1865 1702 1692 1599 1768 1666 1589 1575 1810 1938 2189 2711
0 0 0 0 0 0 0 118 244 162 149 119 138 62 23 0 0 0 0 0 0 1 2 13 15 85 2 5 5 13 12 70 138 168 127 200 271 280 306 301 272 253 271 323 336 390 449 839 1091 1333 1467 1471 1880 2136 1837 1228 1306 1451 1446 1680 1784 1928 2424
0 0 2 0 0 0 89 228 247 126 139 109 79 77 62 2 0 0 0 0 0 0 2 0 7 2 70 9 12 18 8 26 82 164 101 109 197 204 184 179 43 165 159 123 34 13 48 332 570 1160 1339 1323 1476 1662 2010 1857 1089 1250 1338 1529 1700 1856 2458
0 0 0 0 0 32 156 171 173 186 102 222 63 64 38 48 0 0 0 0 0 0 5 7 2 35 15 10 5 0 0 0 0 37 24 32 125 185 181 123 81 0 0 0 0 0 0 0 0 121 904 1255 1354 1556 1612 1952 2101 1206 1375 1557 1453 1963 2554
0 0 0 0 0 0 60 151 219 162 207 166 229 48 45 60 0 0 0 0 0 0 0 0 12 24 25 12 3 0 0 0 0 0 0 0 54 112 184 104 0 0 0 0 0 0 0 0 0 0 325 850 1237 1377 1590 1840 1929 2178 1322 1613 1894 2078 2558
17 2 0 0 99 161 101 142 104 164 127 98 107 26 76 0 0 0 0 0 0 0 0 0 18 3 4 1 0 0 0 0 0 0 0 0 0 0 94 102 0 0 0 0 0 0 0 0 0 0 0 131 799 1332 1637 1774 1908 2088 2233 1549 1668 1918 2786
2 0 0 0 180 0 4 33 24 48 32 47 15 39 0 0 0 0 0 0 0 1 0 0 0 0 0 0 0 0 0 0 0 0 0 0 0 0 0 0 0 0 0 0 0 0 0 0 0 0 0 0 662 1408 1658 1842 2019 2130 2279 2196 1440 1579 2849
0 0 1 0 0 70 0 8 8 64 85 123 37 5 0 0 0 0 0 0 0 0 0 0 0 0 0 0 0 0 0 0 0 0 0 0 0 0 0 0 0 0 0 0 0 0 0 0 0 0 0 0 236 1444 1807 1966 2125 2345 2586 2769 2092 1353 2314
2 1 6 8 65 23 13 4 2 4 25 32 12 3 0 0 0 0 0 0 0 0 1 1 0 0 0 0 0 0 0 0 0 0 0 0 0 0 0 0 0 0 0 0 0 0 0 0 0 79 481 0 393 1226 1856 2069 2291 2554 3112 3625 2836 1769 2088
6 2 1 0 4 95 2 28 17 17 2 9 2 1 1 0 0 0 0 0 0 0 2 1 1 2 0 0 0 0 0 0 0 0 0 0 0 0 0 0 0 0 0 0 0 0 0 0 0 248 594 608 737 1276 1959 2174 2370 2536 3481 4004 3260 2130 1772
21 1 2 2 6 0 0 1 5 0 0 0 0 1 1 2 1 1 0 0 0 2 4 5 2 2 3 1 0 0 0 0 0 0 0 0 0 0 0 0 0 0 0 2 9 2 107 179 340 482 626 822 892 1288 2000 2194 2582 3128 3906 4517 3601 2246 2157
0 0 29 5 0 0 0 5 0 0 0 0 0 0 0 0 0 0 0 1 3 2 5 6 7 8 8 6 2 0 0 0 0 1 0 0 0 0 0 0 0 0 0 0 0 0 0 158 260 393 746 879 1050 1499 2044 2560 2905 3131 3626 4316 3890 2618 2762
0 0 0 0 0 0 13 0 0 0 0 1 2 0 0 0 0 0 0 1 1 1 3 7 8 4 4 4 4 0 0 0 0 0 0 0 0 0 0 0 0 0 24 97 8 36 0 0 0 178 626 856 1346 1911 2323 2555 2987 3332 3724 4231 3726 2900 3036
0 0 0 0 0 0 28 3 0 0 0 0 0 0 0 0 0 0 0 0 1 4 3 3 8 5 5 6 5 0 0 0 0 0 0 0 0 0 0 0 0 0 0 169 180 7 6 63 179 392 622 894 1454 2031 2263 2593 3319 3361 3555 3919 3529 3006 3218
0 2 7 1 2 0 0 0 0 0 0 0 0 0 1 1 2 3 2 1 4 4 6 6 9 4 7 7 4 0 0 0 0 0 0 0 0 0 0 0 0 0 114 180 223 191 177 207 365 597 792 1054 1362 1897 2214 2694 3346 3372 3326 3720 3354 3246 3464
0 1 0 1 14 3 0 0 0 1 0 1 6 9 7 3 2 4 8 8 3 2 5 9 4 6 8 6 3 0 0 0 0 0 0 0 0 0 0 0 0 0 119 236 305 324 302 353 558 773 985 1189 1376 1666 2081 2572 3249 3375 3172 3727 3528 3667 3650
0 2 1 5 8 7 3 4 6 8 9 11 11 10 6 5 2 3 2 5 6 6 8 8 6 2 5 4 3 1 0 0 0 0 0 0 0 0 0 0 0 0 143 303 415 439 459 496 759 923 1043 1190 1334 1528 1890 2258 3019 3228 3091 3415 3697 3589 3810
0 1 2 3 3 4 6 12 4 5 15 22 16 14 10 13 1 2 8 5 7 10 6 8 3 4 2 6 4 2 0 0 0 1 5 8 6 5 0 0 0 0 157 270 440 532 575 682 826 971 1062 1158 1284 1466 1710 2024 2560 3031 3003 2809 3391 3533 3661

ECMWFFLT2_con_mucape_060.txt.gz
CAPE
0 0 0 0 0 0 0 0 0 0 0 0 0 0 0 0 0 0 0 0 0 0 0 0 0 0 0 8 87 343 465 622 1042 1289 1330 1270 1171 1093 1005 909 816 710 643 622 581 560 557 552 591 640 577 551 557 440 431 475 480 716 733 829 707 349 322
0 0 0 0 0 0 0 0 0 0 0 0 0 0 0 0 0 0 0 0 0 0 0 0 0 0 0 0 76 144 358 532 901 1136 1236 1237 1159 1081 1006 936 842 777 693 650 604 594 616 583 666 743 801 690 603 607 611 611 496 615 789 832 717 477 284
0 0 0 0 0 0 0 0 0 0 0 0 0 0 0 0 0 0 0 0 0 0 138 668 596 609 541 486 220 120 244 521 837 992 1123 1162 1124 1067 1045 997 892 728 641 599 570 609 650 622 721 794 860 863 736 670 676 666 600 522 759 888 785 574 283
0 0 0 0 0 0 0 0 0 0 0 0 0 0 0 0 0 0 0 0 0 474 637 743 619 661 616 447 213 0 126 426 768 911 976 1039 1059 1051 1089 1088 1036 899 720 606 576 618 687 736 756 821 870 942 924 824 771 772 753 734 640 854 930 682 401
0 0 0 0 0 0 0 0 0 0 0 0 0 0 0 0 0 0 0 0 13 62 404 608 589 451 455 320 265 56 6 281 686 831 920 938 963 1013 1050 1098 1121 1032 873 709 612 615 646 787 830 902 905 983 1030 993 898 861 877 842 779 704 896 816 570
0 0 0 0 0 0 0 0 0 0 0 0 0 0 0 0 0 0 0 0 0 0 35 539 559 430 376 271 176 216 0 134 555 773 866 933 932 976 1021 1060 1076 1111 1028 890 732 641 623 802 871 905 943 984 1051 1090 1064 1002 951 922 892 823 702 871 702
0 0 0 0 0 0 0 0 0 0 0 0 0 0 0 0 0 0 0 0 0 0 0 306 532 456 302 225 142 170 228 287 461 648 813 908 937 945 998 1020 1028 1096 1122 1053 934 809 736 703 958 1010 1004 1007 1050 1114 1130 1104 1039 1019 996 966 867 722 798
0 0 0 0 0 0 0 0 0 0 0 0 0 0 0 0 0 0 0 0 0 0 0 88 351 572 364 227 146 209 251 372 434 653 744 844 909 957 975 978 986 1040 1105 1096 1058 962 797 679 919 1083 1086 1071 1072 1096 1142 1171 1125 1074 1063 1033 969 872 746
0 0 0 0 0 0 0 0 0 0 0 0 0 0 0 0 0 0 0 0 0 0 0 163 216 601 454 304 188 165 242 371 502 606 703 825 851 868 923 980 1009 1054 1121 1137 1144 1107 1021 906 995 1053 1104 1118 1104 1105 1123 1185 1212 1166 1121 1093 1053 1002 910
1 6 6 3 0 0 1 0 0 0 0 0 0 0 0 0 0 0 0 0 0 0 0 245 254 450 486 417 334 253 284 303 455 576 680 758 789 904 823 858 941 1078 1173 1233 1184 1119 1092 1080 1105 1188 1123 1092 1094 1102 1120 1151 1292 1258 1213 1154 1125 1069 1015
0 0 0 0 0 0 0 1 0 0 0 0 0 0 0 0 0 0 0 0 0 0 0 366 398 368 405 273 315 343 364 442 479 641 783 840 842 718 754 842 1036 1119 1266 1340 1372 1297 1173 1179 1211 1279 1290 1186 1128 1119 1133 1172 1353 1312 1270 1203 1145 1089 1036
0 0 0 0 0 0 0 0 0 0 0 0 0 0 0 0 0 0 0 0 0 0 0 345 407 345 281 241 240 271 429 494 484 590 776 910 958 998 1027 1030 1109 1182 1343 1347 1411 1418 1363 1288 1220 1270 1341 1316 1252 1185 1187 1175 1335 1514 1406 1323 1226 1117 1052
0 0 0 0 0 0 0 0 0 0 0 0 0 0 0 0 0 0 0 0 0 0 32 223 258 257 179 128 11 216 230 340 486 579 761 891 960 992 984 970 1014 1052 1238 1324 1379 1478 1574 1511 1342 1272 1288 1345 1321 1262 1223 1201 1336 1594 1706 1582 1496 1342 1186
0 0 0 0 0 0 0 0 0 0 0 0 0 0 0 0 0 0 2 12 2 180 132 114 165 135 128 17 42 209 238 317 450 612 758 868 955 1031 1036 1000 983 1074 1153 1170 1317 1374 1562 1542 1555 1500 1383 1326 1377 1361 1290 1225 1222 1659 1828 1836 1774 1686 1552
0 0 0 0 0 0 0 0 0 0 0 0 0 0 0 0 0 0 0 13 11 150 83 75 74 82 82 4 17 72 200 309 408 492 671 894 1002 1052 1074 1034 1055 1126 1209 1259 1348 1426 1480 1524 1531 1471 1644 1687 1710 1372 1318 1278 1207 1770 2060 2132 2108 2090 2033
0 0 0 0 0 0 0 0 0 0 0 0 0 0 0 0 0 0 0 0 10 1 78 63 9 71 0 0 2 0 28 242 276 287 127 461 916 1041 1099 1110 1102 1154 1231 1318 1374 1410 1437 1520 1529 1571 1546 1623 1791 1672 1507 1375 1336 1516 2100 2353 2430 2448 2448
0 0 0 0 0 0 0 0 0 0 0 0 0 0 0 0 0 0 0 0 0 11 0 0 10 14 0 0 0 0 0 80 236 320 256 266 146 832 981 1107 1216 1211 1269 1316 1350 1375 1432 1480 1534 1553 1501 1568 1661 1788 1742 1475 1451 1471 1525 1982 2332 2507 2588
0 0 0 0 0 0 0 0 18 1 6 0 0 0 0 0 0 0 0 0 0 2 15 2 0 9 5 0 0 0 0 23 153 132 251 217 206 292 672 692 755 1289 1263 1276 1310 1335 1387 1437 1475 1468 1466 1449 1477 1522 1577 1711 1620 1569 1480 1467 1673 2040 2338
0 0 0 0 0 0 0 0 116 27 23 0 5 0 0 0 0 0 0 0 0 0 4 13 4 2 0 0 0 0 0 0 2 9 59 49 204 280 376 596 531 545 987 1188 1306 1418 1475 1427 1419 1430 1447 1425 1542 1552 1576 1636 1712 1700 1708 1552 1511 1696 1901
0 0 0 0 0 0 0 0 139 35 10 0 1 3 0 0 0 0 0 0 0 0 0 0 9 42 0 0 0 0 0 0 0 0 4 80 126 211 345 489 474 341 102 0 643 962 953 1182 1574 1530 1537 1479 1471 1748 1721 1711 1830 1777 1664 1642 1648 1662 1648
0 0 0 0 0 0 0 0 13 2 0 0 2 0 0 0 0 0 0 0 0 0 0 0 0 23 28 18 0 0 0 0 0 0 0 0 111 190 252 293 208 340 51 0 0 38 74 672 1060 1497 1519 1636 1641 1714 1815 1806 1767 1816 1776 1720 1725 1726 1751
0 0 1 0 0 0 12 12 72 1 0 0 3 0 0 0 0 0 0 0 0 0 0 0 0 0 30 7 20 0 0 0 0 0 0 0 0 9 0 4 41 58 0 5 0 123 143 157 899 1340 1025 1296 1623 1573 1652 1804 1784 1810 1811 1838 1830 1806 1797
4 3 3 1 0 0 0 0 0 48 0 48 91 39 0 0 0 0 0 0 0 0 0 0 0 0 24 24 9 0 0 0 0 0 0 0 0 0 0 0 0 0 0 0 0 0 0 193 108 431 1014 1064 1046 1580 1656 1589 1686 1753 1822 1861 1864 1885 1897
0 5 6 1 0 0 0 0 0 5 76 98 126 8 32 0 0 0 0 0 0 0 0 0 0 0 2 37 16 0 0 0 0 0 0 0 0 0 0 0 0 0 0 0 0 0 0 74 178 0 370 632 594 737 1214 1555 1680 1764 1849 1908 1882 1877 1851
3 2 7 4 0 16 0 0 0 0 59 130 57 15 70 0 0 0 0 0 0 0 0 0 0 0 0 0 0 0 0 0 0 0 0 0 0 0 0 0 0 0 0 0 0 0 0 0 0 149 0 0 247 537 720 1072 1542 1699 1745 1762 1804 1742 1802
7 3 0 0 0 0 0 2 0 12 25 46 38 58 21 0 0 0 0 0 0 0 0 0 0 0 0 0 0 0 0 0 0 0 0 0 0 0 0 0 0 0 0 0 0 0 0 0 0 0 0 0 2 580 901 1123 1268 1431 1503 1487 1521 1705 1847
7 1 2 1 2 2 0 0 0 4 1 14 34 26 0 0 0 0 0 0 0 0 0 0 0 0 0 0 0 0 0 0 0 0 0 0 0 0 0 0 0 0 0 0 0 0 0 0 0 0 0 0 0 29 624 964 1144 1341 1455 1402 1411 1560 1702
0 0 0 0 2 1 0 0 0 1 1 0 0 0 0 0 0 0 0 0 0 0 0 0 0 0 0 0 0 0 0 0 0 0 0 0 0 0 0 0 0 0 0 0 0 0 0 0 0 0 0 0 0 0 0 343 860 1217 1324 1290 1301 1715 2208
0 0 0 0 0 0 0 0 0 0 1 0 0 0 0 0 0 0 0 0 0 0 0 0 0 0 0 0 0 0 0 0 0 0 0 0 0 0 0 0 0 0 0 0 0 0 0 0 0 0 0 0 0 0 0 0 402 842 1260 1507 1881 2139 2394
0 0 0 0 0 0 0 0 8 0 0 0 0 0 0 0 0 0 0 0 0 0 0 0 0 0 0 0 0 0 0 0 0 0 0 0 0 0 0 0 0 0 0 0 0 0 0 0 0 0 0 0 0 0 0 296 586 1033 1413 1648 1796 1945 2122
0 0 0 0 0 0 3 2 1 1 0 0 0 0 0 0 0 0 0 0 0 0 0 0 0 0 0 0 0 0 0 0 0 0 0 0 0 0 0 0 0 0 0 0 0 0 0 0 0 0 0 0 0 0 0 357 631 934 1217 1386 1528 1716 2012
0 0 0 0 0 0 0 0 0 0 0 0 0 0 0 0 0 0 0 0 0 0 0 0 0 0 0 0 0 0 0 0 0 0 0 0 0 0 0 0 0 0 0 0 0 0 0 0 0 0 0 0 0 0 64 337 563 793 1045 1259 1437 1722 2178
0 0 0 0 0 0 0 0 0 7 4 0 0 0 0 0 0 0 0 0 0 0 0 0 0 0 0 0 0 0 0 0 0 0 0 0 0 0 0 0 0 0 0 0 0 0 0 0 0 0 0 0 0 0 148 329 456 690 938 1137 1397 1794 2321
0 0 0 0 0 0 0 0 0 0 0 0 0 0 0 0 0 0 0 0 0 0 0 0 0 0 0 0 0 0 0 0 0 0 0 0 0 0 0 0 0 0 1 0 0 0 0 0 0 0 0 0 0 0 218 364 466 512 728 982 1283 1812 2450
0 0 0 0 0 0 0 0 0 0 0 0 0 0 0 0 0 0 0 0 0 0 0 0 0 0 0 0 0 0 0 0 0 2 3 1 0 0 0 0 0 0 0 0 0 0 0 0 0 0 0 0 0 34 246 313 396 499 709 926 1248 1789 2524
0 0 0 0 0 0 0 0 0 0 0 0 0 0 0 0 0 0 0 0 0 0 0 0 0 0 4 5 5 3 1 1 2 2 1 0 0 0 0 0 0 0 0 0 0 0 0 0 0 0 0 0 0 0 201 382 451 556 692 898 1179 1660 2383
0 0 0 0 0 0 0 1 1 2 2 24 3 0 0 0 0 0 1 3 6 5 1 0 0 0 2 2 4 5 6 4 6 6 7 4 0 0 0 0 2 1 0 0 0 0 0 0 1 1 0 0 42 181 205 410 520 651 748 912 1114 1447 2000

ECMWFFLT2_con_mucape_063.txt.gz
CAPE
0 0 0 0 0 0 0 0 0 0 0 0 0 0 0 0 0 0 0 0 11 0 0 258 155 141 122 63 17 14 8 297 360 782 908 971 1006 967 943 896 831 775 694 768 759 732 730 726 697 686 654 623 596 584 594 619 602 510 532 625 549 464 395
0 0 0 0 0 0 0 0 0 0 0 0 0 0 0 0 0 0 0 92 94 123 102 148 189 108 71 26 6 0 1 0 19 533 912 1043 1075 1089 1042 989 928 860 775 694 740 736 750 723 714 699 680 633 610 604 617 626 608 552 537 644 627 498 420
0 0 0 0 0 0 0 0 0 0 0 0 0 0 0 0 0 0 0 0 12 40 129 153 174 170 36 4 0 0 0 1 0 30 675 1042 1140 1165 1161 1128 1072 1000 901 804 730 723 740 739 717 699 677 652 622 614 622 624 597 499 490 646 660 536 423
0 0 0 0 0 0 0 0 0 0 0 0 0 0 0 0 0 0 0 0 1 0 0 134 160 192 114 0 0 0 0 0 0 0 128 932 1158 1219 1224 1210 1166 1104 996 880 795 767 749 712 728 708 676 644 628 618 622 618 574 405 432 608 721 580 413
0 0 0 0 0 0 0 0 0 0 0 0 0 0 0 0 0 0 0 0 0 0 49 63 124 180 146 43 0 0 0 0 0 0 4 463 1072 1214 1247 1240 1218 1176 1079 943 852 796 756 716 704 716 700 675 647 634 622 595 569 530 505 500 632 618 434
0 0 0 0 0 0 0 0 0 0 0 0 0 0 0 0 0 0 0 0 0 0 0 112 146 203 160 114 0 0 0 0 0 0 0 365 830 1119 1214 1247 1224 1202 1124 1008 886 804 757 725 680 646 678 666 664 631 608 574 551 526 541 530 510 584 493
0 0 0 0 0 0 0 0 0 0 0 0 0 0 0 0 0 0 0 0 0 0 0 0 120 243 210 166 118 0 137 222 286 311 263 524 658 936 1106 1164 1186 1132 1128 1024 911 820 776 738 692 650 624 621 628 620 596 572 556 552 551 551 541 552 566
0 0 0 0 0 0 0 0 0 0 0 0 0 0 0 0 0 0 0 0 0 0 0 3 65 273 319 244 187 0 127 282 372 440 462 583 688 824 967 1012 1070 1098 1068 1043 918 837 801 754 736 703 668 625 615 601 592 586 582 586 576 577 589 608 625
0 0 0 0 0 0 0 0 0 0 0 0 0 0 0 0 0 0 0 0 0 0 0 0 66 137 326 312 207 122 130 238 422 472 554 616 678 788 864 933 998 1002 960 928 910 850 782 744 724 688 666 666 647 696 623 614 622 619 616 602 624 644 672
0 0 0 0 0 0 0 0 0 0 0 0 0 0 0 0 0 0 0 0 0 0 0 9 17 26 196 347 228 153 140 203 294 473 579 658 709 774 840 914 927 963 996 960 899 815 702 670 638 611 663 671 698 789 796 736 696 664 657 650 666 682 703
0 0 0 0 0 0 0 0 0 0 0 0 0 0 0 0 0 0 0 0 0 0 0 0 0 0 40 334 384 291 192 223 300 388 542 697 752 767 802 883 906 968 1020 1034 1059 946 770 616 458 539 648 708 741 784 848 875 838 773 738 714 722 744 773
0 0 0 0 0 0 0 0 0 0 0 0 0 0 0 0 0 0 0 0 0 0 0 4 0 0 0 24 293 353 228 160 248 330 394 531 699 768 772 825 895 962 1000 1039 1096 1114 1007 877 667 499 570 742 772 753 822 891 940 917 877 838 812 822 840
0 0 0 0 0 0 0 0 0 0 0 0 0 0 0 0 0 0 0 0 0 0 0 0 0 0 0 1 150 306 306 183 168 294 423 570 706 748 791 785 831 935 1008 1045 1066 1110 1119 1081 991 852 836 866 839 861 851 863 958 1026 1004 962 939 922 942
0 0 0 0 0 0 0 0 0 0 0 0 0 0 0 0 0 0 0 0 0 0 0 0 0 0 0 0 0 161 275 254 110 337 493 538 633 723 799 850 836 894 973 1055 1140 1164 1173 1152 1109 1068 1012 941 984 908 978 842 946 1004 1094 1114 1082 1061 1068
0 0 0 0 0 0 0 0 0 0 0 0 0 0 0 0 0 0 0 0 0 0 5 2 0 0 0 0 0 0 182 259 168 204 344 426 531 636 719 824 856 864 954 1014 1131 1226 1293 1290 1223 1175 1124 1097 1198 1210 1187 1071 1080 1072 1091 1212 1204 1185 1148
0 0 0 0 2 0 0 0 0 0 0 0 0 0 0 0 0 0 0 0 0 0 0 0 0 0 0 0 0 0 39 152 196 214 266 320 424 507 634 734 848 883 926 1010 1112 1213 1274 1350 1387 1365 1299 1221 1168 1372 1369 1282 1139 1081 1042 1163 1292 1263 1254
0 0 0 0 0 0 3 8 10 0 0 0 0 0 0 0 0 0 0 0 0 0 0 0 0 0 0 0 0 0 0 70 165 177 230 245 236 371 526 634 750 827 895 959 1036 1119 1210 1278 1387 1460 1467 1445 1386 1400 1516 1392 1402 1345 1264 1212 1377 1341 1295
0 0 0 0 0 0 0 0 4 10 3 0 0 0 0 0 0 0 0 0 0 0 0 0 0 0 0 0 0 0 0 9 103 166 135 196 212 264 396 495 622 718 795 854 946 1022 1080 1153 1230 1373 1470 1553 1560 1506 1401 1575 1376 1464 1421 1378 1307 1306 1442
0 0 0 0 0 0 0 0 0 0 0 0 0 0 0 0 0 0 0 0 0 0 0 0 0 0 0 0 0 0 0 0 22 90 147 130 202 210 284 389 439 506 544 670 720 902 949 996 1052 1163 1341 1445 1555 1632 1658 1621 1569 1580 1448 1428 1763 1763 1704
0 0 0 0 0 0 0 0 0 0 0 0 0 0 0 0 0 0 0 0 0 0 0 0 0 0 0 0 0 0 0 0 0 7 40 105 104 113 234 250 312 341 383 558 664 747 751 733 909 1078 1212 1336 1426 1536 1610 1648 1642 1563 1540 1456 1657 1878 2024
0 0 0 0 0 0 0 0 0 0 0 0 0 0 0 0 0 0 0 0 0 0 0 0 0 0 0 0 0 0 0 0 0 0 0 0 10 97 169 60 146 134 260 356 315 366 450 328 493 818 978 1164 1360 1496 1542 1658 1748 1794 1708 1543 1559 1568 1779
0 0 0 0 0 0 1 0 0 0 0 0 0 0 0 0 0 0 0 0 0 0 0 0 0 0 0 0 0 0 0 0 0 0 0 0 0 0 1 2 0 0 0 61 69 158 265 276 262 477 824 1012 1230 1318 1534 1661 1728 1816 1886 1830 1756 1660 1616
0 0 0 0 0 0 0 0 0 0 0 0 0 0 0 0 0 0 0 0 0 0 0 0 0 0 0 0 0 0 0 0 0 0 0 0 0 0 0 2 0 0 0 0 0 0 0 83 25 0 217 766 944 1250 1402 1595 1711 1730 1737 1758 1744 1748 1710
0 0 0 0 0 0 0 0 0 0 0 0 0 0 1 0 0 0 0 0 0 0 0 0 0 0 0 0 0 0 0 0 0 0 0 0 0 0 0 0 0 1 0 0 0 0 0 0 0 0 0 183 539 1015 1468 1605 1720 1632 1642 1615 1610 1641 1667
0 3 5 6 0 2 0 0 0 0 0 0 14 0 0 0 0 0 0 0 0 0 0 0 0 0 0 0 0 0 0 0 0 0 0 0 0 0 0 0 0 1 0 0 0 0 0 0 0 0 0 63 424 598 1022 1358 1550 1620 1647 1576 1620 1630 1671
0 0 6 0 0 0 0 0 0 54 0 0 0 0 0 0 0 0 0 0 0 0 0 0 0 0 0 0 0 0 0 0 0 0 0 0 0 0 0 0 0 0 0 0 0 0 0 0 0 0 0 0 1 492 607 990 1341 1461 1585 1622 1610 1627 1650
4 2 2 6 1 0 0 0 0 0 0 0 0 0 0 0 0 0 0 0 0 0 0 0 0 0 0 0 0 0 0 0 0 0 0 0 0 0 0 0 0 0 0 0 0 0 0 0 0 0 0 0 0 88 369 570 818 910 1061 1253 1555 1664 1715
0 0 0 0 0 0 0 0 0 0 1 0 0 0 0 0 0 0 0 0 0 0 0 0 0 0 0 0 0 0 0 0 0 0 0 0 0 0 0 0 0 0 0 0 0 0 0 0 0 0 0 0 0 0 222 308 351 597 767 700 648 850 1467
0 0 0 0 0 0 0 0 0 0 0 0 0 0 0 0 0 0 0 0 0 0 0 0 0 0 0 0 0 0 0 0 0 0 0 0 0 0 0 0 0 0 0 0 0 0 0 0 0 0 0 0 0 0 72 34 179 248 310 493 557 462 588
0 0 0 0 0 0 0 0 0 0 0 0 0 0 0 0 0 0 0 0 0 0 0 0 0 0 0 0 0 0 0 0 0 0 0 0 0 0 0 0 0 0 0 0 0 0 0 0 0 0 0 0 0 0 0 0 0 0 0 194 242 268 378
0 0 0 0 0 0 0 0 0 0 0 0 0 0 0 0 0 0 0 0 0 0 0 0 0 0 0 0 0 0 0 0 0 0 0 0 0 0 0 0 0 0 0 0 0 0 0 0 0 0 0 0 0 0 0 0 0 0 3 2 104 130 300
0 0 0 0 0 0 0 0 0 0 0 0 0 0 0 0 0 0 0 0 0 0 0 0 0 0 0 0 0 0 0 0 0 0 0 0 0 0 0 0 0 0 0 0 0 0 0 0 0 0 0 0 0 0 0 0 0 86 4 3 1 5 124
0 0 0 0 0 0 0 0 0 0 0 0 0 0 0 0 0 0 0 0 0 0 0 0 0 0 0 0 0 0 0 0 0 0 0 0 0 0 0 0 0 0 0 0 0 0 0 0 0 0 0 0 0 0 0 0 0 0 2 3 2 0 40
0 0 0 0 0 0 0 0 0 0 0 0 0 0 0 0 0 0 0 0 0 0 0 0 0 0 0 0 0 0 0 0 0 0 0 0 0 0 0 0 0 0 0 0 0 0 0 0 0 0 0 0 0 0 0 0 0 0 2 3 2 1 0
0 0 0 0 0 0 0 0 0 0 0 0 0 0 0 0 0 0 0 0 0 0 0 0 0 0 0 0 0 0 0 0 0 0 0 0 0 0 0 0 0 0 0 0 0 0 0 0 0 0 0 0 0 0 0 0 0 0 0 3 3 1 1
0 0 0 0 0 0 0 0 0 0 0 0 0 0 0 0 0 0 0 0 0 0 0 0 0 0 0 0 0 0 0 0 0 0 0 0 0 0 0 0 0 0 0 0 0 0 0 0 0 0 0 0 0 0 0 0 0 14 1 2 2 52 241
0 0 0 0 0 0 0 0 0 0 0 0 0 0 0 0 0 0 0 0 0 0 0 0 0 0 0 0 0 0 0 0 0 0 0 0 4 4 0 0 0 0 0 0 0 0 0 0 0 0 0 0 0 0 1 13 1 1 2 110 199 305 414

ECMWFFLT2_con_mucape_069.txt.gz
CAPE
0 0 0 0 0 0 0 0 0 0 0 0 0 0 0 0 0 0 0 0 0 0 0 0 10 0 0 15 65 78 124 112 0 114 351 513 703 782 793 827 918 1396 1369 1274 1158 1057 928 882 834 811 748 787 790 1189 1373 1549 1652 1685 1642 1759 1730 1771 1910
0 0 0 0 0 0 0 0 0 0 0 0 0 0 0 0 0 0 0 2 0 0 4 0 17 0 0 0 0 1 32 146 203 240 187 267 487 620 742 797 820 1096 1409 1314 1212 1128 843 860 838 815 966 791 877 1091 1158 1408 1594 1634 1530 1581 1568 1655 1801
0 0 0 0 0 0 0 0 0 0 0 0 0 0 0 0 0 0 0 0 0 0 0 0 16 0 0 0 0 6 0 99 168 297 361 344 176 0 398 745 824 781 1129 1291 1340 1208 830 795 784 794 774 788 789 834 813 1092 1312 1376 1348 1328 1418 1534 1624
0 0 0 0 0 0 0 0 0 0 0 6 0 0 0 0 0 2 0 0 0 0 1 5 25 7 0 0 6 21 12 104 142 214 321 451 463 405 150 0 464 797 797 1007 1256 1224 1032 843 808 789 790 779 785 804 808 791 1124 1307 1318 1271 1420 1501 1452
0 0 0 0 0 0 0 0 0 0 0 0 0 0 0 0 0 0 0 0 0 0 14 33 12 6 0 0 16 59 36 101 178 228 280 458 574 528 435 400 484 740 824 824 843 866 1229 869 825 827 822 790 784 768 770 770 876 1095 1186 1174 1284 1522 1376
0 0 0 0 0 0 0 0 0 0 0 0 0 0 0 0 0 0 0 0 0 0 6 6 8 1 0 0 44 68 13 109 176 307 361 451 605 673 662 580 624 724 806 842 883 890 1294 904 877 881 838 792 793 744 661 668 718 782 1036 1114 1295 1436 1380
0 0 0 0 0 0 0 0 0 0 0 0 0 0 0 0 0 0 0 0 0 2 4 9 0 0 0 0 5 38 38 74 139 264 448 492 561 678 722 770 786 788 835 907 895 930 911 921 924 903 837 858 863 946 641 584 493 507 695 712 1109 1463 1482
0 0 0 0 0 0 0 0 0 0 0 0 0 0 0 0 0 0 0 0 0 3 0 2 0 0 0 0 0 0 61 9 0 147 248 457 584 719 836 870 875 941 932 963 968 1006 1000 957 954 906 922 948 919 1155 996 865 750 1047 411 547 678 1352 1454
0 0 0 0 0 0 0 0 0 0 0 0 0 0 0 0 0 0 0 0 0 5 0 0 0 0 0 0 0 0 0 0 0 70 273 450 581 685 833 873 973 1038 1100 1100 1107 1087 1060 1004 986 955 944 1608 1209 1059 995 818 773 996 613 605 472 867 1201
0 0 0 0 0 0 0 0 0 0 0 0 0 0 0 0 0 0 0 0 0 4 1 0 0 0 0 0 0 0 0 0 0 0 164 341 470 592 684 838 838 1004 1003 1088 1113 1087 1069 1070 1052 1011 1020 995 982 1007 984 930 808 1044 711 657 516 611 940
0 0 0 0 0 0 0 0 0 0 0 0 0 0 0 0 0 0 0 0 0 1 0 0 0 0 0 0 0 0 0 0 0 0 0 198 363 322 407 543 700 773 870 923 1022 1025 1062 1082 1061 1064 1075 1070 1074 986 930 915 900 811 766 673 647 629 686
0 0 0 0 0 0 0 0 0 0 0 0 0 0 0 0 0 0 0 0 0 0 1 1 1 0 0 0 0 0 0 0 0 0 0 0 95 243 405 522 622 764 796 886 950 1035 1048 1061 1071 1095 1090 1071 1100 1088 1044 975 929 848 774 748 693 708 722
0 0 0 0 0 0 0 0 0 0 0 0 0 0 0 0 0 0 0 0 0 0 0 2 0 0 0 0 0 0 0 0 0 0 0 0 0 52 285 273 556 573 769 801 867 906 976 1113 1129 1115 1109 1065 1012 1054 1054 1037 1006 934 865 817 820 795 783
0 0 0 0 0 0 0 0 0 0 0 0 0 0 0 0 0 0 0 0 0 0 1 1 0 0 0 0 0 0 0 0 0 0 0 0 0 51 224 335 334 443 539 625 790 806 847 992 1081 1135 1107 1067 1062 1044 996 996 968 962 946 945 908 846 808
0 0 0 0 0 0 0 0 0 0 0 0 0 0 0 0 0 0 0 0 0 0 1 1 0 0 0 0 0 0 0 0 0 0 0 0 0 0 4 182 298 335 411 484 585 667 784 874 945 1062 1042 1076 1085 1072 1024 957 985 989 965 962 917 872 848
0 0 0 0 0 0 0 0 0 0 0 0 0 0 0 0 0 0 0 0 0 1 0 0 0 0 0 0 0 0 0 0 0 0 0 0 0 0 0 0 0 137 203 262 380 493 623 675 703 837 968 1024 1070 1030 1033 1007 957 971 981 939 900 930 1409
0 0 0 0 0 0 0 0 0 0 0 0 0 0 0 0 0 0 0 0 0 1 0 0 0 0 0 0 0 0 0 0 0 0 0 0 0 0 0 0 0 49 131 197 310 386 417 526 632 743 883 914 985 995 1001 967 938 930 936 916 873 838 1440
0 0 0 0 0 0 0 0 0 0 0 0 0 0 0 0 0 0 0 0 0 0 0 0 0 0 0 0 0 0 0 0 0 0 0 0 0 0 0 0 0 0 65 124 200 283 327 392 488 561 656 749 869 942 939 1035 1040 998 928 988 984 921 854
0 0 0 0 0 0 0 0 0 0 0 0 0 0 0 0 0 0 0 0 0 0 0 0 0 0 0 0 0 0 0 0 0 0 0 0 0 0 0 0 0 0 0 72 93 104 141 222 313 332 418 507 620 702 829 1018 1070 1078 1096 1050 1024 1037 994
0 0 0 0 0 0 0 0 0 0 0 0 0 0 0 0 0 0 0 0 0 0 0 0 0 0 0 0 0 0 0 0 0 0 0 0 0 0 0 0 0 0 0 0 11 66 84 34 150 181 263 274 335 499 615 757 893 925 1072 1104 1084 1043 1032
0 0 0 0 0 0 0 0 0 0 0 0 0 0 0 0 0 0 0 0 0 0 0 0 0 0 0 0 0 0 0 0 0 0 0 0 0 0 0 0 0 0 0 0 0 0 0 50 95 92 86 166 249 320 434 622 691 736 820 910 986 1061 1105
0 0 0 0 0 0 0 0 0 0 0 0 0 0 0 1 0 0 0 0 0 0 0 0 0 0 0 0 2 0 0 0 0 0 0 0 0 0 0 0 0 0 0 0 0 0 0 0 0 34 77 113 118 145 219 285 404 600 734 788 833 886 1027
0 0 0 0 0 0 0 0 0 0 0 0 0 0 0 1 0 0 0 0 0 0 0 0 0 0 0 0 0 0 0 0 0 0 0 0 0 0 0 0 0 0 0 0 0 0 0 0 0 0 0 5 43 0 106 134 211 253 394 487 538 652 774
0 0 0 0 0 0 0 0 0 0 0 0 0 0 1 0 0 0 0 0 0 0 0 0 0 0 0 0 0 0 0 0 0 0 0 0 0 0 0 0 0 0 0 0 0 0 0 0 0 0 0 0 0 0 0 4 101 75 200 301 380 422 541
0 0 0 0 0 0 0 0 0 0 0 0 0 0 2 0 0 0 0 0 0 0 0 0 0 0 0 0 0 0 0 0 0 0 0 0 0 0 0 0 0 0 0 0 0 0 0 0 0 0 0 0 0 0 0 0 0 88 45 102 177 230 287
0 0 0 0 0 0 0 0 0 0 0 0 0 0 0 0 0 0 0 0 0 0 0 0 0 0 0 0 0 0 0 0 0 0 0 0 0 0 0 0 0 0 0 0 0 0 0 0 0 0 0 0 0 0 0 0 0 0 0 0 107 134 154
0 0 0 0 0 0 0 0 0 0 0 0 0 0 0 0 0 0 0 0 0 0 0 0 0 0 0 0 0 0 0 0 0 0 0 0 0 0 0 0 0 0 0 0 0 0 0 0 0 0 0 0 0 0 0 0 0 0 0 0 43 106 112
0 0 0 0 0 0 0 0 0 0 0 0 0 0 0 0 0 0 0 0 0 0 0 0 0 0 0 0 0 0 0 0 0 0 0 0 0 0 0 0 0 0 0 0 0 0 0 0 0 0 0 0 0 0 0 0 0 0 0 0 0 41 102
0 0 0 0 0 0 0 0 0 0 0 0 0 0 0 0 0 0 0 0 0 0 0 0 0 0 0 0 0 0 0 0 0 0 0 0 0 0 0 0 0 0 0 0 0 0 0 0 0 0 0 0 0 0 0 0 0 0 0 0 0 0 97
0 0 0 0 0 0 0 0 0 0 0 0 0 0 0 0 0 0 0 0 0 0 0 0 0 0 0 0 0 0 0 0 0 0 0 0 0 0 0 0 0 0 0 0 0 0 0 0 0 0 0 0 0 0 0 0 0 0 0 0 0 0 0
0 0 0 0 0 0 0 0 0 0 0 0 0 0 0 0 0 0 0 0 0 0 0 0 0 0 0 0 0 0 0 0 0 0 0 0 0 0 0 0 0 0 0 0 0 0 0 0 0 0 0 0 0 0 0 0 0 0 0 0 0 0 0
0 0 0 0 0 0 0 0 0 0 0 0 0 0 0 0 0 0 0 0 0 0 0 0 0 0 0 0 0 0 0 0 0 0 0 0 0 0 0 0 0 0 0 0 0 0 0 0 0 0 0 0 0 0 0 0 0 0 0 0 0 0 0
0 0 0 0 0 0 0 0 0 0 0 0 0 0 0 0 0 0 0 0 0 0 0 0 0 0 0 0 0 0 0 0 0 0 0 0 0 0 0 0 0 0 0 0 0 0 0 0 0 0 0 0 0 0 0 0 0 0 0 0 0 0 0
0 0 0 0 0 0 0 0 0 0 0 0 0 0 0 0 0 0 0 0 0 0 0 0 0 1 0 0 0 0 0 0 0 0 0 0 0 0 0 0 0 0 0 0 0 0 0 0 0 0 0 0 0 0 0 0 0 0 0 0 0 0 0
0 0 0 0 0 0 0 0 0 0 0 0 0 0 0 0 0 0 0 0 0 1 2 4 3 3 1 0 0 0 0 0 0 0 0 0 0 0 0 0 0 1 0 1 0 0 0 0 0 0 0 0 0 0 0 0 0 0 0 1 1 0 0
0 0 0 0 0 0 0 0 0 0 0 0 0 0 0 0 0 0 0 0 0 2 7 8 6 2 0 0 0 0 0 0 0 0 0 0 1 2 3 4 4 5 5 4 3 1 0 0 0 0 0 0 0 0 0 0 0 0 0 2 4 2 0
0 0 0 0 0 0 0 0 0 0 0 0 0 0 0 0 0 0 0 2 6 8 10 8 3 1 0 0 0 0 0 0 1 2 4 6 4 5 4 6 8 8 8 8 6 3 1 0 0 0 0 0 0 0 0 0 0 0 0 1 3 3 1

ECMWFFLT2_con_mucape_072.txt.gz
CAPE
0 0 0 0 0 0 0 0 0 0 0 0 0 1 0 0 0 0 0 5 0 2 91 92 63 45 51 62 59 116 102 79 50 51 296 627 924 917 885 811 759 1657 1684 1800 1318 1515 1486 1541 1575 1694 1795 1819 2005 2197 2530 2951 3158 3423 3460 3488 3302 3378 3490
0 0 0 0 0 0 0 0 0 0 0 0 0 0 0 0 0 0 0 30 1 32 23 22 27 42 14 56 50 77 144 136 106 91 232 433 710 855 944 971 1005 1076 1128 1687 1830 1709 1582 1170 1327 1639 1709 1739 1980 2238 2401 2863 2985 3130 3209 3237 3100 3142 3350
0 0 0 0 0 0 0 0 0 0 0 0 0 0 0 0 0 20 0 3 26 3 132 13 55 33 32 55 46 41 65 121 168 328 285 273 316 552 733 833 924 976 1016 1273 2034 1361 1223 1572 1695 1716 1625 1665 1741 2060 2122 2244 2633 2701 2824 2883 2789 2922 3123
0 0 0 0 0 0 0 0 0 0 0 0 0 0 0 0 0 5 0 0 0 67 30 122 13 4 26 26 29 10 93 96 128 150 307 562 334 170 183 373 647 737 911 1224 1357 1328 1251 1391 1720 1261 1276 1603 1572 1776 1922 1882 1990 2315 2318 1913 2411 2765 2844
0 0 0 0 0 0 0 0 0 0 0 0 0 0 0 0 0 0 4 0 18 22 12 33 2 12 13 9 10 100 91 116 209 249 344 351 495 433 301 169 225 579 818 790 1000 1173 1420 1254 1222 1685 1514 1392 1238 1409 1567 1573 1680 1735 1615 1896 2099 2358 2667
0 0 0 0 0 0 0 0 0 0 0 0 0 0 0 0 0 8 1 0 1 2 5 2 1 2 6 1 76 15 96 154 226 344 432 506 528 532 537 502 448 645 839 824 978 1174 1218 1207 1243 1671 1207 1161 1117 1152 1394 1412 1382 1659 1528 1562 1582 2321 2285
0 0 0 0 0 0 0 0 0 0 0 0 0 0 0 0 0 2 5 58 14 19 1 2 1 4 0 2 10 49 81 141 266 318 423 482 634 568 648 797 717 775 884 915 872 922 1065 1168 1180 2002 1159 1102 1041 1226 1325 1394 1477 1502 1396 1625 1670 1698 2499
0 0 0 0 0 0 0 0 0 0 0 0 0 0 49 0 0 0 0 12 53 2 3 0 6 6 0 0 2 0 18 143 247 386 316 485 677 788 693 850 797 885 818 942 966 952 988 1059 1146 1114 1147 1128 1638 2337 2353 1526 1326 1480 1417 1471 1564 1822 1918
0 0 0 0 0 0 0 0 0 0 0 0 0 0 1 0 0 0 0 24 4 1 2 4 3 6 1 2 0 1 90 134 227 310 354 386 578 684 701 679 718 834 938 888 937 920 915 1026 1034 1038 1023 1903 1294 1580 1833 1124 868 1235 1425 1374 1340 1539 1805
0 0 0 0 0 0 0 0 0 0 0 0 0 0 0 0 42 84 14 119 7 1 8 6 6 4 7 1 9 18 106 163 197 229 240 288 396 512 596 798 978 956 972 1048 1072 1052 1017 994 974 972 940 931 1510 1327 845 934 890 912 1370 887 1194 1210 1276
6 72 0 0 0 0 0 0 0 0 0 0 0 0 0 0 5 37 243 42 2 6 10 2 1 1 6 1 0 0 0 20 25 102 116 139 192 276 344 378 389 356 684 959 1014 1082 1118 1097 1038 1038 992 962 976 978 936 911 930 855 945 762 1133 1140 1247
0 0 0 0 0 0 0 0 0 0 0 0 0 0 0 0 0 55 165 87 43 6 7 9 5 8 6 2 0 0 0 0 0 0 0 96 114 139 191 299 482 618 686 777 872 964 1014 1082 1109 1083 1068 1033 1013 1011 1022 986 933 859 851 824 878 1182 1244
0 0 0 0 0 0 0 0 0 0 0 0 0 0 0 0 4 37 101 86 57 2 10 10 10 7 3 0 0 0 0 0 0 0 0 0 118 199 227 266 358 478 595 639 661 783 991 1072 1027 1024 1040 1065 1045 1008 1021 1082 999 928 916 888 860 803 1260
0 0 0 0 0 0 0 0 0 0 0 0 0 0 0 0 0 112 124 114 48 0 4 6 6 0 0 0 0 0 0 0 0 0 0 0 0 139 186 328 269 290 319 325 636 649 669 922 962 963 1040 1080 1088 1073 1048 1004 1018 1045 1000 939 905 859 824
0 0 0 0 0 0 0 0 0 0 0 0 0 0 0 0 0 0 48 27 2 3 6 12 1 4 0 0 0 0 0 0 0 0 0 0 0 0 89 175 294 236 316 373 419 554 665 725 718 830 871 976 1064 1097 1075 1050 994 1031 1011 1022 983 915 1179
0 0 0 0 0 0 0 0 0 0 0 0 0 0 0 0 0 0 4 0 3 3 8 5 5 2 2 0 0 0 0 0 0 0 0 0 0 0 0 38 105 111 168 248 334 419 535 651 768 752 782 803 854 960 1025 1107 1068 991 1016 1013 1026 1094 1238
0 0 0 0 0 0 0 0 0 0 0 0 0 0 0 0 0 0 0 0 0 0 0 0 1 2 2 0 0 0 0 0 0 0 0 0 0 0 0 0 0 0 57 182 219 230 267 380 477 537 597 694 751 814 790 862 921 991 993 991 992 1052 1448
0 0 0 0 0 1 0 0 0 0 0 0 0 0 0 0 0 1 1 2 0 0 0 0 1 1 4 2 0 0 0 0 0 0 0 0 0 0 0 0 0 0 0 11 128 182 220 269 363 398 500 567 766 789 777 863 830 826 891 933 958 962 943
0 0 0 0 2 0 0 0 0 0 0 0 0 0 0 0 0 0 0 0 0 0 0 1 5 6 0 0 0 0 0 0 0 0 0 0 0 0 0 0 0 0 0 0 0 0 116 154 200 262 304 407 475 675 742 764 785 807 884 858 917 928 964
0 0 0 1 0 0 0 0 0 0 0 0 0 0 0 0 0 0 0 0 0 0 0 1 2 0 0 0 0 0 0 0 0 0 0 0 0 0 0 0 0 0 0 0 0 0 0 0 0 0 130 182 262 360 462 626 771 786 762 835 896 928 943
0 0 0 0 1 0 0 0 0 0 0 0 0 0 0 0 0 0 1 0 0 0 0 0 0 0 0 0 0 0 0 0 0 0 0 0 0 0 0 0 0 0 0 0 0 0 0 0 0 0 0 0 109 132 198 329 429 556 683 706 736 764 840
0 0 0 0 0 0 0 0 0 0 0 0 0 0 4 0 0 0 0 0 0 0 0 0 0 0 0 0 0 0 0 0 0 0 0 0 0 0 0 0 0 0 0 0 0 0 0 0 0 0 0 0 0 0 106 138 208 309 426 499 536 570 622
0 0 0 0 0 1 1 0 0 0 0 0 0 0 0 0 0 0 0 0 0 0 0 0 0 0 0 0 1 0 0 0 0 0 0 0 0 0 0 0 0 0 0 0 0 0 0 0 0 0 0 0 0 0 0 0 110 116 159 228 354 492 603
0 0 0 0 0 0 0 0 0 0 0 0 0 0 5 0 0 0 0 0 0 0 6 0 0 0 0 0 1 0 0 0 0 0 0 0 0 0 0 0 0 0 0 0 0 0 0 0 0 0 0 0 0 0 0 0 0 0 4 0 109 158 280
0 0 0 0 0 0 0 0 0 0 0 0 0 0 0 0 0 0 0 2 1 0 0 0 0 0 0 0 0 0 0 0 0 0 0 0 0 0 0 0 0 0 0 0 0 0 0 0 0 0 0 0 0 0 0 0 0 0 0 0 0 0 0
0 0 0 0 0 0 0 0 0 0 0 0 1 4 0 0 0 0 0 0 0 0 0 0 0 0 0 0 0 0 0 0 0 0 0 0 0 0 0 0 0 0 0 0 0 0 0 0 0 0 0 0 0 0 0 0 0 0 0 0 0 0 0
0 0 0 0 0 9 0 0 0 0 0 3 1 0 0 0 0 0 0 0 0 0 0 0 0 0 0 0 0 0 0 0 0 0 0 0 0 0 0 0 0 0 0 0 0 0 0 0 0 0 0 0 0 0 0 0 0 0 0 0 0 0 0
0 0 0 0 1 0 0 0 0 0 0 1 0 0 0 0 0 0 0 0 0 0 0 0 0 0 0 0 0 0 0 0 0 0 0 0 0 0 0 0 0 0 0 0 0 0 0 0 0 0 0 0 0 0 0 0 0 0 0 0 0 0 0
0 0 0 0 0 0 0 0 0 0 0 0 0 0 0 0 0 0 0 0 0 0 0 0 0 0 0 0 0 0 0 0 0 0 0 0 0 0 0 0 0 0 0 0 0 0 0 0 0 0 0 0 0 0 0 0 0 0 0 0 0 0 0
0 0 0 0 0 0 0 0 0 0 0 0 0 0 0 0 0 0 0 0 0 0 0 0 0 0 0 0 0 0 0 0 0 0 0 0 0 0 0 0 0 0 0 0 0 0 0 0 0 0 0 0 0 0 0 0 0 0 0 0 0 0 0
0 0 0 0 0 0 0 0 0 0 0 0 0 0 0 0 0 0 0 0 0 0 0 0 0 0 0 0 0 0 0 0 2 0 0 0 0 0 0 0 0 0 0 0 0 0 0 0 0 0 0 0 0 0 0 0 0 0 0 0 0 0 0
0 0 22 0 2 0 0 0 0 0 0 0 0 0 0 0 0 0 0 0 0 0 0 0 0 0 0 0 1 0 0 0 0 0 1 1 0 0 0 0 0 0 0 0 0 0 0 0 0 0 0 0 0 0 0 0 0 0 0 0 0 0 0
0 0 0 14 0 0 0 0 0 0 0 0 0 0 0 0 0 0 0 0 0 0 0 0 0 0 0 0 0 0 0 0 0 1 2 4 4 0 0 2 0 0 0 0 0 0 0 0 0 0 0 0 0 0 0 0 0 0 0 0 0 0 0
0 1 5 5 5 1 1 0 0 0 0 0 0 0 0 0 0 0 0 0 0 0 0 0 0 0 0 0 0 0 0 0 0 0 1 0 0 0 1 0 0 1 0 1 0 0 0 0 0 0 0 0 0 0 0 0 0 0 0 0 0 0 0
0 2 91 21 0 6 9 19 7 0 0 0 0 0 0 0 0 0 0 0 0 0 0 0 0 0 0 0 0 0 0 0 0 0 0 0 0 1 2 0 0 2 0 1 0 0 0 0 0 0 0 0 0 0 0 0 0 0 0 0 0 0 0
0 0 10 78 0 0 0 0 8 3 0 0 0 0 0 0 0 0 0 0 0 0 0 0 0 0 0 0 0 0 0 0 0 0 0 0 0 0 0 2 6 7 6 5 5 4 2 0 0 0 0 0 0 0 0 0 0 0 1 0 0 0 0
0 0 9 16 0 0 0 4 0 2 0 0 0 0 0 0 0 0 0 0 0 2 0 0 0 0 0 0 0 0 0 1 2 4 2 5 1 1 2 4 7 7 7 6 6 6 3 2 2 0 0 0 0 0 0 0 0 0 0 2 0 0 0

ECMWFFLT2_con_mucape_075.txt.gz
CAPE
0 0 0 0 0 1 0 0 0 0 0 0 2 5 0 0 0 0 0 118 353 58 267 105 125 58 51 45 45 48 47 47 131 156 305 274 388 900 585 542 984 1532 1540 1754 1849 1662 1767 1712 1845 1700 1759 1884 2160 1961 2620 2654 2778 3576 3683 3692 3164 3461 3106
0 0 0 0 0 0 0 0 0 0 0 1 8 6 24 1 0 0 0 87 282 260 371 300 203 200 80 26 52 57 57 47 49 75 189 150 258 353 465 653 1018 1168 1325 1262 1299 1436 1925 1591 1878 1870 2636 2458 2263 2094 2536 3013 3271 3824 3730 3761 3377 3159 3513
0 0 0 0 0 0 0 0 0 0 1 0 0 0 29 4 0 1 5 17 67 203 518 310 337 110 21 54 50 54 32 47 80 53 130 193 205 492 606 832 1148 771 845 1678 1406 1924 1504 1602 1759 1611 2046 1642 1529 1938 1976 2072 2773 2444 3094 3144 2890 3140 3701
0 0 0 0 0 0 0 0 0 0 0 0 2 0 0 2 8 0 19 2 190 201 378 412 122 15 12 64 56 50 62 56 64 57 131 619 613 420 383 458 701 734 905 1434 2173 2117 2176 2017 1195 1019 1901 1650 1505 1622 1472 1737 1899 2096 2266 2265 2918 2590 2845
0 0 0 0 0 0 0 0 0 0 0 12 0 0 0 0 0 0 2 32 337 572 304 235 109 3 14 78 51 58 51 52 87 235 260 174 596 786 652 316 437 558 604 837 1648 1834 1633 1904 1586 1369 1350 1716 1636 1613 2108 2068 1744 1870 1954 2444 2647 3013 2630
0 0 0 0 0 0 0 0 0 0 0 0 0 4 0 0 0 0 15 84 700 304 318 73 0 6 28 26 57 46 46 35 41 144 170 233 317 121 570 526 389 476 508 533 825 1642 1550 1456 1665 1981 1978 2256 1423 1165 1167 1457 1644 1963 1620 2615 2407 3197 3204
0 0 0 0 0 0 0 0 0 0 0 0 4 3 2 0 0 10 234 373 276 147 142 22 4 18 42 38 42 29 30 50 44 138 242 337 476 514 189 85 150 314 528 605 771 868 909 889 992 1981 1780 1100 1120 1513 1693 1356 1309 1583 1570 1711 1553 1608 2083
0 0 0 0 0 0 0 0 0 0 0 0 0 0 5 0 0 0 80 297 110 94 17 2 8 20 14 24 52 39 31 32 96 436 459 422 388 552 514 528 245 192 532 810 866 971 1037 1075 961 927 1440 1368 1823 1704 1712 1892 1795 1793 1506 1050 1500 2100 2293
0 0 0 0 0 0 0 0 0 0 0 0 3 9 3 0 0 0 1 189 267 65 27 6 10 18 20 15 30 52 49 29 146 200 344 394 454 440 592 740 525 518 600 664 796 914 986 970 797 895 882 1064 1066 1579 1524 1271 1018 1178 1212 1464 1441 1310 1611
0 0 0 0 0 0 0 0 0 0 0 0 0 0 0 0 0 82 76 488 213 113 41 29 32 3 9 1 10 42 90 157 106 164 232 344 377 518 589 643 660 667 609 709 739 794 838 871 841 844 848 889 704 893 896 1364 1780 961 1389 1047 1170 1469 1365
4 156 32 0 0 0 0 0 0 0 0 0 0 0 1 2 1 26 425 255 64 50 21 43 31 7 9 5 10 1 11 106 144 136 148 160 177 195 342 394 616 668 702 713 740 790 770 832 850 820 845 768 727 771 794 990 1172 946 1278 1374 1082 1260 1703
0 0 0 0 0 0 0 0 0 0 0 0 0 0 0 199 0 7 284 408 172 127 44 15 15 14 3 4 5 2 1 1 0 105 132 158 175 246 241 223 374 499 732 762 719 832 818 795 848 898 873 818 772 679 695 721 699 769 809 868 966 981 1296
0 0 0 0 0 0 0 0 0 0 0 0 0 0 0 0 12 138 361 280 265 160 114 43 16 28 6 1 5 5 0 0 0 0 47 103 146 210 357 362 462 550 509 681 798 813 796 842 856 846 834 813 790 770 706 708 665 710 716 765 922 1000 1050
0 0 0 0 0 0 0 0 0 0 0 0 0 0 0 0 10 252 338 510 359 233 77 20 10 12 2 4 4 0 0 0 0 0 0 40 116 171 273 356 369 421 447 392 384 662 824 886 868 856 865 865 857 813 801 742 710 739 727 704 684 825 1101
0 0 0 0 0 0 0 0 0 0 0 0 0 0 0 31 215 249 134 493 321 185 71 4 1 0 2 4 1 3 0 0 0 0 0 28 116 96 108 162 247 242 317 439 444 419 474 629 839 868 840 841 859 889 841 759 725 756 749 738 706 632 706
0 0 0 0 0 0 0 0 0 0 0 0 0 0 0 0 122 255 268 308 233 96 7 4 4 2 5 4 3 0 0 0 0 0 0 0 12 87 98 122 129 148 191 374 423 490 407 414 389 474 599 675 779 874 913 868 836 817 789 755 741 807 1061
0 0 0 0 0 0 0 0 0 0 0 0 0 0 0 0 118 191 135 115 78 12 4 3 3 1 5 3 0 0 0 0 0 0 0 0 0 0 0 0 85 117 127 155 245 302 498 536 538 498 518 553 514 638 749 827 875 895 776 752 736 745 829
0 0 0 0 0 2 9 20 0 0 0 0 0 0 0 0 0 78 75 98 0 4 2 2 5 9 1 0 1 1 0 0 0 0 0 0 0 0 0 0 0 27 86 122 160 225 238 331 509 597 646 572 519 478 445 563 726 756 850 831 768 766 778
2 0 0 0 1 27 51 0 0 0 0 0 0 0 0 26 73 162 104 41 0 2 3 2 10 2 10 0 0 0 0 0 0 0 0 0 0 0 0 0 0 0 82 108 132 144 180 220 245 254 351 450 516 554 570 568 535 604 720 830 819 772 753
0 0 0 0 0 43 0 0 0 0 0 0 0 0 1 64 145 218 99 47 0 0 2 6 0 0 1 0 2 0 0 0 0 0 0 0 0 0 0 0 0 0 0 0 24 96 96 120 148 155 179 197 258 360 483 569 619 566 556 578 691 641 693
0 0 0 0 66 8 0 0 0 0 0 0 0 1 0 31 71 102 40 0 0 0 1 0 0 0 2 0 0 0 0 0 0 0 0 0 0 0 0 0 0 0 0 0 0 0 0 0 81 104 113 133 140 159 192 268 366 480 539 549 521 579 604
0 0 0 3 2 0 0 0 0 0 0 0 0 65 5 7 4 12 4 1 0 0 0 0 0 0 0 0 0 0 0 0 0 0 0 0 0 0 0 0 0 0 0 0 0 0 0 0 0 0 0 9 77 90 106 136 160 152 185 247 374 421 322
0 0 0 3 0 41 53 3 1 0 0 0 0 27 22 0 0 0 0 0 0 0 0 0 0 0 0 0 1 0 0 0 0 0 0 0 0 0 0 0 0 0 0 0 0 0 0 0 0 0 0 0 0 0 0 0 50 120 133 124 73 0 146
0 0 0 0 0 212 108 17 0 0 0 0 0 1 0 0 0 0 0 0 0 0 0 0 0 0 0 12 0 0 0 0 0 0 0 0 0 0 0 0 0 0 0 0 0 0 0 0 0 0 0 0 0 0 0 0 0 0 0 0 0 0 0
0 0 0 0 180 168 79 0 0 0 0 0 0 0 218 0 0 0 0 0 0 0 0 0 0 0 0 0 0 0 0 0 0 0 0 0 0 0 0 0 0 0 0 0 0 0 0 0 0 0 0 0 0 0 0 0 0 0 0 0 0 0 0
0 0 0 0 62 139 15 0 0 0 0 0 3 56 0 0 0 0 0 0 0 0 0 0 0 0 0 0 0 0 0 0 0 0 0 0 0 0 0 0 0 0 0 0 0 0 0 0 0 0 0 0 0 0 0 0 0 0 0 0 0 0 0
0 0 3 0 0 82 0 0 0 0 0 131 27 0 0 0 0 0 0 0 0 0 0 0 0 0 0 0 0 0 0 0 0 0 0 0 0 0 0 0 0 0 0 0 0 0 0 0 0 0 0 0 0 0 0 0 0 0 0 0 0 0 0
0 0 0 0 4 5 21 0 10 0 0 15 7 0 0 0 0 0 0 0 0 0 0 0 0 0 0 0 0 0 0 0 0 0 0 0 0 0 0 0 0 0 0 0 0 0 0 0 0 0 0 0 0 0 0 0 0 0 0 0 0 0 0
0 0 56 36 2 44 16 1 4 0 43 23 0 0 0 0 0 0 0 0 0 0 0 0 0 0 0 0 0 0 0 0 0 0 0 0 0 0 0 0 0 0 0 0 0 0 0 0 0 0 0 0 0 0 0 0 0 0 0 0 0 0 0
0 1 18 184 28 0 0 0 0 15 0 0 0 0 0 0 0 0 0 0 0 0 0 0 0 0 0 0 0 0 0 0 0 0 0 0 0 0 0 0 0 0 0 0 0 0 0 0 0 0 0 0 0 0 0 0 0 0 0 0 0 0 0
0 2 14 2 2 0 0 0 0 0 0 0 0 0 0 0 0 0 0 0 0 0 0 0 0 0 0 0 0 0 0 0 0 0 0 0 0 0 0 0 0 0 0 0 0 0 0 0 0 0 0 0 0 0 0 0 0 0 0 0 0 0 0
0 0 66 27 12 0 0 0 3 1 0 0 0 0 0 0 0 0 0 0 0 0 0 0 0 0 0 0 0 0 0 0 0 0 0 0 0 0 0 0 0 0 0 2 0 0 0 0 0 0 0 0 0 0 0 0 0 0 0 0 0 0 0
0 4 3 49 97 16 10 0 0 10 28 2 0 0 0 0 0 0 0 0 0 0 0 0 0 0 0 0 0 0 0 0 0 0 0 0 0 0 0 0 0 0 0 0 2 0 0 0 0 0 0 0 0 0 0 0 0 0 0 0 0 0 0
201 199 236 155 63 236 56 0 0 0 0 0 2 7 2 0 0 0 0 0 0 0 0 0 0 0 0 0 0 0 0 0 0 0 0 0 0 0 0 0 0 0 0 0 0 2 4 0 0 0 0 0 0 0 0 0 0 0 0 0 0 0 0
161 174 150 367 52 58 49 119 61 6 2 3 7 12 4 9 3 1 0 0 0 0 0 0 0 0 0 0 0 2 0 0 0 0 0 0 0 0 0 0 0 0 0 0 0 0 0 0 0 0 0 0 0 0 0 0 0 0 0 0 0 0 0
226 128 157 158 68 65 388 189 15 3 1 8 11 6 9 3 5 5 11 7 4 4 3 0 0 0 0 0 0 2 0 0 0 0 0 0 0 0 0 0 0 0 0 0 0 0 0 0 0 0 0 0 0 0 0 0 0 0 0 0 0 0 0
299 259 232 374 414 384 313 262 111 64 5 0 7 8 10 6 1 0 6 4 10 10 7 5 1 0 0 0 0 0 0 0 0 0 0 0 0 1 0 0 0 0 0 0 0 0 0 0 0 0 0 0 0 0 3 1 3 0 0 0 0 0 0

ECMWFFLT2_con_mucape_078.txt.gz
CAPE
0 0 0 2 14 7 2 0 0 0 0 4 0 8 0 0 0 0 418 124 156 66 228 78 161 129 80 93 124 278 346 702 912 911 960 1089 1190 1121 1359 1852 1391 1673 1950 1880 1798 1994 1792 1899 1823 1310 1788 1282 1694 2676 3119 3324 3442 2606 2936 3318 3161 2899 2961
0 0 0 1 0 0 2 0 0 0 0 0 4 3 18 0 0 1 376 365 119 297 204 243 92 36 64 55 29 35 86 327 342 276 369 901 706 1009 1226 1319 1609 1442 1681 1925 1788 1768 1752 1658 1583 1894 996 828 1044 1634 1930 2210 2550 2219 2395 2957 2734 2838 3082
0 0 0 0 0 0 0 0 1 0 3 0 0 0 9 6 0 1 564 299 321 396 265 182 123 89 54 24 72 30 20 61 172 310 347 358 875 578 599 1018 1292 1641 1761 2134 2584 2234 2153 2130 1818 1463 1092 1245 1038 1619 2074 1624 2705 2766 2613 2992 2738 3008 3134
0 0 0 0 0 0 0 0 0 0 0 0 0 0 0 0 3 13 388 452 352 387 354 300 77 78 6 2 12 20 9 26 65 144 377 345 469 670 774 1062 978 1605 1678 1726 2411 2511 2001 2137 1970 1619 1137 921 1367 1922 2118 2133 2064 3052 3063 3251 2683 2369 2725
0 0 0 0 0 0 0 0 0 0 0 0 0 0 0 0 34 22 255 338 104 344 410 418 40 6 6 26 51 39 27 29 46 58 285 274 243 406 444 478 844 954 1414 1840 1377 2173 2498 1835 1570 1208 1026 1456 1442 1775 2151 2177 2379 2848 2746 2793 2838 3026 3031
0 0 0 0 0 0 0 0 0 0 0 0 0 1 0 0 0 7 180 470 448 84 276 170 48 16 13 30 73 37 10 9 18 41 225 224 195 309 398 442 449 607 836 1285 1376 1320 1891 2052 1623 1257 1588 2138 1817 1426 1413 1379 1970 2151 2498 2738 2584 2450 3494
0 0 0 0 0 0 0 0 0 0 0 0 0 0 5 4 4 9 642 594 618 326 279 153 79 19 19 42 28 26 5 14 9 21 174 287 244 156 213 382 402 574 674 687 868 957 1096 1274 1454 1536 1788 2029 1981 2273 2124 2202 2278 2400 2271 1836 2066 2591 2779
0 0 0 0 0 0 0 0 0 0 0 0 1 7 10 2 14 381 362 648 434 253 262 126 34 10 27 19 19 2 3 2 8 17 132 358 223 170 162 174 217 472 532 550 549 588 773 967 1320 1544 1780 2137 1895 2051 1973 1682 1921 2318 2293 2198 1908 1843 1967
0 0 0 0 0 0 0 0 0 0 0 5 2 3 36 4 5 95 302 521 506 217 133 82 50 39 57 15 4 7 2 10 10 2 89 214 256 236 220 196 274 346 402 519 694 677 738 916 980 1059 1200 1396 1465 2137 2022 1664 1885 1828 1591 1638 1745 1814 1625
23 0 0 0 0 0 0 0 0 0 0 0 0 0 0 0 7 225 188 494 345 146 150 26 21 29 46 21 1 6 0 0 9 15 122 187 272 346 367 344 277 183 421 543 753 762 818 893 926 904 946 846 1010 1548 1808 1603 1589 1756 1678 1137 1648 1346 1300
0 2 4 0 0 0 0 0 0 0 0 0 0 0 5 1 22 346 498 458 273 189 95 53 35 9 19 4 2 1 0 4 13 58 112 221 323 372 410 380 432 419 521 657 775 799 823 912 870 914 928 947 911 972 927 1246 1524 1130 1697 1428 1615 1487 1402
0 0 0 0 0 0 0 0 0 0 0 0 0 0 0 66 0 568 745 442 320 187 144 92 27 11 5 1 2 0 0 0 8 2 0 138 213 386 428 498 429 466 498 608 637 725 764 772 870 876 860 893 912 1006 961 897 858 767 682 691 845 1496 1360
0 0 0 0 0 0 0 0 0 0 0 0 0 0 0 3 3 416 697 563 292 225 158 118 11 3 3 2 2 0 1 0 1 0 0 36 154 173 322 392 578 548 541 569 644 682 707 707 676 773 802 872 769 817 864 828 843 765 744 668 808 889 1138
2 0 1 1 0 0 0 0 0 0 0 0 0 0 0 1 383 706 660 394 547 283 217 95 25 1 2 2 0 0 0 0 4 0 0 0 78 264 299 429 562 720 651 630 649 696 698 691 773 796 784 781 715 629 788 830 826 783 761 789 734 910 910
0 0 0 0 0 0 0 0 0 0 0 0 0 0 0 4 574 146 421 544 489 325 194 48 1 1 0 0 3 3 0 0 0 0 0 0 38 192 328 331 592 516 691 720 735 734 734 723 766 779 801 782 769 795 519 403 493 636 675 703 698 710 700
1 2 1 0 0 0 0 0 0 0 0 0 0 0 0 0 103 118 435 363 285 393 212 0 0 0 0 0 0 2 2 0 0 0 0 0 137 209 223 228 197 353 466 466 586 741 711 752 781 780 798 807 805 744 711 685 534 419 436 462 419 498 583
4 0 2 0 0 0 0 0 0 0 0 0 0 0 0 0 15 344 430 177 384 263 119 16 0 0 0 0 0 0 0 1 0 0 0 20 147 198 183 231 215 231 331 428 408 502 651 795 808 782 733 773 820 814 792 775 667 618 546 503 489 521 519
7 1 0 4 0 0 0 10 19 0 0 0 0 0 0 2 3 184 344 346 245 168 84 8 0 3 0 0 0 0 0 0 0 0 0 0 0 0 82 124 189 202 354 422 316 383 381 428 503 545 589 584 577 621 617 710 735 584 662 677 644 626 588
0 2 10 2 0 0 35 0 2 18 3 0 3 13 12 0 119 214 284 192 177 137 71 21 7 0 0 0 2 1 1 1 0 0 0 0 0 0 0 0 30 85 121 215 325 428 364 295 380 403 380 360 433 482 497 546 563 556 515 767 825 755 676
0 0 2 0 0 231 5 0 0 0 4 4 0 4 1 6 132 286 368 310 245 144 70 7 0 0 0 0 0 0 0 0 0 0 0 0 0 0 0 0 0 0 0 0 132 157 199 247 293 345 362 357 412 422 429 400 404 418 457 476 608 691 769
2 1 3 1 121 1 38 0 22 0 5 7 8 10 10 0 69 182 208 231 134 94 52 16 7 2 0 0 0 0 0 0 0 0 0 0 0 0 0 0 0 0 0 0 0 0 60 114 128 160 179 196 229 275 319 312 356 412 425 435 415 430 488
0 0 9 3 31 0 0 34 11 0 0 0 0 1 7 0 29 101 189 174 59 76 32 30 5 0 0 0 0 0 0 0 0 0 0 0 0 0 0 0 0 0 0 0 0 0 0 0 12 71 88 103 129 148 164 172 191 213 288 326 389 442 435
0 0 0 4 0 47 46 12 8 5 2 0 0 0 29 0 72 144 162 149 57 6 11 8 2 3 1 4 1 0 0 0 0 0 0 0 0 0 0 0 0 0 0 0 0 0 0 0 0 0 0 0 46 82 87 90 88 101 104 110 132 136 174
0 0 0 2 9 248 139 25 0 0 0 0 0 0 0 10 14 8 65 83 18 5 2 14 0 0 1 0 1 0 0 0 0 0 0 0 0 0 0 0 0 0 0 0 0 0 0 0 0 0 0 0 0 0 0 0 0 28 34 0 0 0 0
0 0 0 5 325 234 59 0 0 0 0 0 0 0 98 21 24 11 8 19 0 3 0 0 0 11 0 0 0 0 0 0 0 0 0 0 0 0 0 0 0 0 0 0 0 0 0 0 0 0 0 0 0 0 0 0 0 0 0 0 0 0 0
0 0 0 0 380 242 66 0 0 0 0 0 6 217 43 13 4 0 0 0 4 1 0 0 2 2 0 0 0 0 0 0 0 0 0 0 0 0 0 0 0 0 0 0 0 0 0 0 0 0 0 0 0 0 0 0 0 0 0 0 0 0 0
0 0 0 0 3 251 6 0 0 0 0 248 169 47 10 1 0 0 0 0 0 0 1 0 1 0 0 0 0 0 0 0 0 0 0 0 0 0 0 0 0 0 0 0 0 0 0 0 0 0 0 0 0 0 0 0 0 0 0 0 0 0 0
0 0 0 62 320 75 17 0 1 0 145 88 100 11 1 0 0 1 0 0 0 0 0 0 0 0 0 0 0 0 0 0 0 0 0 0 0 0 0 0 0 0 0 0 0 0 0 0 0 0 0 0 0 0 0 0 0 0 0 0 0 0 0
20 98 92 0 125 130 27 20 4 68 55 110 32 19 0 0 0 0 0 0 0 0 0 0 0 0 0 0 0 0 0 0 0 0 0 0 0 0 0 0 0 0 0 0 0 0 0 0 0 0 0 0 0 0 0 0 0 0 0 0 0 0 0
4 4 87 244 143 159 27 35 131 75 100 19 0 0 0 0 0 0 0 0 0 0 0 0 0 0 0 0 0 0 0 0 0 0 0 0 0 0 0 0 0 0 0 0 0 0 0 0 0 0 0 0 0 0 0 0 0 0 0 0 0 0 0
0 3 46 110 131 46 51 44 109 90 16 0 0 0 0 0 0 0 0 0 0 0 0 0 0 0 0 0 0 0 0 0 0 0 0 0 0 0 0 0 0 0 0 0 0 0 0 0 0 0 0 0 0 0 0 0 0 0 0 0 0 0 1
0 0 13 49 124 47 31 35 70 41 0 0 0 0 0 0 0 0 0 0 0 0 0 0 0 0 0 0 0 0 0 0 0 0 0 0 0 0 0 0 0 0 0 0 0 0 0 0 0 0 0 0 0 0 0 0 0 0 0 0 0 0 0
44 0 0 26 37 96 45 44 28 46 6 0 0 0 0 0 0 0 0 0 0 0 0 0 0 0 0 0 0 0 0 0 0 0 0 0 0 0 0 0 0 0 0 0 0 0 0 0 0 0 0 0 0 0 0 0 0 0 0 0 0 0 0
52 233 348 318 7 53 54 9 37 31 11 15 30 1 0 0 0 0 0 0 0 0 0 0 0 0 0 0 0 0 0 0 0 0 0 0 0 0 0 0 0 0 0 0 0 0 0 0 0 0 0 0 0 0 0 0 0 0 0 0 0 0 0
70 732 221 356 218 247 93 42 29 1 7 8 5 41 4 0 0 0 0 0 0 0 0 0 0 0 0 0 0 0 0 0 0 0 0 0 0 0 0 0 0 0 0 0 0 0 0 0 0 0 0 0 0 0 0 0 0 0 0 0 0 0 0
289 328 249 224 276 102 325 161 160 183 81 34 5 0 90 25 1 0 1 2 4 2 0 0 0 0 0 0 0 0 0 0 0 0 0 0 0 0 0 0 0 0 0 0 0 0 0 0 0 0 0 0 0 0 0 0 0 0 0 0 0 0 0
298 250 242 147 151 134 118 288 65 179 226 129 29 16 1 10 7 2 4 5 4 6 5 8 5 4 1 0 0 0 0 0 0 0 0 0 0 0 0 0 0 0 0 0 0 0 0 0 1 0 0 0 0 0 0 0 0 0 0 0 0 0 0

ECMWFFLT2_con_mucape_084.txt.gz
CAPE
0 0 0 0 0 0 0 0 0 0 0 0 0 0 0 5 224 241 280 243 338 288 359 522 732 556 556 649 767 837 917 957 985 978 958 973 1138 1412 1426 1284 1254 911 1086 624 540 722 479 220 180 370 537 760 710 548 753 816 723 1214 1449 1013 1123 1423 1494
0 0 0 0 0 0 0 0 0 0 0 0 0 0 0 0 104 370 305 382 415 431 399 444 593 891 864 875 894 901 839 919 1072 1141 987 1078 1147 1224 1048 1083 898 986 982 1059 883 851 651 692 253 227 547 779 901 732 750 997 830 1041 1612 1348 1225 1423 1534
0 0 0 0 0 0 0 0 0 0 14 0 0 0 0 29 340 379 391 294 348 287 95 368 648 886 950 956 1013 984 952 1019 1154 1252 1188 1125 1148 1163 1224 1075 917 1097 1006 1017 857 686 839 642 881 353 305 702 1092 1080 907 1166 1082 1057 1621 1652 1505 1554 1553
0 0 0 0 0 0 0 0 0 0 3 0 0 0 0 0 417 371 381 314 306 286 337 531 768 775 796 887 985 1048 1099 1063 933 1112 1109 1136 1244 1296 1413 1312 1312 1445 1365 1153 973 867 905 775 933 839 727 708 1170 1498 1359 1433 1431 1304 1730 1855 1869 1725 1766
5 0 0 0 0 0 0 0 0 0 0 0 0 0 0 254 423 394 312 267 276 218 323 468 738 724 697 922 1078 992 1003 934 916 985 1011 820 990 1180 1346 1178 1290 1350 1536 1264 1127 938 878 970 1231 1045 1006 1123 1482 1880 1749 1816 1760 1603 1911 2192 2190 1973 2100
10 13 0 0 5 3 0 0 0 0 4 0 0 18 8 190 382 449 321 233 289 238 281 315 738 605 687 913 952 850 773 778 803 741 759 753 721 787 835 1062 1159 1215 1216 1234 1155 1280 1272 1464 1226 970 1176 1087 1241 1644 1766 1750 1926 1661 1844 2025 2133 1877 1870
1 4 0 5 24 13 15 0 2 0 9 10 0 21 25 304 259 396 294 304 255 279 230 271 421 465 643 728 727 648 620 603 587 564 588 654 724 753 728 849 967 1168 1262 1431 1401 1268 1312 1321 1121 1219 1436 965 1064 1260 1694 1697 1724 1688 1624 1641 1831 1669 1776
0 0 0 0 15 35 31 16 7 0 3 10 13 28 96 402 393 383 374 312 215 200 267 307 388 627 709 771 708 634 524 550 535 493 479 569 649 789 881 880 819 838 1162 1451 1483 1320 1210 1131 1082 1054 1554 1319 1152 1074 1143 1506 1438 1486 1497 1341 1498 1476 1686
16 7 1 2 11 32 38 29 10 0 0 3 22 33 330 562 398 353 332 254 271 238 287 309 352 631 699 695 632 573 478 470 535 550 476 474 536 652 737 755 716 726 994 1242 1409 1424 1309 1164 1360 1106 1075 1025 962 1185 868 920 1028 1008 1454 1708 1652 1782 1679
15 18 8 14 10 37 52 40 9 2 0 8 26 37 525 489 412 407 334 354 264 232 257 246 369 471 519 522 506 421 313 373 422 456 544 487 444 462 515 559 549 567 753 981 1115 1160 1181 1190 1108 1162 1162 1087 996 1103 1275 1461 1408 1363 1506 1741 2009 2018 1885
21 10 9 7 56 19 38 37 18 13 5 5 9 113 163 246 409 429 364 351 335 200 253 304 305 348 339 329 302 243 169 0 189 340 384 399 427 426 360 335 467 586 701 811 1007 1034 1012 966 1018 898 1079 1174 1151 1010 1186 1216 1391 1395 1525 1573 1861 2085 2078
32 14 15 24 21 29 40 32 25 24 24 14 91 241 228 436 391 341 382 379 255 214 240 300 208 211 222 260 241 183 120 0 0 0 259 369 373 408 400 331 380 459 506 682 816 1015 1042 1007 956 972 1071 1000 584 878 1062 1207 1219 1244 1307 1355 1530 1559 1573
20 7 2 15 18 25 35 34 33 14 34 34 61 316 533 423 256 290 387 372 246 214 224 224 148 29 49 232 210 170 25 0 0 0 0 303 341 362 380 275 285 372 408 508 597 732 760 949 919 853 914 862 708 677 778 764 1141 1020 1009 1051 1085 1113 1204
17 13 4 1 4 17 26 1 11 3 38 32 26 157 614 322 120 446 400 346 261 222 228 216 197 164 174 148 120 51 0 94 48 0 0 249 353 317 300 267 269 258 323 307 371 504 574 618 758 811 699 699 539 515 557 784 849 752 816 870 927 904 834
24 19 9 2 0 2 8 19 19 21 25 184 662 596 462 394 488 534 438 338 252 239 230 194 188 149 112 109 98 12 0 0 155 169 192 258 335 327 317 303 330 281 188 245 310 436 500 570 546 514 500 599 487 447 426 616 791 836 819 860 874 746 840
38 20 6 4 0 0 0 1 20 48 46 32 291 797 580 508 554 551 496 355 298 226 160 178 255 213 168 127 42 0 0 0 66 192 194 231 255 278 284 297 306 296 296 272 274 331 388 482 535 541 529 526 559 547 429 440 610 723 733 670 767 789 860
34 26 11 7 0 0 0 1 0 1 36 49 28 748 707 587 608 607 429 332 351 277 236 4 214 234 126 0 0 0 0 0 0 65 225 236 248 269 277 232 276 326 325 393 509 430 392 404 421 557 567 572 586 584 523 622 626 655 636 611 598 687 756
12 7 4 20 9 10 10 21 155 308 318 586 809 892 738 656 613 583 526 482 412 305 124 0 125 127 120 99 0 0 0 0 0 0 0 174 186 186 232 242 300 351 264 225 374 411 420 418 458 498 462 442 516 537 534 544 525 447 504 567 412 426 578
13 16 1 12 27 38 28 11 7 303 685 792 873 934 803 701 687 599 561 565 277 162 125 149 190 30 62 0 0 0 0 0 0 0 39 30 167 164 251 301 318 368 373 361 295 225 190 246 399 465 340 367 431 420 475 505 534 538 505 486 508 554 515
5 3 22 15 15 10 5 4 3 406 584 610 699 728 757 789 734 636 574 395 318 215 209 228 207 0 0 0 0 0 0 0 0 0 0 155 187 217 252 294 360 373 387 454 462 446 306 275 278 323 372 394 376 368 360 338 381 441 468 458 323 471 489
0 0 8 3 142 4 2 5 11 10 4 178 557 727 730 719 529 553 526 365 300 202 166 152 113 0 0 0 0 0 0 0 0 0 0 11 72 50 111 180 260 224 257 266 292 391 418 348 285 245 237 203 278 318 375 368 389 445 496 471 399 409 448
0 0 0 0 0 0 0 0 5 10 77 288 533 690 583 546 491 305 330 323 230 150 118 110 70 0 0 0 0 0 0 0 0 0 0 0 130 93 142 130 140 152 151 158 167 188 243 288 250 275 244 203 207 248 239 280 345 416 436 420 419 428 423
0 0 0 0 0 15 0 0 0 22 9 15 189 636 556 552 328 166 15 0 0 0 0 79 8 0 0 0 5 0 0 0 0 0 0 0 141 203 217 212 226 220 244 153 123 159 183 194 198 188 204 190 162 204 192 183 234 283 302 288 282 269 271
0 0 0 0 136 41 12 0 0 0 0 0 12 11 278 399 287 44 2 0 0 0 0 0 0 0 0 0 46 72 0 0 0 0 0 0 145 226 246 237 160 161 178 154 176 204 202 210 147 136 129 88 133 172 207 187 182 200 179 149 142 124 95
5 0 0 0 55 94 76 0 0 0 0 0 8 6 46 376 351 276 162 4 0 0 87 99 114 0 0 0 0 0 0 0 0 0 0 0 145 231 204 181 165 179 200 171 160 152 166 168 122 83 10 150 174 175 150 121 120 141 140 134 121 130 168
0 0 0 0 9 91 0 0 0 0 0 1 2 96 81 319 452 370 292 202 41 123 13 148 197 141 0 0 0 0 0 0 0 0 0 0 0 0 168 161 157 147 159 198 188 182 198 198 152 132 144 82 5 102 134 152 147 100 105 111 124 129 123
0 0 0 0 0 105 0 0 0 0 0 0 0 0 37 197 405 405 325 302 284 260 289 277 235 168 27 0 0 0 0 7 0 0 0 0 0 0 0 46 46 0 38 93 106 96 93 129 136 118 148 155 143 125 126 122 61 118 129 41 33 25 0
0 0 0 28 172 9 0 0 0 12 56 0 114 21 147 193 284 351 359 330 322 344 356 250 208 177 89 0 0 0 0 4 0 0 0 0 0 0 0 0 0 0 0 0 0 0 0 0 0 0 0 113 154 146 131 7 0 0 0 0 0 0 0
0 0 0 0 0 0 3 10 10 1 13 11 0 106 171 196 334 400 403 426 380 220 180 208 195 178 19 0 0 0 0 0 0 0 0 0 0 0 0 0 0 0 0 0 0 0 0 0 0 0 0 0 14 83 27 0 0 0 0 0 0 0 0
0 0 0 0 0 0 5 12 3 0 0 0 219 204 196 172 159 156 142 149 262 254 244 218 192 141 0 0 0 0 0 0 0 0 0 0 0 0 0 0 0 0 2 4 0 0 0 0 0 0 0 0 0 0 0 0 0 0 0 0 0 0 0
0 0 9 0 0 0 0 0 0 0 0 0 0 211 225 199 0 0 15 42 76 107 182 28 0 0 0 0 0 0 0 0 0 0 0 0 0 0 0 0 0 0 0 0 2 0 0 0 0 0 0 0 0 0 0 0 0 0 0 0 0 0 0
0 0 0 0 0 0 0 8 2 0 0 0 0 0 0 0 0 0 41 36 35 54 27 28 12 2 0 0 0 0 0 0 0 0 0 0 0 0 0 0 0 0 0 0 0 0 0 0 0 0 0 0 0 0 0 0 0 0 0 0 0 0 0
0 0 0 0 0 0 16 3 0 0 0 0 0 0 0 0 0 0 0 0 44 38 16 2 6 4 6 11 7 1 2 0 0 0 0 0 0 0 0 0 0 0 0 0 0 0 0 0 0 0 0 0 0 0 0 0 0 0 0 0 0 0 0
0 9 0 0 5 1 0 0 0 0 0 0 0 0 0 0 0 0 0 0 0 0 6 5 0 0 0 0 0 0 0 0 0 0 0 0 0 0 0 0 0 0 0 0 0 0 0 0 0 0 0 0 0 0 0 0 0 0 0 0 0 0 0
0 384 0 0 0 0 3 2 1 0 0 0 0 0 0 0 0 0 0 0 0 0 0 0 0 0 0 0 0 0 0 0 0 0 0 0 0 0 0 0 0 0 0 0 0 0 0 0 0 0 0 0 0 0 0 0 0 0 0 0 0 0 0
0 0 0 0 2 30 0 0 2 0 0 0 0 2 0 0 0 0 0 0 0 0 0 0 0 0 0 0 0 0 0 0 0 0 0 0 0 0 0 0 0 0 0 0 0 0 0 0 0 0 0 0 0 0 0 0 0 0 0 0 0 0 0
16 58 39 17 6 2 0 2 22 5 47 14 0 0 16 0 0 0 0 0 0 0 0 0 0 0 0 0 0 0 0 0 0 0 0 0 0 0 0 0 0 0 0 0 0 0 0 0 0 0 0 0 0 0 0 0 0 0 0 0 0 0 0

ECMWFFLT2_con_mucape_087.txt.gz
CAPE
0 0 0 0 0 0 0 0 0 0 0 0 0 19 128 33 194 244 132 251 258 330 363 487 363 470 685 700 801 924 961 1015 979 992 656 691 499 699 679 936 952 591 454 151 165 47 171 176 155 163 190 200 211 263 392 505 492 493 696 789 807 871 878
0 0 0 0 0 0 0 1 2 0 0 0 0 0 0 0 54 242 163 328 366 316 301 602 557 558 606 797 908 982 1043 1051 1083 1070 903 886 925 1029 984 860 996 894 719 639 493 179 170 163 166 187 219 227 232 244 340 429 509 560 581 698 790 911 958
0 0 0 0 0 0 0 8 0 0 1 0 0 0 0 123 186 265 217 285 293 234 353 585 675 600 707 782 892 1026 1134 1114 1058 1058 1057 1003 1031 996 1015 945 864 1019 1011 690 702 482 229 166 174 206 238 244 233 244 280 383 341 644 703 656 741 906 970
0 0 0 0 0 0 0 0 7 11 1 2 0 0 0 5 261 203 200 264 362 276 337 677 566 668 732 814 868 968 1049 1076 1034 1020 1010 875 882 959 1067 1031 977 1075 1241 1108 895 668 506 496 286 201 223 229 238 241 459 495 379 588 977 839 930 927 1043
0 0 0 0 0 0 0 0 3 7 17 14 12 2 26 227 140 128 124 128 120 245 290 563 901 879 819 785 825 862 929 934 926 889 822 812 863 825 818 970 1115 1122 1230 1174 1012 941 928 776 1095 700 553 997 1361 1047 622 668 468 817 1175 1228 1180 1281 1387
0 0 0 0 0 0 0 0 0 7 15 16 7 7 120 358 262 239 55 29 230 236 266 540 998 962 923 860 818 844 874 920 1018 1041 1077 1045 1118 997 870 1012 1274 1574 1429 1252 1302 1224 1051 1076 1005 877 1197 1178 1243 1085 725 814 844 966 1138 1224 1136 1311 1458
0 0 0 0 0 0 0 0 0 0 6 8 5 7 90 246 247 149 97 167 206 261 258 504 917 964 864 875 928 856 825 842 868 890 892 854 892 1095 1195 1127 1117 1204 1147 1016 1299 1302 1209 1125 1138 1121 670 912 1351 1226 996 986 1012 890 1054 1142 1218 1222 1438
0 0 0 0 0 0 0 0 0 0 1 2 0 0 76 223 286 267 143 192 164 11 330 473 754 921 861 835 891 911 806 777 794 773 765 737 715 774 953 1115 1178 1101 1091 1152 1147 1040 1090 1013 1241 1014 649 680 1084 1323 1189 1168 1175 1138 1044 1235 1348 1442 1428
24 11 0 0 0 0 0 0 0 0 0 0 0 75 145 214 284 322 7 24 120 208 378 492 620 742 738 703 750 778 769 773 772 775 792 777 715 795 958 1045 1035 1135 1113 1156 1227 1124 1000 912 905 851 774 722 784 1100 1262 1314 1348 1312 1199 1188 1213 1540 1549
37 22 12 0 1 14 8 0 0 0 0 0 0 158 163 197 208 307 24 38 187 355 390 469 520 587 691 664 631 636 644 677 651 615 585 593 615 638 683 879 1002 1062 1161 1123 1038 1076 1080 982 959 915 928 942 864 768 1100 1131 1249 1366 1309 1267 1216 1410 1622
35 28 16 1 88 8 2 0 0 0 0 0 0 113 106 9 321 335 67 78 276 335 394 427 453 529 618 639 618 561 554 545 536 538 512 500 500 495 515 633 824 892 932 935 968 927 922 967 1118 1005 817 893 869 782 844 1064 1131 1368 1432 1350 1293 1358 1487
38 31 18 3 0 3 2 0 0 0 0 0 5 0 0 186 208 305 201 210 292 299 362 457 494 520 550 549 516 532 521 487 497 516 524 486 422 410 400 532 626 839 934 918 877 729 877 760 1086 1237 1164 979 785 839 797 774 921 1116 1312 1278 1281 1364 1326
40 41 32 11 1 3 1 3 0 0 0 0 117 24 4 342 39 70 297 306 297 329 432 501 571 569 578 591 562 557 522 463 367 324 385 447 453 410 374 417 461 477 589 625 682 709 767 747 953 895 983 1153 1146 1078 1056 929 923 870 721 746 962 1238 1403
38 38 36 20 8 1 4 7 11 6 292 291 317 280 386 323 75 102 322 327 342 345 402 451 502 512 515 513 471 433 419 367 305 221 204 273 325 350 334 325 381 430 479 535 689 666 694 724 740 785 777 830 818 966 1097 1170 1046 1047 1010 1189 1318 1361 1409
28 29 39 26 10 1 2 22 26 23 134 429 450 411 485 359 360 438 381 341 333 344 377 397 387 372 404 423 438 423 308 238 201 183 177 210 250 274 288 280 269 253 276 289 340 426 575 621 582 593 622 638 726 779 836 746 692 849 1003 1054 983 956 1078
28 13 16 12 0 0 0 14 9 6 14 8 300 424 442 470 586 501 483 426 420 367 349 406 438 450 490 538 529 410 286 246 229 226 92 202 268 306 308 290 255 250 228 226 278 318 381 462 574 545 560 536 767 738 709 659 558 575 708 830 745 704 732
24 19 7 2 16 10 18 26 36 0 17 0 364 572 573 493 585 587 512 554 514 464 432 392 375 446 485 455 414 335 268 246 162 0 0 14 244 292 345 350 301 241 117 212 201 211 200 277 476 486 454 432 549 734 690 629 596 590 536 527 576 635 595
20 37 1 0 0 26 59 176 546 602 575 607 553 511 650 599 548 585 482 508 559 512 492 422 409 400 386 344 328 282 225 45 0 0 0 202 232 257 264 259 224 223 225 275 288 202 56 136 261 443 426 390 566 564 455 406 496 472 375 599 774 800 720
17 16 38 2 2 3 6 155 474 660 739 652 516 609 545 709 610 521 480 549 622 608 567 507 500 441 422 376 396 336 42 0 0 0 0 151 218 238 225 203 184 180 195 208 278 359 321 315 345 410 467 552 544 602 541 457 443 419 412 451 550 541 585
0 3 18 42 19 1 0 2 5 289 701 727 747 709 714 697 606 577 594 627 637 635 614 593 593 570 522 485 405 217 0 0 0 0 0 0 121 174 203 211 149 192 196 185 191 265 304 370 422 437 449 451 442 488 460 453 455 445 439 489 531 500 476
0 0 2 1 4 4 4 15 12 8 16 145 344 751 721 646 633 588 665 670 688 657 607 596 570 547 495 413 255 100 0 0 0 0 0 0 120 176 188 140 139 150 256 227 228 206 208 208 277 366 393 413 394 457 465 457 430 422 434 434 438 419 459
0 0 0 0 0 9 10 0 0 0 89 211 501 515 416 596 630 600 669 696 739 689 627 589 541 446 426 288 206 96 0 0 0 0 0 0 111 196 203 208 223 208 193 243 200 236 250 248 253 283 322 365 382 405 433 432 423 423 375 388 423 435 420
0 0 0 0 2 0 1 1 0 0 71 158 610 369 396 433 583 656 712 716 730 709 649 486 341 320 244 238 187 103 87 62 0 0 0 0 0 78 196 219 186 176 162 182 131 90 127 167 207 281 331 341 371 420 414 404 390 384 382 398 422 418 393
0 0 0 0 0 0 0 0 0 0 0 0 8 218 244 411 587 680 750 730 643 652 665 482 347 286 283 220 185 135 119 100 68 0 0 0 0 0 118 156 131 107 80 3 35 51 24 0 5 65 89 133 182 234 256 247 276 297 277 280 319 328 320
16 0 0 0 0 0 0 0 0 0 0 0 15 10 59 355 548 652 686 581 512 535 498 405 375 311 300 238 179 139 117 107 83 0 0 0 0 0 53 184 164 149 122 100 24 0 0 0 0 84 112 104 99 89 0 0 36 0 92 141 177 174 159
0 0 0 0 0 0 0 0 0 0 0 16 13 1 0 350 481 592 590 507 422 434 494 466 470 448 302 180 50 2 12 54 118 116 48 0 0 0 0 171 254 210 180 132 97 0 0 0 0 8 26 90 84 82 0 105 80 0 89 140 126 78 0
0 0 0 0 0 0 0 0 0 0 0 0 0 0 0 128 427 423 429 353 308 256 296 355 327 261 18 1 0 140 131 114 44 46 18 15 0 0 0 97 184 215 180 140 121 109 40 0 0 0 0 0 0 0 0 0 0 0 4 107 134 150 147
0 0 0 0 0 0 0 0 0 0 0 0 0 0 0 0 206 406 393 348 298 248 147 124 90 0 0 0 0 0 58 142 156 172 106 26 14 1 0 0 0 0 60 114 126 117 96 85 0 0 0 0 0 0 50 0 0 12 14 0 0 44 85
0 0 0 0 0 0 0 0 0 0 0 0 0 0 0 0 35 340 426 452 376 288 215 153 44 0 0 0 0 0 138 174 192 182 140 96 74 26 11 1 0 0 0 0 0 21 21 23 23 21 0 0 0 0 0 0 0 0 16 70 76 58 72
0 0 0 0 0 0 0 0 0 0 0 0 0 0 0 0 141 281 418 432 380 278 202 161 136 122 46 0 0 94 156 164 168 143 54 22 9 0 0 0 0 0 0 0 0 0 0 0 0 0 0 0 0 0 0 0 0 0 0 0 0 0 103
0 0 0 0 0 0 0 0 0 0 0 0 0 0 0 0 248 340 400 418 302 204 23 14 154 82 20 0 0 29 165 44 18 13 0 3 19 0 0 0 0 0 0 0 0 0 0 0 0 0 0 0 0 0 0 0 0 0 0 0 0 0 0
0 0 0 0 0 0 0 0 0 0 0 0 0 0 0 0 0 253 443 419 354 279 248 226 0 0 0 0 31 0 164 181 4 0 0 0 0 0 0 0 0 0 0 0 0 0 0 0 0 0 0 0 0 0 0 0 0 0 0 0 0 0 0
0 0 0 0 0 0 0 0 0 0 0 0 0 0 0 0 0 0 76 348 382 294 268 240 68 0 0 0 0 0 1 55 115 0 0 0 0 0 0 0 0 0 0 0 0 0 0 0 0 0 0 0 0 0 0 0 0 0 0 0 0 0 0
0 0 0 0 0 0 0 0 0 0 0 0 0 0 0 0 0 0 0 0 0 0 0 0 0 0 0 0 0 0 0 4 16 7 0 0 0 0 0 0 0 0 0 0 0 0 0 0 0 0 0 0 0 0 0 0 0 0 0 0 0 0 0
0 0 0 0 0 0 0 0 0 0 0 0 0 0 0 0 0 0 0 0 0 0 0 0 0 0 0 0 0 0 0 0 0 0 0 0 0 0 0 0 0 0 0 0 0 0 0 0 0 0 0 0 0 0 0 0 0 0 0 0 0 0 0
0 0 0 0 10 22 0 0 0 0 0 0 0 0 0 0 0 0 0 0 0 0 0 0 0 0 0 0 0 0 0 0 0 0 0 0 0 0 0 0 0 0 0 0 0 0 0 0 0 0 0 0 0 0 0 0 0 0 0 0 0 0 0
20 0 0 0 0 0 0 0 0 0 43 11 0 0 0 0 0 0 0 0 0 0 0 0 0 0 0 0 0 0 0 0 0 0 0 0 0 0 0 0 0 0 0 0 0 0 0 0 0 0 0 0 0 0 0 0 0 0 0 0 0 0 0

ECMWFFLT2_con_mucape_093.txt.gz
CAPE
0 0 0 0 0 0 0 0 0 0 297 194 250 153 40 157 98 252 476 288 254 243 206 719 895 300 303 319 721 1055 1030 1062 920 865 878 868 958 1203 924 160 170 193 188 170 311 377 430 525 648 825 1038 1307 1404 1637 1690 1848 2041 2058 2011 2114 2009 2050 2347
0 0 0 0 0 0 0 0 0 0 0 26 97 80 100 154 66 247 254 204 370 112 156 830 1012 744 513 708 894 1030 1154 1080 884 696 838 1556 1484 1468 1390 656 156 176 191 186 317 359 433 482 603 849 1223 1351 1503 1657 1632 1747 1927 1964 1817 1912 1830 1903 2092
0 0 0 0 0 0 0 0 0 0 24 1 1 97 54 78 40 74 232 333 340 326 283 775 1259 944 780 940 1063 1040 1152 1061 887 952 984 1121 1593 1683 1416 1081 359 178 193 179 308 294 448 576 665 870 1092 1198 1270 1335 1417 1688 1747 1714 1606 1546 1693 1768 1798
0 0 0 0 0 0 0 0 0 0 0 32 0 0 147 10 119 55 167 288 324 438 397 568 1354 1220 1080 1119 1172 1157 1244 1107 970 1012 1174 897 1065 1300 1621 1732 1297 666 174 149 256 327 446 515 647 687 824 721 750 940 1170 1459 1563 1656 1484 1486 1702 1734 1618
0 0 0 0 0 0 0 0 0 0 0 0 7 12 73 22 291 77 98 211 254 434 148 801 1221 990 1068 1234 1232 1278 1280 1072 1028 1017 1095 953 690 562 614 900 1258 1197 1396 838 374 480 394 377 510 480 513 536 718 813 984 1331 1494 1336 1234 1251 1619 1717 1614
0 0 0 0 0 0 0 0 0 0 0 0 0 0 5 156 92 208 46 20 520 171 196 405 788 938 1224 1256 1256 1355 1336 1302 1116 982 976 1061 657 589 899 930 858 852 945 1434 1450 536 357 381 578 603 448 770 1013 848 911 1130 962 1308 1322 1487 1819 1933 1842
0 0 0 0 0 0 0 0 0 0 0 0 0 0 11 208 354 178 429 114 625 279 308 456 679 909 1078 1276 1238 1196 1125 1150 1100 1147 1090 1105 1026 892 1391 1522 1339 1808 1955 1946 1506 1108 759 616 790 652 816 796 1052 1088 1194 1239 1177 1614 1734 1802 1923 2145 2185
0 0 0 0 0 0 0 0 0 0 0 0 0 0 159 60 434 250 311 39 769 339 492 542 741 959 1016 1129 1151 1071 1078 1090 1060 972 968 1174 1228 1471 1650 1733 1826 1821 1892 1903 1764 1442 1444 1350 1160 965 978 1320 1417 1626 1610 1582 1402 1964 2159 2198 2116 2232 2101
0 0 0 0 0 0 0 0 0 0 0 0 44 298 460 271 485 567 96 26 754 517 414 618 842 841 913 959 979 979 860 922 1011 986 968 1091 1340 1298 1356 1437 1554 1589 1538 1432 1492 1472 1437 1450 1154 1370 1573 1856 1887 1762 1716 1496 1587 1918 2137 2549 2309 1922 1703
0 1 0 0 0 0 0 0 0 0 3 98 69 103 392 202 611 396 264 265 613 415 457 647 896 928 958 934 899 841 895 1005 1072 1090 1112 1091 1181 1221 1197 1027 1040 1139 1172 1068 1004 1162 1436 1582 1564 1818 1996 1687 1345 1470 1508 1782 1679 1713 1810 2303 2127 1972 1673
0 0 0 0 0 0 0 0 0 0 0 0 104 818 384 39 710 445 684 766 753 387 543 597 829 948 943 947 959 980 966 992 1104 1188 1178 1165 1114 1098 1017 948 861 892 904 923 917 919 1112 1329 1444 1694 1847 1718 1460 1438 1758 1927 1955 1987 1989 1710 1444 1175 964
0 0 0 0 0 0 0 0 0 56 141 0 209 130 56 1075 543 572 1089 684 867 674 507 665 860 1090 1046 1056 1050 1024 1016 1087 1075 1120 1246 1303 1322 1277 1207 1146 1109 1030 924 1008 1007 982 908 1249 1453 1124 1129 1319 1325 1478 1773 1810 1936 1798 1402 1186 1339 1422 1183
7 0 0 0 0 0 0 23 20 36 241 144 85 157 54 662 192 68 1024 883 992 935 582 662 878 1090 1174 1191 1168 1186 1143 1174 1188 1214 1194 1202 1235 1237 1215 1220 1099 1064 936 1097 913 1042 1136 1162 1134 1115 1071 1045 1055 1179 1360 1443 1512 1466 1433 1319 1345 1297 1335
12 7 4 0 0 0 15 59 191 229 199 404 477 368 400 475 791 472 407 1167 1066 799 636 656 805 1076 1235 1214 1241 1207 1179 1199 1172 1130 1147 1123 1132 1142 1093 1105 998 922 778 504 541 627 769 908 1070 1155 1164 1162 1082 968 888 1133 1225 1140 1283 1072 1120 1152 988
16 16 12 6 0 0 0 146 212 280 316 323 322 466 453 594 756 387 699 948 807 734 630 678 812 1112 1272 988 1282 1190 1184 1166 1096 1058 1045 1031 924 857 742 732 580 644 750 731 704 669 690 769 876 944 858 759 874 916 865 827 813 908 904 944 914 873 810
12 15 20 15 5 0 4 0 0 109 224 345 373 482 293 505 794 790 894 940 821 616 710 576 884 1286 1131 1191 1270 1219 1136 1071 1062 942 895 808 743 642 565 560 502 554 552 532 583 598 599 674 723 715 797 790 777 862 907 842 802 787 744 784 845 826 896
9 1 11 17 13 9 6 9 26 77 156 334 219 286 388 483 578 881 1046 889 578 634 616 592 841 1258 1102 1192 1226 1137 1045 952 890 825 775 732 663 544 483 429 444 456 557 588 561 477 485 526 473 588 650 694 750 866 843 797 777 751 688 693 679 712 724
30 4 0 4 82 11 23 15 5 21 0 172 508 438 428 470 465 558 455 506 574 580 686 616 888 1199 1196 1272 1152 1013 924 857 746 739 644 610 540 469 438 366 358 428 481 512 432 466 486 466 429 446 461 488 596 669 665 668 760 767 706 730 729 754 711
26 61 9 10 4 18 5 0 0 0 0 168 526 482 489 444 386 524 515 415 568 666 654 678 836 1149 1200 1171 1019 864 809 702 638 558 499 458 400 350 334 295 298 312 308 322 367 433 576 659 639 591 608 566 608 635 674 735 680 674 673 601 583 658 709
20 68 11 3 5 0 2 1 0 0 1 30 563 413 355 289 410 477 493 529 570 584 608 642 897 1128 1146 996 867 746 661 657 617 510 446 390 313 307 347 333 317 334 313 246 284 346 420 642 648 547 499 518 597 583 470 499 448 470 504 510 542 605 653
10 14 24 47 4 10 10 1 1 1 1 0 45 370 220 231 390 523 584 526 575 622 608 695 880 1085 971 858 721 667 646 646 594 550 484 417 378 361 379 369 352 299 286 300 292 273 280 365 440 322 400 451 497 450 443 443 461 325 355 368 342 398 437
1 6 8 4 1 4 11 7 0 1 2 0 0 30 261 117 292 494 579 626 628 677 690 834 960 943 888 776 722 630 657 642 588 520 487 471 400 336 271 308 350 343 230 167 198 178 241 306 258 235 242 364 456 442 464 404 384 338 311 321 387 424 442
0 38 3 10 23 13 2 7 0 0 0 0 1 78 53 46 92 335 528 640 699 749 778 912 891 853 831 804 705 638 624 579 560 543 484 395 349 303 275 307 300 164 97 114 128 192 185 226 262 225 311 397 391 409 433 482 391 280 309 290 284 293 312
0 2 2 1 4 18 0 0 0 0 0 0 3 11 7 0 5 180 430 620 664 774 835 916 851 818 748 720 644 528 454 338 192 419 344 274 234 183 176 170 136 90 73 115 142 156 128 127 257 242 211 166 256 377 428 322 300 270 294 162 8 300 307
0 0 0 0 0 0 0 0 0 0 0 0 4 16 14 2 21 10 307 543 630 764 865 905 826 795 806 374 206 145 134 8 20 127 0 0 0 0 91 107 92 90 60 64 81 115 123 150 161 109 64 111 142 232 279 251 228 232 241 147 170 96 261
0 0 0 0 0 0 0 0 0 0 0 0 0 0 0 0 2 140 149 354 549 691 770 791 771 679 496 314 354 340 144 90 72 10 3 11 0 0 0 0 17 58 54 54 0 49 74 114 76 116 127 104 142 179 224 173 190 151 172 143 59 0 10
0 0 0 0 0 0 0 0 1 22 49 0 0 0 0 0 0 138 75 169 406 579 708 742 744 608 487 434 285 222 145 89 81 66 39 31 11 15 6 0 0 2 17 6 0 0 0 35 61 71 69 85 94 108 93 136 16 0 0 24 148 157 152
0 0 0 1 0 0 0 4 29 0 0 0 0 0 0 2 0 50 232 142 264 424 538 616 661 596 509 402 278 238 194 108 106 37 12 20 18 36 33 22 0 0 0 5 14 19 0 0 0 0 0 0 0 0 0 0 0 0 0 0 0 62 130
0 0 0 0 0 0 0 0 0 0 0 0 0 0 0 0 0 0 150 277 175 320 451 480 462 392 288 285 243 216 174 64 73 11 3 0 0 1 14 24 21 18 9 0 0 3 10 12 0 14 11 0 0 1 0 0 0 0 0 0 0 71 98
0 0 0 0 0 0 0 0 0 0 0 0 0 0 0 0 0 0 170 271 161 202 315 312 334 266 223 185 174 152 160 30 81 43 8 0 0 0 0 2 2 4 10 10 1 1 0 0 0 0 0 8 0 0 0 0 0 0 0 0 0 0 0
0 1 0 41 17 0 0 0 0 0 0 0 0 0 0 0 0 7 70 137 238 155 228 292 281 262 236 181 150 126 121 121 22 12 19 2 0 0 0 0 0 0 0 0 0 0 0 0 0 1 0 0 0 0 0 0 0 0 0 0 0 0 0
0 1 0 0 0 0 0 0 11 0 0 0 0 0 0 0 0 0 0 6 171 200 229 231 249 225 161 142 132 116 118 87 15 7 1 2 0 0 0 0 0 0 0 0 0 0 0 0 0 0 0 0 0 0 0 0 0 0 0 0 0 0 0
0 0 0 0 0 0 0 0 0 0 0 0 0 0 0 0 0 0 0 0 2 250 297 255 244 205 149 4 62 26 98 4 11 16 2 0 0 0 0 0 0 1 0 0 0 0 0 0 0 0 0 0 0 0 0 0 0 0 0 0 0 0 0
0 0 18 2 3 13 5 0 0 0 0 0 37 17 0 0 0 0 0 0 0 0 40 238 319 292 268 246 231 195 71 0 0 5 7 4 0 0 0 0 2 6 0 0 0 0 0 0 0 0 0 0 0 0 0 0 0 0 0 0 0 0 0
0 0 4 91 54 92 42 9 0 0 0 0 8 4 5 0 0 0 0 0 0 0 0 0 0 4 0 0 0 169 163 35 0 0 0 0 0 0 0 0 0 0 0 0 0 0 0 0 0 0 0 0 0 0 0 0 0 0 0 0 0 0 0
0 9 82 1 44 7 0 0 0 9 1 0 0 18 14 3 0 0 0 0 0 0 0 0 0 0 0 0 0 0 0 0 0 0 0 0 0 0 0 0 1 4 9 0 0 0 0 0 0 0 0 0 0 0 0 0 0 0 0 0 0 0 0
13 78 36 1 35 18 8 10 8 10 33 19 42 9 0 0 0 0 0 0 0 0 0 0 0 0 0 0 0 0 0 0 0 0 0 0 0 0 0 0 0 0 0 0 0 0 0 0 0 0 0 0 0 0 0 0 0 0 0 0 0 0 0

ECMWFFLT2_con_mucape_096.txt.gz
CAPE
0 0 0 0 0 1 2 0 4 11 0 10 16 0 4 122 190 196 473 277 186 564 340 768 651 606 718 628 824 1044 1623 1631 1542 1374 1629 1267 1365 1607 1540 1185 1089 1095 1081 902 938 983 1115 1193 1228 1497 1699 2264 2668 2906 3088 3030 2926 2838 2364 2677 2312 2388 2505
0 0 0 0 0 0 0 0 0 1 8 20 2 1 96 0 36 77 169 256 117 154 136 972 1351 857 764 686 812 988 1586 1199 1438 1285 1413 1708 1331 1193 1633 1525 1251 1204 1143 1084 1036 1063 1172 1116 1195 1709 2188 2518 2942 3072 3145 3096 3074 3082 2131 2214 1816 2157 2471
0 0 0 0 0 0 0 0 0 3 2 4 2 22 19 30 3 16 220 139 28 86 491 438 1325 1112 831 861 1033 1249 1606 1453 1182 1384 1489 1294 1192 1147 1454 1622 1330 1165 1151 1265 1308 1158 1296 1350 1420 1849 2326 2627 2922 2912 2823 3034 2873 2745 2171 1337 1242 1609 2068
0 0 0 0 0 0 0 0 0 0 0 0 0 0 0 26 79 29 101 61 49 35 10 452 1170 1286 1281 1213 1398 1304 1778 1670 1450 1470 1499 1349 1193 1361 1605 1643 1399 1240 1149 1246 1329 1398 1583 1736 1694 1745 2334 2344 2438 2672 2686 2888 2830 2779 2260 1166 1112 1326 1469
0 0 0 0 0 0 0 0 0 0 0 0 0 0 0 0 34 6 12 45 58 877 1472 2263 2036 1862 1670 1550 1374 1322 1452 1577 1371 1333 1502 2004 2369 2101 1606 1833 1592 1308 1135 1038 1284 1460 1602 1723 1727 1810 2254 2240 2151 2313 2478 2827 2768 2490 2105 1362 1284 1639 1120
0 0 0 0 0 0 0 0 0 0 0 0 0 0 0 0 5 6 11 0 184 762 1129 1824 1880 1644 1702 1498 1474 1378 1504 1524 1349 1157 1308 1488 2074 2136 2469 2336 1750 1228 1147 967 1115 1360 1332 1524 1772 1953 2077 1936 1956 1365 1539 2370 2168 2594 2384 2245 2212 2577 1744
0 0 0 0 0 0 0 0 0 0 0 0 0 0 0 0 0 0 45 21 759 711 759 1352 1464 1497 1446 1353 1348 1426 1268 1399 1164 1296 1267 1490 1644 1776 1926 1512 1079 1076 1837 1414 1054 1055 1095 1113 1476 1622 1514 1359 1627 1637 1738 1962 2068 2432 2511 2655 2866 3248 2876
0 0 0 0 0 0 0 0 0 0 0 0 0 0 0 0 0 16 68 33 528 1076 970 1156 1600 1440 1561 1444 1331 1407 1444 1284 1268 1301 1396 1567 1639 1524 1586 1286 678 483 645 580 1010 867 738 1026 1278 1298 1110 1194 1185 1712 1887 2183 2187 2269 2437 2716 3073 3392 3307
0 0 0 0 0 0 0 0 0 0 0 0 0 0 1 0 0 4 0 0 98 1409 939 1110 1130 1128 1276 1355 1409 1256 1342 1460 1440 1343 1103 1145 1466 1600 1617 1460 1590 1838 1707 1406 1195 1478 2040 1925 1083 834 843 1084 1389 1642 1984 2032 2090 2142 2434 2742 3090 3313 3320
0 0 0 0 0 0 0 0 0 0 0 0 0 0 0 0 0 0 0 0 1305 1150 1026 1094 1233 1242 1523 1426 1298 1372 1464 1362 1278 1222 1264 1294 1352 1452 1514 1650 1571 1638 1772 1821 1757 1823 1459 1091 899 1069 1698 1788 1891 2030 1785 2055 2051 2196 2594 2553 2475 2610 2696
47 114 157 0 9 0 0 0 0 0 0 0 0 0 0 0 3 27 14 0 1173 1391 963 1125 1116 1261 1495 1254 1192 1194 1187 1160 1317 1592 1574 1511 1539 1503 1288 1490 1553 1856 1579 1572 1650 1859 2006 1684 1244 1216 1448 1598 1851 1533 1348 1896 1988 2211 2392 2408 2620 2715 2422
70 159 73 73 37 0 0 0 0 0 0 0 0 0 0 0 0 0 0 8 82 1408 1334 1212 1320 1327 1411 1083 968 914 944 940 1144 1413 1336 1243 1368 1363 1391 1425 1564 1614 1671 1618 1411 1463 1493 1793 1797 1836 1669 1726 1434 988 776 983 1675 2076 2231 2154 2085 2385 2331
58 176 283 305 283 232 215 178 90 105 84 38 11 0 366 380 0 4 715 899 279 1086 1379 1268 1133 1508 1054 1117 947 799 828 884 907 1014 1126 1119 1201 1184 1056 1005 950 872 758 1046 1274 1401 1456 1368 1406 1405 1394 1524 1852 1660 1427 1086 1456 1788 1519 1540 1703 1648 1973
60 120 197 284 292 254 298 410 425 444 402 496 431 622 826 862 1302 836 1036 2042 1770 1471 1445 1198 1198 1059 1084 955 884 769 766 903 950 981 1016 1006 1022 990 983 929 941 891 859 787 823 956 1059 1278 1118 1048 1159 1068 1243 1300 1470 1539 1489 1639 1572 1556 1721 1819 1761
24 84 175 231 202 182 202 242 426 573 575 656 743 834 858 1164 1362 926 1454 1986 1680 1305 1175 1196 984 1204 1071 1025 1125 1002 991 1024 1109 1059 1042 1032 841 784 852 1038 923 1016 870 891 918 979 1044 1023 1056 920 905 923 918 1477 1604 1603 1580 1644 1599 1602 1846 1652 1597
0 0 0 38 135 119 106 98 132 385 739 807 866 996 863 1173 1418 1382 1450 1319 1393 940 1243 1016 1051 1088 941 1132 1294 1216 1109 1188 1160 1145 1034 921 781 842 876 922 855 782 761 715 616 638 702 771 861 848 903 982 987 980 976 1196 1615 1780 1691 1598 1547 1494 1596
167 0 1 2 3 85 104 41 12 124 724 885 826 775 729 802 966 1231 825 752 1033 1215 986 978 929 949 905 1151 1385 1267 1223 1210 1227 1150 1042 859 847 855 722 776 746 724 652 565 603 513 582 554 576 656 722 758 879 913 899 953 963 1181 1291 1393 1343 1371 1142
72 10 51 18 33 162 55 0 0 37 374 805 691 587 734 842 916 981 769 1121 1101 1143 1035 1038 1009 1142 1060 1295 1290 1274 1158 1140 1041 975 806 766 691 623 594 523 435 461 455 532 494 452 473 560 640 690 698 680 745 804 826 861 852 784 765 656 788 829 814
81 195 13 20 130 36 1 0 0 156 408 621 460 490 699 749 748 718 938 946 1116 1041 894 963 925 1128 907 1230 1251 1090 1010 906 836 775 684 618 560 491 448 514 369 514 574 533 442 373 432 457 495 490 496 504 580 701 811 835 796 652 610 658 671 673 663
31 17 12 14 204 44 0 1 6 97 408 473 703 151 427 607 582 733 998 1105 1098 1068 950 850 1048 1220 889 931 1075 979 933 816 714 611 558 531 472 428 366 548 378 426 440 417 401 465 486 524 503 448 473 543 562 552 646 667 656 637 675 633 637 679 629
10 18 11 82 234 55 38 66 6 4 5 128 312 262 119 601 566 786 842 918 998 904 907 758 1130 1113 914 1210 1172 937 935 765 651 597 530 479 434 386 335 267 306 294 314 322 308 474 529 561 493 494 413 431 413 542 432 624 582 580 549 547 575 549 497
362 10 4 6 0 68 195 3 8 0 0 2 71 355 45 173 548 567 986 948 948 780 670 691 1054 966 1033 1256 1067 964 852 710 610 568 525 470 419 369 311 250 282 328 334 295 254 270 336 425 448 371 316 330 291 331 352 384 367 427 484 497 488 410 366
174 30 2 4 2 0 18 3 2 2 0 0 0 515 76 9 395 581 792 921 912 1002 977 847 912 1035 1155 848 797 741 678 601 505 477 423 405 419 379 338 278 217 199 251 166 131 136 154 232 241 194 211 292 296 306 412 373 332 298 300 467 423 338 241
14 192 80 11 55 250 27 4 3 0 0 0 0 17 29 0 92 512 663 919 884 1052 1043 999 1136 898 849 822 617 518 486 459 424 353 371 367 343 352 282 303 232 173 96 99 99 28 153 262 290 225 142 192 304 275 189 148 237 247 214 263 307 305 96
81 24 181 95 10 10 0 5 9 48 0 15 23 21 11 0 13 347 675 769 936 1042 1036 976 999 772 734 541 223 71 140 46 90 228 287 312 329 300 298 268 222 166 43 29 0 97 123 147 230 259 208 206 208 229 220 194 243 259 0 177 269 238 209
16 17 56 5 106 1 17 70 109 253 42 328 22 5 7 14 35 227 432 675 836 925 907 884 696 822 564 335 150 127 113 164 144 181 84 12 0 0 0 0 0 46 31 65 87 7 21 106 236 342 263 123 90 174 218 223 230 201 173 80 81 188 163
2 12 4 4 9 224 42 260 406 193 558 31 17 162 150 106 48 195 300 383 650 727 868 656 666 691 494 296 260 227 201 151 44 53 64 74 18 0 2 0 0 0 4 0 47 76 91 118 214 213 190 169 116 106 160 222 219 163 147 139 189 195 66
29 0 0 42 49 24 54 299 197 31 21 14 49 148 53 162 213 401 609 326 465 536 674 636 622 636 492 323 245 253 225 134 84 61 0 0 0 7 2 0 0 0 0 0 0 2 58 97 98 94 115 131 143 151 163 169 169 148 140 149 174 203 201
283 138 106 68 87 50 20 105 100 84 40 10 9 93 56 75 145 210 556 693 498 557 556 521 606 550 326 319 279 287 47 130 94 86 54 4 0 0 0 1 0 0 0 0 0 0 28 43 27 0 0 31 85 112 114 125 137 158 143 154 152 137 154
47 65 156 114 210 258 60 7 63 126 71 0 46 71 99 166 309 327 591 759 533 461 458 440 453 468 485 258 204 288 173 109 76 56 17 25 0 0 0 0 0 0 0 0 0 0 0 0 0 0 0 0 0 0 0 12 67 99 146 172 160 143 136
115 150 294 412 214 158 233 104 45 154 62 53 33 56 57 214 423 660 634 791 668 575 407 469 539 554 459 323 205 217 119 73 75 58 45 36 18 4 0 0 0 0 0 0 0 0 0 0 0 0 4 19 0 0 0 0 0 0 0 8 68 94 115
120 402 217 302 215 177 201 201 282 128 89 65 50 42 53 158 370 473 500 646 731 546 540 521 541 316 242 177 199 179 108 96 21 33 72 21 29 13 2 0 0 0 0 0 0 0 0 0 0 0 0 7 0 0 0 0 0 0 0 0 0 0 0
252 47 92 180 216 219 224 112 102 123 130 156 90 40 13 7 73 279 301 302 554 600 578 432 385 258 214 167 203 254 227 234 51 30 130 135 157 127 12 7 0 0 0 0 0 0 0 0 0 0 0 0 0 0 0 0 0 0 0 0 0 0 0
76 149 229 60 34 158 185 153 194 142 115 181 154 112 52 23 48 68 123 212 227 300 383 452 330 194 220 217 264 354 335 394 269 175 29 24 188 65 6 4 1 0 0 0 0 0 0 0 0 0 0 0 0 0 0 0 0 0 0 0 0 0 0
143 295 200 48 49 34 292 183 123 174 103 143 141 137 141 67 51 47 103 116 156 245 324 261 382 448 348 197 193 185 163 353 407 322 205 157 85 44 20 14 0 0 0 0 1 0 0 1 0 0 0 0 0 0 0 0 0 0 0 0 0 0 0
68 18 142 46 6 55 211 161 148 190 177 162 138 155 157 106 50 56 84 63 133 156 131 184 219 319 434 390 204 173 194 197 401 331 215 85 18 6 9 6 9 1 0 0 0 0 0 1 2 0 0 0 0 0 0 0 0 0 0 0 0 0 0
80 32 44 60 80 127 156 175 152 180 206 202 180 203 197 204 101 57 118 84 49 95 182 236 150 138 299 350 250 240 268 316 328 309 216 79 7 18 6 10 51 36 5 1 0 0 0 0 0 0 0 0 0 0 0 0 0 0 0 0 0 0 0

ECMWFFLT2_con_mucape_102.txt.gz
CAPE
0 0 0 0 0 2 2 0 0 0 2 3 9 60 9 3 1 4 240 137 530 388 390 425 392 407 499 650 834 854 946 1002 1328 1348 1263 1136 581 800 852 933 885 740 776 423 532 527 483 298 272 463 1032 1480 2098 2276 2240 2677 2785 2486 2226 2590 2405 2556 2827
0 0 0 0 1 1 0 0 0 0 2 20 12 13 19 5 20 238 83 97 60 209 112 459 540 498 692 463 696 1036 1194 1361 1270 1156 1271 1371 1145 1063 1125 1243 1240 930 896 788 783 757 751 360 217 840 1790 1484 2230 2138 2247 1944 2574 2642 2006 2014 1638 2270 2812
0 0 0 0 0 0 0 0 2 0 0 0 3 2 6 7 36 73 6 0 284 449 186 320 151 421 662 726 1012 965 1258 1283 1217 1008 1094 1238 1016 975 1537 2164 1675 1143 1161 1003 1108 1166 1085 962 918 1125 1734 1573 1723 1665 1555 1866 2158 2029 1450 1467 1657 2114 2071
1 0 0 0 0 0 0 0 0 0 0 2 33 2 6 45 135 4 34 10 47 59 181 390 698 493 566 625 514 822 1016 1318 1287 1332 1303 1547 1942 1688 1813 1022 875 858 794 1022 1122 1162 1299 1421 1365 1092 1351 647 694 1062 1218 1618 1930 2164 1639 1237 1624 1270 1581
0 2 0 0 0 0 0 0 0 0 0 0 0 0 2 9 216 111 11 118 224 123 528 595 474 625 1063 564 920 1281 1418 1364 1370 1295 1323 1775 1971 1115 1832 3320 1530 1612 961 574 1227 1466 2057 1571 1386 1320 1311 1012 1043 1028 1149 1686 1770 1154 960 627 1161 1402 1552
0 0 0 0 0 0 0 0 0 0 2 0 0 2 0 8 22 48 9 55 539 632 1400 1274 544 510 312 660 1194 1503 1374 1470 1485 1213 1209 1876 1962 2265 2514 1765 1849 742 845 577 1113 1319 714 1129 1256 1524 1305 1471 1486 1132 725 1109 386 877 695 975 1266 1472 1426
6 1 0 0 0 0 0 0 0 0 3 13 8 3 15 2 3 13 16 104 274 542 1137 899 871 728 804 1223 1200 1346 1359 1202 1022 1099 1622 2074 1819 1593 1416 1713 1680 1864 764 1410 976 693 1420 1076 1557 1644 1572 1935 1619 2493 4310 2623 1507 1589 1198 1450 2064 2186 2016
0 0 12 0 0 0 0 0 0 1 6 1 0 1 2 12 5 18 40 13 441 549 850 1350 871 1355 998 1242 905 702 993 1340 1062 1516 1536 1354 1269 1112 1072 1315 1223 1436 1507 1787 1650 1756 1942 1666 1164 736 1097 2104 3122 2957 3552 2416 2254 2464 2068 2347 2450 2495 1877
1 1 0 0 0 0 0 0 0 0 0 1 0 0 30 7 29 18 40 19 14 844 921 946 650 928 690 725 939 1470 1380 978 1111 1330 1254 1044 1120 1218 1240 1679 1769 1838 2539 2110 1352 1730 1660 1451 1373 1550 874 1348 1586 2506 1992 2348 1335 1029 2625 2503 2390 2485 1864
9 8 18 11 3 0 0 0 0 0 0 1 8 0 34 0 142 9 30 39 518 1088 1297 991 486 559 468 503 834 1160 1096 1205 1074 1014 969 1157 1142 1127 1312 1481 1135 1217 1176 1651 1687 1899 1733 1588 1839 2232 2245 1694 2023 2566 2348 2423 2029 2197 1975 3119 2819 2520 2176
32 71 117 32 18 4 0 0 0 0 0 0 0 6 2 3 2 3 506 581 783 834 1226 723 545 574 623 459 805 949 1213 1066 1065 1227 1276 908 1013 1007 1217 1459 1124 996 957 1121 1595 1780 1390 1574 1647 2346 2724 2546 2488 2579 2995 3093 3005 2404 2355 3138 4257 3845 3349
51 16 26 0 16 5 1 0 0 0 0 0 0 0 0 331 13 17 778 922 1008 493 764 596 599 655 772 625 907 741 903 1244 1014 896 1038 1276 1287 1246 1208 1098 1155 1066 1004 898 1173 1369 2080 2427 2244 2016 2474 2168 2485 2552 3003 3118 3299 2618 2390 2267 4104 4596 3763
17 6 0 6 0 0 1 1 0 0 0 0 0 0 0 2 8 819 898 472 483 500 767 476 532 933 1160 1123 1373 1245 984 842 886 789 1179 1239 1165 1246 1148 1112 933 962 968 1200 873 735 1567 2062 1786 1991 2023 2637 2473 2484 2443 2484 2081 2616 3027 2873 3006 2975 3325
0 0 2 0 0 0 1 3 0 0 0 0 0 0 0 0 77 1894 1424 1098 788 729 654 1198 1215 1127 1333 1303 1273 1337 1179 853 718 819 988 950 1038 1088 1139 1410 1401 1515 1495 1729 1731 1548 1901 1774 1604 1818 2189 2494 1995 2513 2242 2017 2012 2348 3095 3192 3178 3115 3355
0 23 17 0 0 0 0 2 38 479 549 432 0 0 1 2 26 909 816 1173 1202 1338 1281 1399 1404 1259 1232 1153 1166 1157 1205 1137 786 594 670 636 779 871 1210 1519 1061 1352 1286 1532 1595 1659 1658 1496 1771 1597 1618 1755 1805 1758 1837 2039 2164 2884 2762 2550 2886 2804 3021
55 49 55 260 0 0 1 242 351 462 455 566 514 574 292 107 178 414 594 1074 986 1091 1510 1557 1477 1269 1281 1146 1126 1107 796 973 882 570 832 1026 988 939 1310 973 1203 1186 1524 1490 1473 1535 1560 1379 1484 1479 1282 1687 1546 1581 1595 1550 1789 2040 1941 1692 1836 1919 2033
58 73 137 11 387 95 5 186 202 304 526 527 604 366 275 303 400 298 84 805 1074 918 1100 1296 1226 1053 1057 893 960 1132 1069 975 805 1143 973 913 796 739 776 1186 1163 967 1021 1055 1068 1000 1040 1012 1063 1068 1223 1224 1206 1144 1136 1173 1543 1540 1527 1844 1918 1864 1562
6 109 27 14 131 205 75 132 217 367 410 444 477 451 503 555 595 632 674 902 1086 978 992 943 850 988 1085 1003 971 1010 954 935 914 975 714 563 778 915 898 907 906 847 817 772 745 753 707 741 806 842 954 1177 1218 1082 1015 1039 1055 895 838 878 982 988 1059
21 136 51 53 20 98 26 184 64 235 245 239 354 387 396 562 694 594 587 691 875 705 794 774 991 1001 1091 1109 1042 1042 990 893 864 487 519 781 1059 879 725 704 692 655 652 596 606 604 628 640 657 633 719 767 811 837 813 843 813 793 747 820 905 955 964
96 113 292 0 11 12 5 3 89 34 50 181 190 302 386 498 456 451 478 660 832 990 894 825 900 1028 841 1043 877 840 684 680 492 613 944 918 950 877 690 602 615 588 590 571 570 627 629 597 619 602 606 638 669 679 644 662 742 726 672 693 677 737 794
6 43 39 176 171 220 118 8 0 135 289 111 231 274 401 441 419 328 395 447 623 596 570 726 723 748 754 752 725 650 548 608 563 711 872 943 863 762 655 589 587 542 524 585 616 620 582 568 510 518 500 490 513 494 487 490 459 449 418 512 646 648 665
196 104 15 72 37 89 17 25 1 0 2 53 161 210 22 244 332 264 221 346 137 445 320 342 575 466 549 669 607 477 492 459 649 685 737 684 609 579 508 581 645 610 547 583 564 566 484 518 476 435 463 467 452 415 396 386 382 368 368 395 448 538 573
35 46 20 10 21 58 196 165 16 21 0 0 122 50 3 68 228 301 154 262 400 349 423 386 513 391 564 581 554 416 406 355 442 571 639 573 555 532 512 528 484 405 446 462 428 447 426 351 363 329 364 372 331 311 315 320 360 360 362 389 403 411 414
108 141 84 5 167 2 371 147 65 0 32 39 0 10 53 24 85 363 568 680 581 483 402 377 55 320 404 347 398 393 296 218 381 368 319 335 323 302 310 354 369 309 234 221 292 259 323 402 478 462 358 252 219 206 244 327 374 362 367 391 343 235 10
41 62 21 96 54 1 41 224 27 213 91 48 6 30 36 100 154 292 544 832 900 932 829 619 599 278 571 465 214 163 135 225 203 206 231 196 285 266 196 138 126 97 152 150 54 207 232 243 293 265 170 19 0 78 170 240 311 299 274 281 276 237 221
201 590 184 164 15 0 4 213 255 315 451 416 108 0 54 206 327 143 441 727 877 1065 1084 792 580 773 409 274 210 144 156 160 156 279 214 128 23 7 36 122 103 0 0 0 0 12 163 187 238 232 219 183 163 0 71 169 240 318 300 229 221 218 240
6 143 107 36 1 355 108 194 349 508 324 26 220 101 186 389 263 331 300 422 564 466 903 644 522 347 252 323 76 51 117 108 144 223 194 125 80 14 0 0 56 49 0 0 0 50 69 140 124 114 206 325 348 252 109 6 142 237 330 314 254 203 208
14 3 0 53 463 203 214 420 511 443 442 280 272 211 145 280 281 267 404 597 600 622 645 683 636 372 447 320 168 177 165 127 122 212 175 141 92 19 0 0 38 0 0 0 0 0 0 0 84 119 188 295 310 278 207 157 151 158 202 267 273 254 231
231 30 328 232 265 75 56 168 217 203 158 101 92 150 257 240 408 388 382 394 489 524 586 463 499 442 421 250 187 222 165 142 113 154 229 178 147 15 0 0 0 0 0 0 0 0 0 0 0 102 148 177 208 226 246 208 173 181 207 228 235 239 246
335 198 195 250 216 256 188 127 94 55 34 53 125 157 179 152 308 434 497 199 275 489 763 709 577 432 361 396 239 202 168 126 164 240 162 218 188 43 2 2 0 0 0 0 0 0 0 0 0 54 114 138 178 244 246 238 210 141 130 86 95 170 206
190 145 184 162 111 63 28 11 21 37 33 53 63 65 65 87 189 251 218 299 350 429 712 955 854 632 638 309 317 217 134 126 145 122 113 246 233 89 11 2 0 0 0 0 0 0 0 0 0 0 0 0 18 144 201 223 226 179 102 24 0 0 106
122 283 259 141 96 77 63 54 17 20 6 8 33 96 59 37 16 30 100 168 220 215 422 596 759 842 712 637 508 306 285 210 300 281 177 296 100 131 116 31 36 1 0 0 0 0 0 0 0 0 0 0 0 0 0 0 68 123 122 89 24 0 0
380 327 131 55 106 66 283 289 235 165 70 2 28 21 12 7 74 49 0 9 45 137 294 276 433 381 813 553 386 349 279 336 348 428 338 198 130 90 19 2 4 0 0 0 0 0 0 0 0 0 0 0 0 0 0 0 0 0 3 81 78 24 0
92 55 108 70 63 47 147 155 80 64 90 105 23 19 11 4 3 111 154 42 16 42 74 270 432 542 570 650 773 486 357 353 549 536 510 352 392 174 40 22 13 0 0 0 0 0 0 0 0 0 0 0 0 0 0 0 0 0 0 0 0 0 0
76 72 172 397 454 556 326 150 56 78 156 191 155 34 72 51 27 14 86 145 95 11 2 101 328 455 507 491 670 532 913 554 506 558 571 485 392 436 155 119 90 14 1 0 0 0 0 0 0 0 0 0 0 0 0 0 0 0 0 0 0 0 0
246 269 122 69 256 612 437 226 187 151 186 143 78 116 32 27 67 101 55 25 79 159 129 30 45 173 348 338 414 791 579 594 963 888 421 569 555 500 336 300 322 154 70 28 17 14 0 0 0 0 0 0 0 0 0 0 0 0 0 0 0 0 0
259 352 237 244 658 575 368 328 249 92 26 280 336 250 147 60 12 18 56 64 32 79 164 138 72 44 169 156 306 312 215 653 700 774 735 717 564 498 428 359 392 327 238 119 99 60 11 2 0 0 0 0 0 0 0 0 0 0 0 0 0 0 0

ECMWFFLT2_con_mucape_105.txt.gz
CAPE
0 0 0 0 0 2 0 0 0 0 6 11 204 210 22 7 52 258 326 237 838 808 362 450 678 478 460 518 564 561 766 783 824 860 972 916 746 415 289 187 52 32 39 50 184 160 238 199 204 749 1345 1580 1756 1946 2244 2174 2454 2455 2326 2280 1905 2245 2019
0 0 0 3 2 1 1 0 0 0 8 1 6 79 62 26 0 295 269 256 455 506 110 911 788 494 458 437 482 507 930 819 719 774 841 922 840 764 367 202 132 62 99 96 283 247 172 232 255 1020 1406 1520 1745 1982 2326 2237 2482 2266 2500 2262 2206 2036 2171
0 0 0 3 2 0 32 8 4 10 14 1 259 0 5 13 6 74 24 105 296 328 355 186 495 424 428 504 709 697 946 886 737 620 712 966 1102 881 657 539 291 190 81 175 400 368 96 303 314 950 1264 1522 1907 1995 2343 2291 2359 2257 2307 2253 2288 2196 2280
1 0 0 0 0 0 0 0 1 0 4 47 1 0 463 5 199 33 13 66 11 239 8 128 70 409 481 789 688 779 1110 937 837 798 808 1027 1130 967 667 928 1276 194 135 405 413 388 181 221 521 1047 1046 1758 1924 2023 2383 2296 2264 2256 2106 1965 2025 2136 2329
1 0 0 0 0 0 0 0 0 0 0 4 62 0 9 10 86 52 2 138 101 11 324 243 288 421 544 522 553 625 729 1074 1063 1118 1048 1036 1214 1180 594 467 841 708 302 703 718 396 475 822 1203 1157 1320 1707 1762 1928 2216 2211 2124 2131 1868 1708 1682 1944 2200
0 0 0 0 0 0 0 0 0 0 0 0 3 4 6 82 148 199 143 22 11 96 987 736 520 642 601 780 934 728 864 1005 1090 1029 1186 1006 1331 881 844 988 760 582 1097 1322 620 347 636 764 889 1050 1271 1562 1648 1714 1905 1920 1963 2000 1770 1619 1622 1871 1971
0 5 1 0 0 0 0 0 0 0 0 20 4 4 20 14 81 57 221 134 273 1097 994 774 678 593 516 644 917 510 498 699 1137 1276 1243 1055 926 938 877 842 326 643 492 531 1045 1000 974 848 812 1026 1209 1761 2222 1584 1703 1680 1888 1829 1653 1294 1648 1688 1677
0 0 0 0 0 0 0 0 0 0 0 10 1 7 16 13 196 4 4 174 566 1056 1090 698 561 489 724 1003 775 887 613 608 669 673 1075 1156 1160 1166 1025 924 813 1190 934 771 856 794 799 840 791 903 1173 1351 2054 2287 1544 1867 1594 1607 1260 1186 1270 1146 1531
0 0 0 0 0 0 0 0 0 0 13 8 2 8 250 39 41 6 0 0 96 1116 1217 855 820 726 769 879 642 597 581 656 585 831 1116 1243 1223 1131 1034 792 709 964 897 832 846 715 667 892 829 810 1078 1223 1770 2691 2199 1801 1712 1742 2419 1843 1004 1135 1639
0 56 175 40 21 0 0 0 0 0 0 0 4 8 8 0 146 25 2 925 1087 922 778 863 933 921 815 898 557 610 582 845 593 773 1356 1299 1356 1396 1188 893 955 1103 975 887 1033 974 872 1089 859 675 843 1174 1546 2396 2134 1649 1534 1511 1538 2395 2066 1335 1616
7 36 119 17 29 14 0 0 0 0 0 0 1 4 8 5 234 575 776 1102 935 682 743 657 596 616 583 918 784 754 703 678 897 980 1099 1312 1302 1335 1220 1058 1033 901 849 970 1072 984 1296 1576 1546 1183 712 939 1629 2451 2224 1939 1859 1467 1913 3176 3685 1715 1391
57 55 74 40 12 2 0 0 51 86 20 0 0 0 5 261 556 824 1051 1014 883 825 904 726 592 552 509 563 508 523 596 774 855 804 910 799 1001 1073 1117 957 982 926 1031 1176 1104 1056 1110 1219 1217 1337 839 825 1903 2640 2541 2712 2555 1880 2293 2494 3000 3569 1693
66 65 74 54 11 0 0 20 630 602 537 611 388 0 0 10 504 933 1052 918 855 807 925 792 645 484 605 668 545 442 422 690 909 811 804 814 972 1001 999 979 895 859 913 1103 1010 752 815 795 1316 2205 2404 2366 2629 2879 2934 3165 2304 2113 1909 2156 2641 2881 3156
56 60 38 46 24 112 221 662 637 561 625 828 970 870 999 476 740 897 905 829 795 685 699 812 915 887 884 897 596 548 495 558 760 841 887 734 811 831 1000 1000 924 830 771 893 700 1056 1317 1675 2042 2171 2054 1826 2048 2272 2362 2536 2163 2002 2356 2405 2653 2865 2267
41 44 44 43 19 322 312 408 448 534 631 760 810 787 949 1317 1362 1049 935 876 926 1022 946 922 1098 1234 1056 1184 1204 957 692 696 736 742 892 967 853 853 826 1062 894 940 858 810 902 1281 1225 1266 1568 1741 1605 1541 1808 1938 1906 1829 1724 1840 1729 1621 1583 2307 2206
54 38 46 128 201 158 220 268 422 574 740 717 807 780 803 1142 1217 1192 1111 1044 1181 1293 1247 1210 1121 968 1056 1095 1174 1195 920 613 533 580 847 892 955 990 822 736 652 876 898 720 731 824 1032 1054 1063 1372 1664 1576 1860 1874 1681 1441 1537 1656 1683 1865 1888 1895 1910
78 35 60 134 30 293 220 242 447 670 654 707 658 685 710 735 743 823 917 849 901 1044 1066 1044 996 956 922 957 965 1134 1015 746 516 469 564 640 594 689 788 722 797 964 736 645 627 727 609 789 1038 985 1035 1129 1481 1530 1534 1273 1210 1198 1433 1552 1644 1750 1703
77 79 110 134 232 236 304 194 304 473 566 596 620 609 686 492 379 459 837 804 849 963 975 1112 1004 983 908 908 937 849 989 849 628 584 857 837 725 632 688 686 724 747 829 717 706 774 710 778 750 830 901 790 746 799 978 1044 912 829 619 727 770 662 761
42 46 139 85 74 284 190 267 322 361 498 621 529 583 733 591 471 525 482 650 674 795 980 994 937 866 900 875 856 813 735 659 580 782 953 854 812 950 868 702 685 706 653 576 752 812 759 779 760 787 776 793 830 927 1009 993 902 844 779 624 575 693 851
220 28 71 76 43 86 49 90 267 384 300 426 507 303 534 476 457 609 751 760 858 818 816 652 660 764 716 662 593 698 634 545 619 902 797 803 712 874 814 712 809 744 777 783 819 809 712 684 697 696 819 726 762 805 819 837 886 838 756 707 664 645 667
277 306 101 124 188 248 61 470 184 197 240 455 383 169 360 377 277 424 558 559 709 748 556 509 494 578 534 636 387 466 650 701 653 779 722 686 735 712 662 753 600 712 615 620 623 663 653 619 615 615 626 608 631 688 722 704 695 680 663 667 675 681 675
213 39 28 20 163 102 99 240 49 78 103 166 142 290 83 400 294 392 364 439 346 275 416 166 278 251 11 42 0 370 628 705 630 629 556 399 329 514 465 476 583 616 596 584 582 604 608 589 588 584 536 476 495 492 455 452 471 523 528 525 532 524 537
190 40 40 33 50 43 70 45 23 36 50 96 135 33 42 343 494 565 404 352 363 391 245 182 281 87 74 182 239 74 95 154 256 177 382 337 234 204 439 504 573 580 606 606 616 583 574 536 486 436 419 382 376 359 338 341 361 386 379 377 379 402 400
161 59 4 6 6 10 27 93 71 30 39 65 48 39 8 298 503 708 701 445 288 230 219 269 123 62 25 179 40 166 396 333 391 466 324 237 160 92 353 350 456 472 480 459 472 514 532 514 455 429 354 284 244 11 28 316 331 378 378 354 341 293 285
266 227 224 249 3 271 105 55 26 572 43 42 38 23 2 334 608 752 923 759 630 526 347 252 168 168 181 26 0 156 283 161 357 319 316 316 290 430 364 298 270 333 344 392 406 348 344 328 346 357 319 230 0 0 80 0 0 0 217 241 252 272 270
290 312 94 11 118 267 21 12 47 148 309 5 5 0 126 448 540 514 744 780 828 797 671 416 277 279 161 121 131 264 293 276 241 182 254 295 340 286 309 290 273 292 352 295 320 252 170 176 0 112 0 0 0 9 78 76 0 0 0 221 245 224 219
285 320 106 4 0 452 125 338 443 299 194 54 230 388 379 421 502 605 590 734 786 671 584 525 416 228 158 196 184 268 360 274 168 55 64 69 153 195 183 175 190 191 228 221 185 170 10 0 0 0 0 0 43 99 161 138 0 0 0 38 236 250 231
55 99 54 138 269 95 504 563 420 250 210 170 441 343 340 354 388 537 727 666 653 588 473 353 298 266 188 135 102 160 322 290 190 145 51 13 0 0 0 129 162 201 178 55 0 0 0 0 0 0 0 0 170 238 235 171 0 0 0 146 216 240 255
347 286 338 37 165 280 205 311 351 344 354 384 400 475 488 410 393 451 546 705 716 641 492 416 342 281 229 150 137 143 272 225 152 152 105 40 2 0 0 0 136 169 124 0 0 0 0 0 0 0 0 0 0 87 70 0 0 0 0 0 156 165 171
426 437 471 349 236 149 51 56 136 65 76 79 272 372 394 435 435 431 506 618 627 574 698 771 588 423 383 236 196 119 204 304 223 285 207 104 4 0 0 0 0 0 0 0 0 0 0 0 0 0 0 0 0 34 41 116 122 88 29 25 0 83 92
299 282 279 286 170 105 16 1 26 28 74 42 14 239 284 295 289 416 526 592 681 717 689 698 626 457 300 541 454 364 140 266 292 249 386 161 151 73 0 0 0 0 0 0 0 0 0 0 0 0 0 0 0 0 0 15 0 115 116 95 38 0 0
185 199 194 104 137 60 18 4 3 5 7 0 1 115 225 117 3 198 465 552 813 947 987 959 817 739 672 375 194 216 295 300 345 233 165 150 137 36 2 12 1 0 0 0 0 0 0 0 0 0 0 0 0 0 0 0 0 0 0 42 35 16 0
284 288 143 141 144 348 255 117 78 66 108 207 188 125 84 37 3 90 180 178 257 598 857 988 780 727 598 467 314 211 375 367 309 382 328 161 62 75 26 0 0 0 0 0 0 0 0 0 0 0 0 0 0 0 0 0 0 0 0 0 0 0 0
223 136 156 282 345 236 126 47 35 78 84 76 4 1 7 60 132 40 0 0 3 334 540 596 682 714 670 614 586 274 479 486 422 320 130 54 99 56 1 0 0 0 0 0 0 0 0 0 0 0 0 0 0 0 0 0 0 0 0 0 0 0 0
245 420 595 959 492 190 76 81 240 239 80 61 116 93 15 1 1 34 55 23 39 100 257 322 570 609 475 466 498 590 573 479 481 504 416 334 231 77 45 0 0 0 0 0 0 0 0 0 0 0 0 0 0 0 0 0 0 0 0 0 0 0 0
296 585 736 458 179 60 170 243 212 207 129 42 22 33 54 35 14 6 5 72 62 16 1 57 188 468 650 456 358 414 489 654 682 443 394 408 308 160 227 69 27 22 4 0 0 0 0 0 0 0 0 0 0 0 0 0 0 0 0 0 217 0 0
360 674 637 450 319 277 195 60 38 228 426 104 20 2 0 0 11 71 50 5 13 107 56 13 14 44 238 530 607 578 658 659 679 699 711 763 609 300 242 199 103 66 84 27 23 2 0 0 0 0 0 0 0 0 0 0 0 0 0 0 0 0 0

ECMWFFLT2_con_mucape_108.txt.gz
CAPE
8 19 6 14 79 170 224 254 62 5 8 173 150 211 40 5 20 122 292 214 400 1026 683 109 10 190 352 412 319 306 444 764 737 574 396 317 223 287 211 0 0 0 0 14 26 24 295 400 609 1155 1244 1240 1372 1426 1328 1783 1861 1819 1944 2051 2203 2621 2532
0 0 4 10 6 0 0 0 0 163 150 72 55 67 2 20 21 269 37 374 436 154 0 1070 447 267 366 388 429 404 390 695 758 648 440 347 332 292 319 33 0 0 1 15 19 21 56 267 731 1118 1294 1308 1431 1502 1320 1668 1914 1813 1789 1968 1990 2349 2618
0 0 8 8 4 0 22 24 2 46 23 43 94 9 22 24 25 12 36 125 62 120 184 549 283 396 410 498 604 514 459 601 736 659 516 342 429 408 412 145 1 0 0 13 18 22 64 147 798 1095 1319 1384 1486 1623 1405 1598 2045 1775 1730 1856 1826 2010 2535
0 0 0 10 0 0 0 1 0 0 0 0 17 0 14 1 23 18 9 20 2 98 126 686 210 282 438 575 633 703 644 664 661 622 535 403 457 497 466 354 114 9 4 19 26 38 50 119 712 1078 1387 1479 1586 1722 1650 1559 2134 1878 1756 1844 1808 1801 2316
0 0 0 14 5 8 32 8 4 0 0 52 13 12 52 25 16 8 6 0 3 0 72 374 2 0 310 570 584 625 691 762 697 635 575 479 540 616 587 461 336 272 262 216 64 37 45 267 783 1117 1402 1554 1667 1821 1822 1728 2153 2097 1902 1907 1898 1804 1955
0 0 0 4 2 13 35 36 25 8 14 71 54 62 33 161 42 24 1 4 2 4 437 11 31 0 56 462 572 708 768 708 509 579 985 573 770 731 665 575 693 660 478 261 319 410 267 492 920 1076 1314 1509 1706 1940 1944 1813 2104 2149 2075 1963 2015 1797 1851
0 0 0 0 0 4 35 20 19 0 0 37 0 5 12 216 214 112 97 5 14 133 1184 956 541 479 555 672 572 724 849 937 838 615 626 685 1053 914 835 687 541 726 487 382 458 522 491 639 941 1098 1334 1506 1717 1974 1996 1881 2014 2073 2129 2022 2052 1892 1803
0 5 1 0 0 15 26 23 22 124 0 0 9 9 61 207 137 81 4 58 5 682 1086 862 651 694 826 755 566 503 661 826 978 923 731 627 793 948 1070 827 623 594 236 455 719 749 699 764 975 1207 1382 1537 1706 1960 2030 1954 1966 2004 2006 2005 2001 2017 1895
18 24 11 0 0 1 22 30 92 326 288 54 16 10 139 234 155 114 0 1 2 512 1179 880 718 696 590 717 798 782 707 603 784 875 836 734 800 867 925 822 673 490 316 401 647 766 774 826 1019 1272 1396 1518 1632 1898 1997 1954 1922 1960 1936 1933 1920 1881 1950
39 36 26 26 0 10 30 70 524 511 458 296 1 0 1 113 141 65 0 2 129 1061 956 909 774 657 546 588 720 819 873 883 777 946 994 991 824 886 839 600 502 493 472 387 454 648 854 901 1098 1296 1416 1513 1576 1798 1905 1905 1894 1924 1917 1921 1792 1715 1787
38 50 94 32 79 71 484 593 687 679 750 519 0 0 0 0 92 8 238 203 420 839 817 840 717 602 582 616 680 788 921 936 744 702 734 816 850 788 706 657 461 344 382 427 365 751 712 805 1129 1372 1526 1626 1610 1703 1786 1789 1785 1864 1937 1869 1722 1706 1750
49 46 80 60 140 454 591 651 642 698 710 762 771 142 52 31 37 58 752 712 502 661 778 742 636 547 513 583 740 823 816 758 754 835 869 827 952 925 827 727 650 473 337 389 335 549 701 808 680 1092 1396 1602 1746 1639 1602 1626 1584 1730 1839 1777 1562 1590 1674
21 26 43 14 483 620 654 626 645 680 686 831 933 774 774 156 1 77 502 875 711 777 682 643 602 515 527 541 649 816 826 847 861 898 966 1023 1028 1051 998 876 730 552 494 456 424 534 662 734 703 854 991 1240 1464 1667 1649 1363 1397 1602 1675 1599 1177 1116 1236
26 33 35 140 523 644 618 650 706 730 725 826 999 964 837 621 470 728 1006 948 937 901 859 890 744 554 421 440 569 746 775 876 1003 1079 1085 1036 995 1066 1143 1122 989 787 554 470 438 497 536 596 753 592 587 654 982 1179 1164 1161 1040 763 1202 1472 1811 1448 1063
26 50 14 14 456 608 646 695 692 675 620 548 842 936 913 959 1121 1157 983 953 1061 1034 1050 951 1071 915 680 491 576 681 744 697 775 880 883 928 864 831 827 830 787 738 656 497 562 663 636 532 789 928 596 566 787 1143 855 1030 1096 1004 1432 1083 1745 2060 1350
20 27 10 20 18 314 458 570 701 658 646 608 746 816 953 1067 1115 996 927 920 1022 1159 1178 1192 1156 1215 1240 1130 812 647 719 700 665 852 916 902 886 858 918 813 684 587 583 545 622 729 936 1155 1061 1070 868 896 786 1020 960 1131 1216 1148 1386 1590 1557 1984 1899
34 16 12 17 32 233 233 425 556 713 696 674 688 998 1001 998 1008 919 744 884 987 940 1013 1223 1199 1157 1090 1120 1235 1055 789 630 708 929 941 919 884 842 930 896 841 691 602 572 584 627 691 1087 1164 1152 1018 1209 1218 1064 1234 1406 1572 1357 1521 1733 1896 2095 2202
14 15 4 122 8 80 258 312 505 655 526 517 399 798 665 836 836 772 770 817 881 1044 1017 986 1124 939 813 909 992 1090 962 709 544 612 778 903 961 816 856 850 808 770 739 734 643 631 734 1005 1147 1089 1057 1328 1475 1264 1283 1500 1613 1468 1495 1699 1879 1819 1838
32 73 24 125 47 194 249 196 336 450 613 576 545 522 534 462 483 687 725 877 1114 1105 1039 985 875 803 815 910 973 1071 813 627 682 691 683 693 712 764 727 834 864 774 791 805 866 836 821 722 848 951 1197 1244 1190 1326 1446 1342 1222 1090 1039 1056 1180 1368 1481
39 52 19 8 14 362 328 182 340 421 510 508 538 428 385 402 494 455 612 587 761 532 849 827 887 798 816 742 866 850 670 688 715 672 641 606 580 625 636 686 759 458 538 726 783 826 724 701 647 515 467 655 716 803 785 671 675 606 567 563 452 536 624
142 195 258 31 67 189 169 179 140 262 293 312 409 390 292 304 446 383 346 448 332 351 623 578 634 629 640 653 591 549 594 743 749 745 660 628 639 637 627 613 522 612 672 688 772 762 776 724 745 570 517 517 642 630 715 690 780 784 769 802 674 701 791
162 188 331 263 111 175 150 84 104 117 164 188 316 342 314 317 326 388 290 422 516 478 443 429 459 465 483 466 402 460 576 709 634 579 490 516 418 696 719 682 652 574 545 531 559 613 664 663 642 621 680 676 688 738 799 803 818 817 817 815 804 806 857
8 126 165 257 194 40 48 99 72 181 124 133 154 193 256 275 349 393 422 327 383 499 472 459 437 376 308 323 327 391 470 329 278 304 468 454 495 454 496 538 591 534 517 518 513 556 585 596 564 558 542 561 576 618 606 657 684 683 687 681 676 692 724
172 132 114 166 146 44 1 0 23 58 349 226 89 66 116 296 466 357 392 322 265 286 313 94 232 178 164 205 214 288 190 60 9 15 157 0 95 331 382 369 521 549 527 506 471 495 525 520 526 527 503 486 471 426 465 437 438 447 469 499 506 519 524
372 320 228 67 0 13 106 9 20 24 193 195 75 66 267 490 555 393 312 268 225 54 11 10 20 23 205 226 289 312 214 117 58 89 152 0 186 291 455 437 462 512 464 460 492 476 465 429 405 389 370 350 337 281 196 220 283 314 330 348 367 383 378
330 289 206 26 216 199 17 36 10 157 209 56 64 254 464 683 738 666 565 361 324 318 246 240 234 248 310 342 336 275 149 113 173 172 168 116 41 249 308 315 346 354 358 356 341 296 275 285 312 291 280 256 250 215 181 158 80 3 4 107 204 230 257
260 304 288 66 13 89 64 24 209 115 65 92 81 435 547 590 652 724 737 759 583 326 246 226 320 358 312 324 314 242 154 40 54 139 157 180 236 262 206 187 216 251 265 259 265 80 0 41 124 153 150 79 60 57 62 62 0 67 67 39 162 229 264
377 239 277 91 48 277 354 59 300 99 61 68 511 604 629 718 764 760 706 683 501 311 303 368 428 429 381 334 288 212 159 17 11 10 12 23 62 9 0 33 139 150 31 0 0 0 0 0 0 0 0 0 0 0 0 0 0 0 0 0 96 159 204
132 98 360 376 424 509 478 435 442 349 367 482 480 643 720 780 765 690 642 542 471 373 322 358 378 419 476 448 359 214 138 63 29 4 0 0 0 0 13 96 43 0 0 0 0 0 0 0 0 0 0 0 0 0 0 0 0 0 0 0 0 10 113
403 385 397 481 474 474 520 548 608 660 569 505 518 561 641 714 800 774 658 515 470 417 375 319 202 229 340 514 420 287 214 146 88 2 0 0 0 0 0 0 0 0 0 0 0 0 0 0 0 0 0 0 0 0 0 0 0 0 0 0 0 0 0
372 326 470 462 474 526 649 702 685 654 589 530 508 514 559 571 736 808 740 676 558 483 449 307 224 201 189 342 411 333 271 194 146 77 0 0 0 0 0 0 0 0 0 0 0 0 0 0 0 0 0 0 0 0 0 0 0 0 0 0 0 0 0
369 402 413 444 447 435 554 561 538 506 445 456 448 480 517 560 615 729 803 736 676 564 486 368 302 252 246 392 393 304 246 210 173 107 45 0 0 0 0 0 0 0 0 0 0 0 0 0 0 0 0 0 0 0 0 0 0 0 0 0 0 0 0
457 392 327 382 440 423 391 361 445 433 446 404 308 112 300 371 492 625 725 768 737 687 498 430 363 284 221 315 397 326 260 236 203 112 0 0 0 0 0 0 0 0 0 0 0 0 0 0 0 0 0 0 0 0 0 0 0 0 0 0 0 0 0
341 274 174 150 151 6 77 0 0 162 210 314 142 0 268 290 360 500 625 721 751 719 536 484 401 325 263 222 326 361 301 251 209 50 0 0 0 0 0 0 0 0 0 0 0 0 0 0 0 0 0 0 0 0 0 0 0 0 0 0 0 0 0
286 0 49 14 0 0 261 112 2 0 0 0 0 0 0 0 2 386 484 521 551 561 550 473 443 350 303 267 224 223 335 293 0 0 0 0 0 0 0 0 0 0 0 0 0 0 0 0 0 0 0 0 0 0 0 0 0 0 0 0 0 0 0
99 20 257 4 0 2 53 112 0 0 0 0 0 0 0 0 0 0 314 310 328 339 392 490 510 455 364 320 274 245 203 108 75 41 0 0 0 0 0 0 0 0 0 0 0 0 0 0 0 0 0 0 0 0 0 0 0 0 0 0 0 0 0
388 410 191 126 298 79 28 4 0 0 0 0 0 0 0 0 0 0 0 0 0 0 103 363 405 454 473 458 467 321 361 424 555 566 572 368 170 30 0 0 0 0 0 0 0 0 0 0 0 0 0 0 0 0 0 0 0 0 0 0 0 0 0

ECMWFFLT2_con_mucape_111.txt.gz
CAPE
0 580 1087 979 795 707 568 427 251 194 141 224 272 243 242 184 12 125 202 29 40 709 399 368 389 268 327 411 477 413 309 201 150 212 220 227 259 19 0 0 15 51 85 140 230 260 279 328 402 406 564 806 1011 1178 1292 1274 1281 1671 2018 2098 2184 2208 2070
0 0 951 1027 689 526 564 501 389 278 268 197 132 148 123 62 6 240 117 261 509 38 6 777 337 77 188 325 294 334 340 295 230 248 243 212 263 171 0 0 2 82 138 206 249 277 290 334 429 493 571 732 915 1115 1283 1318 1318 1559 1889 2068 2168 2298 2217
0 6 517 900 776 380 467 257 195 167 236 188 186 17 41 11 4 4 6 70 14 69 83 349 595 99 101 148 299 262 220 238 312 350 307 252 228 284 41 0 0 0 14 86 258 318 335 355 438 535 654 761 879 1055 1212 1321 1375 1504 1746 1943 2034 2240 2300
4 24 12 623 724 220 0 0 23 12 0 90 57 15 30 20 105 14 1 26 7 42 7 337 511 215 31 121 180 308 237 151 274 400 390 299 241 224 270 0 0 0 0 46 227 311 381 410 452 566 756 827 935 1069 1242 1368 1438 1486 1645 1820 1893 2078 2290
2 24 6 4 7 50 5 6 14 1 4 2 85 7 0 0 0 1 24 16 3 0 212 373 437 312 93 69 189 356 367 230 276 373 400 399 311 257 279 279 140 0 0 10 73 258 364 432 461 690 862 922 1015 1137 1194 1416 1539 1506 1565 1736 1807 1916 2236
26 17 0 3 4 4 10 17 18 18 9 53 18 99 13 31 0 14 1 14 2 0 267 272 462 415 178 178 325 426 405 578 518 516 529 482 442 355 303 329 300 175 0 1 32 200 280 387 485 773 971 1015 1096 1228 1215 1367 1617 1584 1563 1666 1754 1788 2104
32 22 2 2 7 6 187 222 336 209 0 0 0 7 1 167 175 86 51 6 1 780 974 180 133 265 312 439 549 588 519 478 609 700 584 620 552 486 493 424 329 180 215 388 44 22 132 280 468 809 1034 1105 1202 1322 1313 1365 1655 1667 1632 1666 1757 1754 1892
28 19 3 0 2 3 114 251 484 563 400 111 0 0 0 38 99 8 0 2 313 853 931 628 186 98 442 494 647 725 726 645 569 538 609 711 606 571 535 464 394 344 434 476 287 259 264 169 387 804 1040 1180 1270 1410 1427 1392 1648 1732 1698 1690 1741 1732 1718
36 11 6 2 1 192 298 337 611 670 622 522 33 0 0 22 14 0 0 6 0 914 862 830 839 784 646 643 771 768 801 790 589 487 620 722 676 602 578 556 506 428 345 399 418 383 262 304 494 747 954 1217 1291 1485 1543 1466 1650 1819 1797 1723 1757 1744 1697
57 30 16 99 151 24 212 447 677 667 769 560 80 0 1 8 48 0 0 0 754 902 809 818 713 667 698 860 872 963 995 910 824 837 619 700 740 673 652 645 604 534 418 308 328 360 329 366 352 380 699 976 1218 1553 1686 1629 1739 1882 1933 1836 1814 1801 1771
17 13 64 432 620 290 617 670 724 812 846 631 3 0 0 0 37 4 0 91 921 930 850 789 684 695 664 811 917 938 876 994 1081 1042 960 779 781 793 762 721 643 570 433 348 345 435 423 306 280 330 495 775 1060 1314 1732 1730 1715 1827 1966 1997 1905 1907 1864
2 5 4 682 744 724 681 644 635 822 925 808 607 228 200 275 0 0 0 436 725 932 857 736 714 742 707 815 917 912 912 822 923 1044 1024 928 758 792 832 816 786 712 468 335 352 494 489 334 352 420 486 924 1213 1143 1680 1854 1786 1697 1756 2002 2025 2028 2044
0 0 76 665 643 640 593 554 568 619 972 942 860 675 614 419 0 0 440 502 642 1007 811 734 679 723 662 774 859 928 920 906 908 947 992 974 871 757 790 840 853 874 877 575 411 539 499 411 509 593 634 811 1219 1363 1391 1683 1626 1642 1678 1802 2005 2068 2068
2 28 385 607 586 474 414 460 550 524 784 1118 1030 911 926 516 802 808 803 835 844 888 836 732 725 804 792 854 860 890 922 971 1055 992 1015 1050 1028 959 874 828 836 850 871 893 846 640 576 468 537 679 711 858 1063 1209 1305 1363 1540 1648 1763 1910 1987 2010 2014
0 11 90 437 455 354 325 368 434 541 483 969 1006 930 944 1050 1136 1053 1029 1088 980 931 800 741 763 872 956 983 916 934 1007 1058 1022 998 981 948 900 895 861 864 902 921 862 742 665 617 621 560 615 833 974 1042 1116 1289 1263 1483 1557 1392 1275 1570 1800 1945 1942
0 0 2 9 339 191 196 296 461 612 581 669 704 736 930 946 1087 1097 1160 1212 1205 993 1037 1020 963 864 861 914 898 910 954 976 988 946 1088 1064 1062 1015 979 1011 1046 963 858 769 679 570 600 558 690 844 1061 1193 1230 1275 1338 1594 1503 1146 1244 1547 1654 1690 1853
0 0 0 83 16 32 24 198 466 677 663 585 933 982 1068 1084 992 982 1051 1178 1224 1165 1129 1216 1319 1400 1270 1046 873 822 860 865 850 936 1053 1055 906 836 895 841 817 793 738 689 724 627 479 519 550 727 924 1061 1165 1306 1476 1538 1360 1378 1474 1619 1626 1557 1304
0 0 0 6 37 2 58 365 540 649 606 505 557 928 1117 1044 947 926 972 1154 1178 1178 1174 1133 1224 1172 1155 1142 1112 925 822 832 834 904 974 946 910 870 880 879 818 744 654 589 496 477 532 454 487 387 467 672 973 1081 1160 1340 1293 1257 1266 1336 1667 1485 1078
0 0 0 5 3 26 316 264 558 661 633 647 658 562 613 710 765 862 729 893 967 992 1042 988 852 791 859 839 884 1014 884 809 875 956 1001 1016 938 946 952 934 826 814 777 692 606 483 492 450 505 460 603 515 525 575 682 812 908 775 999 882 992 1128 1456
0 0 0 0 0 173 206 328 354 587 497 386 433 453 435 543 545 599 674 350 241 321 447 692 746 768 824 913 948 912 914 902 940 928 922 915 917 938 813 828 878 944 782 651 586 560 668 752 694 673 672 829 821 681 727 857 966 1148 1295 1428 1303 1258 1450
104 44 49 0 161 184 221 291 357 484 562 388 365 426 356 379 469 631 492 250 656 731 515 316 450 744 867 997 949 982 1021 984 958 916 872 863 918 938 796 760 645 740 808 703 682 599 585 543 543 628 859 841 1056 993 807 1087 1262 1479 1536 1589 1681 1738 1731
34 215 182 0 215 218 244 228 423 389 409 463 457 389 361 331 461 400 506 534 630 481 493 514 562 641 676 811 861 859 840 736 860 844 830 774 798 780 690 693 673 636 692 727 674 533 579 499 486 470 440 536 647 706 806 823 896 1009 1158 1090 1156 1221 1346
0 180 189 76 0 190 169 247 337 377 318 343 370 114 233 348 386 442 543 646 702 574 612 638 688 544 576 656 754 740 616 580 620 674 797 875 796 744 714 701 647 605 587 604 618 632 583 602 607 531 496 589 604 601 599 582 587 591 611 645 645 592 677
0 0 20 178 0 178 70 178 310 336 320 249 225 120 58 353 575 489 670 721 694 720 683 652 534 480 495 579 598 520 364 444 527 596 557 553 640 682 565 614 555 503 462 465 506 552 553 565 539 551 561 578 566 590 643 740 797 837 833 817 798 789 787
181 93 2 86 0 0 0 150 250 279 173 168 160 98 258 420 648 586 662 854 746 749 667 532 479 429 366 363 327 368 252 305 427 426 285 240 313 195 392 422 435 460 419 425 407 418 449 476 479 498 490 507 545 513 497 473 491 513 539 556 580 599 609
147 0 0 9 0 0 0 0 211 144 189 165 168 149 482 652 611 612 621 545 438 365 288 308 340 335 393 436 408 370 331 213 190 183 97 236 256 150 0 316 366 347 301 325 378 373 366 350 344 345 314 326 324 262 273 294 274 237 291 330 358 374 394
122 134 166 69 115 149 40 144 177 131 282 89 423 635 841 824 703 526 474 384 344 363 347 370 410 444 457 439 341 292 283 254 268 213 161 67 7 110 114 233 261 257 281 264 232 281 326 325 314 302 298 277 248 216 198 192 172 156 136 126 166 180 213
269 256 218 161 74 236 311 24 57 58 119 436 778 877 771 854 838 831 661 556 428 405 366 398 458 494 481 398 246 237 256 296 291 286 214 27 0 111 138 203 212 202 107 114 105 101 104 40 40 132 134 152 161 128 118 8 55 103 118 121 71 0 114
24 98 323 396 316 404 348 53 49 90 307 736 840 901 908 834 847 817 774 612 488 381 415 443 468 478 483 388 280 188 114 133 165 191 201 238 230 165 88 131 48 0 23 3 0 0 0 0 0 0 0 0 0 0 0 0 0 0 0 0 0 0 0
358 407 434 591 572 535 502 199 73 317 703 836 996 1042 996 955 781 836 749 580 542 569 522 484 448 457 470 398 301 193 83 24 1 0 0 0 105 94 72 84 0 0 0 0 0 0 0 0 0 0 0 0 0 0 0 0 0 0 0 0 0 0 0
386 504 589 711 698 706 676 652 590 711 770 872 913 937 946 849 778 699 587 534 639 672 638 596 513 480 483 442 333 173 11 6 0 0 0 0 0 0 0 8 0 0 0 0 0 0 0 0 0 0 0 0 0 0 0 0 0 0 0 0 0 0 0
347 363 677 785 814 858 740 621 448 484 661 730 820 913 914 874 662 599 573 516 555 552 563 581 632 581 504 473 362 240 1 0 0 0 0 0 0 0 0 0 0 0 0 0 0 0 0 0 0 0 0 0 0 0 0 0 0 0 0 0 0 0 0
323 492 565 551 424 94 28 18 47 220 496 626 686 862 1046 1039 907 737 632 559 570 540 385 360 406 661 632 501 394 308 235 0 0 0 0 0 0 0 0 0 0 0 0 0 0 0 0 0 0 0 0 0 0 0 0 0 0 0 0 0 0 0 0
365 465 517 476 359 360 381 436 382 456 446 458 499 622 830 994 1024 918 814 738 655 606 494 453 379 514 724 664 494 378 298 241 8 0 0 0 0 0 0 0 0 0 0 0 0 0 0 0 0 0 0 0 0 0 0 0 0 0 0 0 0 0 0
274 308 450 411 0 417 499 411 349 0 30 458 522 596 772 877 867 894 888 792 682 636 596 505 469 619 724 614 522 462 373 310 194 0 0 0 0 0 0 0 0 0 0 0 0 0 0 0 0 0 0 0 0 0 0 0 0 0 0 0 0 0 0
0 0 362 382 338 101 353 371 378 355 320 509 642 770 879 931 898 857 786 774 767 707 642 552 510 632 674 629 530 436 364 285 204 167 0 0 0 0 0 0 0 0 0 0 0 0 0 0 0 0 0 0 0 0 0 0 0 0 0 0 0 0 0
37 0 0 0 0 0 0 201 33 0 0 0 151 462 579 607 601 584 585 644 689 693 674 591 511 376 472 556 539 452 382 276 256 222 161 128 0 0 0 0 0 0 0 0 0 0 0 0 0 0 0 0 0 0 0 0 0 0 0 0 0 0 0

ECMWFFLT2_con_mucape_114.txt.gz
CAPE
346 946 1166 1210 907 808 687 525 375 296 273 359 366 298 366 278 102 140 208 177 143 238 229 403 515 324 194 380 439 333 136 110 130 112 62 71 1 0 0 8 35 44 52 66 91 101 112 198 322 407 496 632 699 766 887 1004 1053 1383 1523 1607 1449 1472 1471
0 2 1056 1158 968 677 649 590 583 419 276 260 197 235 219 191 16 96 240 148 307 49 6 693 382 454 502 316 238 207 122 20 31 154 52 90 12 0 0 6 52 75 80 97 160 106 112 171 303 386 472 617 671 724 826 929 965 1258 1526 1602 1555 1555 1586
73 549 1360 1314 1044 725 686 501 236 194 159 38 257 193 150 126 9 0 63 182 85 3 30 259 466 382 438 579 493 259 151 60 16 34 60 73 55 0 0 0 15 54 72 87 97 182 210 144 263 363 438 584 673 707 801 851 903 1079 1490 1661 1657 1708 1676
262 939 1274 1343 1157 904 563 416 75 9 4 16 21 112 165 22 14 22 0 21 0 11 24 206 248 415 354 283 379 431 325 192 72 54 73 55 68 2 0 0 0 20 60 91 108 158 203 221 210 317 396 505 674 750 941 909 924 987 1318 1608 1786 1768 1767
24 8 319 781 937 834 535 176 19 22 2 8 1 0 17 49 52 0 19 7 0 0 1 244 284 423 381 202 172 251 354 354 201 114 104 79 83 55 0 0 0 0 26 71 125 143 195 210 224 284 325 416 606 748 901 1081 1013 969 1196 1521 1668 1774 1846
0 0 0 45 247 422 487 235 22 13 11 1 13 11 3 15 1 21 0 0 0 106 717 592 249 460 439 136 35 119 274 332 308 212 127 98 76 89 16 0 0 0 3 41 90 160 180 197 217 254 294 364 489 671 818 1016 1038 1042 1182 1412 1572 1687 1849
0 0 101 284 404 532 499 606 804 671 30 10 0 1 0 132 109 184 90 0 0 634 828 634 332 713 433 100 28 33 172 270 290 294 248 199 92 109 223 194 139 0 0 2 52 101 189 218 238 255 317 432 527 642 778 945 1127 1162 1206 1377 1516 1591 1749
0 0 0 137 330 319 387 495 821 820 692 614 338 0 0 112 197 104 60 4 264 760 873 783 464 472 813 488 47 37 170 246 283 320 412 327 282 237 221 224 175 122 0 0 24 76 83 201 247 262 392 527 601 692 807 946 1138 1234 1267 1336 1467 1510 1623
0 0 0 75 310 518 674 737 769 922 786 664 536 231 56 112 187 26 0 5 308 769 881 790 718 665 1057 1039 854 527 398 356 392 522 523 391 396 374 311 277 256 154 54 33 49 81 109 208 249 279 498 635 691 781 877 934 1078 1248 1291 1325 1429 1469 1539
5 3 12 157 694 589 532 637 700 849 940 775 367 0 91 18 199 134 110 0 932 932 927 882 770 790 780 824 845 431 352 407 312 528 622 529 465 471 441 354 286 285 235 139 105 108 139 168 235 367 555 732 813 899 1058 996 1076 1207 1316 1313 1402 1441 1493
3 0 57 452 884 718 679 566 629 786 970 870 258 0 0 0 4 83 100 162 1069 903 984 918 853 788 800 842 748 448 504 362 390 486 676 696 595 537 488 444 381 296 260 240 204 152 192 216 270 397 556 722 821 913 1050 1108 1222 1364 1392 1417 1416 1434 1468
0 5 556 821 857 831 656 562 556 749 879 811 774 421 233 707 0 8 391 665 826 984 979 836 861 800 837 940 882 824 732 456 299 436 664 906 741 696 671 634 554 452 342 273 229 201 239 242 279 371 497 647 788 895 1034 1144 1252 1410 1481 1504 1492 1482 1491
0 0 629 822 792 672 530 623 620 706 935 788 809 901 860 620 150 11 429 799 801 984 1009 842 764 760 729 927 890 934 992 997 821 719 659 697 834 774 722 704 661 633 614 494 326 347 237 289 338 366 443 588 743 891 1025 1156 1302 1408 1498 1535 1545 1535 1533
3 10 194 673 444 618 373 595 794 776 865 948 861 859 978 935 916 920 811 810 1002 964 1020 896 762 847 1016 997 960 988 1008 920 862 855 824 769 709 870 846 797 739 704 681 651 595 450 320 320 377 409 443 564 765 909 1032 1177 1309 1411 1515 1565 1561 1570 1572
1 0 416 501 275 107 183 372 715 798 845 857 783 744 752 941 1170 932 981 1112 999 856 892 897 1063 1126 1104 1085 1130 1168 1090 1130 1060 1011 922 1026 914 1046 986 913 865 808 762 727 677 620 565 448 358 492 503 588 760 912 1020 1148 1280 1424 1514 1590 1572 1590 1643
0 0 0 1 134 225 3 38 495 699 674 792 982 830 889 996 1201 1166 1302 1218 1084 969 957 948 1044 980 964 1013 1072 1132 1102 1066 998 965 940 987 1059 1148 1101 1050 956 883 854 858 844 808 734 646 542 526 576 623 707 866 989 1058 1279 1381 1480 1576 1697 1723 1710
0 0 0 156 9 0 0 106 404 761 747 638 859 972 1000 1144 992 1026 1055 928 1175 1157 1025 982 931 951 961 1032 952 984 992 998 998 1031 964 1014 981 993 994 998 1016 983 961 946 899 864 856 823 785 684 594 634 680 735 786 946 1142 1324 1436 1461 1526 1537 1516
0 0 0 124 8 1 0 619 880 770 725 540 641 1059 1159 1081 1165 909 976 1224 1183 1184 1230 1059 965 889 1020 920 864 933 940 1035 965 1000 1070 1004 1016 966 973 965 924 964 957 955 907 829 782 748 726 698 668 659 610 519 668 781 1025 1252 1380 1399 1435 1327 1173
0 0 0 0 0 0 450 666 835 794 741 710 703 655 1147 1113 1004 1125 1130 1085 1012 1212 1006 654 574 602 803 806 924 958 1005 1062 1095 1092 1081 1035 1027 951 894 863 836 805 754 635 657 577 619 639 624 634 594 628 615 596 586 687 821 1146 1322 1336 1110 1055 1114
0 0 0 0 0 187 239 346 385 635 599 517 633 642 622 884 1151 1088 983 843 724 527 442 502 717 749 929 872 982 1001 1038 1114 1110 1106 1106 1127 1107 1062 1025 1025 894 829 801 807 754 639 511 477 508 578 684 766 731 693 680 808 861 964 938 987 879 1211 1376
7 0 0 0 0 14 64 230 217 368 524 525 447 551 492 584 842 864 710 543 626 603 600 820 798 676 756 915 993 1180 1148 1125 1122 1053 998 1062 1041 946 953 903 891 893 868 786 646 607 670 626 472 489 524 561 536 539 530 762 1034 1112 1158 958 979 1072 1038
0 0 24 0 0 0 47 13 345 388 453 404 480 359 537 552 756 807 651 478 499 568 652 835 870 812 860 1078 1044 1134 1088 1090 1100 935 919 882 816 723 694 659 767 773 737 654 621 660 715 714 696 719 646 472 544 488 441 527 727 970 994 746 626 665 1145
0 0 0 0 0 0 10 86 372 400 405 433 557 228 296 434 565 701 723 597 561 444 628 787 782 793 918 888 1010 958 905 973 1026 984 910 827 594 590 642 636 604 740 642 612 572 589 634 668 656 618 604 642 612 621 541 430 415 425 698 768 725 871 992
0 4 0 0 0 64 86 145 291 347 375 353 370 148 6 278 501 585 606 606 584 477 613 676 713 766 879 956 1081 920 823 884 924 946 890 605 370 636 554 473 496 540 506 483 616 627 544 506 526 542 526 504 444 562 593 873 728 855 969 1076 1196 1366 1368
21 4 0 0 0 0 0 0 218 324 380 216 93 50 108 386 622 606 654 822 678 686 659 593 533 494 541 874 719 700 702 694 756 819 701 546 530 509 516 437 334 348 403 455 542 611 608 537 487 418 372 282 412 301 368 408 411 570 762 884 571 876 1051
0 0 0 0 0 0 0 0 193 225 239 221 221 109 300 468 594 700 793 809 826 780 797 608 567 577 717 568 529 618 640 670 677 516 387 372 347 379 402 356 349 345 311 413 461 488 559 529 482 449 397 326 395 342 416 458 496 489 485 436 538 569 619
0 0 0 0 0 80 0 197 96 189 117 204 213 517 695 766 679 814 876 843 735 663 484 469 548 513 470 416 343 366 460 431 401 325 269 249 254 264 271 257 276 292 342 345 398 381 418 401 380 346 286 262 200 0 46 202 231 288 305 367 102 348 432
0 0 0 0 31 164 175 109 256 223 0 114 489 846 827 827 790 809 830 576 471 411 478 548 514 498 476 410 363 413 358 309 300 246 170 206 201 200 198 193 189 178 141 59 136 182 239 244 269 246 217 202 102 0 0 0 0 31 171 221 179 179 110
0 22 0 172 167 276 267 163 0 262 276 492 1015 948 969 926 816 703 576 451 416 436 440 527 488 492 488 444 373 394 354 343 315 310 211 174 184 188 143 126 10 0 0 0 0 0 0 108 120 105 36 0 0 31 0 0 0 0 0 0 0 0 18
0 181 224 299 359 453 440 323 296 376 728 1056 922 865 929 942 918 826 625 514 438 502 509 507 464 358 338 331 292 326 358 344 331 339 280 216 144 114 0 0 0 0 0 0 0 0 21 0 0 0 0 0 0 0 0 0 0 0 0 0 0 0 0
130 344 361 434 549 607 543 486 446 675 1006 1080 1042 990 898 842 865 714 545 432 468 584 579 539 497 426 342 232 231 259 278 278 254 265 288 278 232 189 2 0 0 0 0 0 0 0 0 0 0 0 0 0 0 0 0 0 0 0 0 0 0 0 0
122 242 520 610 673 695 647 638 773 946 1021 918 937 930 721 706 715 495 556 467 218 459 579 568 532 432 297 33 80 88 150 161 163 176 171 170 156 134 63 0 0 0 0 0 0 0 0 0 0 0 0 0 0 0 0 0 0 0 0 0 0 0 0
197 424 607 748 786 793 753 737 801 868 946 723 150 567 539 676 534 548 577 543 474 282 562 597 566 478 352 59 12 4 0 0 2 0 2 2 0 0 0 0 0 0 0 0 0 0 0 0 0 0 0 0 0 0 0 0 0 0 0 0 0 0 0
219 384 483 578 449 364 274 347 292 346 344 226 44 100 329 511 339 171 361 594 630 675 679 627 550 534 414 311 215 40 0 0 0 0 0 0 0 0 0 0 0 0 0 0 0 0 0 0 0 0 0 0 0 0 0 0 0 0 0 0 0 0 0
190 210 382 288 166 3 269 322 286 9 284 320 26 55 228 308 311 92 0 260 367 359 534 726 695 555 535 335 279 222 0 0 0 0 0 0 0 0 0 0 0 0 0 0 0 0 0 0 0 0 0 0 0 0 0 0 0 0 0 0 0 0 0
0 55 381 120 277 409 315 7 10 12 0 202 419 419 375 11 312 293 281 269 252 299 438 652 825 772 640 492 395 333 214 76 0 0 0 0 0 0 0 0 0 0 0 0 0 0 0 0 0 0 0 0 0 0 0 0 0 0 0 0 0 0 0
60 285 347 309 450 425 244 0 0 0 122 570 673 683 724 566 454 322 286 251 356 533 671 756 875 899 857 676 593 390 270 0 47 36 23 13 0 12 17 1 0 0 0 0 0 0 0 0 0 0 0 0 0 0 0 0 0 0 0 0 0 0 0

ECMWFFLT2_con_mucape_117.txt.gz
CAPE
111 778 1148 1254 1140 884 788 678 650 485 342 383 769 615 456 404 297 389 660 462 572 402 339 527 848 394 180 238 342 464 448 406 316 373 240 28 1 5 27 142 245 385 486 516 561 636 664 712 826 1012 1223 1552 1606 1801 1881 2023 2076 2260 2359 2650 2597 2613 2747
831 338 481 1059 996 872 804 753 677 512 475 383 402 284 567 345 153 205 537 421 490 256 292 1172 837 607 406 348 295 381 518 601 227 306 456 141 15 32 114 251 351 417 485 541 578 656 678 698 821 1011 1379 1586 1776 1905 1868 1949 2167 2388 2264 2418 2364 2544 2673
1091 847 1045 1063 958 754 781 812 521 393 613 410 402 314 167 158 85 77 328 416 409 438 336 972 833 625 574 507 414 406 445 445 294 291 485 427 56 20 44 189 404 448 510 568 694 688 744 808 932 1114 1431 1508 1667 1704 1675 1884 2018 2016 2096 2102 2206 2421 2472
178 673 1183 973 807 873 700 537 522 375 620 542 248 277 213 172 48 96 45 388 32 699 370 688 836 887 694 631 504 460 416 358 209 338 391 574 309 48 52 178 372 423 424 525 659 738 811 907 1035 1124 1324 1210 1307 1505 1594 1815 1878 2047 2107 2120 2384 2493 2313
65 270 438 955 753 681 635 584 538 344 304 508 143 246 30 55 123 116 46 62 52 457 671 973 906 603 957 641 492 438 430 369 320 244 313 664 683 222 91 152 308 382 398 391 572 745 863 854 906 1030 1261 1180 1239 1353 1530 1843 1867 1828 1930 2034 2442 2492 2233
165 229 254 111 629 864 689 610 582 581 110 263 45 308 5 37 104 40 55 36 45 440 1209 1074 1036 871 736 789 430 265 314 437 283 241 298 461 740 536 114 70 162 363 516 460 570 782 668 733 900 1086 1080 1201 1357 1424 1449 1656 1511 1739 1727 2142 2634 2728 2660
167 321 432 518 665 720 1052 1131 1066 792 250 36 32 7 22 211 233 305 379 150 87 772 1185 1223 887 1114 930 799 601 488 350 174 151 271 338 565 801 777 316 105 143 326 595 685 753 819 667 800 853 974 1041 1211 1501 1689 1685 1798 1716 1899 1910 2287 2863 3124 3099
48 150 249 344 544 492 608 760 1128 1222 916 893 248 32 0 48 516 380 373 168 254 1089 1390 1226 901 1294 1178 890 417 382 317 344 408 699 576 751 873 1070 658 219 248 370 477 717 880 857 944 1051 1082 1011 1129 1310 1549 1821 2069 2201 2142 2330 2337 2605 2936 3076 3085
81 102 106 243 604 667 658 734 1022 1039 1113 1004 956 845 562 235 303 301 23 36 12 1082 1272 1221 1145 1208 1284 1219 950 512 572 890 910 862 1137 962 867 920 936 488 186 199 361 703 1014 1160 1237 1210 1096 1181 1357 1591 1643 1827 2087 2063 2272 2474 2448 2531 2684 2939 3025
11 67 128 244 528 818 684 806 997 1109 1113 959 473 253 433 203 393 251 264 93 730 1264 1223 1177 1049 1112 1101 960 770 691 665 566 908 1316 1190 1118 1036 1028 1040 942 484 189 325 623 856 1052 1220 1297 1290 1280 1392 1412 1601 1938 1948 2051 2312 2662 2687 2572 2625 2754 2859
26 225 729 680 768 837 621 643 1036 1096 1210 861 250 186 265 252 394 114 426 275 608 1249 1085 935 974 1016 1083 1217 761 511 740 585 706 1066 1162 1223 969 972 1160 1198 943 660 335 304 554 987 1208 1295 1369 1414 1484 1751 1879 2016 1977 2110 2244 2590 2724 2652 2746 2781 2840
68 140 394 666 749 807 701 764 832 1244 1177 1178 1157 810 789 674 405 195 691 627 824 1254 1097 860 840 931 1129 1200 1097 858 726 829 822 931 1004 962 998 922 1016 950 840 682 570 558 492 719 1024 1267 1484 1458 1550 1603 1870 2086 1976 2059 2316 2459 2451 2580 2832 2803 2795
112 413 767 833 1008 980 970 978 1089 1137 1300 1137 1113 1174 899 714 335 349 831 781 847 1119 1134 854 868 885 1090 1170 1134 1055 854 617 703 953 937 845 751 876 922 1101 1142 995 874 762 740 855 959 1241 1270 1419 1611 1807 2119 2265 2322 2540 2426 2552 2686 2893 2949 2854 2991
103 144 547 787 798 890 707 1119 1194 1181 1358 1283 1208 1124 1154 990 1086 937 1079 1077 1208 1243 1112 950 1028 1118 1139 1141 1359 1373 1251 850 740 747 486 749 848 823 922 880 836 1072 1100 1087 1054 1166 1229 1176 1332 1461 1639 1879 2041 2144 2309 2532 2553 2634 3000 2960 3069 2984 3119
77 110 145 388 534 731 619 652 955 1148 1326 1292 1144 1069 1021 1228 1385 1072 1067 1163 1197 1209 1080 1132 1174 1148 1197 1356 1367 1354 1119 967 879 784 744 620 846 822 803 812 875 1077 1246 1349 1364 1300 1301 1277 1364 1458 1710 1805 1941 2106 2471 2658 2580 2877 2692 2872 3002 3068 3184
78 64 172 201 297 348 395 339 496 1056 1215 1026 1271 1198 1124 1213 1248 1094 1167 1154 1157 1221 1313 1003 1059 1053 1030 1054 1091 1203 1261 883 834 863 814 764 902 1018 939 852 968 1023 985 1077 1236 1352 1499 1416 1398 1426 1416 1513 1754 1988 2247 2208 2527 2677 2748 2867 2946 2864 2928
22 71 55 369 255 188 125 168 472 927 878 1038 1112 1085 1122 1227 1071 1138 1000 1121 1088 1102 1246 1022 826 728 658 794 1057 950 962 1232 1277 1088 1116 1196 1278 1376 1228 1058 883 906 906 875 1061 1202 1143 1159 1186 1324 1425 1446 1530 1856 1996 2458 2501 2239 2333 2436 2300 1811 1566
11 14 97 312 121 34 111 1086 960 934 1136 1038 1281 1358 1193 1058 1017 1203 1130 1181 1205 1208 1080 939 732 494 482 574 710 828 909 922 1037 1035 983 986 1045 1046 1080 1064 1045 1010 1011 976 925 898 894 848 805 1079 1321 1515 1719 1859 1658 1596 2040 1922 1754 1509 1402 1246 1337
0 57 82 28 0 32 650 853 1033 1021 935 959 880 1060 1009 1033 1061 1038 1044 1196 1243 1187 1102 840 855 878 724 800 776 874 970 950 934 889 1009 947 926 949 1014 947 951 950 976 967 980 984 960 934 916 865 832 1035 791 868 812 886 1209 1328 1254 1022 1074 1140 1219
24 0 46 0 0 172 339 644 682 913 805 686 572 754 864 1046 1098 1252 1168 1105 1113 932 886 769 809 938 845 822 849 875 782 544 921 911 990 765 800 872 925 894 857 873 881 869 830 774 690 668 688 718 759 779 784 782 758 706 854 866 902 934 912 986 1135
18 32 29 5 193 114 113 232 348 413 753 771 693 842 864 893 1064 1136 1133 997 883 721 702 794 816 806 757 759 594 629 658 715 607 759 585 840 813 906 895 858 862 869 826 792 739 701 659 601 638 684 702 698 662 632 731 632 612 696 772 812 910 955 1088
28 300 263 50 32 1 172 512 352 394 419 367 394 393 696 718 971 1022 1093 971 692 718 821 843 872 749 605 462 458 642 549 655 494 691 728 757 771 802 770 854 828 815 816 729 759 707 732 694 615 558 526 559 548 564 549 516 453 520 621 696 672 658 848
1 37 35 118 6 37 293 363 303 360 398 373 448 343 370 772 998 914 1002 756 810 801 856 820 794 633 671 434 370 431 428 565 634 569 682 668 702 801 785 824 875 871 787 705 629 651 680 684 666 623 548 502 491 426 393 396 367 398 520 603 637 673 745
114 82 23 37 182 2 516 318 306 294 355 360 306 350 253 398 982 925 868 794 779 852 806 668 634 686 741 447 423 614 716 605 661 751 596 658 677 750 790 790 804 709 628 619 566 624 576 504 502 521 416 498 451 416 397 308 313 254 484 547 595 772 928
187 24 85 25 36 135 108 160 223 258 293 280 337 419 367 500 963 955 856 775 722 753 789 660 707 606 677 574 542 632 703 805 747 692 687 693 667 674 694 714 715 648 593 595 596 517 524 511 499 413 300 388 358 326 389 428 467 390 337 350 519 499 400
90 230 25 14 54 29 18 56 205 232 226 325 462 596 100 583 1035 936 845 851 767 778 717 603 574 628 632 738 681 676 722 773 731 540 629 642 627 620 559 570 532 516 478 460 523 502 457 465 401 292 305 316 304 389 315 380 488 519 322 388 424 396 281
0 45 38 64 0 196 0 304 263 191 382 438 291 510 947 879 1131 896 924 866 715 653 612 564 520 512 553 771 710 674 642 666 588 465 466 500 499 462 452 418 322 280 400 427 374 406 339 336 234 94 275 356 358 316 322 266 234 350 323 92 254 397 144
48 111 33 2 48 326 8 293 472 425 443 334 349 831 1245 941 997 1060 912 821 737 736 650 597 579 624 683 702 574 572 601 577 455 326 339 383 385 362 328 286 273 306 306 242 169 27 30 70 133 197 144 95 156 229 294 270 235 69 38 0 0 86 142
53 157 227 183 92 114 181 142 241 171 411 599 678 902 1139 1091 1014 1120 1067 931 726 603 576 624 574 560 527 508 482 548 418 376 309 290 284 299 312 291 259 182 208 200 183 162 170 188 196 197 213 236 210 118 0 0 0 30 124 43 0 0 18 76 104
1 31 89 86 208 298 396 252 233 472 576 497 682 948 1070 969 911 933 959 779 538 689 690 519 478 465 429 359 362 394 378 302 286 271 245 235 213 175 137 116 108 124 48 0 0 0 0 0 0 0 0 0 0 0 0 0 0 0 0 0 0 67 116
29 293 279 322 453 351 308 381 291 346 536 782 854 987 935 1042 997 863 743 688 814 753 696 519 482 464 375 378 405 432 380 316 252 238 161 143 128 98 74 67 72 0 0 0 0 0 0 0 0 0 0 0 0 0 0 0 0 0 0 0 0 0 0
173 468 370 330 387 433 484 459 671 621 715 976 1075 948 832 966 1010 818 550 522 656 565 406 494 436 478 441 417 406 431 398 346 305 258 217 168 132 32 0 0 0 0 0 0 0 0 0 0 0 0 0 0 0 0 0 0 0 0 0 0 0 0 0
229 166 274 445 497 545 552 534 628 776 882 1004 913 935 893 864 977 785 492 540 562 359 598 255 246 175 286 301 310 352 372 331 277 277 265 194 179 139 0 0 0 0 0 0 0 0 0 0 0 0 0 0 0 0 0 0 0 0 0 0 0 0 0
375 429 546 504 602 536 505 539 666 731 826 779 818 789 743 753 742 540 422 384 81 63 160 210 221 179 55 169 189 249 301 294 266 217 193 193 105 107 108 0 0 0 0 0 0 0 0 0 0 0 0 0 0 0 0 0 0 0 0 0 0 0 0
166 657 599 596 1022 742 700 762 680 802 855 1016 1006 843 706 606 362 114 132 42 251 334 76 86 98 529 437 109 55 76 29 44 88 60 42 54 56 36 8 0 0 0 0 0 0 0 0 0 0 0 0 0 0 0 0 0 0 0 0 0 0 0 0
147 278 677 483 705 476 500 688 782 981 1056 1074 715 657 618 653 427 14 92 58 218 248 133 127 142 241 403 342 37 16 10 3 6 0 0 0 0 0 0 0 0 0 0 0 0 0 0 0 0 0 0 0 0 0 0 0 0 0 0 0 0 0 0
288 233 547 437 766 643 610 562 618 788 989 1174 876 831 852 566 212 292 204 49 168 274 363 338 251 20 13 10 96 143 122 87 114 100 97 60 19 9 0 0 3 1 0 0 0 0 0 0 0 0 0 0 0 0 0 0 0 0 0 0 0 0 0

ECMWFFLT2_con_mucape_123.txt.gz
CAPE
0 0 0 0 0 7 206 1 4 1 24 0 12 11 2 0 14 2 12 21 38 140 217 335 142 75 546 780 973 491 183 334 1051 794 632 599 663 89 17 12 24 33 122 268 442 447 692 1082 1158 1139 1225 1047 1189 1778 1863 2070 2308 2327 2322 2390 2324 2478 2599
0 0 0 3 59 5 3 86 196 12 1 0 32 142 198 320 50 60 60 162 4 80 35 295 497 172 688 584 669 552 230 146 408 568 721 970 936 199 31 27 36 29 142 334 428 476 596 819 768 1039 1228 1299 1430 1638 1899 2070 2288 2211 1885 2069 1879 2131 2614
0 0 0 0 260 158 34 46 2 29 330 43 176 124 43 9 1 17 1 13 23 16 172 501 357 193 257 359 658 664 336 81 60 359 902 769 546 296 80 18 31 61 164 341 490 468 588 770 936 809 1114 1246 1550 1703 1712 1916 1935 1948 1548 1532 1490 1742 2017
0 0 0 48 117 33 130 168 105 12 26 183 144 103 161 0 46 24 2 34 32 330 276 200 164 328 166 114 369 851 743 432 141 185 333 839 510 652 229 22 45 59 114 259 502 598 596 654 616 752 1041 1055 1256 1559 1516 1669 1375 1641 1502 1239 1384 1568 1611
0 3 0 0 78 32 40 122 46 135 166 252 170 378 124 45 75 70 25 7 41 734 365 661 841 844 537 224 122 797 1012 695 390 155 192 839 824 694 393 262 117 107 145 197 454 520 532 476 518 588 849 939 1039 1086 1184 1455 1435 1308 1246 1224 1158 1478 1388
3 0 0 0 0 36 40 16 176 162 71 257 184 5 12 23 0 10 4 3 76 248 1001 532 675 501 431 443 264 110 875 776 784 860 599 1146 833 675 584 141 102 154 228 226 552 575 565 792 776 562 554 819 996 1268 1055 1158 1021 1145 1059 1318 1703 1589 1412
2 1 0 0 0 56 136 124 71 38 276 234 291 43 35 49 32 0 0 2 264 506 849 1272 726 658 538 700 506 362 344 1058 1090 945 829 1026 932 1390 585 167 358 471 382 417 666 482 425 685 872 534 944 1148 1268 1637 1647 1186 1170 1335 1242 1350 1566 1761 1757
1 3 0 0 15 0 4 79 162 294 284 169 119 191 272 39 143 2 54 34 444 625 1135 1235 831 870 1052 672 767 922 604 574 1518 1523 754 1160 1692 334 426 1067 645 820 862 589 758 829 1004 1033 889 934 1142 1537 1557 1787 2143 2040 1586 1526 1400 1954 1741 1862 2039
1 0 0 2 6 117 90 104 194 184 178 138 62 127 284 14 9 17 29 22 109 429 890 1108 899 1205 1295 1112 664 916 1266 1188 1222 1481 1155 888 1584 1390 1106 1086 714 782 974 1078 1318 1357 1612 1160 792 1068 1235 1262 1629 1726 1820 2059 2342 2308 1944 1998 2215 2053 2259
9 10 4 27 91 119 4 308 172 129 526 695 48 253 79 59 96 94 73 43 235 557 876 776 786 928 1890 1393 1192 1288 1316 1469 1461 1458 1360 1103 1120 1732 1551 1074 795 895 897 991 1110 978 1383 1863 1363 1895 2138 1550 1980 2142 1938 2016 2408 2531 2546 2231 2359 2616 2565
0 0 0 0 0 0 40 155 246 212 113 118 356 119 58 34 143 167 324 309 282 153 833 651 621 886 1436 1551 1019 1113 808 1290 1440 1464 1516 1570 1469 1552 2083 2018 1189 762 929 701 922 1184 1526 2169 2110 2249 2354 2654 2724 2741 2653 2335 2518 2810 2803 2596 2633 2939 3289
0 0 0 0 6 6 0 0 22 47 137 237 229 24 231 434 163 218 803 642 136 326 428 580 630 948 1292 878 974 909 1090 1103 1107 1358 1862 1657 1337 1287 1468 1574 1276 1436 921 1509 1910 2144 2218 2627 2130 1645 2548 2429 2836 3420 3446 3086 3110 3192 3016 2916 3113 3301 3657
0 0 0 0 107 187 100 55 121 192 131 180 179 139 89 20 241 149 270 946 704 561 520 726 1197 1427 914 743 1412 1438 1138 1252 1244 1214 1067 1083 1387 1677 1271 1438 1289 522 1066 2289 2202 2306 2402 2743 2827 2654 2434 2551 2910 3479 3571 3427 3384 3519 3447 3371 3511 3618 3860
0 0 0 0 0 236 58 32 66 76 118 151 84 53 144 375 158 350 314 418 402 454 508 777 1618 1242 914 1294 1673 1468 1550 1310 1454 1394 1618 1365 1712 928 812 956 990 1324 1059 2033 2465 2380 2743 2788 2890 2822 2870 2974 3068 3336 3662 3511 3565 3573 3628 3581 3611 3534 3485
0 0 0 0 0 0 33 4 11 60 59 131 103 92 72 53 88 26 226 373 332 1008 1230 1491 1933 1194 900 1413 1525 1025 1336 1656 1641 1531 1460 1502 1628 1337 627 491 1035 1118 1059 970 1433 2066 2669 2722 2817 3076 2994 3094 3404 3334 3630 3812 3616 3722 3503 3670 3747 4079 3735
0 0 0 2 0 0 0 0 0 74 112 120 110 113 100 101 321 314 275 150 211 418 977 1377 1831 1518 881 1038 1591 1364 1448 1476 1550 1538 1536 1378 1421 1413 900 997 895 875 726 1190 1392 2175 2248 2502 2755 2883 3050 3113 3226 3336 3449 3516 3637 3536 3570 3503 3556 3881 4032
0 4 14 9 0 0 0 0 13 0 0 9 21 35 432 188 433 375 246 151 729 1068 958 907 1636 888 1113 1128 1372 1401 1295 1450 1413 1330 1216 909 952 901 628 928 1054 1359 1344 1368 1500 2308 2575 2407 2424 2471 2940 3076 3200 3385 3338 3299 3429 3521 3351 3320 3281 3452 3820
0 3 0 0 0 0 146 149 112 74 23 103 182 310 329 101 1100 790 858 780 512 727 739 954 1378 1200 959 1084 968 896 987 1133 1185 1101 1049 1279 782 638 497 751 744 923 1247 1294 1359 1291 1659 2495 2676 2605 2584 2914 3173 3266 3346 3395 3421 3094 2877 2903 2960 2824 3248
0 10 0 0 0 40 73 86 19 40 86 98 80 60 179 227 239 475 693 548 901 765 937 1372 1552 1285 950 892 879 705 774 763 714 890 706 837 635 695 585 548 622 696 750 768 1012 1101 1428 1876 1944 1979 2078 2245 2386 2040 2101 2310 2246 2518 2715 2623 2618 2789 3143
0 0 0 0 0 7 6 0 15 0 0 0 2 40 7 18 110 252 318 755 792 810 1119 1490 1332 1036 945 872 793 645 609 576 532 534 475 474 566 696 592 486 527 593 564 799 856 1111 1107 1508 1427 1774 1989 1915 1986 2166 2038 2066 2193 2171 2265 2429 2432 2100 2258
0 0 0 0 0 0 0 0 11 5 1 53 68 80 308 390 362 883 1247 816 955 1100 1618 1521 1405 1331 878 1147 728 627 552 652 594 470 491 462 421 494 368 397 337 428 610 665 653 627 873 1122 1395 1384 1610 1591 1517 1677 1734 1826 1762 2476 2462 2763 2594 2646 2772
0 0 0 0 0 5 0 0 0 0 0 0 18 134 147 77 178 584 1054 993 582 1236 1641 1586 1404 1094 890 680 751 598 604 604 537 490 518 496 480 457 446 413 424 506 442 498 483 675 742 725 822 828 939 1155 1137 1103 1246 1245 1212 1418 1353 1478 1480 1612 2097
0 0 0 0 0 8 13 100 43 51 0 32 7 5 20 511 673 441 409 660 1334 1422 1543 1300 1309 1273 1004 791 869 619 561 629 626 584 563 586 423 467 444 338 308 372 463 458 502 560 674 739 790 765 909 910 876 909 987 966 927 938 955 1014 979 934 1208
0 0 0 0 0 2 36 0 0 6 56 8 2 3 122 278 586 593 800 940 1209 869 871 1103 1114 1313 885 569 592 492 608 663 665 738 712 601 501 491 402 352 376 374 417 403 461 506 511 542 515 620 759 806 842 846 850 865 839 801 805 835 812 802 729
0 0 0 0 0 0 19 115 68 28 91 36 0 76 574 627 534 794 699 903 792 761 1043 1208 1471 857 930 826 702 516 693 656 656 633 620 590 474 508 486 443 399 318 344 400 486 572 484 500 527 508 494 521 561 598 667 684 647 554 434 376 343 368 380
0 4 3 6 2 599 267 123 15 176 30 0 20 382 487 1376 1073 778 894 1285 1167 1331 1223 924 1025 990 830 857 588 543 633 552 584 582 593 506 439 487 485 456 391 349 349 379 427 420 387 390 436 438 454 462 473 401 390 305 184 12 164 221 233 183 172
0 0 0 0 0 495 56 188 40 149 0 797 217 654 1214 821 858 866 1342 1342 1337 1263 781 675 937 977 852 756 630 540 566 629 566 621 676 549 486 378 493 445 446 466 455 411 443 445 369 344 342 398 442 354 303 309 253 129 108 144 165 213 233 270 234
8 2 0 80 490 131 287 19 90 760 956 854 921 505 648 988 805 1174 1431 1536 1389 1283 1107 739 830 768 783 640 426 418 495 507 606 628 668 508 425 321 296 478 455 504 469 441 390 396 326 307 303 314 348 298 299 297 199 131 118 163 234 252 292 289 267
0 0 9 191 161 383 353 148 210 322 1172 1077 824 476 180 172 704 1296 903 1412 1643 1669 1494 1050 837 1149 715 539 363 389 375 460 561 489 430 505 576 357 267 456 438 471 484 452 414 374 298 236 238 258 293 309 297 236 205 190 3 120 130 179 249 257 237
0 0 0 156 79 50 175 123 323 430 927 458 363 502 392 1363 1615 1302 1222 1342 1768 1702 1781 1491 1061 724 596 477 359 90 336 318 303 303 459 506 422 322 362 418 339 344 348 374 374 309 251 213 190 217 184 238 243 204 194 174 102 108 124 123 122 150 158
1 9 60 63 83 204 449 272 653 1185 1124 558 571 637 821 909 1100 1432 1486 1710 1744 1839 1606 1002 817 678 527 504 369 4 56 100 40 186 325 354 446 458 432 373 308 262 238 217 196 26 168 53 120 97 0 17 113 114 131 188 174 135 0 14 17 76 76
1 3 502 497 544 480 468 149 286 892 1032 1110 1325 1132 994 1129 1314 1427 1498 1464 1476 1291 1248 819 830 650 482 400 223 44 4 17 81 235 206 299 237 380 423 390 300 294 273 255 30 0 0 123 0 68 0 0 0 8 45 0 0 41 0 0 0 0 0
0 0 54 115 263 232 718 775 429 880 985 1119 1325 1187 1216 1194 1279 1660 1318 1226 1316 1110 1002 639 509 455 422 272 78 0 0 108 224 218 392 331 379 504 346 345 298 212 303 283 240 196 198 0 21 103 0 0 0 0 0 0 0 0 0 0 0 0 0
15 20 341 418 195 489 820 1222 954 1010 1055 881 1292 1336 1396 1385 1443 1557 1064 978 891 944 804 629 443 328 300 148 116 42 0 26 28 84 58 132 237 212 303 272 242 0 2 0 14 67 0 0 0 0 0 0 0 0 0 0 0 0 0 0 0 0 0
0 8 104 270 235 660 705 945 512 713 653 722 880 1014 1249 1110 1222 1222 1050 852 860 851 702 413 291 292 60 194 0 0 0 13 38 47 60 52 200 214 219 0 0 0 0 0 0 0 0 0 0 0 0 0 0 0 0 0 0 0 0 0 0 0 0
85 102 506 356 352 555 495 393 386 688 987 790 930 991 860 542 836 1011 804 778 719 710 543 292 362 380 271 126 0 0 0 0 2 26 59 120 41 64 113 0 0 7 0 0 0 0 0 0 0 0 0 0 0 0 0 0 0 0 0 0 0 0 0
410 353 430 490 578 376 354 541 775 885 677 686 677 724 516 400 387 1058 586 593 399 430 417 281 279 238 180 2 0 0 0 3 32 112 161 98 14 68 66 89 51 46 25 10 10 6 4 0 0 0 0 0 0 0 0 0 0 1 1 0 0 0 0